# Wetter Temperatur Luftdruck Luftfeuchtigkeit Sichtweite Windgeschwindigkeit Windrichtung Zeit
1 Rain 9 1010 71 10000 3.1 230 19:21 02.04.2020
2 Rain 9 1010 71 10000 3.1 230 18:59 02.04.2020
3 Rain 9 1010 71 10000 3.1 230 18:39 02.04.2020
4 Rain 9 1010 71 10000 3.1 230 18:39 02.04.2020
5 Clouds 9 1010 66 10000 3.6 210 18:20 02.04.2020
6 Clouds 10 1010 66 10000 3.6 210 17:56 02.04.2020
7 Clouds 10 1010 71 10000 3.6 220 17:38 02.04.2020
8 Clouds 10 1010 71 10000 3.6 220 17:19 02.04.2020
9 Clouds 10 1011 76 10000 4.1 230 16:55 02.04.2020
10 Rain 10 1011 71 10000 4.6 220 16:37 02.04.2020
11 Rain 9 1011 71 10000 4.6 220 16:19 02.04.2020
12 Clouds 9 1011 71 10000 3.1 190 15:44 02.04.2020
13 Rain 9 1011 62 10000 3.1 220 15:21 02.04.2020
14 Clouds 9 1011 66 10000 2.1 210 14:59 02.04.2020
15 Clouds 9 1011 66 10000 2.1 210 14:39 02.04.2020
16 Clouds 8 1011 66 10000 2.1 210 14:19 02.04.2020
17 Clouds 8 1011 66 10000 1.5 0 13:56 02.04.2020
18 Clouds 8 1011 71 10000 1.5 190 13:38 02.04.2020
19 Clouds 8 1011 71 10000 1.5 190 13:19 02.04.2020
20 Clouds 8 1011 76 10000 1.5 190 12:48 02.04.2020
21 Clouds 8 1012 81 10000 1.5 0 12:21 02.04.2020
22 Clouds 8 1011 87 10000 1 0 11:58 02.04.2020
23 Clouds 7 1011 87 10000 1 0 11:40 02.04.2020
24 Clouds 7 1011 87 10000 1 0 11:21 02.04.2020
25 Clouds 7 1011 100 10000 1 0 10:58 02.04.2020
26 Clouds 7 1011 100 10000 1 0 10:39 02.04.2020
27 Clouds 6 1010 96 0 1.01 19 10:21 02.04.2020
28 Clouds 6 1010 96 0 1.01 19 09:59 02.04.2020
29 Clouds 6 1010 96 0 1.01 19 09:59 02.04.2020
30 Clouds 6 1010 96 0 1.01 19 09:41 02.04.2020
31 Clouds 6 1010 96 0 1.05 22 09:23 02.04.2020
32 Rain 6 1010 96 0 1.26 37 08:57 02.04.2020
33 Rain 5 1009 96 0 1.26 37 08:38 02.04.2020
34 Rain 5 1009 96 0 1.26 37 08:19 02.04.2020
35 Rain 5 1013 50 0 1.26 37 07:42 02.04.2020
36 Rain 5 1009 96 0 1.26 37 07:19 02.04.2020
37 Rain 5 1009 96 0 1.26 37 06:26 02.04.2020
38 Clouds 5 1009 96 0 0.39 147 05:59 02.04.2020
39 Clouds 5 1012 65 0 0.89 11 05:41 02.04.2020
40 Clouds 5 1010 95 0 0.62 129 02:59 02.04.2020
41 Clouds 6 1011 94 0 0.86 150 01:30 02.04.2020
42 Clouds 5 1004 94 0 0.86 150 00:42 02.04.2020
43 Clouds 5 1011 94 0 0.86 150 00:24 02.04.2020
44 Clouds 6 1005 89 0 0.71 145 23:41 01.04.2020
45 Clouds 6 1011 95 0 0.71 145 23:20 01.04.2020
46 Clouds 6 1011 95 0 0.71 145 22:58 01.04.2020
47 Clouds 6 1011 95 0 0.71 145 22:39 01.04.2020
48 Clouds 6 1005 88 0 0.71 145 22:20 01.04.2020
49 Clouds 6 1005 87 0 0.71 145 21:41 01.04.2020
50 Rain 7 1011 94 0 1.19 172 21:19 01.04.2020
51 Rain 7 1011 94 0 1.19 172 20:57 01.04.2020
52 Rain 7 1010 93 0 1.19 172 20:38 01.04.2020
53 Rain 7 1004 86 0 1.19 172 20:20 01.04.2020
54 Rain 7 1010 92 0 1.19 172 19:58 01.04.2020
55 Rain 6 1011 90 0 1.19 172 19:39 01.04.2020
56 Rain 7 1004 85 0 1.19 172 19:19 01.04.2020
57 Rain 8 1004 85 0 1.19 172 18:42 01.04.2020
58 Rain 8 1004 85 0 1.19 172 18:42 01.04.2020
59 Rain 8 1011 86 0 1.19 172 18:23 01.04.2020
60 Rain 9 1011 87 0 1.7 169 17:57 01.04.2020
61 Rain 9 1011 86 0 1.7 169 17:38 01.04.2020
62 Rain 8 1005 82 0 1.7 169 17:19 01.04.2020
63 Rain 8 1005 82 0 1.7 169 17:19 01.04.2020
64 Rain 9 1011 88 0 1.7 169 16:58 01.04.2020
65 Rain 9 1011 87 0 1.7 169 16:39 01.04.2020
66 Rain 9 1011 87 0 1.7 169 16:39 01.04.2020
67 Rain 9 1005 82 0 1.7 169 16:20 01.04.2020
68 Rain 9 1012 91 0 1.7 169 15:56 01.04.2020
69 Rain 9 1005 81 0 0.89 42 15:37 01.04.2020
70 Clouds 9 1005 83 0 1.75 151 15:18 01.04.2020
71 Clouds 8 1012 85 0 1.79 146 14:40 01.04.2020
72 Clouds 8 1012 81 0 0.45 122 14:22 01.04.2020
73 Clouds 9 1006 81 0 1.34 233 13:59 01.04.2020
74 Clouds 9 1006 81 0 0.45 207 13:40 01.04.2020
75 Clouds 9 1006 82 0 1.82 156 13:20 01.04.2020
76 Clouds 9 1006 82 0 1.82 156 12:59 01.04.2020
77 Clouds 9 1006 84 0 1.34 146 12:40 01.04.2020
78 Clouds 8 1007 83 0 3.13 190 12:21 01.04.2020
79 Clouds 8 1014 23 0 2.24 302 11:56 01.04.2020
80 Clouds 8 1007 84 0 1.79 214 11:37 01.04.2020
81 Clouds 8 1006 84 0 1.79 214 11:37 01.04.2020
82 Clouds 7 1007 85 0 2.68 231 11:18 01.04.2020
83 Clouds 6 1007 88 0 2.68 208 10:39 01.04.2020
84 Clouds 6 1006 88 0 2.24 198 10:21 01.04.2020
85 Clouds 5 1014 95 0 1.91 156 09:59 01.04.2020
86 Clouds 5 1014 95 0 1.91 156 09:59 01.04.2020
87 Clouds 5 1014 96 0 1.91 156 09:40 01.04.2020
88 Clouds 6 1014 61 0 1.46 99 09:20 01.04.2020
89 Clouds 6 1014 62 0 1.29 109 08:44 01.04.2020
90 Clouds 5 1014 96 0 1.29 109 08:19 01.04.2020
91 Clouds 5 1014 96 0 1.29 109 07:56 01.04.2020
92 Clouds 5 1014 96 0 1.29 109 07:38 01.04.2020
93 Clouds 5 1006 93 0 3.13 200 07:18 01.04.2020
94 Clouds 5 1014 95 0 1.29 109 06:39 01.04.2020
95 Clouds 6 1014 52 0 1.31 149 06:20 01.04.2020
96 Clouds 6 1014 95 0 1.31 149 04:55 01.04.2020
97 Clouds 6 1014 95 0 1.31 149 03:36 01.04.2020
98 Clouds 6 1014 95 0 1.41 152 02:59 01.04.2020
99 Clouds 6 1014 95 0 1.63 158 02:24 01.04.2020
100 Clouds 6 1015 95 0 1.63 158 01:43 01.04.2020
101 Clouds 6 1015 95 0 1.63 158 01:23 01.04.2020
102 Clouds 6 1015 95 0 1.63 158 00:47 01.04.2020
103 Clouds 6 1015 95 0 1.63 158 00:21 01.04.2020
104 Clouds 6 1015 94 0 1.5 143 23:49 31.03.2020
105 Clouds 6 1015 94 0 1.5 143 23:28 31.03.2020
106 Clouds 6 1015 94 0 1.5 143 22:59 31.03.2020
107 Clouds 6 1015 94 0 1.5 143 22:38 31.03.2020
108 Clouds 6 1015 93 0 1.5 143 22:20 31.03.2020
109 Clouds 6 1015 93 0 1.5 143 21:57 31.03.2020
110 Clouds 6 1015 93 0 1.5 143 21:39 31.03.2020
111 Clouds 7 1015 24 0 1.57 139 21:20 31.03.2020
112 Clouds 7 1015 24 0 1.57 139 21:20 31.03.2020
113 Clouds 7 1015 24 0 1.57 139 21:20 31.03.2020
114 Clouds 7 1014 90 0 1.54 135 20:56 31.03.2020
115 Clouds 7 1014 88 0 1.54 135 20:37 31.03.2020
116 Clouds 7 1013 86 0 1.54 135 20:18 31.03.2020
117 Clouds 7 1013 86 0 1.54 135 19:42 31.03.2020
118 Clouds 8 1013 85 0 1.54 135 19:24 31.03.2020
119 Clouds 8 1013 84 0 1.54 135 18:59 31.03.2020
120 Clouds 8 1013 83 0 1.54 135 18:41 31.03.2020
121 Rain 9 1013 78 0 1.34 117 18:19 31.03.2020
122 Rain 8 1013 78 0 1.34 79 17:55 31.03.2020
123 Rain 9 1013 79 0 1.82 170 17:37 31.03.2020
124 Rain 9 1013 79 0 1.82 170 17:37 31.03.2020
125 Rain 9 1013 81 0 1.82 170 17:19 31.03.2020
126 Rain 10 1014 77 0 0.89 156 16:41 31.03.2020
127 Rain 10 1014 85 0 1.82 170 16:20 31.03.2020
128 Rain 10 1014 81 0 1.82 170 15:58 31.03.2020
129 Rain 10 1014 81 0 1.82 170 15:58 31.03.2020
130 Rain 10 1014 77 0 0.89 149 15:40 31.03.2020
131 Rain 10 1014 78 0 1.82 170 15:21 31.03.2020
132 Clouds 11 1013 12 0 2.68 323 14:57 31.03.2020
133 Clouds 10 1013 13 0 2.68 253 14:39 31.03.2020
134 Clouds 10 1013 12 0 3.13 267 14:20 31.03.2020
135 Clouds 9 1014 13 0 3.13 259 13:43 31.03.2020
136 Clouds 9 1014 13 0 3.13 296 13:20 31.03.2020
137 Clouds 9 1014 13 0 2.68 290 13:20 31.03.2020
138 Clouds 9 1014 14 0 3.13 322 12:57 31.03.2020
139 Clouds 9 1013 87 0 1.94 168 12:39 31.03.2020
140 Clouds 8 1013 87 0 1.75 155 12:19 31.03.2020
141 Clouds 8 1014 17 0 2.24 16 11:39 31.03.2020
142 Clouds 8 1014 15 0 2.24 345 11:20 31.03.2020
143 Clouds 7 1015 15 0 2.24 250 10:58 31.03.2020
144 Clouds 6 1015 19 0 1.75 155 10:40 31.03.2020
145 Clouds 5 1014 95 0 1.75 155 10:21 31.03.2020
146 Clouds 5 1014 96 0 1.75 155 09:56 31.03.2020
147 Clouds 4 1014 96 0 1.75 155 09:37 31.03.2020
148 Clouds 4 1015 34 0 1.36 112 09:19 31.03.2020
149 Clouds 4 1015 41 0 1.36 112 08:56 31.03.2020
150 Clouds 4 1015 41 0 1.36 112 08:56 31.03.2020
151 Clouds 3 1015 43 0 1.36 112 08:38 31.03.2020
152 Clouds 3 1015 42 0 1.36 112 08:19 31.03.2020
153 Clouds 3 1015 41 0 1.36 112 07:54 31.03.2020
154 Clouds 3 1012 96 0 1.36 112 07:36 31.03.2020
155 Clouds 3 1014 91 0 1.36 112 07:18 31.03.2020
156 Clouds 3 1015 40 0 1.36 112 06:42 31.03.2020
157 Clouds 4 1012 96 0 1.27 122 05:53 31.03.2020
158 Clouds 4 1015 40 0 1.27 122 05:26 31.03.2020
159 Snow 3 1014 95 0 0.78 144 02:57 31.03.2020
160 Clouds 3 1014 95 0 0.63 124 01:47 31.03.2020
161 Clouds 3 1014 95 0 0.63 124 01:27 31.03.2020
162 Clouds 3 1014 95 0 0.63 124 00:44 31.03.2020
163 Clouds 3 1014 95 0 0.63 124 00:23 31.03.2020
164 Snow 3 1014 94 0 1.57 162 23:41 30.03.2020
165 Snow 3 1014 94 0 1.57 162 23:20 30.03.2020
166 Snow 3 1014 94 0 1.57 162 23:20 30.03.2020
167 Snow 3 1014 94 0 1.57 162 22:58 30.03.2020
168 Snow 3 1014 94 0 1.57 162 22:58 30.03.2020
169 Snow 3 1014 94 0 1.57 162 22:39 30.03.2020
170 Snow 3 1014 93 0 1.57 162 22:19 30.03.2020
171 Snow 3 1014 93 0 1.57 162 21:57 30.03.2020
172 Snow 3 1014 93 0 1.57 162 21:38 30.03.2020
173 Snow 3 1013 93 0 1.59 176 21:20 30.03.2020
174 Snow 3 1013 93 0 1.57 162 21:20 30.03.2020
175 Snow 3 1013 92 0 1.33 162 20:58 30.03.2020
176 Snow 3 1013 92 0 1.33 162 20:39 30.03.2020
177 Snow 4 1017 30 0 1.34 246 20:19 30.03.2020
178 Clouds 4 1012 75 10000 2.6 230 19:54 30.03.2020
179 Clouds 4 1012 75 10000 2.6 230 19:36 30.03.2020
180 Clouds 4 1012 75 10000 2.6 230 19:18 30.03.2020
181 Clouds 4 1012 75 10000 2.6 240 18:41 30.03.2020
182 Clouds 4 1012 75 10000 2.6 240 18:23 30.03.2020
183 Clouds 4 1012 81 10000 1 0 17:57 30.03.2020
184 Rain 4 1012 87 8000 1 0 17:39 30.03.2020
185 Rain 4 1012 87 8000 1 0 17:19 30.03.2020
186 Clouds 4 1012 80 6000 3.1 230 16:57 30.03.2020
187 Rain 4 1012 93 6000 3.1 230 16:39 30.03.2020
188 Rain 4 1013 100 6000 4.6 240 16:20 30.03.2020
189 Rain 4 1013 100 6000 4.6 240 15:55 30.03.2020
190 Clouds 4 1013 80 10000 3.6 220 15:37 30.03.2020
191 Clouds 4 1013 80 10000 3.6 220 15:18 30.03.2020
192 Clouds 4 1013 80 10000 3.6 220 14:55 30.03.2020
193 Clouds 4 1013 86 10000 3.6 230 14:36 30.03.2020
194 Clouds 4 1013 86 10000 3.6 230 14:18 30.03.2020
195 Clouds 4 1013 86 10000 3.6 230 13:43 30.03.2020
196 Clouds 4 1013 86 10000 3.6 230 13:21 30.03.2020
197 Clouds 4 1013 86 10000 3.6 230 13:21 30.03.2020
198 Clouds 3 1013 93 10000 5.1 190 12:58 30.03.2020
199 Clouds 3 1013 86 10000 7.2 210 12:40 30.03.2020
200 Clouds 3 1013 86 10000 7.2 210 12:19 30.03.2020
201 Clouds 3 1013 93 9000 6.2 220 11:57 30.03.2020
202 Clouds 3 1012 93 6000 5.7 210 11:38 30.03.2020
203 Clouds 3 1012 93 6000 5.7 210 11:38 30.03.2020
204 Clouds 3 1012 93 6000 5.7 210 11:20 30.03.2020
205 Snow 3 1010 92 0 0.59 99 10:40 30.03.2020
206 Snow 3 1017 51 0 1.34 21 10:22 30.03.2020
207 Snow 3 1010 92 0 0.59 99 09:56 30.03.2020
208 Snow 3 1010 93 0 0.59 99 09:38 30.03.2020
209 Snow 3 1010 92 0 2.33 2 09:18 30.03.2020
210 Snow 3 1016 68 0 2.3 15 08:41 30.03.2020
211 Snow 3 1016 68 0 2.3 15 08:22 30.03.2020
212 Snow 3 1016 68 0 2.3 15 08:22 30.03.2020
213 Snow 3 1009 93 0 2.3 15 07:49 30.03.2020
214 Snow 3 1009 94 0 2.3 15 07:27 30.03.2020
215 Snow 4 1009 93 0 2.3 15 06:54 30.03.2020
216 Snow 4 1016 56 0 2.3 15 06:31 30.03.2020
217 Snow 4 1009 94 0 1.36 11 06:31 30.03.2020
218 Snow 4 1009 94 0 1.36 11 05:52 30.03.2020
219 Snow 5 1016 54 0 1.34 335 05:18 30.03.2020
220 Snow 5 1010 93 0 1.36 11 04:22 30.03.2020
221 Snow 4 1011 92 0 1.36 11 03:34 30.03.2020
222 Rain 6 1012 91 0 1.71 25 02:37 30.03.2020
223 Rain 6 1017 38 0 2.68 295 01:26 30.03.2020
224 Rain 7 1016 88 0 1.51 25 00:33 30.03.2020
225 Clouds 7 1017 29 0 2.68 264 23:59 29.03.2020
226 Clouds 7 1017 29 0 3.13 259 23:41 29.03.2020
227 Clouds 7 1017 28 0 3.58 253 23:22 29.03.2020
228 Clouds 8 1016 84 0 2.17 16 22:57 29.03.2020
229 Clouds 8 1017 26 0 3.13 248 22:37 29.03.2020
230 Clouds 8 1017 21 0 2.24 277 22:18 29.03.2020
231 Clouds 9 1012 56 0 0.89 98 21:40 29.03.2020
232 Clouds 9 1017 14 0 1.34 300 21:21 29.03.2020
233 Rain 9 1017 14 0 2.63 3 20:56 29.03.2020
234 Rain 10 1017 14 0 2.63 3 20:38 29.03.2020
235 Clouds 10 1013 49 10000 3.1 0 20:19 29.03.2020
236 Clouds 10 1013 49 10000 3.1 0 19:58 29.03.2020
237 Clouds 10 1013 49 10000 3.1 0 19:40 29.03.2020
238 Clouds 11 1013 49 10000 3.1 0 19:22 29.03.2020
239 Clouds 12 1012 30 10000 6.2 310 18:57 29.03.2020
240 Clouds 12 1012 49 10000 4.1 250 18:38 29.03.2020
241 Clouds 12 1012 40 10000 4.1 250 18:19 29.03.2020
242 Clouds 13 1012 48 10000 5.1 230 17:56 29.03.2020
243 Clouds 14 1012 44 10000 3.1 230 17:37 29.03.2020
244 Clouds 15 1012 44 10000 3.1 230 17:18 29.03.2020
245 Clouds 15 1012 44 10000 2.6 240 16:56 29.03.2020
246 Clouds 15 1012 27 10000 2.1 0 16:38 29.03.2020
247 Clouds 16 1012 27 10000 2.1 0 16:18 29.03.2020
248 Clouds 16 1013 27 10000 3.1 70 15:41 29.03.2020
249 Clouds 15 1013 27 10000 3.1 70 15:23 29.03.2020
250 Clouds 15 1013 27 10000 3.1 70 15:23 29.03.2020
251 Clouds 16 1013 25 10000 1.5 0 14:57 29.03.2020
252 Clouds 16 1014 29 10000 1.5 160 14:39 29.03.2020
253 Clouds 16 1014 29 10000 1.5 160 14:20 29.03.2020
254 Clouds 16 1014 29 10000 1.5 160 13:57 29.03.2020
255 Clouds 16 1014 29 10000 1.5 160 13:57 29.03.2020
256 Clouds 15 1014 30 10000 1 0 13:39 29.03.2020
257 Clouds 15 1014 30 10000 1 0 13:19 29.03.2020
258 Clouds 14 1015 47 10000 1 0 12:55 29.03.2020
259 Clouds 13 1016 53 10000 1 0 12:37 29.03.2020
260 Clouds 13 1016 61 10000 0.5 0 12:18 29.03.2020
261 Clouds 12 1016 65 10000 0.5 0 11:40 29.03.2020
262 Clouds 11 1017 75 10000 1 0 11:21 29.03.2020
263 Clouds 11 1017 75 10000 1 0 10:59 29.03.2020
264 Clouds 9 1017 75 10000 1.5 60 10:38 29.03.2020
265 Clouds 8 1017 75 10000 1.5 60 10:18 29.03.2020
266 Clouds 7 1016 66 0 2.61 8 09:40 29.03.2020
267 Clouds 4 1010 70 0 0.45 0 09:19 29.03.2020
268 Clouds 3 1010 72 0 0.45 204 08:53 29.03.2020
269 Clouds 3 1020 47 0 3.34 20 08:28 29.03.2020
270 Clouds 3 1020 47 0 3.34 20 08:28 29.03.2020
271 Clouds 3 1010 76 0 3.34 20 07:58 29.03.2020
272 Clouds 3 1010 76 0 3.34 20 07:58 29.03.2020
273 Clouds 3 1016 75 0 3.34 20 07:39 29.03.2020
274 Clouds 3 1016 75 0 3.34 20 07:39 29.03.2020
275 Clouds 3 1009 77 0 0.89 7 07:20 29.03.2020
276 Clear 3 1010 87 0 2.67 21 04:59 29.03.2020
277 Clear 3 1010 87 0 2.67 21 04:59 29.03.2020
278 Clear 4 1020 37 0 2.67 21 03:48 29.03.2020
279 Clear 4 1020 34 0 2.67 21 03:26 29.03.2020
280 Clouds 4 1011 90 0 2.62 25 01:50 29.03.2020
281 Clouds 4 1011 89 0 2.6 20 01:23 29.03.2020
282 Clouds 4 1011 87 0 2.6 20 00:53 29.03.2020
283 Clouds 4 1011 89 0 2.6 20 00:29 29.03.2020
284 Clouds 5 1012 85 0 2.6 20 23:42 28.03.2020
285 Clouds 5 1012 85 0 0.45 11 23:23 28.03.2020
286 Clouds 5 1011 85 0 2.37 14 22:57 28.03.2020
287 Clouds 6 1021 27 0 2.37 14 22:37 28.03.2020
288 Clouds 6 1021 22 0 2.37 14 22:18 28.03.2020
289 Clouds 5 1012 92 0 1.79 27 21:41 28.03.2020
290 Clouds 7 1020 17 0 2.37 14 21:23 28.03.2020
291 Clouds 7 1020 14 0 2.37 14 20:58 28.03.2020
292 Clouds 6 1011 90 0 0.45 359 20:39 28.03.2020
293 Clouds 9 1019 11 0 1.34 40 20:21 28.03.2020
294 Rain 9 1019 11 0 1.34 301 19:56 28.03.2020
295 Rain 8 1011 85 0 0.89 31 19:37 28.03.2020
296 Rain 11 1017 60 0 1.36 359 19:18 28.03.2020
297 Rain 8 1010 81 0 0.89 1 18:47 28.03.2020
298 Clouds 10 1015 54 10000 3.1 230 18:22 28.03.2020
299 Clouds 11 1015 54 10000 3.1 230 17:58 28.03.2020
300 Clouds 11 1015 54 10000 3.1 230 17:38 28.03.2020
301 Clouds 13 1015 54 10000 3.1 220 17:18 28.03.2020
302 Clouds 11 1016 54 10000 3.6 220 16:42 28.03.2020
303 Clouds 12 1016 54 10000 3.6 220 16:20 28.03.2020
304 Clouds 12 1016 50 10000 3.1 240 15:55 28.03.2020
305 Clouds 12 1016 50 10000 3.1 230 15:37 28.03.2020
306 Clouds 12 1016 50 10000 3.1 230 15:18 28.03.2020
307 Clouds 12 1016 47 10000 4.1 220 14:42 28.03.2020
308 Clouds 12 1016 47 10000 4.1 220 14:22 28.03.2020
309 Clouds 13 1016 41 10000 3.1 220 13:46 28.03.2020
310 Clouds 12 1016 34 10000 3.1 210 13:26 28.03.2020
311 Clouds 14 1017 34 10000 2.1 0 12:57 28.03.2020
312 Clouds 13 1017 34 10000 3.1 220 12:37 28.03.2020
313 Clouds 11 1017 34 10000 3.1 220 12:18 28.03.2020
314 Clouds 12 1017 53 10000 1 0 11:42 28.03.2020
315 Clouds 12 1017 53 10000 1 0 11:42 28.03.2020
316 Clouds 10 1017 53 10000 1 0 11:21 28.03.2020
317 Clouds 10 1017 53 10000 1 0 11:21 28.03.2020
318 Clouds 10 1017 75 10000 1 0 10:41 28.03.2020
319 Clouds 8 1017 75 10000 1 0 10:22 28.03.2020
320 Clouds 9 1017 81 10000 0.5 0 09:59 28.03.2020
321 Clouds 8 1017 80 10000 1 0 09:39 28.03.2020
322 Clouds 7 1017 80 10000 1 0 09:20 28.03.2020
323 Clouds 5 1017 80 0 0.69 190 08:42 28.03.2020
324 Clouds 5 1017 79 0 0.69 190 08:23 28.03.2020
325 Clouds 4 1018 40 0 0.85 45 07:49 28.03.2020
326 Clouds 3 1018 40 0 0.85 45 07:31 28.03.2020
327 Clouds 3 1018 42 0 0.85 45 06:42 28.03.2020
328 Clouds 3 1016 81 0 0.85 45 06:18 28.03.2020
329 Clouds 3 1016 80 0 1.31 56 05:23 28.03.2020
330 Clouds 3 1016 79 0 1.31 56 04:43 28.03.2020
331 Clouds 4 1017 40 0 1.31 56 04:20 28.03.2020
332 Clouds 5 1018 33 0 1.31 56 02:33 28.03.2020
333 Clouds 5 1018 29 0 1.27 50 01:45 28.03.2020
334 Clouds 5 1018 29 0 1.27 50 01:20 28.03.2020
335 Clouds 4 1007 87 0 1.27 50 00:46 28.03.2020
336 Clouds 6 1018 28 0 1.27 50 00:20 28.03.2020
337 Clouds 6 1018 25 0 1.27 50 23:42 27.03.2020
338 Clouds 5 1018 23 0 1.27 50 23:22 27.03.2020
339 Clouds 5 1018 22 0 2.06 29 22:56 27.03.2020
340 Clouds 6 1018 22 0 2.06 29 22:38 27.03.2020
341 Clouds 6 1018 22 0 2.06 29 22:20 27.03.2020
342 Clouds 6 1018 20 0 2.06 29 21:45 27.03.2020
343 Clouds 6 1017 20 0 2.06 29 21:25 27.03.2020
344 Clouds 6 1017 17 0 2.06 29 20:59 27.03.2020
345 Clouds 6 1017 17 0 2.06 29 20:41 27.03.2020
346 Clouds 7 1017 14 0 2.26 35 20:21 27.03.2020
347 Snow 7 1017 14 0 1.52 4 19:58 27.03.2020
348 Snow 7 1016 11 0 1.52 4 19:40 27.03.2020
349 Snow 8 1016 13 0 0.45 103 19:21 27.03.2020
350 Snow 9 1013 54 0 1.52 4 18:45 27.03.2020
351 Clouds 10 1011 53 10000 3.6 230 18:25 27.03.2020
352 Clouds 10 1011 53 10000 3.6 230 17:59 27.03.2020
353 Clouds 10 1011 53 10000 3.6 230 17:39 27.03.2020
354 Clouds 11 1011 40 10000 3.1 230 17:20 27.03.2020
355 Clouds 11 1011 37 10000 3.6 210 16:44 27.03.2020
356 Clouds 11 1011 37 10000 3.6 210 16:25 27.03.2020
357 Clouds 11 1011 34 10000 4.6 220 15:56 27.03.2020
358 Clouds 11 1011 32 10000 1.5 0 15:38 27.03.2020
359 Clouds 7 1013 46 0 0.71 1 15:19 27.03.2020
360 Clouds 7 1013 46 0 0.71 1 14:43 27.03.2020
361 Clouds 7 1013 46 0 0.71 1 14:24 27.03.2020
362 Clouds 8 1014 34 0 1.63 26 13:55 27.03.2020
363 Clouds 8 1014 34 0 1.63 26 13:36 27.03.2020
364 Clouds 9 1014 34 0 1.37 23 13:18 27.03.2020
365 Clouds 8 1014 34 0 1.63 26 13:18 27.03.2020
366 Clouds 9 1014 34 0 1.37 23 12:42 27.03.2020
367 Clouds 9 1014 34 0 1.37 23 12:19 27.03.2020
368 Clouds 6 1015 35 0 1.37 23 11:55 27.03.2020
369 Clouds 6 1015 35 0 1.37 23 11:55 27.03.2020
370 Clouds 9 1014 34 0 1.37 23 11:36 27.03.2020
371 Clouds 5 1015 39 0 2.29 18 11:18 27.03.2020
372 Clouds 4 1015 46 0 2.29 18 10:41 27.03.2020
373 Clouds 2 1015 62 0 2.29 18 10:22 27.03.2020
374 Clouds 1 1015 64 0 2.29 18 09:59 27.03.2020
375 Clouds -1 1015 68 0 2.29 18 09:40 27.03.2020
376 Clouds -1 1015 68 0 2.29 18 09:21 27.03.2020
377 Clouds -2 1015 72 0 2.29 18 08:58 27.03.2020
378 Clouds -2 1015 75 0 2.29 18 08:39 27.03.2020
379 Clouds 5 1016 39 0 2.12 19 08:21 27.03.2020
380 Clear -2 1016 59 0 2.77 27 07:53 27.03.2020
381 Clear -4 1014 75 0 2.77 27 07:28 27.03.2020
382 Clear -4 1014 77 0 2.77 27 06:59 27.03.2020
383 Clear -4 1014 78 0 2.77 27 06:37 27.03.2020
384 Clear -4 1014 79 0 2.77 27 05:38 27.03.2020
385 Clear -4 1013 79 0 2.63 27 02:51 27.03.2020
386 Clouds -3 1013 77 0 2.34 28 01:50 27.03.2020
387 Clouds -3 1013 76 0 2.42 30 00:55 27.03.2020
388 Clouds -3 1013 79 0 2.42 30 00:32 27.03.2020
389 Clouds -3 1013 78 0 2.42 30 23:44 26.03.2020
390 Clouds -3 1013 78 0 2.02 18 23:24 26.03.2020
391 Clouds -3 1013 78 0 2.02 18 22:59 26.03.2020
392 Clouds -3 1013 78 0 2.02 18 22:59 26.03.2020
393 Clouds -3 1013 80 0 2.02 18 22:39 26.03.2020
394 Clouds -2 1013 79 0 2.02 18 22:20 26.03.2020
395 Clouds -2 1013 77 0 2.02 18 21:58 26.03.2020
396 Clouds -2 1012 75 0 2.02 18 21:39 26.03.2020
397 Clouds -2 1015 63 0 2.02 18 21:21 26.03.2020
398 Clouds -2 1015 63 0 2.02 18 20:58 26.03.2020
399 Clouds -2 1012 78 0 2.02 18 20:38 26.03.2020
400 Clouds -2 1012 78 0 2.02 18 20:38 26.03.2020
401 Rain -1 1012 74 0 1.42 25 20:20 26.03.2020
402 Rain -1 1012 74 0 1.42 25 20:20 26.03.2020
403 Rain -1 1012 72 0 1.42 25 19:56 26.03.2020
404 Rain -1 1011 70 0 1.42 25 19:37 26.03.2020
405 Rain 1 1011 62 0 1.42 25 19:19 26.03.2020
406 Rain 0 1012 56 0 1.42 25 18:55 26.03.2020
407 Rain 2 1010 58 0 1.42 25 18:36 26.03.2020
408 Rain 2 1010 58 0 1.42 25 18:18 26.03.2020
409 Rain 2 1010 58 0 1.42 25 17:42 26.03.2020
410 Snow 3 1009 60 0 0.84 26 17:18 26.03.2020
411 Snow 3 1009 55 0 0.84 26 16:45 26.03.2020
412 Snow 3 1009 55 0 0.84 26 16:45 26.03.2020
413 Snow 3 1009 53 0 0.84 26 16:27 26.03.2020
414 Snow 3 1009 54 0 0.84 26 15:58 26.03.2020
415 Snow 4 1009 52 0 0.45 243 15:40 26.03.2020
416 Snow 3 1009 56 0 0.84 26 15:21 26.03.2020
417 Snow 2 1009 58 0 0.84 26 14:57 26.03.2020
418 Snow 3 1009 57 0 0.84 26 14:38 26.03.2020
419 Rain 3 1008 55 0 2.97 26 14:18 26.03.2020
420 Rain 3 1008 60 0 0.45 311 13:41 26.03.2020
421 Rain 2 1008 60 0 3.16 28 13:23 26.03.2020
422 Rain 2 1009 69 0 3.16 28 12:56 26.03.2020
423 Rain 2 1009 73 0 3.16 28 12:37 26.03.2020
424 Rain 1 1009 76 0 3.16 28 12:18 26.03.2020
425 Rain 1 1009 81 0 3.16 28 11:44 26.03.2020
426 Snow 0 1009 84 0 1.45 329 11:20 26.03.2020
427 Snow -1 1009 85 0 1.45 329 10:55 26.03.2020
428 Snow -1 1009 85 0 1.45 329 10:36 26.03.2020
429 Snow 0 1009 89 0 1.45 329 10:18 26.03.2020
430 Snow -1 1009 91 0 1.45 329 09:42 26.03.2020
431 Snow -1 1008 93 0 1.45 329 09:19 26.03.2020
432 Snow -1 1008 93 0 1.45 329 08:44 26.03.2020
433 Snow 4 1011 44 0 0.48 313 08:26 26.03.2020
434 Rain 0 1010 57 0 1.23 11 07:57 26.03.2020
435 Rain -2 1007 93 0 1.23 11 07:38 26.03.2020
436 Rain -2 1007 93 0 1.23 11 07:19 26.03.2020
437 Rain -2 1007 93 0 1.23 11 06:35 26.03.2020
438 Rain 0 1010 57 0 1.23 11 05:51 26.03.2020
439 Clouds -1 1009 94 0 1.57 348 03:47 26.03.2020
440 Clouds -1 1009 94 0 1.57 348 03:18 26.03.2020
441 Clouds -1 1009 94 0 1.57 348 02:50 26.03.2020
442 Rain -1 1011 94 0 1.16 353 01:19 26.03.2020
443 Rain -1 1011 94 0 1.45 3 00:32 26.03.2020
444 Rain -1 1012 94 0 1.45 3 23:44 25.03.2020
445 Rain -1 1012 93 0 1.45 3 23:26 25.03.2020
446 Snow 0 1012 93 0 1.44 356 22:54 25.03.2020
447 Snow 0 1012 92 0 1.44 356 22:36 25.03.2020
448 Snow 0 1012 93 0 1.44 356 22:18 25.03.2020
449 Snow 0 1012 92 0 1.44 356 21:42 25.03.2020
450 Snow 0 1013 92 0 1.44 356 21:23 25.03.2020
451 Snow 0 1013 92 0 1.44 356 20:58 25.03.2020
452 Snow 0 1013 92 0 1.44 356 20:38 25.03.2020
453 Snow 0 1013 92 0 1.44 356 20:38 25.03.2020
454 Snow 0 1012 91 0 0.7 309 20:18 25.03.2020
455 Snow 1 1012 92 0 1.15 273 19:43 25.03.2020
456 Snow 1 1012 91 0 1.15 273 19:24 25.03.2020
457 Snow 1 1012 91 0 1.15 273 18:59 25.03.2020
458 Rain 1 1012 91 0 1.38 268 18:41 25.03.2020
459 Snow 2 1012 89 0 1.15 273 18:23 25.03.2020
460 Rain 2 1012 90 0 1.38 268 17:58 25.03.2020
461 Snow 2 1012 90 0 1.15 273 17:58 25.03.2020
462 Rain 3 1012 85 0 1.38 268 17:39 25.03.2020
463 Snow 3 1012 84 0 1.15 273 17:21 25.03.2020
464 Snow 3 1012 88 0 1.83 257 16:55 25.03.2020
465 Snow 3 1012 85 0 2.15 241 16:36 25.03.2020
466 Snow 4 1012 86 0 1.83 257 16:18 25.03.2020
467 Snow 3 1012 81 0 2.15 241 15:41 25.03.2020
468 Snow 4 1012 82 0 1.83 257 15:20 25.03.2020
469 Snow 3 1012 82 0 1.83 257 14:56 25.03.2020
470 Snow 4 1012 82 0 1.83 257 14:37 25.03.2020
471 Rain 3 1012 84 0 2.13 214 14:18 25.03.2020
472 Rain 2 1013 89 0 2.13 214 13:42 25.03.2020
473 Rain 2 1013 89 0 2.48 215 13:22 25.03.2020
474 Rain 1 1013 93 0 2.13 214 12:38 25.03.2020
475 Rain 1 1013 92 0 2.48 215 12:20 25.03.2020
476 Rain 1 1013 93 0 2.13 214 11:57 25.03.2020
477 Rain 1 1013 93 0 2.48 215 11:38 25.03.2020
478 Snow -1 1013 91 0 2.14 180 11:20 25.03.2020
479 Snow -1 1013 91 0 2.14 180 10:57 25.03.2020
480 Snow -1 1013 91 0 2.14 180 10:39 25.03.2020
481 Snow 0 1013 93 0 2.14 180 10:18 25.03.2020
482 Snow 1 1013 93 0 2.14 180 09:43 25.03.2020
483 Snow 1 1013 93 0 2.14 180 09:24 25.03.2020
484 Snow 3 1018 49 0 2.14 180 08:57 25.03.2020
485 Snow 3 1018 49 0 2.14 180 08:39 25.03.2020
486 Snow 1 1018 55 0 1.56 183 08:19 25.03.2020
487 Snow 1 1018 55 0 1.56 183 07:41 25.03.2020
488 Snow 1 1018 55 0 1.56 183 07:22 25.03.2020
489 Snow 1 1018 55 0 1.56 183 06:50 25.03.2020
490 Snow 1 1018 55 0 1.56 183 06:28 25.03.2020
491 Snow 1 1018 55 0 1.56 183 06:28 25.03.2020
492 Snow 1 1018 55 0 1.56 183 05:56 25.03.2020
493 Snow 1 1018 55 0 1.56 183 05:30 25.03.2020
494 Snow 1 1018 54 0 0.25 286 04:39 25.03.2020
495 Snow 1 1018 54 0 0.25 286 03:36 25.03.2020
496 Snow 1 1018 54 0 0.25 286 02:40 25.03.2020
497 Clear 1 1019 53 0 1.18 15 01:23 25.03.2020
498 Clear 1 1019 53 0 1.18 15 00:49 25.03.2020
499 Clear 1 1019 53 0 1.18 15 00:24 25.03.2020
500 Clear 1 1019 53 0 1.18 15 23:45 24.03.2020
501 Clear 1 1019 53 0 1.18 15 23:26 24.03.2020
502 Clouds 2 1020 52 0 1.99 19 22:57 24.03.2020
503 Clouds 2 1020 52 0 1.99 19 22:38 24.03.2020
504 Clouds 2 1020 52 0 1.99 19 22:19 24.03.2020
505 Clouds 2 1020 52 0 1.99 19 21:56 24.03.2020
506 Clouds 2 1020 52 0 1.99 19 21:37 24.03.2020
507 Clouds 2 1020 52 0 1.99 19 21:18 24.03.2020
508 Clouds 2 1020 52 0 1.99 19 20:43 24.03.2020
509 Clouds 2 1020 52 0 1.99 19 20:24 24.03.2020
510 Clear 6 1019 51 0 0.87 332 19:59 24.03.2020
511 Clear 6 1019 51 0 0.87 332 19:41 24.03.2020
512 Clear 7 1014 53 0 0.87 332 19:19 24.03.2020
513 Clear 6 1019 51 0 0.87 332 18:55 24.03.2020
514 Clear 6 1019 51 0 0.87 332 18:37 24.03.2020
515 Clear 6 1019 51 0 0.87 332 18:18 24.03.2020
516 Clear 6 1019 51 0 0.87 332 18:18 24.03.2020
517 Clear 6 1019 51 0 0.87 332 17:42 24.03.2020
518 Clear 6 1019 51 0 0.87 332 17:23 24.03.2020
519 Snow 8 1009 78 0 0.89 13 16:58 24.03.2020
520 Snow 9 1009 74 0 0.89 11 16:40 24.03.2020
521 Snow 9 1009 74 0 1.79 1 16:22 24.03.2020
522 Snow 9 1009 71 0 1.79 34 15:58 24.03.2020
523 Snow 9 1009 71 0 2.24 350 15:37 24.03.2020
524 Snow 10 1010 69 0 0.89 4 15:19 24.03.2020
525 Snow 10 1010 65 0 1.79 28 14:43 24.03.2020
526 Clear 13 1020 31 0 1.16 326 14:19 24.03.2020
527 Clear 13 1020 31 0 1.16 326 13:44 24.03.2020
528 Clear 13 1019 29 0 1.35 338 13:24 24.03.2020
529 Clear 13 1019 29 0 1.35 338 12:57 24.03.2020
530 Clear 13 1019 29 0 1.35 338 12:37 24.03.2020
531 Clear 13 1019 29 0 1.35 338 12:19 24.03.2020
532 Clear 10 1017 69 0 1.35 338 11:39 24.03.2020
533 Clear 10 1017 70 0 0.87 323 11:20 24.03.2020
534 Clear 9 1017 76 0 0.87 323 10:43 24.03.2020
535 Clear 9 1018 88 0 0.87 323 10:20 24.03.2020
536 Clear 8 1018 93 0 0.87 323 09:59 24.03.2020
537 Clear 8 1018 94 0 0.87 323 09:40 24.03.2020
538 Clear 7 1018 95 0 0.87 323 09:22 24.03.2020
539 Clear 6 1018 96 0 0.87 323 08:39 24.03.2020
540 Clouds 5 1011 90 0 1.07 282 08:20 24.03.2020
541 Clouds 4 1011 86 0 1.06 29 07:48 24.03.2020
542 Clouds 4 1011 91 0 1.06 29 07:25 24.03.2020
543 Clouds 5 1021 76 0 1.06 29 06:58 24.03.2020
544 Clouds 5 1020 73 0 1.06 29 06:31 24.03.2020
545 Clouds 6 1017 95 0 1.06 29 05:22 24.03.2020
546 Clear 5 1020 72 0 1.69 29 04:27 24.03.2020
547 Clear 6 1018 95 0 1.69 29 03:18 24.03.2020
548 Clouds 6 1018 95 0 0.73 14 01:47 24.03.2020
549 Clouds 6 1018 94 0 0.91 29 00:48 24.03.2020
550 Clouds 6 1019 94 0 0.91 29 00:25 24.03.2020
551 Clouds 6 1019 93 0 0.91 29 23:45 23.03.2020
552 Clouds 6 1019 93 0 0.91 29 23:26 23.03.2020
553 Clouds 7 1020 93 0 0.87 79 22:56 23.03.2020
554 Clouds 7 1019 93 0 0.87 79 22:37 23.03.2020
555 Clouds 7 1021 59 0 0.87 79 22:19 23.03.2020
556 Clouds 7 1019 93 0 0.87 79 21:44 23.03.2020
557 Clouds 8 1021 53 0 0.87 79 21:21 23.03.2020
558 Clouds 8 1019 92 0 0.87 79 20:58 23.03.2020
559 Clouds 8 1019 92 0 0.87 79 20:39 23.03.2020
560 Clouds 8 1021 48 0 0.87 79 20:21 23.03.2020
561 Clouds 8 1018 81 10000 1.5 220 19:46 23.03.2020
562 Clouds 9 1018 81 10000 1.5 220 19:27 23.03.2020
563 Clouds 10 1018 81 10000 1.5 220 18:59 23.03.2020
564 Clouds 10 1018 76 10000 3.1 220 18:41 23.03.2020
565 Clouds 10 1018 76 10000 3.1 220 18:21 23.03.2020
566 Clouds 11 1018 76 10000 4.6 220 17:44 23.03.2020
567 Clouds 11 1018 76 10000 4.1 220 17:22 23.03.2020
568 Clouds 11 1018 76 10000 4.1 220 16:59 23.03.2020
569 Clouds 11 1018 76 10000 4.6 240 16:41 23.03.2020
570 Clouds 12 1018 76 10000 4.6 240 16:23 23.03.2020
571 Clouds 12 1018 81 10000 5.1 230 15:42 23.03.2020
572 Clouds 12 1018 81 10000 5.1 230 15:20 23.03.2020
573 Rain 11 1018 87 10000 4.6 220 14:55 23.03.2020
574 Clouds 12 1018 71 10000 5.1 220 14:36 23.03.2020
575 Clouds 12 1018 71 10000 5.1 220 14:36 23.03.2020
576 Clouds 13 1018 71 10000 5.1 220 14:18 23.03.2020
577 Clouds 12 1019 71 10000 4.1 220 13:40 23.03.2020
578 Clouds 13 1019 71 10000 4.1 220 13:21 23.03.2020
579 Clouds 13 1019 62 10000 2.1 200 12:46 23.03.2020
580 Clouds 13 1019 62 10000 2.1 200 12:26 23.03.2020
581 Clouds 13 1019 62 10000 2.1 220 11:59 23.03.2020
582 Clouds 13 1019 62 10000 2.1 220 11:59 23.03.2020
583 Clouds 12 1019 70 10000 1 0 11:40 23.03.2020
584 Clouds 11 1019 70 10000 1.5 0 11:20 23.03.2020
585 Clouds 11 1019 70 10000 1.5 0 10:58 23.03.2020
586 Snow 11 1018 81 0 1.94 171 10:38 23.03.2020
587 Snow 11 1018 81 0 1.94 171 10:38 23.03.2020
588 Snow 11 1020 15 0 2.24 316 10:20 23.03.2020
589 Snow 9 1018 84 0 1.94 171 09:44 23.03.2020
590 Snow 8 1017 87 0 1.94 171 09:21 23.03.2020
591 Snow 8 1017 89 0 1.94 171 08:57 23.03.2020
592 Snow 7 1020 46 0 1.94 171 08:36 23.03.2020
593 Clouds 7 1020 52 0 1.1 98 08:18 23.03.2020
594 Clouds 6 1019 53 0 1.1 98 07:42 23.03.2020
595 Clouds 6 1019 53 0 1.1 98 07:23 23.03.2020
596 Clouds 5 1009 94 0 1.1 98 06:49 23.03.2020
597 Clouds 5 1009 94 0 0.89 162 05:54 23.03.2020
598 Clouds 6 1018 51 0 1.1 98 05:29 23.03.2020
599 Clouds 5 1009 93 0 1.46 87 03:28 23.03.2020
600 Clouds 6 1009 92 0 0.97 146 01:51 23.03.2020
601 Clouds 6 1009 92 0 0.97 146 01:32 23.03.2020
602 Clouds 6 1015 88 0 0.64 118 00:36 23.03.2020
603 Clouds 7 1017 41 0 0.64 118 23:47 22.03.2020
604 Clouds 7 1017 41 0 0.64 118 23:47 22.03.2020
605 Clouds 7 1015 90 0 0.64 118 23:25 22.03.2020
606 Clouds 8 1017 39 0 0.85 139 22:45 22.03.2020
607 Clouds 8 1017 38 0 0.85 139 22:24 22.03.2020
608 Clouds 9 1017 36 0 0.85 139 21:56 22.03.2020
609 Clouds 8 1017 33 0 0.85 139 21:37 22.03.2020
610 Clouds 9 1017 31 0 0.85 139 21:19 22.03.2020
611 Clouds 9 1016 29 0 0.85 139 20:46 22.03.2020
612 Clouds 9 1016 29 0 0.85 139 20:25 22.03.2020
613 Rain 9 1013 90 0 1.11 211 19:58 22.03.2020
614 Rain 9 1013 89 0 1.11 211 19:40 22.03.2020
615 Rain 10 1015 21 0 1.11 211 19:20 22.03.2020
616 Rain 11 1013 87 0 1.11 211 18:59 22.03.2020
617 Rain 11 1012 86 0 1.11 211 18:41 22.03.2020
618 Clouds 11 1012 54 10000 3.6 220 18:22 22.03.2020
619 Clouds 12 1012 54 10000 3.6 220 17:57 22.03.2020
620 Clouds 12 1012 54 10000 3.6 220 17:38 22.03.2020
621 Clouds 13 1012 54 10000 3.6 220 17:20 22.03.2020
622 Clouds 13 1012 50 10000 3.6 220 16:57 22.03.2020
623 Clouds 14 1012 47 10000 4.6 210 16:39 22.03.2020
624 -273 0 0 0 0 0 16:21 22.03.2020
625 Clouds 14 1012 47 10000 4.6 210 16:21 22.03.2020
626 Clouds 14 1012 54 10000 5.1 220 15:40 22.03.2020
627 Clouds 14 1012 54 10000 5.1 220 15:21 22.03.2020
628 Clouds 14 1012 50 10000 5.1 220 14:46 22.03.2020
629 Clouds 14 1012 54 10000 5.7 210 14:19 22.03.2020
630 Clouds 13 1012 50 10000 6.7 210 13:44 22.03.2020
631 Clouds 13 1013 58 10000 5.7 210 13:21 22.03.2020
632 Clouds 13 1013 50 10000 5.1 210 12:59 22.03.2020
633 Clouds 13 1013 54 10000 3.6 220 12:41 22.03.2020
634 Clouds 13 1013 54 10000 3.6 220 12:19 22.03.2020
635 Clouds 12 1013 66 10000 1 0 11:43 22.03.2020
636 Clouds 12 1013 66 10000 1 0 11:43 22.03.2020
637 Clouds 12 1013 66 10000 1 0 11:25 22.03.2020
638 Clouds 11 1013 76 10000 1.5 80 10:58 22.03.2020
639 Clouds 10 1013 75 10000 1.5 70 10:40 22.03.2020
640 Clouds 11 1013 75 10000 1.5 70 10:22 22.03.2020
641 Clouds 11 1013 75 10000 1.5 70 10:22 22.03.2020
642 Clouds 9 1013 87 10000 0.5 0 09:46 22.03.2020
643 Clouds 9 1013 87 10000 0.5 0 09:46 22.03.2020
644 Clouds 8 1013 87 10000 0.5 0 09:27 22.03.2020
645 Clouds 6 1005 95 0 0.45 359 08:48 22.03.2020
646 Clouds 6 1005 95 0 0.45 359 08:48 22.03.2020
647 Clouds 6 1004 96 0 0.45 28 08:30 22.03.2020
648 Clouds 5 1004 95 0 0.78 75 07:55 22.03.2020
649 -273 0 0 0 0 0 07:37 22.03.2020
650 Clouds 5 1010 86 0 0.78 75 06:41 22.03.2020
651 Clouds 6 1013 42 0 0.78 75 05:47 22.03.2020
652 Clouds 6 1012 41 0 1.11 31 04:39 22.03.2020
653 Clouds 7 1012 39 0 0.1 69 01:45 22.03.2020
654 Clouds 7 1012 40 0 0.22 134 00:49 22.03.2020
655 Clouds 7 1013 38 0 0.22 134 00:30 22.03.2020
656 Clouds 8 1013 37 0 0.22 134 23:45 21.03.2020
657 Clouds 8 1013 36 0 0.22 134 23:22 21.03.2020
658 Clouds 8 1013 33 0 0.5 159 22:58 21.03.2020
659 Clouds 9 1013 33 0 0.5 159 22:37 21.03.2020
660 Clouds 9 1013 30 0 0.5 159 22:19 21.03.2020
661 Clouds 9 1011 70 0 0.5 159 21:57 21.03.2020
662 Clouds 10 1011 70 0 0.5 159 21:38 21.03.2020
663 Clouds 10 1011 68 0 0.5 159 21:18 21.03.2020
664 Clouds 11 1008 58 0 0.45 45 20:42 21.03.2020
665 Clouds 10 1008 59 0 1.34 22 20:21 21.03.2020
666 Clouds 11 1010 63 0 1.62 212 19:54 21.03.2020
667 Clouds 10 1008 55 0 2.68 225 19:36 21.03.2020
668 Clouds 11 1010 65 0 1.62 212 19:18 21.03.2020
669 Clouds 12 1009 59 0 1.62 212 18:40 21.03.2020
670 Clouds 13 1010 44 10000 6.2 210 18:20 21.03.2020
671 Clouds 13 1010 44 10000 6.2 210 17:58 21.03.2020
672 Clouds 13 1010 44 10000 6.2 210 17:39 21.03.2020
673 Clouds 13 1010 44 10000 6.2 210 17:21 21.03.2020
674 Clouds 14 1010 44 10000 5.7 210 16:42 21.03.2020
675 Clouds 15 1011 41 10000 5.1 220 16:22 21.03.2020
676 Clouds 15 1011 41 10000 5.1 220 15:58 21.03.2020
677 Clouds 15 1011 44 10000 5.7 210 15:39 21.03.2020
678 Clouds 15 1011 44 10000 5.7 210 15:21 21.03.2020
679 Clouds 15 1011 41 10000 6.2 210 14:55 21.03.2020
680 Clouds 15 1012 41 10000 4.6 220 14:37 21.03.2020
681 Clouds 15 1012 41 10000 4.6 220 14:18 21.03.2020
682 Clouds 15 1012 41 10000 3.6 230 13:57 21.03.2020
683 Clouds 15 1013 37 10000 3.1 220 13:38 21.03.2020
684 Clouds 15 1013 50 10000 2.1 0 13:19 21.03.2020
685 Clouds 14 1014 61 10000 2.1 0 12:41 21.03.2020
686 Clouds 13 1014 61 10000 1 0 12:20 21.03.2020
687 Clouds 13 1014 61 10000 1 0 11:59 21.03.2020
688 Clouds 13 1015 66 10000 1 0 11:39 21.03.2020
689 Clouds 11 1015 75 10000 1 0 11:20 21.03.2020
690 Clouds 10 1015 75 10000 1 0 10:58 21.03.2020
691 Clouds 10 1015 81 10000 1.7 191 10:39 21.03.2020
692 Clouds 9 1015 81 10000 1.7 191 10:21 21.03.2020
693 Clouds 8 1016 93 10000 0.5 0 09:59 21.03.2020
694 Clouds 6 1016 100 10000 0.5 0 09:39 21.03.2020
695 Clouds 5 1016 100 10000 0.5 0 09:20 21.03.2020
696 Clouds 5 1007 82 0 1.7 191 08:55 21.03.2020
697 Clouds 4 1013 91 0 1.7 191 08:37 21.03.2020
698 Clouds 3 1006 88 0 0.62 73 08:18 21.03.2020
699 Clouds 2 1013 91 0 0.62 73 07:37 21.03.2020
700 Clouds 2 1006 89 0 0.62 73 07:18 21.03.2020
701 Clouds 1 1013 90 0 0.62 73 06:42 21.03.2020
702 Clouds 2 1007 87 0 0.62 73 06:23 21.03.2020
703 Clouds 2 1007 88 0 0.62 73 05:39 21.03.2020
704 Clouds 3 1013 87 0 0.61 52 03:39 21.03.2020
705 Clouds 4 1015 90 0 0.61 52 02:36 21.03.2020
706 Clouds 4 1015 79 0 1.34 90 01:43 21.03.2020
707 Clouds 4 1015 88 0 0.66 113 01:22 21.03.2020
708 Clouds 5 1013 84 0 1.34 67 00:39 21.03.2020
709 Clouds 5 1015 90 0 0.66 113 00:20 21.03.2020
710 Clouds 6 1015 89 0 0.66 113 23:41 20.03.2020
711 Clouds 7 1017 30 0 0.62 61 23:20 20.03.2020
712 Clouds 7 1017 28 0 0.62 61 22:44 20.03.2020
713 Clouds 7 1017 27 0 0.62 61 22:24 20.03.2020
714 Clouds 8 1017 27 0 0.62 61 21:58 20.03.2020
715 Clouds 8 1017 24 0 0.62 61 21:39 20.03.2020
716 Clouds 8 1017 66 0 0.45 162 21:19 20.03.2020
717 Clouds 9 1016 75 0 0.62 61 20:57 20.03.2020
718 Clouds 9 1012 45 0 0.45 315 20:39 20.03.2020
719 Clouds 10 1016 70 0 1.29 211 20:18 20.03.2020
720 Clouds 11 1015 77 0 1.29 211 19:46 20.03.2020
721 Clouds 10 1015 62 0 1.29 211 19:19 20.03.2020
722 Clouds 11 1015 65 0 0.45 115 18:56 20.03.2020
723 Clouds 12 1012 39 0 1.34 225 18:37 20.03.2020
724 Clouds 13 1017 41 10000 5.7 210 18:19 20.03.2020
725 Clouds 14 1017 41 10000 5.7 210 17:40 20.03.2020
726 Clouds 14 1017 41 10000 5.7 210 17:21 20.03.2020
727 Clouds 15 1017 41 10000 6.2 210 16:59 20.03.2020
728 Clouds 15 1017 38 10000 6.2 210 16:41 20.03.2020
729 Clouds 16 1017 38 10000 6.2 210 16:19 20.03.2020
730 Clouds 16 1017 38 10000 5.7 200 15:43 20.03.2020
731 Clouds 16 1017 38 10000 5.7 200 15:22 20.03.2020
732 Clouds 16 1017 41 10000 5.7 200 14:56 20.03.2020
733 Clouds 16 1018 44 10000 5.1 200 14:38 20.03.2020
734 Clouds 16 1018 44 10000 5.1 200 14:19 20.03.2020
735 Clouds 16 1018 41 10000 4.6 210 13:45 20.03.2020
736 Clouds 16 1018 44 10000 3.6 230 13:19 20.03.2020
737 Clouds 15 1019 54 10000 3.1 220 12:41 20.03.2020
738 Clouds 15 1019 54 10000 3.1 220 12:23 20.03.2020
739 Clouds 14 1019 62 10000 2.1 210 11:59 20.03.2020
740 Clouds 13 1020 57 10000 1 0 11:38 20.03.2020
741 Clouds 12 1020 66 10000 1 0 11:19 20.03.2020
742 Clouds 11 1020 75 10000 1 0 10:42 20.03.2020
743 Clouds 10 1020 75 10000 1 0 10:21 20.03.2020
744 Clouds 10 1020 75 10000 0.5 0 10:00 20.03.2020
745 Clouds 8 1020 81 10000 1 0 09:41 20.03.2020
746 Clouds 7 1020 81 10000 1 0 09:19 20.03.2020
747 Clouds 6 1017 87 0 2.05 188 08:43 20.03.2020
748 Clouds 5 1017 87 0 2.19 189 08:22 20.03.2020
749 Clouds 4 1011 80 0 0.68 95 07:57 20.03.2020
750 Clouds 4 1011 82 0 0.89 260 07:38 20.03.2020
751 Clouds 4 1011 83 0 0.45 228 07:19 20.03.2020
752 Clouds 4 1017 89 0 0.68 95 06:41 20.03.2020
753 Clouds 5 1017 93 0 0.67 126 04:54 20.03.2020
754 Clouds 5 1018 38 0 0.67 126 03:50 20.03.2020
755 Clouds 6 1019 37 0 0.74 143 02:21 20.03.2020
756 Clouds 6 1018 83 0 0.7 142 01:33 20.03.2020
757 Clouds 6 1019 33 0 0.7 142 00:33 20.03.2020
758 Clouds 7 1019 32 0 0.7 142 23:49 19.03.2020
759 Clouds 7 1019 29 0 0.7 142 23:30 19.03.2020
760 Clouds 7 1018 77 0 0.63 122 22:57 19.03.2020
761 Clouds 8 1020 30 0 0.63 122 22:38 19.03.2020
762 Clouds 8 1020 28 0 0.63 122 22:20 19.03.2020
763 Clouds 9 1019 27 0 0.63 122 21:42 19.03.2020
764 Clouds 9 1015 50 0 0.63 122 21:20 19.03.2020
765 Clouds 10 1019 78 0 0.63 122 21:00 19.03.2020
766 Clouds 10 1019 77 0 0.63 122 20:41 19.03.2020
767 Clear 11 1020 17 0 0.63 140 20:23 19.03.2020
768 Clouds 11 1020 50 10000 7.2 210 19:55 19.03.2020
769 Clouds 11 1020 50 10000 7.2 210 19:55 19.03.2020
770 Clouds 12 1020 50 10000 7.2 210 19:37 19.03.2020
771 Clouds 12 1020 50 10000 7.2 210 19:19 19.03.2020
772 Clouds 13 1020 50 10000 7.2 210 18:54 19.03.2020
773 Clouds 13 1020 47 10000 5.7 210 18:36 19.03.2020
774 Clouds 14 1020 41 10000 5.7 210 18:18 19.03.2020
775 Clouds 16 1020 36 10000 6.7 210 17:41 19.03.2020
776 Clouds 16 1020 33 10000 6.7 210 17:19 19.03.2020
777 Clouds 17 1020 31 10000 6.7 210 16:44 19.03.2020
778 Clouds 17 1020 31 10000 6.7 210 16:24 19.03.2020
779 Clouds 17 1020 31 10000 6.7 200 15:46 19.03.2020
780 Clouds 18 1020 34 10000 6.2 200 15:27 19.03.2020
781 Clouds 18 1021 39 10000 5.1 210 14:58 19.03.2020
782 Clouds 18 1021 45 10000 4.6 220 14:40 19.03.2020
783 Clouds 18 1021 45 10000 4.6 220 14:19 19.03.2020
784 Clouds 17 1022 54 10000 2.1 220 13:40 19.03.2020
785 Clouds 17 1022 54 10000 2.1 220 13:19 19.03.2020
786 Clear 17 1023 54 10000 1 0 12:55 19.03.2020
787 Clear 16 1023 62 10000 1 0 12:37 19.03.2020
788 Clear 16 1023 62 10000 1 0 12:18 19.03.2020
789 Clear 15 1024 71 10000 1 0 11:41 19.03.2020
790 Clear 14 1024 71 10000 1 0 11:23 19.03.2020
791 Clear 13 1025 70 10000 1.5 80 10:56 19.03.2020
792 Clear 13 1022 70 0 1.52 162 10:36 19.03.2020
793 Clear 12 1022 74 0 1.52 162 10:18 19.03.2020
794 Clear 11 1022 80 0 1.52 162 09:44 19.03.2020
795 Clear 10 1022 83 0 1.52 162 09:25 19.03.2020
796 Clear 7 1017 62 0 3.13 215 08:48 19.03.2020
797 Clear 5 1022 87 0 1.42 165 08:23 19.03.2020
798 Clear 5 1017 69 0 2.24 201 07:57 19.03.2020
799 Clear 5 1017 82 0 1.79 205 07:38 19.03.2020
800 Clear 5 1017 65 0 1.79 198 07:18 19.03.2020
801 Clear 5 1017 64 0 0.89 212 06:23 19.03.2020
802 Clear 5 1022 87 0 1 67 05:24 19.03.2020
803 Clear 5 1017 78 0 0.89 208 04:46 19.03.2020
804 Clear 6 1018 56 0 1.34 231 03:44 19.03.2020
805 Clouds 6 1019 88 0 0.7 76 01:45 19.03.2020
806 Clouds 7 1023 87 0 0.29 65 00:39 19.03.2020
807 Clouds 7 1020 90 0 0.29 65 00:18 19.03.2020
808 Clouds 7 1024 89 0 0.29 65 23:41 18.03.2020
809 Clouds 8 1020 90 0 0.29 65 23:21 18.03.2020
810 Rain 8 1021 89 0 0.53 112 22:42 18.03.2020
811 Rain 8 1024 86 0 0.53 112 22:22 18.03.2020
812 Rain 9 1024 85 0 0.53 112 21:55 18.03.2020
813 Rain 9 1024 85 0 0.53 112 21:37 18.03.2020
814 Rain 9 1021 88 0 0.53 112 21:19 18.03.2020
815 Rain 9 1024 85 0 0.53 112 20:54 18.03.2020
816 Rain 10 1021 89 0 0.53 112 20:36 18.03.2020
817 Rain 10 1021 87 0 0.83 43 20:18 18.03.2020
818 Rain 11 1024 83 0 0.83 43 19:40 18.03.2020
819 Rain 12 1023 80 0 0.83 43 19:21 18.03.2020
820 Rain 13 1023 79 0 0.83 43 18:56 18.03.2020
821 Rain 13 1023 76 0 0.83 43 18:37 18.03.2020
822 Rain 14 1023 72 0 0.83 43 18:18 18.03.2020
823 Rain 14 1023 67 0 0.83 43 17:41 18.03.2020
824 Rain 15 1023 67 0 0.83 43 17:22 18.03.2020
825 Rain 16 1024 12 0 0.89 1 16:59 18.03.2020
826 Rain 16 1024 12 0 0.89 1 16:59 18.03.2020
827 Rain 16 1024 9 0 0.89 1 16:40 18.03.2020
828 Rain 16 1024 12 0 2.68 340 16:20 18.03.2020
829 Rain 16 1025 11 0 2.68 340 15:56 18.03.2020
830 Rain 16 1025 12 0 2.68 340 15:37 18.03.2020
831 Rain 16 1023 55 0 0.6 296 15:18 18.03.2020
832 Rain 16 1025 12 0 2.68 340 14:42 18.03.2020
833 Clouds 16 1025 10 0 2.68 340 14:21 18.03.2020
834 Clouds 16 1025 66 0 0.52 234 13:40 18.03.2020
835 Clouds 15 1026 10 0 2.68 298 13:19 18.03.2020
836 Clouds 15 1026 73 0 0.66 221 12:43 18.03.2020
837 Clouds 14 1026 78 0 0.66 221 12:21 18.03.2020
838 Clouds 14 1026 78 0 0.66 221 11:58 18.03.2020
839 Clouds 13 1027 13 0 1.34 349 11:37 18.03.2020
840 Clear 11 1027 91 0 0.46 36 11:18 18.03.2020
841 Clear 12 1027 80 0 0.46 36 10:55 18.03.2020
842 Clear 11 1028 22 0 0.46 36 10:36 18.03.2020
843 Clear 11 1028 22 0 0.46 36 10:36 18.03.2020
844 Clear 9 1023 77 0 0.46 36 10:18 18.03.2020
845 Clear 8 1027 83 0 0.46 36 09:41 18.03.2020
846 Clear 8 1027 87 0 0.46 36 09:22 18.03.2020
847 Clear 6 1027 90 0 0.46 36 08:40 18.03.2020
848 Clear 6 1027 90 0 0.46 36 08:21 18.03.2020
849 Clouds 5 1023 88 0 2.19 30 07:49 18.03.2020
850 Clouds 5 1023 88 0 2.19 30 07:31 18.03.2020
851 Clouds 5 1027 90 0 2.19 30 06:55 18.03.2020
852 Clouds 5 1023 89 0 2.19 30 06:37 18.03.2020
853 Clouds 6 1023 91 0 2.19 30 05:37 18.03.2020
854 Clouds 6 1023 91 0 2.14 27 04:32 18.03.2020
855 Clouds 6 1023 92 0 2.14 27 03:21 18.03.2020
856 Clouds 6 1024 93 0 2.14 27 02:35 18.03.2020
857 Clouds 7 1024 93 0 2.03 29 01:32 18.03.2020
858 Clouds 7 1029 90 0 2.33 29 00:42 18.03.2020
859 Clouds 7 1029 90 0 2.33 29 00:42 18.03.2020
860 Clouds 7 1024 91 0 2.31 26 00:21 18.03.2020
861 Clouds 8 1030 90 0 2.31 26 23:40 17.03.2020
862 Rain 8 1031 46 0 1.41 24 23:19 17.03.2020
863 Rain 9 1030 89 0 1.41 24 22:42 17.03.2020
864 Rain 9 1030 89 0 1.41 24 22:24 17.03.2020
865 Rain 9 1030 89 0 1.41 24 21:42 17.03.2020
866 Rain 9 1031 41 0 1.41 24 21:22 17.03.2020
867 Rain 9 1030 88 0 1.41 24 20:56 17.03.2020
868 Rain 10 1031 41 0 1.41 24 20:37 17.03.2020
869 Rain 10 1030 41 0 0.66 212 20:18 17.03.2020
870 Rain 10 1029 88 0 0.66 212 19:41 17.03.2020
871 Rain 11 1030 38 0 0.66 212 19:18 17.03.2020
872 Rain 11 1029 86 0 0.66 212 18:56 17.03.2020
873 Rain 11 1029 87 0 0.66 212 18:38 17.03.2020
874 Rain 11 1029 36 0 1.34 307 18:20 17.03.2020
875 Rain 12 1029 87 0 0.66 212 17:41 17.03.2020
876 Rain 12 1029 87 0 0.66 212 17:41 17.03.2020
877 Rain 12 1029 86 0 0.66 212 17:22 17.03.2020
878 Rain 12 1029 86 0 2.07 209 16:55 17.03.2020
879 Rain 12 1029 86 0 2.07 209 16:55 17.03.2020
880 Rain 12 1029 82 0 2.07 209 16:37 17.03.2020
881 Rain 12 1028 29 0 2.24 304 16:18 17.03.2020
882 Rain 12 1029 86 0 2.07 209 15:43 17.03.2020
883 Rain 12 1029 86 0 2.07 209 15:43 17.03.2020
884 Rain 12 1028 26 0 1.34 281 15:21 17.03.2020
885 Rain 12 1029 83 0 2.07 209 14:43 17.03.2020
886 Rain 12 1028 25 0 1.9 190 14:21 17.03.2020
887 Rain 12 1030 86 0 1.9 190 13:45 17.03.2020
888 Rain 11 1030 87 0 1.9 190 13:27 17.03.2020
889 Rain 11 1030 86 0 1.23 175 12:58 17.03.2020
890 Rain 11 1030 89 0 2.33 206 12:40 17.03.2020
891 Rain 11 1029 27 0 2.33 206 12:22 17.03.2020
892 Rain 11 1030 94 0 2.33 206 11:46 17.03.2020
893 Rain 10 1030 94 0 1.23 175 11:46 17.03.2020
894 Rain 10 1030 94 0 2.33 206 11:28 17.03.2020
895 Clouds 10 1030 95 0 1.67 169 10:58 17.03.2020
896 Clouds 10 1030 95 0 1.07 129 10:38 17.03.2020
897 Clouds 9 1029 48 0 1.67 169 10:20 17.03.2020
898 Clouds 9 1029 73 0 1.07 129 09:55 17.03.2020
899 Clouds 9 1030 95 0 1.67 169 09:55 17.03.2020
900 Clouds 8 1029 75 0 1.67 169 09:36 17.03.2020
901 Clouds 8 1029 76 0 1.07 129 09:18 17.03.2020
902 Clouds 8 1029 95 0 1.67 169 08:42 17.03.2020
903 Clouds 8 1027 94 0 1.07 129 08:21 17.03.2020
904 Clouds 7 1028 78 0 1.31 106 07:49 17.03.2020
905 Clouds 7 1028 80 0 1.31 106 07:24 17.03.2020
906 Clouds 7 1028 95 0 1.31 106 06:56 17.03.2020
907 Clouds 7 1028 95 0 1.31 106 06:33 17.03.2020
908 Clouds 7 1027 95 0 1.31 106 05:38 17.03.2020
909 Clouds 7 1026 80 0 1.71 105 03:36 17.03.2020
910 Clouds 7 1018 95 0 0.45 180 02:38 17.03.2020
911 Rain 6 1017 95 0 3.13 203 01:41 17.03.2020
912 Rain 6 1017 95 0 2.24 170 01:18 17.03.2020
913 Rain 7 1017 95 0 0.89 214 00:19 17.03.2020
914 Rain 7 1017 95 0 2.24 194 23:43 16.03.2020
915 Rain 6 1025 96 0 2.04 106 23:22 16.03.2020
916 Rain 7 1016 95 0 3.13 215 22:38 16.03.2020
917 Rain 7 1016 95 0 1.34 101 22:20 16.03.2020
918 Rain 7 1016 95 0 1.34 101 21:45 16.03.2020
919 Rain 7 1015 95 0 1.34 101 21:27 16.03.2020
920 Rain 7 1015 95 0 1.34 101 20:59 16.03.2020
921 Rain 7 1014 95 0 1.34 101 20:39 16.03.2020
922 Rain 7 1015 94 0 1.13 32 20:20 16.03.2020
923 Rain 7 1021 100 2000 0.5 0 19:46 16.03.2020
924 Rain 8 1021 100 2000 0.5 0 19:24 16.03.2020
925 Rain 7 1021 100 2000 0.5 0 18:59 16.03.2020
926 Rain 7 1021 100 3000 1.5 0 18:39 16.03.2020
927 Rain 7 1021 100 3000 1.5 0 18:19 16.03.2020
928 Rain 8 1020 100 3000 0.5 0 17:46 16.03.2020
929 Rain 7 1020 100 3000 0.5 0 17:25 16.03.2020
930 Rain 7 1020 100 3000 1.81 90 16:56 16.03.2020
931 Rain 7 1019 100 2000 1.5 230 16:37 16.03.2020
932 Rain 7 1019 100 2000 1.5 230 16:19 16.03.2020
933 Rain 7 1019 100 2000 1 0 15:42 16.03.2020
934 Rain 7 1019 100 2000 1 0 15:23 16.03.2020
935 Rain 7 1019 100 2000 1 0 15:23 16.03.2020
936 Rain 8 1018 100 4000 1.5 310 14:45 16.03.2020
937 Rain 8 1018 93 3500 2.6 250 14:20 16.03.2020
938 Rain 8 1017 100 2500 4.6 300 13:47 16.03.2020
939 Rain 8 1017 93 5000 5.7 320 13:27 16.03.2020
940 Rain 8 1017 87 7000 4.1 320 12:57 16.03.2020
941 Rain 7 1017 87 8000 3.1 320 12:38 16.03.2020
942 Rain 8 1017 87 8000 3.1 320 12:19 16.03.2020
943 Rain 8 1017 81 8000 2.6 80 11:42 16.03.2020
944 Rain 8 1017 81 8000 2.6 80 11:23 16.03.2020
945 Snow 8 1016 91 0 1.9 143 10:43 16.03.2020
946 Snow 7 1013 98 0 1.9 143 10:24 16.03.2020
947 Snow 8 1015 93 0 1.9 143 09:49 16.03.2020
948 Snow 8 1012 98 0 1.9 143 09:30 16.03.2020
949 Snow 8 1015 41 0 0.89 308 08:59 16.03.2020
950 Snow 8 1015 41 0 1.34 301 08:36 16.03.2020
951 Rain 8 1015 41 0 2.24 288 08:18 16.03.2020
952 Rain 8 1014 42 0 0.89 310 07:40 16.03.2020
953 Rain 8 1014 44 0 2.24 239 07:18 16.03.2020
954 Rain 8 1013 46 0 2.15 159 06:28 16.03.2020
955 Rain 8 1013 46 0 0.89 323 05:54 16.03.2020
956 Rain 8 1012 49 0 2.98 183 03:36 16.03.2020
957 Rain 9 1012 41 0 4.71 192 01:29 16.03.2020
958 Rain 9 1012 41 0 4.64 191 00:43 16.03.2020
959 Rain 9 1012 42 0 0.45 284 23:49 15.03.2020
960 Rain 9 1012 40 0 4.64 191 23:23 15.03.2020
961 Rain 9 1012 40 0 1.34 354 22:58 15.03.2020
962 Rain 10 1012 39 0 0.89 246 22:37 15.03.2020
963 Rain 10 1012 38 0 3.81 191 22:19 15.03.2020
964 Rain 10 1013 37 0 1.34 306 21:39 15.03.2020
965 Rain 10 1012 34 0 3.81 191 21:19 15.03.2020
966 Rain 11 1013 32 0 3.81 191 20:43 15.03.2020
967 Rain 11 1013 31 0 2.89 191 20:22 15.03.2020
968 Rain 11 1013 28 0 2.24 242 19:59 15.03.2020
969 Rain 11 1013 28 0 0.89 28 19:40 15.03.2020
970 Rain 11 1013 26 0 2.89 191 19:22 15.03.2020
971 Rain 11 1011 79 0 2.89 191 18:57 15.03.2020
972 Rain 12 1011 78 0 2.89 191 18:38 15.03.2020
973 Clouds 13 1014 58 10000 6.7 210 18:20 15.03.2020
974 Clouds 13 1014 58 10000 6.7 210 17:42 15.03.2020
975 Clouds 14 1014 58 10000 6.7 210 17:22 15.03.2020
976 Clouds 15 1014 42 10000 6.7 210 16:59 15.03.2020
977 Clouds 15 1014 42 10000 6.7 210 16:41 15.03.2020
978 Clouds 15 1014 42 10000 6.7 210 16:22 15.03.2020
979 Clouds 16 1014 34 10000 6.7 210 15:56 15.03.2020
980 Clouds 16 1014 34 10000 5.7 210 15:38 15.03.2020
981 Clouds 16 1014 34 10000 5.7 210 15:19 15.03.2020
982 Clouds 16 1015 36 10000 5.7 210 14:40 15.03.2020
983 Clouds 16 1015 36 10000 5.7 210 14:40 15.03.2020
984 Clouds 16 1015 36 10000 5.7 210 14:22 15.03.2020
985 Clouds 16 1016 39 10000 4.6 210 13:56 15.03.2020
986 Clouds 16 1016 45 10000 4.1 230 13:38 15.03.2020
987 Clouds 16 1016 45 10000 4.1 230 13:18 15.03.2020
988 Clouds 16 1017 51 10000 2.6 230 12:40 15.03.2020
989 Clouds 16 1017 51 10000 2.6 230 12:22 15.03.2020
990 Clouds 15 1018 58 10000 1 0 11:45 15.03.2020
991 Clouds 14 1018 58 10000 1 0 11:26 15.03.2020
992 Clouds 13 1018 66 10000 1.5 170 10:59 15.03.2020
993 Clouds 13 1019 66 10000 1 0 10:40 15.03.2020
994 Clouds 12 1019 66 10000 1 0 10:22 15.03.2020
995 Clouds 10 1019 66 10000 1 0 09:59 15.03.2020
996 Clouds 9 1019 76 10000 1 0 09:38 15.03.2020
997 Clouds 8 1019 76 10000 1 0 09:19 15.03.2020
998 Clouds 6 1011 73 0 0.45 249 08:41 15.03.2020
999 Clouds 6 1011 53 0 2.24 214 08:19 15.03.2020
1000 Clouds 4 1011 53 0 2.24 221 07:45 15.03.2020
1001 Clouds 4 1011 85 0 1.34 218 07:21 15.03.2020
1002 Clouds 5 1011 77 0 0.45 207 06:36 15.03.2020
1003 Clouds 5 1011 62 0 0.45 203 05:46 15.03.2020
1004 Clouds 6 1011 84 0 1.79 215 04:55 15.03.2020
1005 Clouds 5 1011 89 0 0.45 180 04:33 15.03.2020
1006 Clouds 6 1011 75 0 1.6 195 03:59 15.03.2020
1007 Clouds 6 1012 77 0 1.6 195 02:49 15.03.2020
1008 Clouds 6 1013 83 0 0.45 214 02:18 15.03.2020
1009 Clouds 7 1013 88 0 1.31 204 00:57 15.03.2020
1010 Clouds 7 1013 84 0 1.34 150 00:38 15.03.2020
1011 Clouds 7 1014 86 0 1.34 195 00:18 15.03.2020
1012 Clouds 8 1014 86 0 1.31 204 23:38 14.03.2020
1013 Clouds 8 1014 86 0 0.69 235 23:19 14.03.2020
1014 Clouds 8 1014 85 0 0.69 235 22:46 14.03.2020
1015 Clouds 8 1014 84 0 0.69 235 22:27 14.03.2020
1016 Clouds 8 1014 84 0 0.69 235 21:57 14.03.2020
1017 Clouds 8 1014 81 0 0.69 235 21:37 14.03.2020
1018 Clouds 8 1014 81 0 0.69 235 21:37 14.03.2020
1019 Clouds 8 1014 79 0 0.69 235 21:19 14.03.2020
1020 Clouds 8 1014 79 0 0.69 235 20:59 14.03.2020
1021 Clouds 9 1014 81 0 0.69 235 20:41 14.03.2020
1022 Clear 10 1023 31 0 0.96 238 20:20 14.03.2020
1023 Clear 10 1022 31 0 1.34 36 19:59 14.03.2020
1024 Clear 10 1014 77 0 0.96 238 19:40 14.03.2020
1025 Clear 11 1022 27 0 0.96 238 19:20 14.03.2020
1026 Clear 12 1019 74 0 0.89 136 18:39 14.03.2020
1027 Clouds 12 1017 58 10000 5.1 240 18:19 14.03.2020
1028 Clouds 13 1017 58 10000 5.1 240 17:41 14.03.2020
1029 Clouds 13 1017 58 10000 5.1 240 17:21 14.03.2020
1030 Clouds 14 1017 55 10000 5.1 230 16:57 14.03.2020
1031 Clouds 14 1017 55 10000 5.1 230 16:38 14.03.2020
1032 Clouds 14 1017 55 10000 5.1 230 16:18 14.03.2020
1033 Clouds 14 1017 55 10000 6.2 230 15:28 14.03.2020
1034 Clouds 14 1017 55 10000 5.7 230 14:59 14.03.2020
1035 Clouds 14 1018 59 10000 6.2 230 14:38 14.03.2020
1036 Clouds 13 1018 59 10000 6.2 230 14:20 14.03.2020
1037 Clouds 13 1018 62 10000 6.2 230 13:56 14.03.2020
1038 Clouds 13 1018 58 10000 5.7 230 13:38 14.03.2020
1039 Clouds 13 1018 58 10000 5.7 230 13:18 14.03.2020
1040 Clouds 12 1019 67 10000 5.1 230 12:43 14.03.2020
1041 Clouds 12 1019 67 10000 5.1 230 12:43 14.03.2020
1042 Clouds 12 1019 71 10000 3.6 230 12:24 14.03.2020
1043 Clouds 11 1020 76 10000 2.6 220 11:44 14.03.2020
1044 Clouds 12 1020 76 10000 2.6 220 11:25 14.03.2020
1045 Clouds 11 1020 87 10000 1 0 10:48 14.03.2020
1046 Clouds 10 1020 87 10000 1 0 10:28 14.03.2020
1047 Clouds 10 1020 87 10000 0.5 0 09:59 14.03.2020
1048 Fog 9 1020 100 10000 1 0 09:40 14.03.2020
1049 Fog 8 1020 100 10000 1 0 09:21 14.03.2020
1050 Clear 8 1017 83 0 0.52 244 08:46 14.03.2020
1051 Clear 8 1017 83 0 0.52 244 08:46 14.03.2020
1052 Clear 8 1017 86 0 0.47 289 08:26 14.03.2020
1053 Clouds 8 1016 92 0 2.23 25 07:40 14.03.2020
1054 Clouds 8 1016 90 0 2.23 25 07:21 14.03.2020
1055 Clouds 8 1016 90 0 2.23 25 06:55 14.03.2020
1056 Clouds 8 1016 90 0 2.23 25 06:34 14.03.2020
1057 Clouds 8 1022 34 0 1.54 16 04:55 14.03.2020
1058 Clouds 8 1015 93 0 1.54 16 03:34 14.03.2020
1059 Clouds 8 1016 93 0 1.54 16 02:48 14.03.2020
1060 Clouds 8 1016 92 0 0.92 303 01:42 14.03.2020
1061 Clouds 9 1016 92 0 0.82 287 00:23 14.03.2020
1062 Clouds 9 1016 91 0 0.82 287 23:42 13.03.2020
1063 Clouds 9 1013 85 0 0.82 287 23:22 13.03.2020
1064 Rain 9 1013 86 0 1.33 213 22:41 13.03.2020
1065 Rain 9 1016 89 0 1.33 213 22:22 13.03.2020
1066 Rain 9 1016 90 0 1.33 213 21:40 13.03.2020
1067 Rain 10 1013 84 0 1.33 213 21:19 13.03.2020
1068 Rain 10 1013 83 0 1.33 213 20:42 13.03.2020
1069 Rain 11 1013 83 0 0.45 225 20:22 13.03.2020
1070 Rain 10 1013 82 0 1.48 232 19:55 13.03.2020
1071 Rain 11 1013 82 0 1.48 232 19:36 13.03.2020
1072 Rain 11 1014 82 0 1.48 232 19:18 13.03.2020
1073 Rain 11 1013 80 0 1.48 232 18:39 13.03.2020
1074 Clouds 12 1017 59 10000 4.6 240 18:21 13.03.2020
1075 Clouds 12 1017 59 10000 4.6 240 17:42 13.03.2020
1076 Clouds 13 1017 59 10000 4.6 230 17:21 13.03.2020
1077 Clouds 13 1017 59 10000 4.6 230 16:56 13.03.2020
1078 Clouds 13 1017 59 10000 3.6 230 16:38 13.03.2020
1079 Clouds 13 1017 59 10000 3.6 230 16:19 13.03.2020
1080 Clouds 13 1018 63 10000 4.1 220 15:42 13.03.2020
1081 Clouds 13 1018 63 10000 4.1 220 15:21 13.03.2020
1082 Clouds 13 1018 59 10000 5.7 210 14:55 13.03.2020
1083 Clouds 13 1019 59 10000 5.1 220 14:36 13.03.2020
1084 Clouds 14 1019 63 10000 5.1 220 14:18 13.03.2020
1085 Clouds 14 1019 63 10000 5.7 200 13:42 13.03.2020
1086 Clouds 13 1019 63 10000 5.7 200 13:21 13.03.2020
1087 Clouds 13 1020 62 10000 4.6 230 12:57 13.03.2020
1088 Rain 12 1020 76 10000 3.1 230 12:38 13.03.2020
1089 Rain 12 1020 76 10000 3.1 230 12:19 13.03.2020
1090 Clouds 12 1020 76 10000 2.1 220 11:46 13.03.2020
1091 Clouds 11 1020 76 10000 2.1 220 11:26 13.03.2020
1092 Clouds 12 1020 82 10000 2.6 230 10:59 13.03.2020
1093 Clouds 11 1020 87 10000 1.5 210 10:41 13.03.2020
1094 Clouds 10 1020 87 10000 1.5 210 10:23 13.03.2020
1095 Fog 10 1020 100 10000 1 0 09:45 13.03.2020
1096 Rain 10 1020 100 10000 1 0 09:26 13.03.2020
1097 Rain 9 1024 41 0 0.1 169 08:48 13.03.2020
1098 Rain 9 1016 94 0 0.1 169 08:48 13.03.2020
1099 Rain 9 1015 93 0 0.1 169 08:24 13.03.2020
1100 Rain 8 1016 94 0 1.79 7 07:59 13.03.2020
1101 Rain 9 1015 94 0 1.79 7 07:38 13.03.2020
1102 Rain 9 1024 44 0 1.34 279 07:20 13.03.2020
1103 Rain 9 1014 92 0 1.79 7 06:45 13.03.2020
1104 Rain 9 1024 43 0 2.24 342 06:19 13.03.2020
1105 Rain 9 1015 92 0 1.79 7 05:43 13.03.2020
1106 Rain 10 1023 63 0 0.37 117 04:39 13.03.2020
1107 Rain 10 1015 89 0 0.37 117 03:50 13.03.2020
1108 Clouds 11 1016 86 0 0.5 204 01:48 13.03.2020
1109 Rain 10 1024 44 0 0.48 167 01:19 13.03.2020
1110 Rain 11 1017 84 0 0.48 167 00:56 13.03.2020
1111 Rain 10 1017 87 0 0.48 167 00:37 13.03.2020
1112 Rain 10 1017 84 0 0.48 167 00:18 13.03.2020
1113 Rain 10 1017 81 0 0.89 218 23:29 12.03.2020
1114 Rain 10 1017 81 0 3.13 214 22:58 12.03.2020
1115 Rain 10 1018 80 0 3.13 222 22:40 12.03.2020
1116 Rain 10 1017 79 0 2.68 179 22:22 12.03.2020
1117 Rain 10 1017 79 0 2.24 222 21:46 12.03.2020
1118 Rain 10 1017 78 0 2.24 226 21:28 12.03.2020
1119 Rain 11 1023 42 0 0.57 247 20:59 12.03.2020
1120 Rain 11 1022 93 0 0.57 247 20:40 12.03.2020
1121 Clouds 12 1017 76 0 1.79 243 20:19 12.03.2020
1122 Clouds 11 1017 78 0 1.79 208 19:42 12.03.2020
1123 Clouds 15 1018 37 10000 3.6 240 19:20 12.03.2020
1124 Clouds 15 1018 35 10000 3.6 240 18:45 12.03.2020
1125 Clouds 15 1018 35 10000 3.6 240 18:45 12.03.2020
1126 Clouds 16 1018 35 10000 3.6 240 18:25 12.03.2020
1127 Clouds 17 1018 35 10000 3.6 230 17:57 12.03.2020
1128 Clouds 17 1018 33 10000 5.1 220 17:39 12.03.2020
1129 Clouds 20 1018 33 10000 5.1 220 17:20 12.03.2020
1130 Clouds 19 1018 31 10000 5.1 210 16:55 12.03.2020
1131 Clouds 19 1018 29 10000 5.7 210 16:37 12.03.2020
1132 Clouds 18 1018 29 10000 5.7 210 16:18 12.03.2020
1133 Clouds 18 1019 29 10000 5.1 210 15:45 12.03.2020
1134 Clouds 19 1019 29 10000 5.1 210 15:26 12.03.2020
1135 Clouds 20 1020 30 10000 1.5 0 14:41 12.03.2020
1136 Clouds 21 1020 30 10000 1.5 0 14:23 12.03.2020
1137 Clouds 22 1021 32 10000 1.5 0 13:56 12.03.2020
1138 Clouds 21 1021 37 10000 1 0 13:36 12.03.2020
1139 Clouds 20 1021 37 10000 1 0 13:18 12.03.2020
1140 Clouds 19 1023 45 10000 1 0 12:41 12.03.2020
1141 Clouds 18 1023 45 10000 1 0 12:21 12.03.2020
1142 Clouds 18 1023 48 10000 0.5 0 11:56 12.03.2020
1143 Clouds 18 1023 51 10000 0.5 0 11:38 12.03.2020
1144 Clouds 15 1024 58 10000 0.5 0 11:19 12.03.2020
1145 Clouds 16 1024 58 10000 0.5 0 10:58 12.03.2020
1146 Clouds 16 1019 51 0 1.57 175 10:40 12.03.2020
1147 Clouds 15 1019 55 0 1.57 175 10:22 12.03.2020
1148 Clouds 12 1019 62 0 1.57 175 09:45 12.03.2020
1149 Clouds 11 1019 64 0 1.57 175 09:25 12.03.2020
1150 Clouds 10 1020 57 0 0.89 248 08:43 12.03.2020
1151 Clouds 9 1020 49 0 0.78 65 08:20 12.03.2020
1152 Clouds 8 1019 65 0 0.78 65 07:53 12.03.2020
1153 Clouds 8 1019 63 0 0.78 65 07:23 12.03.2020
1154 Clouds 8 1018 63 0 0.78 65 06:59 12.03.2020
1155 Clouds 8 1019 78 0 0.78 65 05:43 12.03.2020
1156 Clouds 8 1018 64 0 0.78 65 05:21 12.03.2020
1157 Clouds 9 1020 64 0 1.66 16 02:38 12.03.2020
1158 Clouds 9 1020 74 0 0.81 19 01:31 12.03.2020
1159 Clouds 9 1021 77 0 0.45 215 00:44 12.03.2020
1160 Clouds 9 1021 77 0 0.78 13 00:24 12.03.2020
1161 Clouds 9 1021 76 0 0.78 13 23:42 11.03.2020
1162 Clouds 9 1021 79 0 1.34 195 23:23 11.03.2020
1163 Clouds 9 1021 76 0 0.45 194 22:45 11.03.2020
1164 Clouds 10 1021 76 0 1.09 20 22:27 11.03.2020
1165 Clouds 9 1021 80 0 0.45 222 21:59 11.03.2020
1166 Clouds 10 1021 78 0 0.89 180 21:41 11.03.2020
1167 Clouds 9 1021 78 0 1.34 207 21:22 11.03.2020
1168 Clouds 10 1021 79 0 0.45 208 20:58 11.03.2020
1169 Clouds 10 1021 78 0 1.34 195 20:38 11.03.2020
1170 Clear 11 1024 18 0 0.33 226 20:19 11.03.2020
1171 Clear 12 1024 17 0 0.33 226 19:43 11.03.2020
1172 Clear 15 1020 47 0 1.79 23 19:25 11.03.2020
1173 Clear 15 1019 46 0 0.45 113 18:57 11.03.2020
1174 Clear 16 1019 44 0 0.89 116 18:38 11.03.2020
1175 Clear 17 1022 77 0 0.33 226 18:20 11.03.2020
1176 Clear 19 1020 38 0 1.34 158 17:55 11.03.2020
1177 Clear 18 1020 37 0 1.79 180 17:37 11.03.2020
1178 Clear 19 1023 53 0 2.68 45 17:19 11.03.2020
1179 Clear 19 1019 31 0 0.89 103 16:44 11.03.2020
1180 Clear 20 1020 28 0 1.34 309 16:20 11.03.2020
1181 Clear 20 1019 26 0 1.34 97 15:44 11.03.2020
1182 Clear 20 1019 26 0 0.45 75 15:23 11.03.2020
1183 Clear 20 1019 28 0 0.89 91 14:56 11.03.2020
1184 Clear 20 1020 29 0 1.34 88 14:37 11.03.2020
1185 Clear 19 1020 27 0 2.24 79 14:18 11.03.2020
1186 Clear 19 1022 47 0 1.79 180 13:42 11.03.2020
1187 Clear 18 1021 37 0 1.9 218 13:24 11.03.2020
1188 Clear 18 1021 50 0 3.13 292 12:56 11.03.2020
1189 Clear 19 1021 17 0 1.72 224 12:38 11.03.2020
1190 Clear 17 1025 8 0 2.24 254 12:19 11.03.2020
1191 Clear 16 1025 9 0 2.24 306 11:41 11.03.2020
1192 Clear 15 1022 31 0 0.89 355 11:21 11.03.2020
1193 Clear 14 1025 9 0 2.68 258 10:47 11.03.2020
1194 Clear 13 1024 61 0 0.16 5 10:21 11.03.2020
1195 Clear 11 1022 27 0 0.16 5 09:59 11.03.2020
1196 Clear 11 1022 24 0 0.16 5 09:40 11.03.2020
1197 Clear 9 1021 54 0 0.16 5 09:21 11.03.2020
1198 Clear 7 1021 43 0 0.16 5 08:43 11.03.2020
1199 Clear 5 1021 16 0 0.42 21 08:24 11.03.2020
1200 Clouds 5 1020 26 0 3.49 27 07:47 11.03.2020
1201 Clouds 5 1020 17 0 3.49 27 07:20 11.03.2020
1202 Clouds 5 1026 45 0 3.49 27 06:50 11.03.2020
1203 Clouds 5 1020 36 0 3.49 27 06:30 11.03.2020
1204 Clouds 5 1020 32 0 3.49 27 05:32 11.03.2020
1205 Clouds 5 1027 41 0 3.59 27 02:45 11.03.2020
1206 Clouds 6 1027 40 0 3.71 20 01:52 11.03.2020
1207 Clouds 6 1027 37 0 3.71 20 01:23 11.03.2020
1208 Clouds 7 1026 91 0 3.84 20 00:32 11.03.2020
1209 Clouds 7 1027 30 0 3.84 20 23:49 10.03.2020
1210 Clouds 8 1027 31 0 3.84 20 23:26 10.03.2020
1211 Clouds 8 1021 16 0 2.24 35 22:56 10.03.2020
1212 Clouds 8 1021 18 0 1.79 359 22:37 10.03.2020
1213 Clouds 8 1021 23 0 1.79 42 22:18 10.03.2020
1214 Clouds 8 1020 32 0 2.24 11 21:55 10.03.2020
1215 Clouds 9 1021 32 0 1.34 38 21:37 10.03.2020
1216 Clouds 9 1021 40 0 1.79 346 21:18 10.03.2020
1217 Clouds 9 1021 72 0 1.79 347 20:42 10.03.2020
1218 Clouds 9 1021 75 0 1.34 30 20:19 10.03.2020
1219 Clouds 10 1026 13 0 3.4 13 19:58 10.03.2020
1220 Clouds 11 1026 13 0 3.4 13 19:40 10.03.2020
1221 Clouds 12 1021 60 0 0.45 117 19:21 10.03.2020
1222 Clouds 12 1021 59 0 0.89 115 18:54 10.03.2020
1223 Clouds 13 1024 74 0 3.4 13 18:36 10.03.2020
1224 Clouds 13 1021 56 0 0.89 121 18:18 10.03.2020
1225 Clouds 14 1020 68 0 0.89 180 17:40 10.03.2020
1226 Clouds 14 1025 13 0 3.13 260 17:21 10.03.2020
1227 Clouds 15 1024 13 0 2.68 298 16:40 10.03.2020
1228 Clouds 15 1025 38 0 2.68 258 16:20 10.03.2020
1229 Clouds 15 1017 50 0 1.79 225 15:57 10.03.2020
1230 Clouds 15 1020 65 0 2.24 203 15:39 10.03.2020
1231 Clouds 15 1023 50 0 1.98 335 15:19 10.03.2020
1232 Clouds 15 1020 46 0 1.34 300 14:54 10.03.2020
1233 Clouds 15 1021 61 0 1.34 158 14:36 10.03.2020
1234 Clouds 15 1021 48 0 0.45 104 14:18 10.03.2020
1235 Clouds 14 1021 48 0 0.89 111 13:42 10.03.2020
1236 Clouds 14 1024 55 0 0.89 202 13:24 10.03.2020
1237 Clouds 13 1025 12 0 0.89 213 12:42 10.03.2020
1238 Clouds 13 1026 12 0 0.89 116 12:21 10.03.2020
1239 Clouds 12 1026 18 0 0.45 106 11:59 10.03.2020
1240 Clouds 12 1026 23 0 2.34 349 11:41 10.03.2020
1241 Clouds 12 1022 48 0 0.45 8 11:22 10.03.2020
1242 Rain 10 1026 28 0 3.21 6 10:43 10.03.2020
1243 Rain 9 1026 31 0 3.21 6 10:23 10.03.2020
1244 Rain 8 1026 38 0 3.21 6 09:59 10.03.2020
1245 Rain 7 1018 77 0 2.68 3 09:41 10.03.2020
1246 Rain 5 1018 76 0 2.24 14 09:19 10.03.2020
1247 Rain 5 1017 73 0 3.13 11 08:51 10.03.2020
1248 Rain 5 1017 75 0 2.68 333 08:32 10.03.2020
1249 Rain 4 1017 86 0 2.68 231 07:51 10.03.2020
1250 Rain 4 1017 87 0 3.13 339 07:32 10.03.2020
1251 Rain 4 1016 96 0 1.79 14 06:48 10.03.2020
1252 Rain 4 1016 96 0 2.24 25 06:30 10.03.2020
1253 Rain 4 1016 96 0 2.24 25 06:30 10.03.2020
1254 Rain 4 1026 49 0 4.42 5 05:42 10.03.2020
1255 Clouds 5 1026 49 0 5.09 4 04:49 10.03.2020
1256 Clouds 5 1026 47 0 5.09 4 04:20 10.03.2020
1257 Clouds 5 1027 43 0 5.09 4 02:41 10.03.2020
1258 Clouds 5 1027 43 0 4.84 6 01:30 10.03.2020
1259 Clouds 5 1027 43 0 4.58 9 00:44 10.03.2020
1260 Clouds 5 1027 42 0 4.58 9 00:26 10.03.2020
1261 Clouds 5 1027 40 0 4.58 9 23:41 09.03.2020
1262 Clouds 6 1028 38 0 4.58 9 23:21 09.03.2020
1263 Clouds 6 1027 36 0 1.34 286 22:43 09.03.2020
1264 Clouds 6 1027 34 0 2.24 307 22:22 09.03.2020
1265 Clouds 6 1027 30 0 2.68 333 21:59 09.03.2020
1266 Clouds 4 1014 95 0 4.75 3 21:40 09.03.2020
1267 Clouds 3 1014 95 0 4.75 3 21:21 09.03.2020
1268 Clouds 3 1014 95 0 4.75 3 20:56 09.03.2020
1269 Clouds 3 1014 95 0 4.75 3 20:56 09.03.2020
1270 Clouds 3 1014 95 0 4.75 3 20:38 09.03.2020
1271 Clouds 8 1027 28 0 5.01 3 20:20 09.03.2020
1272 Clouds 8 1019 32 10000 4.6 320 19:44 09.03.2020
1273 Clouds 8 1019 32 10000 4.6 320 19:25 09.03.2020
1274 Clouds 9 1019 32 10000 4.6 320 18:58 09.03.2020
1275 Clouds 9 1019 32 10000 4.6 320 18:58 09.03.2020
1276 Clouds 9 1018 32 10000 6.2 310 18:38 09.03.2020
1277 Clouds 9 1018 32 10000 6.2 310 18:19 09.03.2020
1278 Clouds 9 1018 32 10000 7.7 310 17:57 09.03.2020
1279 Clouds 9 1018 29 10000 9.3 310 17:38 09.03.2020
1280 Clouds 10 1018 27 10000 9.8 310 17:20 09.03.2020
1281 Clouds 10 1018 27 10000 9.8 310 16:58 09.03.2020
1282 Clouds 11 1018 27 10000 8.2 300 16:39 09.03.2020
1283 Clouds 11 1018 27 10000 8.2 300 16:20 09.03.2020
1284 Clouds 11 1018 27 10000 11.3 300 15:57 09.03.2020
1285 Clouds 11 1018 27 10000 11.3 300 15:57 09.03.2020
1286 Clouds 11 1018 30 10000 9.3 280 15:38 09.03.2020
1287 Clouds 12 1018 30 10000 9.3 280 15:19 09.03.2020
1288 Clouds 12 1019 25 10000 7.2 290 14:42 09.03.2020
1289 Clouds 12 1019 25 10000 9.3 290 14:23 09.03.2020
1290 Clouds 12 1019 23 10000 10.8 300 13:59 09.03.2020
1291 Clouds 11 1019 23 10000 10.8 300 13:40 09.03.2020
1292 Clouds 11 1019 27 10000 7.7 280 13:22 09.03.2020
1293 Clouds 10 1020 27 10000 9.8 300 12:59 09.03.2020
1294 Clouds 10 1020 27 10000 9.8 300 12:40 09.03.2020
1295 Clouds 9 1020 32 10000 5.7 290 12:20 09.03.2020
1296 Clouds 9 1020 27 10000 6.2 290 11:40 09.03.2020
1297 Clouds 9 1020 27 10000 6.2 290 11:40 09.03.2020
1298 Clouds 9 1020 27 10000 1.5 0 11:20 09.03.2020
1299 Clouds 9 1020 29 10000 3.6 0 10:58 09.03.2020
1300 Clouds 9 1020 29 10000 3.6 0 10:40 09.03.2020
1301 Clouds 7 1024 49 0 3.13 341 10:19 09.03.2020
1302 Clouds 8 1024 53 0 1.34 292 09:42 09.03.2020
1303 Clouds 7 1024 52 0 3.62 346 09:24 09.03.2020
1304 Clouds 4 1020 66 0 0.45 322 08:47 09.03.2020
1305 Clouds 5 1020 64 0 0.89 301 08:29 09.03.2020
1306 Clouds 4 1024 58 0 3.51 2 07:58 09.03.2020
1307 Clouds 5 1024 55 0 1.34 283 07:37 09.03.2020
1308 Clouds 4 1023 48 0 1.34 315 07:18 09.03.2020
1309 Clouds 4 1023 43 0 3.51 2 06:40 09.03.2020
1310 Clouds 4 1023 38 0 3.51 2 06:21 09.03.2020
1311 Clouds 4 1019 83 0 3.51 2 05:45 09.03.2020
1312 Clouds 4 1018 80 0 3.37 7 04:59 09.03.2020
1313 Clouds 4 1023 44 0 2.24 320 04:39 09.03.2020
1314 Clouds 5 1023 40 0 3.58 324 04:20 09.03.2020
1315 Clouds 5 1023 40 0 3.58 324 04:20 09.03.2020
1316 Clouds 5 1022 51 0 1.34 262 02:53 09.03.2020
1317 Clouds 5 1013 96 0 2.31 14 00:44 09.03.2020
1318 Clouds 5 1013 96 0 2.31 14 00:25 09.03.2020
1319 Clouds 5 1013 96 0 2.31 14 23:58 08.03.2020
1320 Clouds 5 1014 91 0 2.31 14 23:38 08.03.2020
1321 Clouds 6 1014 90 0 2.8 16 23:18 08.03.2020
1322 Clouds 7 1023 38 0 2.8 16 22:40 08.03.2020
1323 Clouds 7 1023 37 0 2.8 16 22:22 08.03.2020
1324 Clouds 7 1023 33 0 2.8 16 21:59 08.03.2020
1325 Clouds 7 1023 27 0 2.8 16 21:40 08.03.2020
1326 Clouds 7 1023 24 0 2.8 16 21:20 08.03.2020
1327 Clouds 8 1023 26 0 2.8 16 20:56 08.03.2020
1328 Clouds 9 1022 21 0 2.8 16 20:37 08.03.2020
1329 Clouds 9 1022 17 0 2.53 13 20:19 08.03.2020
1330 Clouds 10 1022 13 0 2.53 13 19:40 08.03.2020
1331 Clouds 11 1018 63 0 2.53 13 19:19 08.03.2020
1332 Clouds 11 1017 69 0 0.45 135 18:55 08.03.2020
1333 Clouds 12 1019 57 0 2.53 13 18:37 08.03.2020
1334 Clouds 13 1018 50 10000 5.1 230 18:18 08.03.2020
1335 Clouds 13 1018 50 10000 5.1 230 17:39 08.03.2020
1336 Clouds 14 1018 50 10000 5.7 230 17:20 08.03.2020
1337 Clouds 14 1018 50 10000 5.7 230 16:55 08.03.2020
1338 Clouds 14 1018 47 10000 5.7 230 16:36 08.03.2020
1339 Clouds 14 1018 47 10000 5.7 230 16:18 08.03.2020
1340 Clouds 15 1019 41 10000 5.1 230 15:41 08.03.2020
1341 Clouds 15 1019 41 10000 5.1 230 15:21 08.03.2020
1342 Clouds 15 1019 41 10000 5.1 230 14:56 08.03.2020
1343 Clouds 14 1020 38 10000 3.1 210 14:37 08.03.2020
1344 Clear 15 1020 38 10000 3.1 210 14:19 08.03.2020
1345 Clear 14 1021 35 10000 1 0 13:41 08.03.2020
1346 Clouds 14 1021 35 10000 1 0 13:20 08.03.2020
1347 Clouds 14 1022 43 10000 1.5 0 12:43 08.03.2020
1348 Clouds 13 1022 43 10000 1.5 0 12:25 08.03.2020
1349 Clouds 12 1023 74 10000 1.5 170 11:58 08.03.2020
1350 Clouds 12 1023 74 10000 1.5 170 11:39 08.03.2020
1351 Clouds 12 1023 74 10000 1.5 170 11:39 08.03.2020
1352 Clear 10 1023 49 10000 1 0 11:21 08.03.2020
1353 Clear 10 1023 49 10000 1 0 11:21 08.03.2020
1354 Clear 9 1024 60 10000 1.5 70 10:42 08.03.2020
1355 Clear 8 1024 60 10000 1.5 70 10:23 08.03.2020
1356 Clear 7 1024 69 10000 1.5 60 09:57 08.03.2020
1357 Clear 5 1024 69 10000 0.5 0 09:36 08.03.2020
1358 Clear 5 1024 69 10000 0.5 0 09:18 08.03.2020
1359 Clear 5 1024 69 10000 0.5 0 09:18 08.03.2020
1360 Clear 3 1024 78 0 0.92 20 08:40 08.03.2020
1361 Clouds 1 1015 90 0 3.1 31 08:19 08.03.2020
1362 Clouds 1 1015 90 0 3.1 31 07:44 08.03.2020
1363 Clouds 1 1024 79 0 3.1 31 07:25 08.03.2020
1364 Clouds 2 1024 81 0 3.1 31 06:42 08.03.2020
1365 Clouds 2 1015 94 0 3.1 31 06:22 08.03.2020
1366 Clouds 2 1015 91 0 3.1 31 05:39 08.03.2020
1367 Clouds 3 1015 96 0 3.08 24 03:52 08.03.2020
1368 Clouds 2 1016 96 0 3.08 24 02:30 08.03.2020
1369 Clouds 3 1016 96 0 3.34 11 01:34 08.03.2020
1370 Clouds 3 1016 96 0 3.67 16 00:52 08.03.2020
1371 Clouds 3 1016 96 0 3.67 16 00:27 08.03.2020
1372 Clouds 4 1016 96 0 3.67 16 23:46 07.03.2020
1373 Clouds 3 1016 96 0 3.67 16 23:24 07.03.2020
1374 Clouds 3 1015 96 0 3.22 7 22:54 07.03.2020
1375 Clouds 3 1015 96 0 3.22 7 22:36 07.03.2020
1376 Clouds 6 1026 34 0 3.22 7 22:18 07.03.2020
1377 Clouds 4 1015 96 0 3.22 7 21:42 07.03.2020
1378 Clouds 7 1026 30 0 3.22 7 21:19 07.03.2020
1379 Clouds 7 1026 29 0 3.22 7 20:39 07.03.2020
1380 Clouds 4 1014 96 0 4.64 8 20:19 07.03.2020
1381 Clouds 4 1014 96 0 4.64 8 20:19 07.03.2020
1382 Clouds 5 1014 96 0 4.64 8 19:41 07.03.2020
1383 Clouds 8 1025 14 0 4.64 8 19:22 07.03.2020
1384 Clouds 5 1014 94 0 4.64 8 18:47 07.03.2020
1385 Clouds 7 1019 26 10000 2.1 0 18:28 07.03.2020
1386 Clouds 11 1019 26 10000 2.1 0 17:59 07.03.2020
1387 Clouds 11 1019 26 10000 2.1 0 17:40 07.03.2020
1388 Clouds 11 1019 26 10000 2.1 0 17:40 07.03.2020
1389 Clouds 11 1019 26 10000 2.1 0 17:19 07.03.2020
1390 Clouds 11 1019 23 10000 4.1 30 16:43 07.03.2020
1391 Clouds 11 1019 20 10000 6.7 30 16:24 07.03.2020
1392 Clouds 11 1019 20 10000 6.7 50 15:59 07.03.2020
1393 Clouds 12 1019 20 10000 6.7 50 15:41 07.03.2020
1394 Clouds 12 1019 20 10000 6.7 50 15:41 07.03.2020
1395 Clouds 11 1019 22 10000 5.1 50 15:21 07.03.2020
1396 Clouds 11 1019 25 10000 5.7 50 14:58 07.03.2020
1397 Clouds 11 1019 25 10000 5.7 50 14:40 07.03.2020
1398 Clouds 11 1019 27 10000 5.7 30 14:21 07.03.2020
1399 Clouds 10 1020 31 10000 7.2 40 13:41 07.03.2020
1400 Clouds 10 1020 31 10000 4.6 0 13:21 07.03.2020
1401 Clouds 9 1020 31 10000 3.6 0 12:45 07.03.2020
1402 Clouds 9 1020 31 10000 3.6 0 12:45 07.03.2020
1403 Clouds 9 1019 34 10000 4.1 0 12:23 07.03.2020
1404 Clouds 8 1020 34 10000 3.6 0 11:59 07.03.2020
1405 Clouds 8 1020 34 10000 3.6 0 11:40 07.03.2020
1406 Clouds 7 1019 36 10000 6.7 30 11:22 07.03.2020
1407 Clouds 7 1019 39 10000 8.2 10 10:42 07.03.2020
1408 Clouds 6 1018 48 10000 4.6 360 10:22 07.03.2020
1409 Clouds 5 1018 56 10000 10.8 330 09:58 07.03.2020
1410 Clouds 5 1018 56 10000 10.8 330 09:39 07.03.2020
1411 Clouds 5 1018 56 10000 10.8 330 09:19 07.03.2020
1412 Clouds 4 1022 77 0 6.41 355 08:44 07.03.2020
1413 Snow 0 1008 95 0 4.37 345 08:22 07.03.2020
1414 Snow 0 1008 95 0 5.47 354 07:56 07.03.2020
1415 Snow 1 1007 95 0 5.47 354 07:37 07.03.2020
1416 Snow 1 1006 95 0 5.47 354 07:19 07.03.2020
1417 Snow 3 1021 34 0 3.13 358 06:35 07.03.2020
1418 Snow 2 1021 40 0 0.89 346 05:55 07.03.2020
1419 Snow 0 1005 95 0 2.26 357 04:56 07.03.2020
1420 Snow 2 1020 40 0 1.34 324 02:58 07.03.2020
1421 Snow 2 1018 93 0 2.26 357 02:34 07.03.2020
1422 Snow 2 1018 93 0 3.22 317 01:45 07.03.2020
1423 Snow 2 1018 89 0 2.36 357 00:40 07.03.2020
1424 Snow 2 1019 33 0 4.02 7 00:21 07.03.2020
1425 Snow 0 1004 95 0 2.36 357 23:49 06.03.2020
1426 Snow 0 1003 95 0 2.36 357 23:26 06.03.2020
1427 Snow 2 1019 47 0 0.89 21 22:48 06.03.2020
1428 Snow 2 1016 93 0 3.43 328 22:23 06.03.2020
1429 Snow 1 1015 93 0 3.43 328 21:59 06.03.2020
1430 Snow 1 1015 93 0 3.43 328 21:59 06.03.2020
1431 Snow 1 1015 93 0 3.43 328 21:41 06.03.2020
1432 Snow 2 1014 92 0 3.43 328 21:18 06.03.2020
1433 Snow 2 1017 40 0 1.34 300 20:39 06.03.2020
1434 Snow 3 1014 92 0 3.54 340 20:20 06.03.2020
1435 Snow 3 1016 30 0 3.58 282 19:51 06.03.2020
1436 Snow 3 1013 92 0 3.61 341 19:33 06.03.2020
1437 Snow 4 1012 92 0 0.45 192 18:58 06.03.2020
1438 Snow 4 1012 91 0 3.61 341 18:39 06.03.2020
1439 Clouds 5 1009 31 10000 5.1 310 18:19 06.03.2020
1440 Clouds 5 1009 31 10000 5.1 310 18:19 06.03.2020
1441 Clouds 5 1009 31 10000 5.1 310 17:42 06.03.2020
1442 Clouds 6 1008 28 10000 8.2 300 17:24 06.03.2020
1443 Clouds 6 1008 33 10000 7.2 280 16:59 06.03.2020
1444 Clouds 6 1008 33 10000 7.2 280 16:40 06.03.2020
1445 Clouds 7 1008 33 10000 7.2 280 16:20 06.03.2020
1446 Clouds 7 1008 36 10000 7.7 280 15:44 06.03.2020
1447 Clouds 7 1008 36 10000 8.2 320 15:24 06.03.2020
1448 Clouds 7 1007 26 10000 9.8 320 14:45 06.03.2020
1449 Clouds 7 1007 29 10000 9.3 310 14:25 06.03.2020
1450 Rain 8 1007 31 10000 4.6 330 13:59 06.03.2020
1451 Rain 7 1007 31 10000 4.6 330 13:40 06.03.2020
1452 Rain 8 1007 29 10000 7.7 300 13:21 06.03.2020
1453 Clouds 8 1006 34 10000 7.7 300 12:55 06.03.2020
1454 Clouds 8 1006 34 10000 7.7 300 12:36 06.03.2020
1455 Clouds 8 1006 42 10000 1 0 12:18 06.03.2020
1456 Clouds 7 1007 56 10000 1.5 0 11:43 06.03.2020
1457 Clouds 6 1007 56 10000 1.5 0 11:21 06.03.2020
1458 Clouds 6 1007 55 10000 0.5 0 10:58 06.03.2020
1459 Clouds 6 1007 55 10000 0.5 0 10:37 06.03.2020
1460 Clouds 4 1007 55 10000 0.5 0 10:19 06.03.2020
1461 Clouds 3 1008 64 10000 2.78 328 09:42 06.03.2020
1462 Clouds 2 1008 71 10000 0.5 0 09:24 06.03.2020
1463 Snow 1 997 88 0 2.78 328 08:58 06.03.2020
1464 Snow 1 997 88 0 2.78 328 08:39 06.03.2020
1465 Clouds 1 1010 50 0 1.34 48 08:20 06.03.2020
1466 Clouds 1 997 87 0 0.71 30 07:47 06.03.2020
1467 Clouds 0 1008 94 0 0.71 30 07:25 06.03.2020
1468 Clouds 1 1010 47 0 0.71 30 06:47 06.03.2020
1469 Clouds 1 1010 45 0 0.71 30 06:28 06.03.2020
1470 Clouds 1 1010 46 0 0.71 30 05:39 06.03.2020
1471 Clouds 1 1010 45 0 2.43 24 05:20 06.03.2020
1472 Clouds 1 997 86 0 2.43 24 04:39 06.03.2020
1473 Clouds 3 1011 31 0 2.82 12 01:44 06.03.2020
1474 Clouds 3 1011 30 0 2.82 12 01:25 06.03.2020
1475 Clouds 4 1011 32 0 0.45 233 00:50 06.03.2020
1476 Clouds 4 1011 18 0 1.34 4 00:30 06.03.2020
1477 Clouds 5 1012 21 0 1.34 343 23:44 05.03.2020
1478 Clouds 5 1012 15 0 3.13 344 23:25 05.03.2020
1479 Clouds 5 1012 30 0 2.24 338 22:55 05.03.2020
1480 Clouds 5 1012 33 0 1.34 346 22:37 05.03.2020
1481 Clouds 6 1012 34 0 2.68 284 22:18 05.03.2020
1482 Clouds 6 1011 87 0 3.36 1 21:55 05.03.2020
1483 Clouds 6 1012 38 0 2.24 283 21:37 05.03.2020
1484 Clouds 6 1012 38 0 1.34 311 21:19 05.03.2020
1485 Clouds 6 1010 15 0 5.81 352 20:42 05.03.2020
1486 Snow 8 1010 17 0 5.36 341 20:21 05.03.2020
1487 Clouds 8 1004 96 10000 4.1 240 19:59 05.03.2020
1488 Clouds 8 1004 96 10000 4.1 240 19:40 05.03.2020
1489 Clouds 8 1004 96 10000 4.1 240 19:21 05.03.2020
1490 Clouds 8 1004 96 10000 4.1 240 18:58 05.03.2020
1491 Clouds 8 1004 96 10000 4.1 240 18:58 05.03.2020
1492 Clouds 9 1003 50 10000 4.6 240 18:37 05.03.2020
1493 Clouds 10 1003 50 10000 4.6 240 18:19 05.03.2020
1494 Rain 9 1003 61 10000 3.6 260 17:57 05.03.2020
1495 Rain 9 1003 61 10000 3.6 260 17:57 05.03.2020
1496 Rain 9 1003 61 10000 3.6 260 17:39 05.03.2020
1497 Rain 10 1003 50 10000 8.2 270 17:20 05.03.2020
1498 Rain 10 1002 71 10000 4.6 220 16:41 05.03.2020
1499 Rain 9 1002 93 10000 4.1 220 16:23 05.03.2020
1500 Rain 10 1003 87 10000 3.6 210 15:57 05.03.2020
1501 Rain 11 1002 81 10000 7.2 210 15:37 05.03.2020
1502 Rain 11 1002 81 10000 7.2 210 15:19 05.03.2020
1503 Rain 11 1003 71 10000 7.7 200 14:41 05.03.2020
1504 Rain 12 1003 71 10000 6.2 190 14:22 05.03.2020
1505 Clouds 11 1004 76 10000 3.6 200 13:58 05.03.2020
1506 Clouds 12 1004 76 10000 3.6 200 13:39 05.03.2020
1507 Clouds 12 1005 76 10000 1 0 13:20 05.03.2020
1508 Clouds 12 1005 76 10000 1 0 13:20 05.03.2020
1509 Clouds 12 1005 76 10000 1.5 210 12:55 05.03.2020
1510 Clouds 12 1005 76 10000 1.5 210 12:36 05.03.2020
1511 Clouds 12 1006 76 10000 1.5 0 12:18 05.03.2020
1512 Clouds 12 1006 71 10000 0.5 0 11:55 05.03.2020
1513 Clouds 13 1007 71 10000 1 0 11:36 05.03.2020
1514 Clouds 13 1007 71 10000 1 0 11:18 05.03.2020
1515 Clouds 12 1007 87 10000 1 0 10:55 05.03.2020
1516 Clouds 11 1007 87 10000 1 0 10:37 05.03.2020
1517 Clouds 9 999 92 0 2.68 176 10:19 05.03.2020
1518 Clouds 9 1006 88 0 2.3 210 09:40 05.03.2020
1519 Clouds 8 1006 87 0 2.3 210 09:21 05.03.2020
1520 Clouds 7 1007 90 0 2.3 210 08:43 05.03.2020
1521 Clouds 6 1007 89 0 1.79 203 08:24 05.03.2020
1522 Clouds 5 1001 95 0 4.47 174 07:45 05.03.2020
1523 Clouds 5 1001 95 0 5.81 226 07:22 05.03.2020
1524 Clouds 5 1008 91 0 1.57 200 06:45 05.03.2020
1525 Clouds 5 1002 95 0 4.02 231 06:21 05.03.2020
1526 Clouds 5 1003 95 0 4.02 229 05:37 05.03.2020
1527 Clouds 6 1005 95 0 4.02 183 04:25 05.03.2020
1528 Clouds 6 1005 95 0 3.58 193 03:58 05.03.2020
1529 Clouds 6 1006 96 0 2.68 210 02:41 05.03.2020
1530 Clouds 6 1008 96 0 2.24 214 01:28 05.03.2020
1531 Clouds 6 1008 96 0 1.34 224 00:50 05.03.2020
1532 Clouds 7 1009 96 0 2.24 188 23:57 04.03.2020
1533 Clouds 7 1009 96 0 0.55 120 23:39 04.03.2020
1534 Clouds 8 1017 75 0 0.55 120 23:21 04.03.2020
1535 Clouds 8 1015 82 0 1.7 17 22:56 04.03.2020
1536 Clouds 8 1017 76 0 1.7 17 22:37 04.03.2020
1537 Clouds 8 1015 82 0 1.7 17 22:18 04.03.2020
1538 Clouds 8 1010 96 0 1.7 17 21:42 04.03.2020
1539 Clouds 8 1010 96 0 1.7 17 21:23 04.03.2020
1540 Clouds 9 1010 95 0 1.7 17 20:59 04.03.2020
1541 Clouds 9 1010 96 0 1.7 17 20:40 04.03.2020
1542 Rain 9 1015 82 0 1.9 350 20:21 04.03.2020
1543 Rain 10 1015 81 0 1.9 350 19:43 04.03.2020
1544 Rain 10 1015 79 0 1.9 350 19:24 04.03.2020
1545 Rain 10 1015 75 0 1.9 350 18:59 04.03.2020
1546 Rain 8 1017 69 0 1.9 350 18:41 04.03.2020
1547 Rain 8 1010 96 0 1.34 349 18:23 04.03.2020
1548 Rain 8 1010 96 0 1.34 349 18:23 04.03.2020
1549 Rain 9 1010 95 0 0.89 30 17:59 04.03.2020
1550 Rain 8 1010 95 0 1.34 336 17:38 04.03.2020
1551 Rain 13 1015 68 0 1.43 328 17:20 04.03.2020
1552 Rain 13 1015 66 0 1.43 328 16:55 04.03.2020
1553 Rain 13 1017 61 0 1.43 328 16:36 04.03.2020
1554 Rain 12 1015 68 0 1.43 328 16:18 04.03.2020
1555 Rain 13 1016 69 0 1.43 328 15:42 04.03.2020
1556 Rain 13 1016 68 0 1.43 328 15:23 04.03.2020
1557 Rain 13 1016 69 0 1.43 328 14:56 04.03.2020
1558 Rain 13 1016 70 0 1.43 328 14:38 04.03.2020
1559 Rain 12 1016 70 0 1.72 315 14:19 04.03.2020
1560 Rain 11 1016 69 0 1.72 315 13:57 04.03.2020
1561 Rain 10 1017 71 0 1.72 315 13:38 04.03.2020
1562 Rain 11 1018 57 0 1.72 315 13:20 04.03.2020
1563 Rain 11 1018 57 0 1.21 317 12:45 04.03.2020
1564 Rain 11 1017 75 0 1.21 317 12:27 04.03.2020
1565 Rain 10 1018 74 0 1.21 317 11:59 04.03.2020
1566 Rain 9 1018 75 0 1.21 317 11:41 04.03.2020
1567 Rain 9 1018 72 0 2.11 2 11:22 04.03.2020
1568 Rain 8 1018 73 0 2.11 2 10:56 04.03.2020
1569 Rain 8 1018 78 0 2.11 2 10:38 04.03.2020
1570 Rain 7 1018 65 0 2.11 2 10:18 04.03.2020
1571 Rain 6 1018 64 0 2.11 2 09:42 04.03.2020
1572 Rain 5 1018 58 0 2.11 2 09:21 04.03.2020
1573 Rain 3 1008 68 0 0.45 273 08:44 04.03.2020
1574 Rain 3 1018 47 0 2.11 2 08:26 04.03.2020
1575 Clouds 1 1008 51 0 1.79 308 07:54 04.03.2020
1576 Clouds 2 1008 37 0 1.79 359 07:35 04.03.2020
1577 Clouds 2 1007 37 0 1.79 359 06:58 04.03.2020
1578 Clouds 3 1007 36 0 1.79 131 06:40 04.03.2020
1579 Clouds 3 1007 37 0 1.79 39 06:20 04.03.2020
1580 Clouds 2 1017 50 0 3.76 11 05:45 04.03.2020
1581 Clouds 2 1006 56 0 1.34 174 04:19 04.03.2020
1582 Clouds 2 1017 53 0 4.57 9 03:38 04.03.2020
1583 Clouds 1 1017 54 0 4.57 9 02:59 04.03.2020
1584 Clouds -1 1006 85 0 2.24 10 02:32 04.03.2020
1585 Clouds 2 1006 95 0 1.79 20 01:58 04.03.2020
1586 Clouds 3 1017 61 0 0.45 105 01:38 04.03.2020
1587 Snow 2 1018 78 0 0.89 311 00:42 04.03.2020
1588 Snow 2 1018 78 0 0.89 311 00:42 04.03.2020
1589 Snow 2 1005 96 0 0.89 293 00:24 04.03.2020
1590 Snow 2 1017 84 0 4.81 360 23:44 03.03.2020
1591 Snow 2 1017 86 0 4.81 360 23:24 03.03.2020
1592 Snow 3 1016 87 0 3.3 321 22:56 03.03.2020
1593 Snow 3 1003 96 0 0.45 359 22:37 03.03.2020
1594 Snow 3 1003 96 0 3.13 8 22:19 03.03.2020
1595 Snow 3 1015 90 0 3.3 321 21:55 03.03.2020
1596 Snow 3 1001 96 0 4.02 8 21:36 03.03.2020
1597 Snow 2 1000 96 0 3.13 11 21:18 03.03.2020
1598 Snow 3 998 97 0 5.36 21 20:40 03.03.2020
1599 Snow 4 997 96 0 5.36 6 20:19 03.03.2020
1600 Snow 7 1011 86 0 0.45 329 19:56 03.03.2020
1601 Snow 7 1010 85 0 1.79 284 19:37 03.03.2020
1602 Snow 7 1009 82 0 7.28 321 19:19 03.03.2020
1603 Snow 5 994 96 0 7.15 1 18:57 03.03.2020
1604 Snow 6 1007 82 0 0.89 288 18:39 03.03.2020
1605 Snow 5 994 96 0 4.47 359 18:19 03.03.2020
1606 Snow 5 1007 85 0 0.45 277 17:55 03.03.2020
1607 Snow 5 994 89 0 3.13 37 17:36 03.03.2020
1608 Snow 5 996 94 0 5.36 27 17:18 03.03.2020
1609 Snow 6 1006 95 0 3.58 243 16:55 03.03.2020
1610 Snow 5 993 89 0 0.45 359 16:36 03.03.2020
1611 Snow 5 993 86 0 3.58 243 16:18 03.03.2020
1612 Snow 4 994 90 0 2.2 228 15:41 03.03.2020
1613 Snow 4 994 90 0 1.34 212 15:21 03.03.2020
1614 Snow 4 993 89 0 0.45 193 14:54 03.03.2020
1615 Snow 4 993 89 0 0.45 193 14:54 03.03.2020
1616 Snow 5 993 89 0 2.24 231 14:36 03.03.2020
1617 Snow 4 993 89 0 4.02 181 14:18 03.03.2020
1618 Snow 4 1008 91 0 2.94 205 13:42 03.03.2020
1619 Snow 3 1008 90 0 2.94 205 13:24 03.03.2020
1620 Snow 6 1007 40 0 2.94 205 12:55 03.03.2020
1621 Snow 6 1007 39 0 0.89 43 12:36 03.03.2020
1622 Snow 4 995 90 0 4.02 190 12:18 03.03.2020
1623 Snow 3 1010 89 0 2.94 205 11:38 03.03.2020
1624 Clouds 3 997 93 0 2.24 179 11:19 03.03.2020
1625 Clouds 3 997 93 0 2.24 231 11:19 03.03.2020
1626 Clouds 3 997 92 0 2.68 148 10:57 03.03.2020
1627 Clouds 4 1011 87 0 1.89 228 10:38 03.03.2020
1628 Clouds 3 997 81 0 3.58 167 10:19 03.03.2020
1629 Clouds 2 1011 88 0 1.89 228 09:45 03.03.2020
1630 Clouds 2 1011 89 0 1.89 228 09:23 03.03.2020
1631 Clouds 1 1012 88 0 1.89 228 08:59 03.03.2020
1632 Clouds 2 1011 88 0 1.89 228 08:39 03.03.2020
1633 Clouds 1 1012 63 0 1.22 228 08:21 03.03.2020
1634 Clouds 1 1011 85 0 3.28 12 07:44 03.03.2020
1635 Clouds 1 1011 85 0 3.28 12 07:23 03.03.2020
1636 Clouds 1 1012 86 0 3.28 12 06:51 03.03.2020
1637 Clouds 1 1011 84 0 3.28 12 06:25 03.03.2020
1638 Clouds 1 1011 80 0 3.28 12 05:47 03.03.2020
1639 Clouds 1 1011 82 0 3.28 12 05:28 03.03.2020
1640 Snow 1 1011 84 0 3.29 352 04:30 03.03.2020
1641 Snow 2 1011 90 0 1.98 332 01:40 03.03.2020
1642 Snow 2 1010 91 0 2.04 341 00:49 03.03.2020
1643 Snow 2 1010 91 0 2.04 341 00:27 03.03.2020
1644 Snow 0 1009 91 0 2.04 341 23:57 02.03.2020
1645 Snow 0 1009 91 0 2.04 341 23:38 02.03.2020
1646 Snow 2 1012 47 0 2.68 270 23:20 02.03.2020
1647 Snow 0 997 95 0 3.13 350 22:55 02.03.2020
1648 Snow 2 1009 92 0 2.3 332 22:37 02.03.2020
1649 Snow 2 1012 52 0 0.45 10 22:18 02.03.2020
1650 Snow 0 1008 88 0 2.3 332 21:42 02.03.2020
1651 Snow 0 1008 84 0 2.3 332 21:23 02.03.2020
1652 Snow 0 995 94 0 2.68 242 20:58 02.03.2020
1653 Snow 2 1006 81 0 2.3 332 20:39 02.03.2020
1654 Snow 3 1005 78 0 2.63 343 20:20 02.03.2020
1655 Clouds 4 1004 36 10000 2.6 310 19:56 02.03.2020
1656 Clouds 3 1004 36 10000 2.6 310 19:38 02.03.2020
1657 Clouds 3 1004 36 10000 2.6 310 19:20 02.03.2020
1658 Clouds 5 1004 36 10000 2.6 310 18:45 02.03.2020
1659 Clouds 5 1003 39 10000 4.1 310 18:20 02.03.2020
1660 Clouds 4 1002 39 10000 4.1 300 17:59 02.03.2020
1661 Clouds 5 1002 39 10000 4.1 300 17:41 02.03.2020
1662 Clouds 5 1001 31 10000 9.8 300 17:21 02.03.2020
1663 Clouds 5 1001 31 10000 9.8 300 17:21 02.03.2020
1664 Clouds 4 1000 24 10000 8.7 290 16:56 02.03.2020
1665 Clouds 6 1000 24 10000 8.7 290 16:37 02.03.2020
1666 Clouds 5 1000 23 10000 6.2 300 16:19 02.03.2020
1667 Clouds 5 999 25 10000 6.7 320 15:43 02.03.2020
1668 Clouds 5 999 27 10000 7.2 310 15:20 02.03.2020
1669 Clouds 5 999 27 10000 7.2 310 15:20 02.03.2020
1670 Clouds 8 998 29 10000 7.2 330 14:55 02.03.2020
1671 Clouds 6 998 29 10000 7.2 330 14:36 02.03.2020
1672 Clouds 6 998 31 10000 8.2 300 14:18 02.03.2020
1673 Clouds 6 998 36 10000 9.3 310 13:39 02.03.2020
1674 Clouds 8 998 52 10000 10.3 310 13:19 02.03.2020
1675 Clouds 8 997 42 10000 7.2 300 12:44 02.03.2020
1676 Clouds 8 996 80 10000 5.1 290 12:21 02.03.2020
1677 Clouds 7 994 57 10000 3.6 0 11:57 02.03.2020
1678 Clouds 7 994 57 10000 3.6 0 11:37 02.03.2020
1679 Rain 7 994 81 10000 6.2 220 11:18 02.03.2020
1680 Clouds 8 993 81 10000 3.1 210 10:43 02.03.2020
1681 Snow 8 998 67 0 4.12 245 10:21 02.03.2020
1682 Snow 8 992 83 0 4.12 245 09:59 02.03.2020
1683 Snow 8 992 83 0 4.12 245 09:59 02.03.2020
1684 Snow 8 992 88 0 4.12 245 09:40 02.03.2020
1685 Snow 8 996 93 0 4.12 245 09:22 02.03.2020
1686 Snow 8 991 83 0 0.89 32 08:43 02.03.2020
1687 Snow 8 990 80 0 2.24 157 08:22 02.03.2020
1688 Snow 7 988 93 0 1.79 45 07:42 02.03.2020
1689 Snow 7 989 27 0 1.34 101 07:19 02.03.2020
1690 Snow 8 989 93 0 0.45 90 06:38 02.03.2020
1691 Snow 7 991 91 0 0.45 110 05:53 02.03.2020
1692 Snow 6 995 90 0 4.16 193 04:23 02.03.2020
1693 Snow 7 997 42 0 4.16 193 03:20 02.03.2020
1694 Snow 7 997 89 0 0.45 67 02:37 02.03.2020
1695 Snow 7 997 89 0 0.45 67 02:37 02.03.2020
1696 Snow 6 1000 87 0 4 196 01:45 02.03.2020
1697 Snow 6 1000 84 0 0.89 129 01:26 02.03.2020
1698 Snow 7 1005 40 0 4.58 196 00:23 02.03.2020
1699 Snow 7 1005 39 0 4.58 196 23:56 01.03.2020
1700 Snow 6 997 83 0 7.6 208 23:38 01.03.2020
1701 Snow 6 997 84 0 3.58 197 23:19 01.03.2020
1702 Snow 6 1006 85 0 1.79 63 22:42 01.03.2020
1703 Snow 6 998 81 0 3.58 200 22:19 01.03.2020
1704 Snow 6 999 79 0 4.47 214 21:55 01.03.2020
1705 Snow 7 998 78 0 4.92 222 21:37 01.03.2020
1706 Snow 7 999 75 0 4.02 179 21:18 01.03.2020
1707 Snow 6 1000 74 0 4.02 226 20:43 01.03.2020
1708 Clouds 6 1000 76 0 2.68 153 20:24 01.03.2020
1709 Clouds 9 1007 52 0 0.45 120 19:43 01.03.2020
1710 Clouds 9 1007 54 0 2.13 204 19:24 01.03.2020
1711 Clouds 10 1007 48 0 1.79 226 18:59 01.03.2020
1712 Clouds 9 1001 78 0 1.34 226 18:40 01.03.2020
1713 Clouds 10 1007 30 10000 7.2 230 18:20 01.03.2020
1714 Clouds 10 1007 30 10000 7.2 230 17:57 01.03.2020
1715 Clouds 10 1007 30 10000 7.2 230 17:39 01.03.2020
1716 Clouds 10 1007 30 10000 7.2 230 17:39 01.03.2020
1717 Clouds 14 1007 30 10000 7.2 230 17:20 01.03.2020
1718 Clouds 14 1007 30 10000 8.7 230 16:57 01.03.2020
1719 Clouds 14 1007 30 10000 8.7 230 16:38 01.03.2020
1720 Clouds 14 1007 33 10000 7.7 230 16:18 01.03.2020
1721 Clouds 14 1007 41 10000 8.7 210 15:56 01.03.2020
1722 Clouds 14 1007 41 10000 8.7 210 15:37 01.03.2020
1723 Clouds 14 1007 43 10000 7.7 220 15:19 01.03.2020
1724 Clouds 14 1007 44 10000 7.2 220 14:56 01.03.2020
1725 Clouds 14 1007 44 10000 7.2 220 14:38 01.03.2020
1726 Clouds 11 1008 44 10000 7.7 230 14:19 01.03.2020
1727 Clouds 9 1007 44 10000 6.2 210 13:44 01.03.2020
1728 Clouds 9 1008 47 10000 7.2 220 13:22 01.03.2020
1729 Clouds 10 1008 46 10000 6.7 210 12:59 01.03.2020
1730 Clouds 9 1008 46 10000 6.7 210 12:59 01.03.2020
1731 Clouds 9 1008 46 10000 6.7 210 12:41 01.03.2020
1732 Clouds 14 1008 50 10000 6.7 200 12:21 01.03.2020
1733 Clouds 12 1009 50 10000 4.6 190 11:42 01.03.2020
1734 Clouds 11 1008 53 10000 4.6 190 11:24 01.03.2020
1735 Clouds 11 1009 53 10000 3.6 180 10:57 01.03.2020
1736 Clouds 9 1009 53 10000 4.6 200 10:38 01.03.2020
1737 Clouds 10 1009 53 10000 4.6 200 10:20 01.03.2020
1738 Clouds 9 1009 57 10000 3.6 220 09:55 01.03.2020
1739 Clouds 9 1009 57 10000 3.6 220 09:37 01.03.2020
1740 Clouds 7 1009 65 10000 4.1 230 09:18 01.03.2020
1741 Clouds 6 1007 72 0 2.78 206 08:41 01.03.2020
1742 Clouds 3 999 89 0 0.89 195 08:20 01.03.2020
1743 Clouds 4 1006 76 0 1.26 191 07:42 01.03.2020
1744 Clouds 4 999 91 0 2.24 262 07:24 01.03.2020
1745 Clouds 4 999 90 0 1.79 135 06:54 01.03.2020
1746 Clouds 4 999 90 0 1.79 183 06:36 01.03.2020
1747 Clouds 6 1011 40 0 1.85 211 04:26 01.03.2020
1748 Clouds 5 1000 84 0 3.58 221 02:54 01.03.2020
1749 Snow 7 1012 29 0 1.38 190 01:53 01.03.2020
1750 Snow 8 1013 29 0 0.45 11 01:22 01.03.2020
1751 Snow 6 1002 89 0 1.02 226 00:43 01.03.2020
1752 Snow 7 1013 28 0 3.13 261 00:21 01.03.2020
1753 Snow 7 1013 30 0 3.13 246 23:49 29.02.2020
1754 Snow 7 1013 29 0 3.58 235 23:31 29.02.2020
1755 Rain 8 1008 81 0 1.34 221 22:44 29.02.2020
1756 Rain 8 1008 81 0 1.34 221 22:44 29.02.2020
1757 Rain 8 1008 78 0 0.45 155 22:24 29.02.2020
1758 Rain 7 1002 86 0 1.87 194 21:43 29.02.2020
1759 Rain 7 1002 84 0 1.87 194 21:25 29.02.2020
1760 Rain 7 1002 83 0 0.45 174 20:44 29.02.2020
1761 Clouds 8 1002 83 0 1.22 183 20:22 29.02.2020
1762 Snow 9 1007 71 0 1.68 202 19:57 29.02.2020
1763 Snow 9 1007 70 0 1.68 202 19:38 29.02.2020
1764 Snow 10 1007 66 0 1.34 313 19:20 29.02.2020
1765 Snow 10 1007 66 0 1.34 313 19:20 29.02.2020
1766 Snow 8 1002 82 0 1.68 202 18:43 29.02.2020
1767 Clouds 9 1008 44 10000 5.7 190 18:25 29.02.2020
1768 Clouds 10 1008 44 10000 5.7 190 17:58 29.02.2020
1769 Clouds 10 1008 44 10000 5.7 190 17:40 29.02.2020
1770 Clouds 12 1008 44 10000 5.7 190 17:21 29.02.2020
1771 Clouds 13 1007 44 10000 5.1 190 16:45 29.02.2020
1772 Clouds 13 1007 44 10000 4.6 190 16:22 29.02.2020
1773 Clouds 14 1008 41 10000 4.6 200 15:59 29.02.2020
1774 Clouds 15 1008 41 10000 4.6 200 15:41 29.02.2020
1775 Clouds 14 1008 44 10000 6.2 220 15:23 29.02.2020
1776 Clouds 15 1008 44 10000 5.7 220 14:42 29.02.2020
1777 Clouds 15 1008 38 10000 7.7 210 14:24 29.02.2020
1778 Clouds 16 1009 38 10000 5.7 200 13:57 29.02.2020
1779 Clouds 15 1009 38 10000 5.7 200 13:38 29.02.2020
1780 Clouds 15 1009 63 10000 5.7 190 13:20 29.02.2020
1781 Clouds 13 1010 58 10000 1.5 0 12:42 29.02.2020
1782 Clouds 13 1010 58 10000 1 0 12:22 29.02.2020
1783 Clouds 12 1010 70 10000 1.5 0 11:56 29.02.2020
1784 Clouds 11 1010 70 10000 1.5 0 11:38 29.02.2020
1785 Clouds 10 1011 100 10000 1 0 11:20 29.02.2020
1786 Fog 9 1011 100 10000 0.5 0 10:46 29.02.2020
1787 Fog 8 1012 100 500 2.1 340 10:28 29.02.2020
1788 Fog 6 1012 100 150 0.5 0 09:48 29.02.2020
1789 Fog 7 1012 100 100 1.5 0 09:25 29.02.2020
1790 Clouds 6 1008 62 0 0.89 146 08:42 29.02.2020
1791 Clouds 5 1002 78 0 3.58 215 08:23 29.02.2020
1792 Clouds 4 1002 80 0 4.02 239 07:58 29.02.2020
1793 Clouds 4 1002 78 0 2.68 191 07:40 29.02.2020
1794 Clouds 4 1001 77 0 5.81 150 07:18 29.02.2020
1795 Clouds 5 1002 77 0 5.36 210 06:44 29.02.2020
1796 Clouds 5 1002 76 0 5.36 217 06:23 29.02.2020
1797 Clouds 4 1002 81 0 2.68 217 05:46 29.02.2020
1798 Clouds 5 1003 83 0 4.47 198 04:46 29.02.2020
1799 Clouds 6 1010 44 0 0.45 133 03:40 29.02.2020
1800 Clouds 5 1011 42 0 0.45 58 03:21 29.02.2020
1801 Clouds 6 1012 45 0 0.89 177 02:37 29.02.2020
1802 Clouds 6 1012 48 0 0.89 94 02:37 29.02.2020
1803 Clouds 7 1014 77 0 1.74 213 00:58 29.02.2020
1804 Clouds 7 1015 56 0 1.74 213 00:36 29.02.2020
1805 Clouds 7 1015 85 0 1.74 213 23:43 28.02.2020
1806 Clouds 8 1016 50 0 1.74 213 23:24 28.02.2020
1807 Clouds 8 1016 50 0 1.74 213 23:24 28.02.2020
1808 Clouds 8 1016 84 0 2.01 203 22:54 28.02.2020
1809 Clouds 9 1016 49 0 2.01 203 22:36 28.02.2020
1810 Clouds 9 1017 48 0 2.01 203 22:18 28.02.2020
1811 Clouds 8 1011 86 0 1.79 298 21:41 28.02.2020
1812 Clouds 8 1011 86 0 1.79 205 21:20 28.02.2020
1813 Clouds 9 1013 67 0 1.34 22 20:40 28.02.2020
1814 Clouds 9 1018 41 0 1.78 207 20:22 28.02.2020
1815 Clouds 10 1016 73 0 2.2 202 19:59 28.02.2020
1816 Clouds 11 1019 39 0 2.2 202 19:39 28.02.2020
1817 Clouds 11 1016 67 0 2.2 202 19:20 28.02.2020
1818 Clouds 8 1012 88 0 1.79 195 18:55 28.02.2020
1819 Clouds 7 1012 88 0 1.34 200 18:37 28.02.2020
1820 Clouds 11 1018 54 10000 4.1 240 18:19 28.02.2020
1821 Clouds 14 1018 54 10000 4.1 240 17:40 28.02.2020
1822 Clouds 14 1018 54 10000 4.1 240 17:40 28.02.2020
1823 Clouds 14 1018 54 10000 4.1 240 17:22 28.02.2020
1824 Clouds 14 1018 54 10000 4.6 240 16:44 28.02.2020
1825 Clouds 14 1018 48 10000 5.1 230 16:20 28.02.2020
1826 Clouds 14 1020 74 0 2.45 210 15:58 28.02.2020
1827 Clouds 15 1018 42 10000 4.6 230 15:40 28.02.2020
1828 Clouds 15 1019 44 10000 4.1 230 15:19 28.02.2020
1829 Clouds 15 1019 44 10000 4.6 230 14:57 28.02.2020
1830 Clouds 15 1019 44 10000 4.6 230 14:38 28.02.2020
1831 Clouds 14 1019 44 10000 5.7 230 14:18 28.02.2020
1832 Clouds 14 1020 41 10000 3.6 230 13:41 28.02.2020
1833 Clouds 14 1020 47 10000 3.1 210 13:20 28.02.2020
1834 Clouds 13 1021 47 10000 1.5 190 12:58 28.02.2020
1835 Clouds 13 1021 47 10000 1.5 190 12:39 28.02.2020
1836 Clouds 14 1021 50 10000 1 0 12:21 28.02.2020
1837 Clouds 13 1021 53 10000 1.5 70 11:41 28.02.2020
1838 Clouds 13 1021 53 10000 1.5 70 11:41 28.02.2020
1839 Clouds 12 1021 57 10000 1 0 11:22 28.02.2020
1840 Clouds 11 1020 63 0 0.87 31 10:54 28.02.2020
1841 Clouds 11 1020 63 0 0.87 31 10:54 28.02.2020
1842 Clouds 10 1021 70 10000 1 0 10:36 28.02.2020
1843 Clouds 10 1021 61 10000 0.87 31 10:18 28.02.2020
1844 Clouds 8 1022 75 10000 1 0 09:40 28.02.2020
1845 Clouds 7 1022 75 10000 1.5 10 09:20 28.02.2020
1846 Clouds 6 1020 79 0 0.87 31 08:42 28.02.2020
1847 Clouds 5 1014 95 0 0.45 21 08:21 28.02.2020
1848 Clouds 5 1014 95 0 2.55 9 07:46 28.02.2020
1849 Clouds 5 1019 79 0 2.55 9 07:26 28.02.2020
1850 Clouds 5 1013 94 0 2.55 9 06:52 28.02.2020
1851 Clouds 5 1013 94 0 0.45 6 06:33 28.02.2020
1852 Clouds 5 1012 95 0 2.24 359 05:30 28.02.2020
1853 Clouds 5 1012 94 0 2.4 2 04:31 28.02.2020
1854 Clouds 6 1018 82 0 2.4 2 02:55 28.02.2020
1855 Clouds 6 1018 81 0 2.4 2 02:28 28.02.2020
1856 Snow 7 1018 80 0 0.45 299 01:46 28.02.2020
1857 Snow 8 1018 81 0 2.49 344 00:31 28.02.2020
1858 Snow 8 1018 78 0 0.45 266 23:47 27.02.2020
1859 Snow 8 1018 77 0 0.45 283 23:22 27.02.2020
1860 Snow 8 1017 85 0 3.22 347 22:56 27.02.2020
1861 Snow 9 1020 48 0 3.13 261 22:38 27.02.2020
1862 Snow 9 1017 89 0 3.22 347 22:20 27.02.2020
1863 Snow 9 1017 87 0 3.22 347 21:41 27.02.2020
1864 Snow 9 1019 51 0 3.13 338 21:23 27.02.2020
1865 Snow 9 1017 87 0 3.22 347 20:59 27.02.2020
1866 Snow 9 1017 86 0 3.22 347 20:41 27.02.2020
1867 Snow 9 1019 47 0 2.24 356 20:21 27.02.2020
1868 Snow 9 1017 80 0 3 349 19:57 27.02.2020
1869 Snow 10 1019 60 0 3 349 19:38 27.02.2020
1870 Clouds 10 1014 41 10000 3.6 210 19:19 27.02.2020
1871 Clouds 10 1014 41 10000 3.6 210 18:43 27.02.2020
1872 Clouds 11 1014 41 10000 3.6 210 18:24 27.02.2020
1873 Clouds 9 1014 38 10000 4.6 210 17:59 27.02.2020
1874 Clouds 9 1014 38 10000 4.6 210 17:40 27.02.2020
1875 Clouds 13 1013 38 10000 4.1 220 17:20 27.02.2020
1876 Clouds 13 1013 38 10000 6.2 210 16:58 27.02.2020
1877 Clouds 14 1013 38 10000 6.2 210 16:39 27.02.2020
1878 Clouds 14 1013 36 10000 7.2 210 16:19 27.02.2020
1879 Clouds 14 1013 86 10000 6.7 210 15:57 27.02.2020
1880 Clouds 14 1013 86 10000 6.7 210 15:37 27.02.2020
1881 Clouds 14 1012 41 10000 7.7 200 15:18 27.02.2020
1882 Clouds 14 1013 86 10000 6.7 200 14:55 27.02.2020
1883 Clouds 14 1013 86 10000 6.7 200 14:36 27.02.2020
1884 Clouds 13 1013 41 10000 6.2 210 14:18 27.02.2020
1885 Clouds 12 1014 41 10000 5.7 210 13:41 27.02.2020
1886 Clouds 12 1014 45 10000 4.1 220 13:20 27.02.2020
1887 Clouds 11 1015 46 10000 2.1 190 12:46 27.02.2020
1888 Clouds 11 1015 42 10000 1.5 0 12:25 27.02.2020
1889 Clouds 10 1016 45 10000 1.5 0 11:58 27.02.2020
1890 Clouds 9 1016 45 10000 1.5 0 11:38 27.02.2020
1891 Clouds 6 1016 42 10000 0.5 0 11:20 27.02.2020
1892 Clouds 7 1016 48 10000 1 0 10:43 27.02.2020
1893 Clouds 5 1016 51 10000 1.5 230 10:22 27.02.2020
1894 Snow 4 1007 76 0 4.92 4 09:47 27.02.2020
1895 Snow 3 1017 57 0 0.45 159 09:29 27.02.2020
1896 Snow 2 1017 58 0 1.57 281 08:57 27.02.2020
1897 Snow 2 1017 59 0 1.57 281 08:38 27.02.2020
1898 Snow 2 1017 59 0 1.57 281 08:38 27.02.2020
1899 Clouds 1 1006 84 0 3.58 204 08:18 27.02.2020
1900 Clouds 1 1005 83 0 2.24 191 07:43 27.02.2020
1901 Clouds 1 1006 84 0 2.24 201 07:24 27.02.2020
1902 Clouds 0 1005 83 0 2.24 198 06:31 27.02.2020
1903 Clouds 0 1006 83 0 1.79 201 05:24 27.02.2020
1904 Clear 1 1007 84 0 0.45 221 03:21 27.02.2020
1905 Clouds 2 1008 86 0 1.54 6 01:39 27.02.2020
1906 Clouds 2 1008 83 0 1.33 11 00:42 27.02.2020
1907 Clouds 3 1008 84 0 1.33 11 23:56 26.02.2020
1908 Clouds 3 1009 78 0 1.33 11 23:37 26.02.2020
1909 Clouds 4 1018 51 0 2.61 1 23:18 26.02.2020
1910 Clouds 4 1018 51 0 2.61 1 23:18 26.02.2020
1911 Clouds 4 1018 50 0 2.61 1 22:55 26.02.2020
1912 Clouds 4 1018 49 0 2.61 1 22:37 26.02.2020
1913 Clouds 4 1018 48 0 2.61 1 22:18 26.02.2020
1914 Clouds 3 1008 83 0 1.79 38 21:39 26.02.2020
1915 Clouds 2 1007 81 0 1.79 207 21:20 26.02.2020
1916 Clouds 3 1008 77 0 1.79 45 20:56 26.02.2020
1917 Clouds 2 1008 76 0 1.79 34 20:56 26.02.2020
1918 Clouds 3 1008 83 0 2.68 318 20:38 26.02.2020
1919 Clouds 5 1020 28 0 2.24 233 20:19 26.02.2020
1920 Clouds 5 1017 49 0 2.94 360 19:55 26.02.2020
1921 Clouds 5 1020 19 0 3.58 336 19:36 26.02.2020
1922 Clouds 5 1020 23 0 2.24 288 19:18 26.02.2020
1923 Clouds 4 1007 79 0 2.24 301 18:54 26.02.2020
1924 Clouds 3 1007 80 0 2.68 346 18:36 26.02.2020
1925 Clouds 3 1007 81 0 2.24 312 18:18 26.02.2020
1926 Clouds 4 1007 77 0 1.79 354 17:40 26.02.2020
1927 Clouds 6 1007 82 0 0.89 4 17:19 26.02.2020
1928 Clouds 6 1015 38 0 0.89 263 16:56 26.02.2020
1929 Clouds 6 1015 39 0 1.34 357 16:37 26.02.2020
1930 Clouds 6 1006 79 0 1.34 308 16:18 26.02.2020
1931 Clouds 7 1006 84 0 2.24 359 15:43 26.02.2020
1932 Clouds 7 1006 77 0 3.13 35 15:25 26.02.2020
1933 Clouds 8 1006 74 0 1.34 297 14:43 26.02.2020
1934 Clouds 8 1006 74 0 1.34 297 14:43 26.02.2020
1935 Clouds 8 1006 68 0 1.79 3 14:23 26.02.2020
1936 Clouds 7 1014 43 0 0.45 280 13:44 26.02.2020
1937 Clouds 7 1014 43 0 0.45 280 13:25 26.02.2020
1938 Clouds 7 1007 67 0 3.13 20 12:59 26.02.2020
1939 Clouds 8 1014 48 0 1.34 328 12:38 26.02.2020
1940 Clouds 7 1017 65 0 2.68 22 12:18 26.02.2020
1941 Clouds 7 1014 49 0 0.45 266 11:43 26.02.2020
1942 Clouds 7 1014 49 0 0.45 266 11:22 26.02.2020
1943 Clouds 7 1014 49 0 0.45 266 11:22 26.02.2020
1944 Clouds 7 1014 49 0 0.45 266 10:59 26.02.2020
1945 Clouds 7 1014 49 0 0.45 266 10:39 26.02.2020
1946 Clouds 7 1014 51 0 0.45 205 10:20 26.02.2020
1947 Clouds 6 1013 51 0 2.95 324 09:43 26.02.2020
1948 Clouds 5 1013 52 0 0.45 288 09:22 26.02.2020
1949 Clouds 4 1012 57 0 2.95 324 08:56 26.02.2020
1950 Clouds 4 1012 57 0 2.95 324 08:36 26.02.2020
1951 Clouds 4 1012 54 0 0.45 312 08:18 26.02.2020
1952 Clouds 3 1004 78 0 2.68 278 07:41 26.02.2020
1953 Clouds 3 1012 52 0 0.45 290 07:23 26.02.2020
1954 Clouds 2 1004 87 0 3.39 359 06:49 26.02.2020
1955 Clouds 2 1012 53 0 0.89 65 06:31 26.02.2020
1956 Clouds 2 1004 95 0 0.89 20 05:48 26.02.2020
1957 Clouds 2 1004 85 0 1.34 328 05:19 26.02.2020
1958 Clouds 3 1012 53 0 3.75 7 03:45 26.02.2020
1959 Clouds 4 1006 81 0 3.31 6 02:18 26.02.2020
1960 Clouds 4 1007 87 0 3.31 6 01:38 26.02.2020
1961 Clouds 4 1007 92 0 0.45 18 00:47 26.02.2020
1962 Clouds 4 1007 77 0 0.45 339 00:21 26.02.2020
1963 Clouds 5 1007 92 0 3.26 11 23:43 25.02.2020
1964 Clouds 4 1007 95 0 3.26 11 23:25 25.02.2020
1965 Clouds 5 1013 69 0 3.17 5 22:57 25.02.2020
1966 Clouds 6 1013 68 0 3.17 5 22:39 25.02.2020
1967 Clouds 6 1015 72 0 0.45 326 22:19 25.02.2020
1968 Clouds 6 1008 83 0 0.45 48 21:38 25.02.2020
1969 Clouds 7 1008 77 0 3.17 5 21:20 25.02.2020
1970 Clouds 6 1008 79 0 3.17 5 20:57 25.02.2020
1971 Clouds 6 1008 89 0 3.17 5 20:39 25.02.2020
1972 Clouds 9 1017 42 0 3.13 352 20:20 25.02.2020
1973 Clouds 9 1013 54 0 3.13 352 19:56 25.02.2020
1974 Clouds 9 1017 40 0 0.89 10 19:37 25.02.2020
1975 Clouds 8 1008 73 0 3.13 352 19:18 25.02.2020
1976 Clouds 8 1008 65 0 0.89 243 18:40 25.02.2020
1977 Clouds 9 1008 79 0 3.13 352 18:21 25.02.2020
1978 Clouds 6 1008 84 0 0.89 18 17:56 25.02.2020
1979 Clouds 7 1007 79 0 0.89 42 17:37 25.02.2020
1980 Clouds 13 1011 36 0 0.45 297 17:18 25.02.2020
1981 Clouds 14 1011 35 0 2.46 340 16:56 25.02.2020
1982 Clouds 14 1011 34 0 0.45 110 16:37 25.02.2020
1983 Clouds 14 1011 36 0 0.45 291 16:19 25.02.2020
1984 Clouds 14 1012 36 0 0.89 333 15:45 25.02.2020
1985 Clouds 14 1011 33 0 0.89 342 15:20 25.02.2020
1986 Clouds 14 1011 33 0 0.89 342 14:59 25.02.2020
1987 Clouds 13 1011 33 0 0.45 25 14:39 25.02.2020
1988 Clouds 13 1011 33 0 0.45 25 14:39 25.02.2020
1989 Clouds 13 1013 49 0 4.02 315 14:18 25.02.2020
1990 Clouds 13 1013 49 0 4.02 315 14:18 25.02.2020
1991 Clouds 13 1018 56 0 2.24 221 13:58 25.02.2020
1992 Clouds 13 1009 42 0 2.24 45 13:39 25.02.2020
1993 Clouds 12 1013 52 0 1.77 263 13:20 25.02.2020
1994 Clouds 12 1012 28 0 0.45 113 12:56 25.02.2020
1995 Clouds 12 1013 31 0 1.72 294 12:37 25.02.2020
1996 Clouds 11 1013 33 0 1.72 294 12:19 25.02.2020
1997 Clouds 11 1014 32 0 1.72 294 11:55 25.02.2020
1998 Clouds 10 1013 30 0 1.72 294 11:37 25.02.2020
1999 Clouds 9 1015 59 0 1.56 31 11:18 25.02.2020
2000 Clouds 8 1014 45 0 1.56 31 10:41 25.02.2020
2001 Clouds 8 1014 45 0 1.56 31 10:41 25.02.2020
2002 Clouds 7 1016 63 0 2.24 33 10:23 25.02.2020
2003 Clouds 6 1014 49 0 1.56 31 09:42 25.02.2020
2004 Clouds 6 1014 47 0 1.56 31 09:23 25.02.2020
2005 Clouds 5 1011 37 0 1.56 31 08:56 25.02.2020
2006 Clouds 5 1011 43 0 1.56 31 08:38 25.02.2020
2007 Clouds 4 1011 53 0 0.94 31 08:20 25.02.2020
2008 Clouds 4 1011 71 0 0.95 24 07:48 25.02.2020
2009 Clouds 3 1011 65 0 0.95 24 07:20 25.02.2020
2010 Clouds 4 1013 46 0 0.95 24 06:41 25.02.2020
2011 Clouds 4 1013 46 0 0.95 24 05:39 25.02.2020
2012 Clear 5 1013 33 0 1.23 42 03:44 25.02.2020
2013 Clear 5 1015 47 0 2.48 26 02:00 25.02.2020
2014 Clear 6 1016 44 0 2.17 26 00:55 25.02.2020
2015 Clear 6 1016 59 0 2.17 26 00:29 25.02.2020
2016 Clear 5 1017 44 0 2.17 26 23:44 24.02.2020
2017 Clear 7 1017 39 0 2.68 26 23:21 24.02.2020
2018 Clear 7 1017 50 0 2.68 26 22:43 24.02.2020
2019 Clear 8 1018 63 0 2.68 26 22:21 24.02.2020
2020 Clear 8 1018 61 0 2.68 26 21:57 24.02.2020
2021 Clear 8 1018 62 0 2.68 26 21:57 24.02.2020
2022 Clear 8 1017 73 0 0.45 45 21:39 24.02.2020
2023 Clear 7 1018 57 0 2.68 26 21:20 24.02.2020
2024 Clear 8 1018 60 0 2.68 26 20:58 24.02.2020
2025 Clear 7 1018 56 0 2.68 26 20:40 24.02.2020
2026 Clear 7 1018 56 0 2.68 26 20:40 24.02.2020
2027 Clear 10 1018 34 0 2.53 22 20:19 24.02.2020
2028 Clear 10 1019 56 0 2.53 22 19:56 24.02.2020
2029 Clear 10 1019 54 0 2.53 22 19:38 24.02.2020
2030 Clear 11 1019 56 0 2.53 22 19:20 24.02.2020
2031 Clear 12 1021 45 10000 4.6 240 18:43 24.02.2020
2032 Clear 13 1021 45 10000 4.6 240 18:24 24.02.2020
2033 Clear 14 1021 42 10000 4.1 240 17:58 24.02.2020
2034 Clear 14 1021 42 10000 4.1 240 17:39 24.02.2020
2035 Clear 18 1021 42 10000 4.6 240 17:20 24.02.2020
2036 Clear 19 1021 37 10000 4.6 230 16:58 24.02.2020
2037 Clear 19 1021 37 10000 4.6 230 16:58 24.02.2020
2038 Clear 19 1021 37 10000 4.6 230 16:38 24.02.2020
2039 Clear 19 1022 30 10000 2.6 230 16:20 24.02.2020
2040 Clear 20 1022 28 10000 2.6 210 15:57 24.02.2020
2041 Clear 20 1022 28 10000 2.6 210 15:38 24.02.2020
2042 Clear 20 1023 24 10000 2.1 220 15:20 24.02.2020
2043 Clear 20 1023 20 10000 1.5 210 14:42 24.02.2020
2044 Clear 19 1024 27 10000 1 0 14:24 24.02.2020
2045 Clear 19 1024 27 10000 1 0 14:24 24.02.2020
2046 Clear 19 1019 26 0 1.79 202 13:59 24.02.2020
2047 Clear 18 1025 26 10000 1 0 13:41 24.02.2020
2048 Clear 18 1020 25 0 1.34 225 13:23 24.02.2020
2049 Clear 17 1024 34 0 0.45 247 12:59 24.02.2020
2050 Clear 17 1027 35 10000 1 0 12:41 24.02.2020
2051 Clear 16 1027 29 10000 1.5 160 12:22 24.02.2020
2052 Clear 15 1028 29 10000 0.5 0 11:49 24.02.2020
2053 Clear 14 1026 43 0 0.89 304 11:31 24.02.2020
2054 Clear 12 1025 41 0 0.45 104 10:52 24.02.2020
2055 Clear 11 1027 45 0 0.1 232 10:32 24.02.2020
2056 Clear 10 1027 52 0 0.45 284 09:58 24.02.2020
2057 Clear 10 1027 49 0 0.45 280 09:39 24.02.2020
2058 Clear 7 1024 38 0 0.1 232 09:19 24.02.2020
2059 Clear 7 1024 38 0 0.1 232 09:19 24.02.2020
2060 Clear 9 1024 29 0 0.1 232 08:48 24.02.2020
2061 Clear 7 1024 27 0 0.1 232 08:28 24.02.2020
2062 Clear 4 1024 26 0 0.45 211 07:52 24.02.2020
2063 Clear 4 1024 26 0 0.45 211 07:52 24.02.2020
2064 Clear 4 1024 24 0 1.1 35 07:31 24.02.2020
2065 Clear 5 1024 23 0 0.45 201 06:48 24.02.2020
2066 Clear 4 1024 53 0 2.24 211 06:22 24.02.2020
2067 Clear 5 1025 33 0 2.68 203 05:33 24.02.2020
2068 Clear 5 1025 44 0 2.24 203 04:49 24.02.2020
2069 Clear 5 1026 35 0 1.09 38 02:57 24.02.2020
2070 Clear 6 1027 67 0 1.71 36 01:52 24.02.2020
2071 Clear 6 1027 62 0 2.05 31 01:28 24.02.2020
2072 Clear 6 1028 63 0 2.05 31 00:37 24.02.2020
2073 Clear 6 1028 63 0 2.05 31 00:19 24.02.2020
2074 Clear 7 1029 64 0 2.05 31 23:42 23.02.2020
2075 Clear 8 1029 65 0 2.05 31 23:22 23.02.2020
2076 Clear 8 1029 65 0 2.4 29 22:58 23.02.2020
2077 Clear 8 1029 55 0 2.4 29 22:40 23.02.2020
2078 Clear 8 1029 58 0 2.4 29 22:20 23.02.2020
2079 Clear 8 1029 57 0 2.4 29 21:46 23.02.2020
2080 Clear 8 1029 57 0 2.4 29 21:46 23.02.2020
2081 Clear 8 1029 52 0 2.4 29 21:46 23.02.2020
2082 Clear 8 1029 64 0 2.4 29 21:20 23.02.2020
2083 Clear 9 1029 56 0 2.4 29 20:57 23.02.2020
2084 Clear 9 1029 54 0 2.4 29 20:57 23.02.2020
2085 Clear 9 1029 54 0 2.4 29 20:57 23.02.2020
2086 Clear 9 1029 49 0 2.4 29 20:39 23.02.2020
2087 Clear 10 1029 61 0 2.83 23 20:20 23.02.2020
2088 Clear 10 1029 57 0 2.83 23 19:57 23.02.2020
2089 Clear 10 1029 59 0 2.83 23 19:39 23.02.2020
2090 Clear 10 1029 51 0 2.83 23 19:19 23.02.2020
2091 Clear 10 1029 51 0 2.83 23 19:19 23.02.2020
2092 Clear 8 1029 60 0 2.83 23 18:56 23.02.2020
2093 Clear 8 1029 62 0 2.83 23 18:37 23.02.2020
2094 Clear 13 1030 37 10000 4.1 220 18:18 23.02.2020
2095 Clear 14 1030 37 10000 4.1 220 17:56 23.02.2020
2096 Clear 13 1030 37 10000 4.1 220 17:37 23.02.2020
2097 Clear 18 1030 37 10000 4.1 220 17:18 23.02.2020
2098 Clear 19 1030 32 10000 3.6 220 16:45 23.02.2020
2099 Clear 19 1030 30 10000 3.1 220 16:26 23.02.2020
2100 Clear 19 1030 24 10000 2.6 210 15:58 23.02.2020
2101 Clear 19 1030 24 10000 2.6 210 15:38 23.02.2020
2102 Clear 19 1031 25 10000 1.5 190 15:20 23.02.2020
2103 Clear 19 1031 25 10000 1.5 190 15:20 23.02.2020
2104 Clear 19 1031 20 10000 1.5 180 14:56 23.02.2020
2105 Clear 19 1031 20 10000 1.5 180 14:38 23.02.2020
2106 Clear 18 1032 25 10000 0.5 0 14:20 23.02.2020
2107 Clear 19 1026 28 0 1.79 225 13:56 23.02.2020
2108 Clear 18 1030 33 0 0.45 65 13:38 23.02.2020
2109 Clear 17 1033 33 10000 1 0 13:19 23.02.2020
2110 Clear 16 1034 37 10000 0.5 0 12:41 23.02.2020
2111 Clear 15 1034 40 10000 1 0 12:21 23.02.2020
2112 Clear 14 1035 30 10000 0.5 0 11:39 23.02.2020
2113 Clear 12 1035 38 10000 0.5 0 11:20 23.02.2020
2114 Clear 12 1033 47 0 0.2 357 10:59 23.02.2020
2115 Clear 11 1033 54 0 0.45 347 10:41 23.02.2020
2116 Clear 10 1033 53 0 0.45 327 10:23 23.02.2020
2117 Clear 8 1036 69 10000 1.5 50 09:56 23.02.2020
2118 Clear 9 1036 69 10000 1.5 50 09:38 23.02.2020
2119 Clear 6 1036 38 10000 0.5 0 09:18 23.02.2020
2120 Clear 7 1030 43 0 0.2 357 08:46 23.02.2020
2121 Clear 6 1030 40 0 0.2 357 08:25 23.02.2020
2122 Clear 4 1029 40 0 1.36 23 07:47 23.02.2020
2123 Clear 4 1029 35 0 1.36 23 07:28 23.02.2020
2124 Clear 4 1029 35 0 1.36 23 06:25 23.02.2020
2125 Clear 3 1029 68 0 1.36 23 05:22 23.02.2020
2126 Clear 4 1029 39 0 1.42 31 04:23 23.02.2020
2127 Clear 4 1029 41 0 1.42 31 02:49 23.02.2020
2128 Clear 5 1030 45 0 2 32 01:39 23.02.2020
2129 Clear 5 1030 51 0 2.09 29 01:20 23.02.2020
2130 Clear 5 1030 63 0 2.09 29 00:43 23.02.2020
2131 Clear 5 1030 51 0 2.09 29 00:20 23.02.2020
2132 Clear 6 1031 60 0 2.09 29 23:43 22.02.2020
2133 Clear 6 1031 55 0 2.09 29 23:43 22.02.2020
2134 Clear 6 1031 61 0 2.09 29 23:22 22.02.2020
2135 Clear 6 1031 47 0 2.22 28 22:45 22.02.2020
2136 Clear 6 1031 49 0 2.22 28 22:20 22.02.2020
2137 Clear 5 1031 45 0 2.22 28 21:43 22.02.2020
2138 Clear 5 1031 41 0 2.22 28 21:25 22.02.2020
2139 Clear 6 1030 63 0 2.22 28 20:58 22.02.2020
2140 Clear 6 1030 63 0 2.22 28 20:39 22.02.2020
2141 Clear 6 1030 63 0 2.22 28 20:39 22.02.2020
2142 Clouds 9 1030 55 0 2.53 24 20:21 22.02.2020
2143 Clouds 8 1030 49 0 2.53 24 19:42 22.02.2020
2144 Clouds 9 1030 34 0 0.45 332 19:23 22.02.2020
2145 Clouds 8 1029 33 0 0.45 32 18:55 22.02.2020
2146 Clouds 6 1029 50 0 2.53 24 18:37 22.02.2020
2147 Clouds 12 1031 34 10000 4.6 240 18:18 22.02.2020
2148 Clouds 13 1031 34 10000 4.6 240 17:44 22.02.2020
2149 Clouds 13 1031 34 10000 4.6 240 17:25 22.02.2020
2150 Clouds 17 1030 34 10000 4.1 230 16:59 22.02.2020
2151 Clouds 17 1030 34 10000 4.1 230 16:40 22.02.2020
2152 Clouds 17 1031 31 10000 4.1 230 16:20 22.02.2020
2153 Clouds 17 1031 33 10000 1.5 0 15:46 22.02.2020
2154 Clouds 17 1031 33 10000 2.1 0 15:27 22.02.2020
2155 Clouds 17 1031 33 10000 2.1 0 15:27 22.02.2020
2156 Clouds 17 1030 34 0 0.91 319 14:58 22.02.2020
2157 Clouds 17 1031 31 10000 1.5 200 14:39 22.02.2020
2158 Clouds 17 1030 41 0 0.45 113 14:20 22.02.2020
2159 Clouds 16 1032 30 10000 1 0 13:42 22.02.2020
2160 Clouds 16 1028 38 0 2.24 315 13:20 22.02.2020
2161 Clouds 15 1033 37 10000 1.5 130 12:57 22.02.2020
2162 Clouds 14 1033 39 10000 1.5 130 12:38 22.02.2020
2163 Clouds 15 1029 43 0 1.34 292 12:20 22.02.2020
2164 Clouds 12 1033 42 10000 1.5 0 11:42 22.02.2020
2165 Clouds 11 1033 48 10000 1 0 11:23 22.02.2020
2166 Clouds 8 1033 56 10000 1 0 10:42 22.02.2020
2167 Clouds 8 1033 56 10000 1 0 10:42 22.02.2020
2168 Clouds 7 1033 69 10000 1 0 10:21 22.02.2020
2169 Clouds 7 1033 69 10000 1 0 09:59 22.02.2020
2170 Clouds 7 1033 69 10000 1 0 09:59 22.02.2020
2171 Clouds 6 1033 69 10000 1 0 09:40 22.02.2020
2172 Clouds 4 1033 80 10000 1 0 09:21 22.02.2020
2173 Clouds 7 1027 24 0 2.1 20 08:51 22.02.2020
2174 Clear 3 1027 24 0 2.12 20 08:28 22.02.2020
2175 Clouds 2 1026 24 0 2.81 28 07:54 22.02.2020
2176 Clouds 2 1026 25 0 2.81 28 07:20 22.02.2020
2177 Clouds 3 1025 36 0 2.81 28 06:50 22.02.2020
2178 Clouds 3 1026 26 0 2.81 28 06:32 22.02.2020
2179 Clouds 3 1025 30 0 3.27 25 04:38 22.02.2020
2180 Clouds 3 1025 46 0 3.27 25 03:33 22.02.2020
2181 Clouds 4 1025 18 0 3.27 25 02:33 22.02.2020
2182 Clouds 4 1025 20 0 2.91 26 01:46 22.02.2020
2183 Clouds 4 1025 15 0 3.08 26 01:27 22.02.2020
2184 Clouds 4 1025 24 0 3.08 26 00:45 22.02.2020
2185 Clouds 3 1025 35 0 3.08 26 00:27 22.02.2020
2186 Clouds 4 1026 39 0 3.08 26 23:48 21.02.2020
2187 Clouds 4 1025 20 0 3.08 26 23:24 21.02.2020
2188 Clear 4 1025 29 0 2.17 25 22:56 21.02.2020
2189 Clear 5 1025 32 0 2.17 25 22:38 21.02.2020
2190 Clear 5 1025 33 0 2.17 25 22:18 21.02.2020
2191 Clear 5 1025 81 0 1.34 67 21:42 21.02.2020
2192 Clear 5 1025 35 0 2.17 25 21:24 21.02.2020
2193 Clear 5 1025 35 0 2.17 25 21:24 21.02.2020
2194 Clear 5 1025 54 0 2.17 25 20:49 21.02.2020
2195 Clear 5 1024 50 0 2.17 25 20:29 21.02.2020
2196 Clear 7 1024 71 0 2.54 27 19:57 21.02.2020
2197 Clear 7 1024 70 0 2.54 27 19:37 21.02.2020
2198 Clear 9 1027 65 0 1.79 337 19:18 21.02.2020
2199 Clear 7 1024 65 0 2.54 27 18:40 21.02.2020
2200 Clear 11 1027 47 10000 4.6 240 18:22 21.02.2020
2201 Clear 11 1027 47 10000 4.6 240 17:41 21.02.2020
2202 Clear 13 1027 47 10000 4.6 240 17:23 21.02.2020
2203 Clouds 14 1027 47 10000 4.6 230 16:58 21.02.2020
2204 Clouds 14 1027 47 10000 4.6 230 16:40 21.02.2020
2205 Clouds 14 1027 41 10000 4.6 230 16:20 21.02.2020
2206 Clouds 14 1027 41 10000 4.6 230 15:47 21.02.2020
2207 Clouds 15 1027 38 10000 4.1 230 15:19 21.02.2020
2208 Clouds 15 1028 38 10000 3.6 220 14:59 21.02.2020
2209 Clouds 14 1028 38 10000 3.6 220 14:41 21.02.2020
2210 Clear 14 1028 35 10000 3.1 220 14:19 21.02.2020
2211 Clear 14 1029 32 10000 2.1 220 13:42 21.02.2020
2212 Clear 14 1029 34 10000 1.5 180 13:24 21.02.2020
2213 Clear 13 1030 43 10000 1.5 200 12:54 21.02.2020
2214 Clear 12 1030 43 10000 1.5 200 12:36 21.02.2020
2215 Clear 12 1029 45 0 0.45 278 12:18 21.02.2020
2216 Clear 12 1029 45 0 0.45 278 12:18 21.02.2020
2217 Clear 11 1030 54 0 1.79 157 11:40 21.02.2020
2218 Clear 9 1031 52 10000 1.5 80 11:21 21.02.2020
2219 Clear 9 1031 65 10000 1 0 10:56 21.02.2020
2220 Clear 9 1031 65 10000 1 0 10:56 21.02.2020
2221 Clear 7 1031 65 10000 1 0 10:38 21.02.2020
2222 Clear 6 1031 69 10000 0.5 0 10:19 21.02.2020
2223 Clear 6 1031 69 10000 0.5 0 10:19 21.02.2020
2224 Clear 5 1031 80 10000 1 0 09:56 21.02.2020
2225 Clear 5 1031 80 10000 1 0 09:37 21.02.2020
2226 Clear 4 1031 32 10000 1.4 358 09:18 21.02.2020
2227 Clear 5 1023 36 0 1.4 358 08:41 21.02.2020
2228 Clear 0 1023 40 0 2.26 18 08:22 21.02.2020
2229 Clear 1 1023 30 0 2.26 18 07:58 21.02.2020
2230 Clear 1 1022 31 0 2.26 18 07:40 21.02.2020
2231 Clear 2 1022 31 0 2.26 18 07:40 21.02.2020
2232 Clear 2 1022 34 0 2.26 18 07:18 21.02.2020
2233 Clear 2 1022 59 0 2.26 18 06:43 21.02.2020
2234 Clear 2 1022 49 0 2.26 18 06:24 21.02.2020
2235 Clear 2 1022 75 0 2.26 18 05:42 21.02.2020
2236 Clear 3 1022 56 0 2.28 19 04:32 21.02.2020
2237 Clear 2 1022 66 0 2.28 19 03:57 21.02.2020
2238 Clear 3 1022 58 0 2.28 19 03:22 21.02.2020
2239 Clear 4 1022 68 0 2.28 24 01:50 21.02.2020
2240 Clear 4 1022 70 0 2.97 21 01:23 21.02.2020
2241 Clear 4 1022 75 0 2.97 21 00:40 21.02.2020
2242 Clear 4 1022 76 0 2.97 21 00:21 21.02.2020
2243 Clear 4 1022 71 0 2.97 21 23:43 20.02.2020
2244 Clear 4 1022 61 0 0.45 143 23:22 20.02.2020
2245 Clear 4 1022 63 0 1.81 31 22:42 20.02.2020
2246 Clear 4 1022 63 0 1.81 31 22:42 20.02.2020
2247 Clear 4 1021 54 0 1.81 31 22:24 20.02.2020
2248 Clear 4 1021 45 0 1.81 31 21:58 20.02.2020
2249 Clear 5 1021 46 0 0.45 354 21:40 20.02.2020
2250 Clear 5 1021 51 0 1.81 31 21:20 20.02.2020
2251 Clear 6 1021 43 0 1.34 335 20:57 20.02.2020
2252 Clear 5 1021 42 0 0.89 359 20:39 20.02.2020
2253 Clouds 7 1021 45 0 2.78 30 20:20 20.02.2020
2254 Clouds 6 1021 53 0 3.11 27 19:59 20.02.2020
2255 Clouds 7 1021 56 0 3.11 27 19:41 20.02.2020
2256 Clouds 8 1023 47 10000 4.6 240 19:23 20.02.2020
2257 Clouds 8 1023 47 10000 4.6 240 18:55 20.02.2020
2258 Clouds 8 1023 47 10000 4.6 240 18:37 20.02.2020
2259 Clouds 10 1023 47 10000 4.6 240 18:18 20.02.2020
2260 Clouds 11 1022 38 10000 4.6 230 17:39 20.02.2020
2261 Clear 15 1022 38 10000 4.6 230 17:19 20.02.2020
2262 Clear 16 1022 36 10000 4.1 230 16:58 20.02.2020
2263 Clear 16 1022 36 10000 4.1 230 16:39 20.02.2020
2264 Clear 16 1022 31 10000 2.1 200 16:19 20.02.2020
2265 Clear 16 1023 36 10000 2.1 190 15:43 20.02.2020
2266 Clear 16 1023 33 10000 1.5 190 15:24 20.02.2020
2267 Clear 16 1023 33 10000 1.5 230 14:59 20.02.2020
2268 Clear 16 1023 33 10000 1.5 230 14:41 20.02.2020
2269 Clear 16 1023 33 10000 1.5 230 14:41 20.02.2020
2270 Clear 15 1024 35 10000 1.5 230 14:23 20.02.2020
2271 Clear 15 1024 35 10000 1.5 230 14:23 20.02.2020
2272 Clear 15 1024 34 10000 1.5 0 13:56 20.02.2020
2273 Clear 14 1024 46 10000 1.5 0 13:38 20.02.2020
2274 Clear 14 1024 46 10000 1.5 0 13:19 20.02.2020
2275 Clear 13 1025 45 10000 1 0 12:42 20.02.2020
2276 Clear 11 1025 52 10000 1 0 12:21 20.02.2020
2277 Clear 10 1026 60 10000 1 0 11:58 20.02.2020
2278 Clear 11 1026 60 10000 1 0 11:40 20.02.2020
2279 Clear 9 1026 64 10000 1.5 30 11:21 20.02.2020
2280 Clouds 8 1025 62 0 0.45 334 10:56 20.02.2020
2281 Clouds 6 1026 69 10000 1 0 10:38 20.02.2020
2282 Clouds 5 1026 80 10000 1.5 70 10:19 20.02.2020
2283 Clouds 8 1025 71 0 0.57 56 09:39 20.02.2020
2284 Clouds 4 1018 32 0 0.57 56 09:21 20.02.2020
2285 Clouds 4 1018 35 0 0.57 56 08:44 20.02.2020
2286 Clear 1 1025 79 0 0.45 250 08:24 20.02.2020
2287 Clouds 0 1018 35 0 1.58 41 07:48 20.02.2020
2288 Clouds 0 1017 34 0 1.58 41 07:28 20.02.2020
2289 Clouds 0 1017 34 0 1.58 41 06:59 20.02.2020
2290 Clouds 1 1017 34 0 1.58 41 06:40 20.02.2020
2291 Clouds 1 1018 34 0 1.58 41 05:47 20.02.2020
2292 Clouds 1 1018 40 0 1.58 41 05:25 20.02.2020
2293 Clouds 1 1018 35 0 1.16 29 04:48 20.02.2020
2294 Clouds 1 1018 44 0 1.16 29 03:46 20.02.2020
2295 Clouds 1 1019 44 0 1.16 29 02:47 20.02.2020
2296 Clouds 2 1019 72 0 1.24 3 01:25 20.02.2020
2297 Clouds 2 1020 74 0 1.24 3 00:45 20.02.2020
2298 Clouds 2 1020 71 0 1.24 3 00:24 20.02.2020
2299 Clouds 3 1020 56 0 1.24 3 23:46 19.02.2020
2300 Clouds 3 1020 60 0 0.67 2 23:18 19.02.2020
2301 Clouds 3 1021 56 0 0.67 2 22:41 19.02.2020
2302 Clouds 3 1021 37 0 0.45 8 22:23 19.02.2020
2303 Clouds 3 1020 40 0 0.67 2 21:58 19.02.2020
2304 Clouds 4 1020 53 0 0.67 2 21:39 19.02.2020
2305 Clouds 4 1021 41 0 0.67 2 21:39 19.02.2020
2306 Clouds 4 1021 32 0 0.67 2 21:19 19.02.2020
2307 Clouds 3 1021 34 0 0.67 2 20:56 19.02.2020
2308 Clouds 4 1021 68 0 0.67 2 20:37 19.02.2020
2309 Clouds 5 1020 64 0 1.42 1 20:18 19.02.2020
2310 Clouds 6 1021 75 0 1.42 1 19:56 19.02.2020
2311 Clouds 6 1021 69 0 1.42 1 19:37 19.02.2020
2312 Clouds 6 1021 80 0 1.42 1 19:18 19.02.2020
2313 Clouds 5 1021 68 0 1.42 1 18:57 19.02.2020
2314 Clouds 5 1021 61 0 1.42 1 18:39 19.02.2020
2315 Clouds 6 1021 79 0 1.42 1 18:20 19.02.2020
2316 Clouds 7 1021 61 0 1.42 1 17:43 19.02.2020
2317 Clear 11 1025 39 0 1.79 315 17:20 19.02.2020
2318 Clear 11 1027 60 0 0.45 110 16:45 19.02.2020
2319 Clear 12 1025 40 0 3.13 326 16:20 19.02.2020
2320 Clear 11 1027 61 0 1.34 180 15:59 19.02.2020
2321 Clear 12 1028 54 0 1.79 146 15:39 19.02.2020
2322 Clear 12 1030 40 0 1.55 247 15:20 19.02.2020
2323 Clear 12 1028 54 0 0.45 337 14:55 19.02.2020
2324 Clear 11 1023 48 0 1.34 247 14:37 19.02.2020
2325 Clouds 11 1025 53 0 2.24 225 14:18 19.02.2020
2326 Clouds 11 1024 51 0 2.24 202 13:41 19.02.2020
2327 Clouds 10 1026 57 0 2.24 225 13:20 19.02.2020
2328 Clouds 10 1029 72 0 1.79 180 12:42 19.02.2020
2329 Clouds 9 1026 61 0 1.34 247 12:19 19.02.2020
2330 Clouds 9 1030 49 0 0.45 34 11:58 19.02.2020
2331 Clouds 8 1026 68 0 0.45 180 11:37 19.02.2020
2332 Clouds 7 1032 55 0 0.45 180 11:19 19.02.2020
2333 Clouds 7 1030 58 0 0.45 79 10:57 19.02.2020
2334 Clouds 6 1026 74 0 0.89 202 10:38 19.02.2020
2335 Clouds 5 1030 61 0 2.81 11 10:19 19.02.2020
2336 Clouds 5 1034 89 0 2.24 242 09:57 19.02.2020
2337 Clouds 4 1026 79 0 0.45 180 09:37 19.02.2020
2338 Clouds 3 1030 69 0 2.81 11 09:18 19.02.2020
2339 Clouds 3 1028 87 0 0.45 158 08:44 19.02.2020
2340 Clouds 2 1029 74 0 2.81 11 08:24 19.02.2020
2341 Clouds 2 1029 74 0 2.81 11 08:24 19.02.2020
2342 Clear 2 1029 67 0 4.47 303 07:41 19.02.2020
2343 Clear 2 1029 68 0 5.36 337 07:21 19.02.2020
2344 Clear 2 1026 86 0 0.45 97 06:53 19.02.2020
2345 Clear 2 1028 68 0 4.47 337 06:20 19.02.2020
2346 Clear 2 1020 86 0 3.27 17 04:20 19.02.2020
2347 Clear 4 1028 82 0 3.27 17 02:54 19.02.2020
2348 Clear 4 1028 83 0 3.27 17 02:29 19.02.2020
2349 Clouds 6 1029 65 0 2.24 337 01:23 19.02.2020
2350 Clouds 6 1033 76 0 1.34 222 00:47 19.02.2020
2351 Clouds 3 1022 95 0 2.65 13 00:29 19.02.2020
2352 Clouds 4 1022 96 0 2.65 13 23:42 18.02.2020
2353 Clouds 7 1034 73 0 2.24 232 23:20 18.02.2020
2354 Clouds 7 1032 70 0 2.86 11 22:56 18.02.2020
2355 Clouds 7 1032 72 0 2.86 11 22:37 18.02.2020
2356 Clouds 7 1032 72 0 2.86 11 22:37 18.02.2020
2357 Clouds 7 1034 68 0 1.34 231 22:19 18.02.2020
2358 Clouds 7 1034 66 0 2.24 292 21:55 18.02.2020
2359 Clouds 4 1022 96 0 2.86 11 21:37 18.02.2020
2360 Clouds 4 1022 96 0 2.86 11 21:37 18.02.2020
2361 Clouds 4 1022 96 0 2.86 11 21:18 18.02.2020
2362 Clouds 5 1022 96 0 2.86 11 20:56 18.02.2020
2363 Clouds 4 1022 96 0 2.86 11 20:37 18.02.2020
2364 Clouds 4 1022 96 0 2.86 11 20:37 18.02.2020
2365 Clear 8 1031 74 0 1.56 356 20:18 18.02.2020
2366 Clear 8 1027 76 0 0.89 135 19:42 18.02.2020
2367 Clear 5 1021 95 0 1.59 354 19:20 18.02.2020
2368 Clear 4 1021 95 0 1.59 354 18:58 18.02.2020
2369 Clear 3 1021 95 0 1.59 354 18:40 18.02.2020
2370 Clear 9 1028 68 0 1.59 354 18:19 18.02.2020
2371 Clear 9 1032 51 0 1.34 338 17:42 18.02.2020
2372 Clear 9 1030 64 0 1.62 241 17:20 18.02.2020
2373 Clear 10 1024 64 0 2.24 45 16:41 18.02.2020
2374 Clear 10 1023 64 0 2.24 45 16:22 18.02.2020
2375 Clear 10 1024 64 0 1.79 45 15:59 18.02.2020
2376 Clear 10 1024 63 0 1.34 67 15:40 18.02.2020
2377 Clear 10 1032 50 0 1.34 327 15:19 18.02.2020
2378 Clear 10 1026 64 0 0.89 314 14:56 18.02.2020
2379 Clear 10 1026 64 0 0.89 314 14:56 18.02.2020
2380 Clear 10 1024 62 0 2.24 135 14:38 18.02.2020
2381 Clear 10 1027 71 0 1.79 180 14:19 18.02.2020
2382 Clear 9 1024 57 0 0.89 180 13:41 18.02.2020
2383 Clear 9 1027 62 0 0.89 269 13:22 18.02.2020
2384 Clear 9 1025 59 0 1.34 67 12:55 18.02.2020
2385 Clear 10 1028 76 0 1.34 180 12:37 18.02.2020
2386 Clear 10 1029 52 0 1.34 292 12:19 18.02.2020
2387 Clear 9 1026 65 0 0.45 247 11:42 18.02.2020
2388 Clear 9 1026 65 0 0.45 247 11:42 18.02.2020
2389 Clear 8 1029 79 0 1.34 180 11:24 18.02.2020
2390 Clear 8 1026 77 0 0.45 225 10:55 18.02.2020
2391 Clear 7 1032 75 0 0.86 332 10:36 18.02.2020
2392 Clear 7 1029 82 0 0.89 180 10:18 18.02.2020
2393 Clear 6 1026 79 0 0.45 225 09:55 18.02.2020
2394 Clear 6 1028 83 0 0.45 180 09:36 18.02.2020
2395 Clear 6 1028 56 0 0.45 258 09:18 18.02.2020
2396 Clear 5 1025 81 0 0.45 247 08:41 18.02.2020
2397 Clouds 1 1022 95 0 2.9 16 08:20 18.02.2020
2398 Clouds 5 1034 89 0 1.34 264 07:56 18.02.2020
2399 Clouds 5 1028 82 0 3.13 15 07:30 18.02.2020
2400 Clouds 2 1021 95 0 3.13 15 06:56 18.02.2020
2401 Clouds 2 1021 95 0 3.13 15 06:36 18.02.2020
2402 Clouds 3 1022 95 0 3.13 15 05:56 18.02.2020
2403 Clouds 2 1021 95 0 3.13 15 05:27 18.02.2020
2404 Clouds 6 1029 70 0 56.33 270 03:58 18.02.2020
2405 Clouds 6 1029 63 0 3.23 16 02:58 18.02.2020
2406 Clouds 7 1024 85 0 1.79 180 01:58 18.02.2020
2407 Clouds 8 1033 82 0 2.24 263 00:46 18.02.2020
2408 Clouds 8 1033 82 0 2.24 263 00:46 18.02.2020
2409 Clouds 8 1031 89 0 3.82 13 00:20 18.02.2020
2410 Clouds 5 1022 96 0 3.82 13 23:44 17.02.2020
2411 Clouds 8 1028 76 0 3.82 13 23:25 17.02.2020
2412 Clouds 8 1026 63 0 0.45 148 22:59 17.02.2020
2413 Clouds 8 1025 63 0 0.45 152 22:41 17.02.2020
2414 Clouds 8 1025 64 0 3.34 1 22:20 17.02.2020
2415 Clouds 8 1028 70 0 58.12 11 21:41 17.02.2020
2416 Clouds 5 1022 96 0 3.34 1 21:19 17.02.2020
2417 Clouds 5 1021 96 0 3.34 1 20:57 17.02.2020
2418 Clouds 5 1021 96 0 3.34 1 20:38 17.02.2020
2419 Clouds 9 1024 63 0 3.26 5 20:20 17.02.2020
2420 Clouds 10 1023 62 10000 4.1 230 19:54 17.02.2020
2421 Clouds 10 1023 62 10000 4.1 230 19:36 17.02.2020
2422 Clouds 10 1023 62 10000 4.1 230 19:18 17.02.2020
2423 Clouds 8 1023 62 10000 4.1 230 18:37 17.02.2020
2424 Clouds 9 1023 62 10000 4.6 230 18:19 17.02.2020
2425 Clouds 10 1022 55 10000 3.1 220 17:54 17.02.2020
2426 Clouds 9 1022 51 10000 4.1 200 17:36 17.02.2020
2427 Clouds 12 1022 51 10000 4.1 200 17:18 17.02.2020
2428 Clouds 12 1021 48 10000 5.1 210 16:43 17.02.2020
2429 Clouds 13 1021 51 10000 4.1 220 16:22 17.02.2020
2430 Clouds 13 1021 42 10000 1.5 0 15:57 17.02.2020
2431 Clouds 14 1021 42 10000 1.5 0 15:39 17.02.2020
2432 Clouds 14 1021 42 10000 1.5 0 15:39 17.02.2020
2433 Clouds 14 1021 45 10000 2.6 230 15:21 17.02.2020
2434 Clouds 14 1022 44 10000 1.5 130 14:44 17.02.2020
2435 Clouds 14 1022 44 10000 2.1 170 14:25 17.02.2020
2436 Clouds 14 1023 47 10000 2.6 210 13:58 17.02.2020
2437 Clouds 14 1023 47 10000 2.6 210 13:39 17.02.2020
2438 Clouds 14 1023 47 10000 2.1 190 13:19 17.02.2020
2439 Clouds 13 1024 47 10000 1 0 12:44 17.02.2020
2440 Clouds 13 1024 54 10000 1 0 12:25 17.02.2020
2441 Clouds 12 1024 61 10000 1 0 11:59 17.02.2020
2442 Clouds 11 1024 61 10000 1 0 11:39 17.02.2020
2443 Clouds 9 1025 65 10000 1 0 11:20 17.02.2020
2444 Clouds 9 1025 70 10000 1 0 10:55 17.02.2020
2445 Clouds 8 1025 70 10000 1 0 10:37 17.02.2020
2446 Clouds 8 1025 70 10000 2.1 70 10:18 17.02.2020
2447 Clouds 8 1023 80 0 1.05 202 09:41 17.02.2020
2448 Clouds 7 1019 55 0 1.05 202 09:21 17.02.2020
2449 Clouds 7 1023 76 0 1.05 202 08:58 17.02.2020
2450 Clouds 6 1019 69 0 2.68 203 08:39 17.02.2020
2451 Clouds 5 1019 67 0 1.79 190 08:20 17.02.2020
2452 Clouds 5 1018 67 0 2.68 184 07:44 17.02.2020
2453 Clouds 4 1018 69 0 3.13 221 07:24 17.02.2020
2454 Clouds 5 1018 67 0 2.68 212 06:52 17.02.2020
2455 Clouds 5 1018 69 0 1.34 149 06:32 17.02.2020
2456 Clouds 5 1018 64 0 0.89 184 05:56 17.02.2020
2457 Clouds 5 1018 69 0 2.24 249 05:37 17.02.2020
2458 Clouds 5 1019 64 0 2.68 221 03:21 17.02.2020
2459 Clouds 6 1020 61 0 0.45 198 01:49 17.02.2020
2460 Clouds 7 1020 61 0 3.58 198 00:44 17.02.2020
2461 Clouds 7 1020 63 0 4.47 257 00:21 17.02.2020
2462 Clouds 7 1020 63 0 2.68 239 23:53 16.02.2020
2463 Clouds 7 1020 63 0 2.68 226 23:30 16.02.2020
2464 Clouds 8 1020 65 0 3.13 174 22:57 16.02.2020
2465 Clouds 8 1020 63 0 2.68 224 22:39 16.02.2020
2466 Clouds 8 1020 63 0 2.68 195 22:20 16.02.2020
2467 Clouds 8 1020 57 0 0.89 207 21:57 16.02.2020
2468 Clouds 8 1021 63 0 0.45 146 21:38 16.02.2020
2469 Clouds 8 1021 63 0 0.45 146 21:38 16.02.2020
2470 Clouds 7 1021 62 0 3.13 200 21:20 16.02.2020
2471 Clouds 8 1021 61 0 2.68 201 20:57 16.02.2020
2472 Clouds 9 1021 63 0 3.58 207 20:38 16.02.2020
2473 Clouds 9 1021 60 0 3.13 217 20:20 16.02.2020
2474 Clouds 9 1020 61 0 2.24 219 19:57 16.02.2020
2475 -273 0 0 0 0 0 19:37 16.02.2020
2476 Clouds 10 1020 62 0 3.13 211 19:18 16.02.2020
2477 Clouds 11 1020 60 0 0.89 197 18:42 16.02.2020
2478 Clouds 11 1020 60 0 0.89 197 18:42 16.02.2020
2479 Clouds 12 1023 36 10000 5.1 240 18:23 16.02.2020
2480 Clouds 13 1023 36 10000 5.1 240 17:46 16.02.2020
2481 Clouds 16 1023 36 10000 5.1 240 17:21 16.02.2020
2482 Clouds 17 1023 34 10000 3.6 230 16:58 16.02.2020
2483 Clouds 16 1023 34 10000 3.6 230 16:58 16.02.2020
2484 Clouds 17 1023 34 10000 3.6 230 16:39 16.02.2020
2485 Clouds 17 1023 34 10000 3.1 230 16:21 16.02.2020
2486 Clouds 17 1023 34 10000 3.1 230 16:21 16.02.2020
2487 Clouds 17 1023 34 10000 3.1 230 16:21 16.02.2020
2488 Clouds 17 1023 36 10000 2.1 220 15:58 16.02.2020
2489 Clouds 17 1023 36 10000 0.5 0 15:38 16.02.2020
2490 Clouds 16 1023 36 10000 0.5 0 15:18 16.02.2020
2491 Clouds 16 1024 41 10000 1.5 170 14:40 16.02.2020
2492 Clouds 16 1024 41 10000 1.5 170 14:22 16.02.2020
2493 Clouds 15 1025 44 10000 1 0 13:47 16.02.2020
2494 Clouds 15 1025 44 10000 1 0 13:24 16.02.2020
2495 Clear 14 1026 50 10000 0.5 0 12:56 16.02.2020
2496 Clear 14 1026 50 10000 0.5 0 12:38 16.02.2020
2497 Clear 13 1027 53 10000 1 0 12:19 16.02.2020
2498 Clear 11 1027 42 10000 1.5 80 11:39 16.02.2020
2499 Clear 9 1027 70 10000 0.5 0 11:18 16.02.2020
2500 Clear 9 1027 81 10000 1 0 10:56 16.02.2020
2501 Clear 8 1027 81 10000 1 0 10:38 16.02.2020
2502 Clear 7 1028 75 10000 1.65 212 10:20 16.02.2020
2503 Clear 7 1028 86 10000 1.5 40 09:55 16.02.2020
2504 Clear 9 1028 86 10000 1.5 40 09:36 16.02.2020
2505 Clear 6 1028 93 10000 1 0 09:18 16.02.2020
2506 Clear 6 955 17 0 1.65 212 08:45 16.02.2020
2507 Clear 4 1021 60 0 3.13 198 08:21 16.02.2020
2508 Clear 3 1020 65 0 3.58 197 07:54 16.02.2020
2509 Clear 4 1020 64 0 4.02 191 07:34 16.02.2020
2510 Clear 4 1020 61 0 3.13 188 06:33 16.02.2020
2511 Clear 4 1020 65 0 4.92 179 04:45 16.02.2020
2512 Clear 4 1021 65 0 2.24 229 03:33 16.02.2020
2513 Clear 5 1021 66 0 2.68 233 02:32 16.02.2020
2514 Clouds 5 1022 67 0 3.58 218 01:43 16.02.2020
2515 Clouds 5 1022 67 0 3.58 225 01:23 16.02.2020
2516 Clouds 6 1022 59 0 1.34 198 00:53 16.02.2020
2517 Clouds 6 1021 69 0 2.68 229 00:33 16.02.2020
2518 Clouds 6 1021 67 0 2.68 214 23:58 15.02.2020
2519 Clouds 7 1021 66 0 2.24 231 23:40 15.02.2020
2520 Clouds 7 1021 66 0 2.24 231 23:40 15.02.2020
2521 Clouds 7 1021 66 0 2.68 212 23:21 15.02.2020
2522 Clouds 7 1021 65 0 1.34 200 22:41 15.02.2020
2523 Clouds 7 1022 70 0 0.45 214 22:22 15.02.2020
2524 Clouds 8 1022 69 0 1.34 195 21:59 15.02.2020
2525 Clouds 8 956 14 0 0.43 84 21:41 15.02.2020
2526 Clouds 7 1022 70 0 2.24 204 21:21 15.02.2020
2527 Clouds 8 1021 71 0 2.68 214 20:41 15.02.2020
2528 Clear 8 1021 72 0 2.24 210 20:21 15.02.2020
2529 Clear 8 1021 71 0 2.24 224 19:44 15.02.2020
2530 Clear 9 1021 70 0 3.13 221 19:23 15.02.2020
2531 Clear 9 1021 70 0 2.68 224 18:55 15.02.2020
2532 Clear 10 1020 73 0 3.13 198 18:36 15.02.2020
2533 Clear 11 1024 39 10000 4.6 230 18:18 15.02.2020
2534 Clear 13 1024 39 10000 4.6 230 17:43 15.02.2020
2535 Clear 14 1024 39 10000 4.6 230 17:22 15.02.2020
2536 Clouds 15 1023 39 10000 3.1 220 16:58 15.02.2020
2537 Clouds 16 1023 39 10000 3.1 220 16:39 15.02.2020
2538 Clouds 16 1024 39 10000 2.1 0 16:19 15.02.2020
2539 Clouds 16 1024 39 10000 2.1 220 15:42 15.02.2020
2540 Clouds 16 1024 41 10000 2.1 190 15:23 15.02.2020
2541 Clouds 15 1024 41 10000 2.1 200 14:45 15.02.2020
2542 Clouds 15 1024 41 10000 2.1 200 14:45 15.02.2020
2543 Clouds 15 1025 56 10000 1.5 190 14:23 15.02.2020
2544 Clear 14 1025 53 10000 1.5 0 13:57 15.02.2020
2545 Clouds 14 1026 46 10000 1 0 13:39 15.02.2020
2546 Clouds 14 1026 46 10000 1 0 13:20 15.02.2020
2547 Clouds 13 1026 50 10000 1 0 12:43 15.02.2020
2548 Clouds 13 1027 57 10000 1 0 12:25 15.02.2020
2549 Clouds 13 1027 57 10000 1 0 12:25 15.02.2020
2550 Clouds 11 1027 61 10000 0.5 0 11:54 15.02.2020
2551 Clouds 11 1027 61 10000 0.5 0 11:36 15.02.2020
2552 Clear 10 1027 75 10000 0.5 0 11:18 15.02.2020
2553 Clear 7 1027 80 10000 0.5 0 10:39 15.02.2020
2554 Fog 7 1027 86 10000 1 0 10:20 15.02.2020
2555 Fog 6 1027 93 10000 1.16 204 09:44 15.02.2020
2556 Clear 4 1027 100 10000 1 40 09:25 15.02.2020
2557 Clear 4 1020 53 0 0.45 188 08:46 15.02.2020
2558 Clear 3 1019 65 0 0.45 245 08:26 15.02.2020
2559 Clear 2 1019 74 0 1.34 172 07:59 15.02.2020
2560 Clear 3 1019 78 0 0.29 62 07:39 15.02.2020
2561 Clear 3 1018 65 0 0.45 263 07:21 15.02.2020
2562 Clear 3 1018 77 0 3.13 208 06:38 15.02.2020
2563 Clear 3 1023 60 0 0.29 62 05:56 15.02.2020
2564 Clear 4 1018 76 0 3.13 219 04:49 15.02.2020
2565 Clear 4 1018 73 0 2.68 210 04:21 15.02.2020
2566 Clear 4 1023 59 0 0.25 157 02:58 15.02.2020
2567 Clear 5 1023 60 0 0.25 157 02:24 15.02.2020
2568 Clear 5 1019 51 0 0.5 40 01:45 15.02.2020
2569 Clear 5 1020 70 0 0.88 17 00:58 15.02.2020
2570 Clear 5 1020 59 0 0.88 17 00:28 15.02.2020
2571 Clear 5 1020 60 0 0.88 17 23:45 14.02.2020
2572 Clear 6 1020 76 0 1.18 32 23:21 14.02.2020
2573 Clear 6 1020 79 0 1.18 32 22:55 14.02.2020
2574 Clear 6 1020 78 0 1.18 32 22:36 14.02.2020
2575 Clear 6 1020 74 0 1.18 32 22:18 14.02.2020
2576 Clear 6 1020 71 0 1.18 32 21:41 14.02.2020
2577 Clear 7 1020 54 0 1.18 32 21:23 14.02.2020
2578 Clear 6 1020 79 0 1.18 32 20:44 14.02.2020
2579 Clear 8 1020 79 0 1.45 28 20:20 14.02.2020
2580 Clear 8 1020 74 0 2.42 28 19:58 14.02.2020
2581 Clear 8 1020 80 0 2.42 28 19:40 14.02.2020
2582 Clear 8 1020 80 0 2.42 28 19:40 14.02.2020
2583 Clear 8 1020 81 0 2.42 28 19:20 14.02.2020
2584 Clear 7 1020 81 0 2.42 28 18:56 14.02.2020
2585 Clear 7 1020 81 0 2.42 28 18:38 14.02.2020
2586 Clouds 9 1023 58 10000 4.6 230 18:19 14.02.2020
2587 Clouds 10 1023 58 10000 4.6 230 17:42 14.02.2020
2588 Clouds 13 1023 58 10000 4.6 230 17:21 14.02.2020
2589 Clouds 13 1023 54 10000 4.6 240 16:57 14.02.2020
2590 Clouds 14 1023 54 10000 4.6 240 16:39 14.02.2020
2591 Clouds 13 1023 54 10000 4.6 230 16:21 14.02.2020
2592 Clouds 13 1023 54 10000 4.6 230 15:56 14.02.2020
2593 Clouds 14 1023 51 10000 4.1 220 15:37 14.02.2020
2594 Clouds 13 1023 54 10000 4.6 230 15:37 14.02.2020
2595 Clouds 14 1023 51 10000 4.1 220 15:19 14.02.2020
2596 Clouds 14 1023 51 10000 4.1 220 15:19 14.02.2020
2597 Clouds 13 1023 51 10000 3.1 200 14:56 14.02.2020
2598 Clouds 14 1023 51 10000 3.1 200 14:38 14.02.2020
2599 Clouds 13 1024 54 10000 1.5 230 14:19 14.02.2020
2600 Clouds 13 1024 58 10000 1.5 0 13:40 14.02.2020
2601 Clouds 12 1025 62 10000 2.1 180 13:21 14.02.2020
2602 Clouds 13 1026 57 10000 1.5 0 12:58 14.02.2020
2603 Clouds 12 1026 57 10000 1.5 0 12:39 14.02.2020
2604 Clouds 12 1026 61 10000 1 0 12:20 14.02.2020
2605 Clouds 12 1026 61 10000 1 0 12:20 14.02.2020
2606 Clouds 12 1026 61 10000 1 0 12:20 14.02.2020
2607 Clouds 11 1026 66 10000 0.5 0 11:58 14.02.2020
2608 Clouds 11 1026 66 10000 0.5 0 11:40 14.02.2020
2609 Clouds 10 1026 81 10000 1 0 11:20 14.02.2020
2610 Clouds 8 1026 86 10000 1.5 130 10:46 14.02.2020
2611 Clouds 8 1026 86 10000 0.5 0 10:28 14.02.2020
2612 Clouds 7 1026 93 10000 1 0 09:57 14.02.2020
2613 Clouds 7 1026 93 10000 1 0 09:57 14.02.2020
2614 Clouds 7 1026 93 10000 1 0 09:38 14.02.2020
2615 Clouds 6 1025 100 10000 1 0 09:19 14.02.2020
2616 Clouds 5 1018 73 0 0.45 39 08:40 14.02.2020
2617 Clouds 5 1024 74 0 1.46 6 08:22 14.02.2020
2618 Clouds 5 1018 58 0 3.23 19 07:51 14.02.2020
2619 Clouds 5 1017 75 0 3.23 19 07:33 14.02.2020
2620 Clouds 5 1023 73 0 3.23 19 06:55 14.02.2020
2621 Clouds 5 1017 94 0 3.23 19 06:22 14.02.2020
2622 Clouds 5 1018 91 0 3.23 19 05:44 14.02.2020
2623 Clouds 6 1017 95 0 0.45 325 03:52 14.02.2020
2624 Clouds 6 1017 95 0 3.2 23 03:52 14.02.2020
2625 Clouds 6 1017 89 0 3.2 23 03:24 14.02.2020
2626 Clouds 6 1018 94 0 2.58 13 02:18 14.02.2020
2627 Clouds 7 1022 73 0 2.89 12 01:18 14.02.2020
2628 Clouds 7 1017 86 0 0.89 11 00:32 14.02.2020
2629 Clouds 9 1024 78 0 0.45 22 23:59 13.02.2020
2630 Clouds 8 1022 79 0 2.89 12 23:41 13.02.2020
2631 Clouds 9 1022 81 0 2.95 14 23:19 13.02.2020
2632 Clouds 9 1021 77 0 2.95 14 22:41 13.02.2020
2633 Clouds 9 1021 83 0 2.95 14 22:20 13.02.2020
2634 Clouds 10 1021 80 0 2.95 14 21:59 13.02.2020
2635 Clouds 7 1016 96 0 0.89 14 21:40 13.02.2020
2636 Clouds 8 1016 93 0 1.34 14 21:20 13.02.2020
2637 Clouds 8 1015 83 0 0.45 201 20:43 13.02.2020
2638 Clouds 9 1015 91 0 3.01 15 20:23 13.02.2020
2639 Rain 10 1020 80 0 2.05 355 19:58 13.02.2020
2640 Clouds 11 1019 58 10000 3.1 230 19:40 13.02.2020
2641 Clouds 11 1019 58 10000 3.1 230 19:21 13.02.2020
2642 Clouds 10 1019 58 10000 3.1 230 18:59 13.02.2020
2643 Clouds 10 1019 58 10000 3.1 230 18:41 13.02.2020
2644 Clouds 11 1019 58 10000 3.1 230 18:22 13.02.2020
2645 Clouds 11 1019 51 10000 4.6 210 17:57 13.02.2020
2646 Clouds 10 1019 51 10000 4.6 210 17:37 13.02.2020
2647 Clouds 14 1019 51 10000 4.6 200 17:19 13.02.2020
2648 Clouds 14 1018 48 10000 4.6 200 16:43 13.02.2020
2649 Clouds 15 1019 51 10000 6.2 190 16:21 13.02.2020
2650 Clouds 15 1018 51 10000 5.7 180 15:58 13.02.2020
2651 Clouds 15 1018 51 10000 5.7 180 15:39 13.02.2020
2652 Clouds 15 1019 54 10000 5.7 200 15:20 13.02.2020
2653 Clouds 15 1019 54 10000 2.1 150 14:59 13.02.2020
2654 Clouds 14 1019 54 10000 2.1 150 14:40 13.02.2020
2655 Clouds 14 1019 58 10000 0.5 0 14:21 13.02.2020
2656 Clouds 14 1020 54 10000 1 0 13:48 13.02.2020
2657 Clouds 13 1020 58 10000 1 0 13:20 13.02.2020
2658 Clouds 13 1021 58 10000 0.5 0 12:58 13.02.2020
2659 Clouds 13 1021 58 10000 0.5 0 12:40 13.02.2020
2660 Clouds 12 1022 66 10000 1.5 110 12:22 13.02.2020
2661 Clouds 12 1022 76 10000 1 0 11:55 13.02.2020
2662 Clouds 11 1022 76 10000 1 0 11:37 13.02.2020
2663 Clouds 9 1022 87 10000 1.5 180 11:18 13.02.2020
2664 Clouds 8 1022 87 10000 0.5 0 10:41 13.02.2020
2665 Fog 8 1022 93 10000 0.5 0 10:22 13.02.2020
2666 Clouds 7 1021 86 0 0.93 280 09:44 13.02.2020
2667 Clouds 6 1021 86 0 0.93 280 09:23 13.02.2020
2668 Clouds 4 1014 87 0 0.93 280 08:47 13.02.2020
2669 Clouds 3 1014 86 0 0.29 288 08:20 13.02.2020
2670 Clouds 3 1014 84 0 0.45 266 07:43 13.02.2020
2671 Clouds 3 1013 86 0 0.89 187 07:23 13.02.2020
2672 Clouds 4 1013 88 0 1.34 180 06:53 13.02.2020
2673 Clouds 4 1013 90 0 0.89 172 06:33 13.02.2020
2674 Clouds 4 1013 90 0 0.89 222 05:50 13.02.2020
2675 Clouds 5 1013 90 0 2.68 207 04:45 13.02.2020
2676 Clouds 4 1020 87 0 0.97 214 04:18 13.02.2020
2677 Clouds 5 1013 89 0 2.68 200 03:30 13.02.2020
2678 Clouds 5 1020 87 0 0.97 214 02:56 13.02.2020
2679 Clouds 5 1014 88 0 0.89 150 02:20 13.02.2020
2680 Clouds 5 1020 86 0 1.88 215 01:41 13.02.2020
2681 Clouds 6 1015 89 0 2.68 194 00:45 13.02.2020
2682 Clouds 6 1021 86 0 1.94 219 00:26 13.02.2020
2683 Clouds 5 1015 87 0 2.68 198 23:42 12.02.2020
2684 Clouds 6 1014 88 0 4.47 245 23:23 12.02.2020
2685 Clouds 7 1021 84 0 2.25 207 22:56 12.02.2020
2686 Clouds 7 1021 85 0 2.25 207 22:38 12.02.2020
2687 Clouds 7 1021 86 0 2.25 207 22:20 12.02.2020
2688 Clouds 7 1021 86 0 2.25 207 21:55 12.02.2020
2689 Clouds 7 1020 82 0 2.25 207 21:36 12.02.2020
2690 Clouds 7 1020 81 0 2.25 207 21:18 12.02.2020
2691 Clouds 8 1021 80 0 2.25 207 20:42 12.02.2020
2692 Clouds 8 1021 79 0 2.25 207 20:23 12.02.2020
2693 Clouds 8 1020 80 0 2.24 206 19:56 12.02.2020
2694 Clouds 8 1020 80 0 2.15 207 19:37 12.02.2020
2695 Clouds 8 1020 76 0 2.15 207 19:19 12.02.2020
2696 Clouds 7 1015 84 0 2.24 207 18:47 12.02.2020
2697 Clouds 9 1019 64 0 1.34 337 18:19 12.02.2020
2698 Clouds 9 1023 72 0 2.24 54 17:56 12.02.2020
2699 Clouds 8 1015 84 0 1.34 228 17:37 12.02.2020
2700 Clouds 10 1020 65 0 2.26 216 17:18 12.02.2020
2701 Clouds 10 1019 61 0 0.45 316 16:40 12.02.2020
2702 Clouds 10 1019 56 0 1.79 292 16:20 12.02.2020
2703 Clouds 10 1020 71 0 1.79 45 15:43 12.02.2020
2704 Clouds 11 1018 65 0 1.79 247 15:24 12.02.2020
2705 Clouds 11 1018 63 0 2.68 270 14:59 12.02.2020
2706 Clouds 11 1018 62 0 1.34 270 14:41 12.02.2020
2707 Clouds 11 1025 87 0 2.7 214 14:20 12.02.2020
2708 Clouds 10 1024 79 0 0.45 135 13:57 12.02.2020
2709 Clouds 11 1023 18 0 4.02 217 13:39 12.02.2020
2710 Clouds 10 1023 16 0 4.47 254 13:20 12.02.2020
2711 Clouds 10 1022 72 0 2.24 292 12:57 12.02.2020
2712 Clouds 11 1022 49 0 2.7 214 12:38 12.02.2020
2713 Clouds 10 1022 50 0 2.7 214 12:18 12.02.2020
2714 Clouds 10 1022 50 0 2.7 214 12:18 12.02.2020
2715 Clouds 10 1023 55 0 2.7 214 11:56 12.02.2020
2716 Clouds 9 1023 56 0 2.7 214 11:37 12.02.2020
2717 Clouds 9 1023 58 0 1.14 214 11:19 12.02.2020
2718 Clouds 9 1023 59 0 1.14 214 10:54 12.02.2020
2719 Clouds 8 1022 63 0 1.14 214 10:36 12.02.2020
2720 Clouds 8 1023 63 0 1.14 214 10:18 12.02.2020
2721 Clouds 7 1023 70 0 1.14 214 09:41 12.02.2020
2722 Clouds 7 1023 70 0 1.14 214 09:21 12.02.2020
2723 Clouds 6 1023 70 0 1.14 214 08:57 12.02.2020
2724 Clouds 6 1022 69 0 1.14 214 08:37 12.02.2020
2725 Clouds 6 1022 70 0 0.61 1 08:19 12.02.2020
2726 Clouds 6 1022 68 0 1.19 4 07:43 12.02.2020
2727 Clouds 6 1022 69 0 1.19 4 07:23 12.02.2020
2728 Clouds 6 1020 89 0 0.45 90 06:53 12.02.2020
2729 Clouds 6 1021 65 0 1.19 4 06:20 12.02.2020
2730 Clouds 6 1021 65 0 1.19 4 05:36 12.02.2020
2731 Clouds 7 1021 64 0 0.74 357 04:57 12.02.2020
2732 Clouds 7 1021 62 0 0.74 357 04:38 12.02.2020
2733 Clouds 7 1022 75 0 1.79 337 03:31 12.02.2020
2734 Clouds 8 1019 88 0 0.45 112 02:58 12.02.2020
2735 Clouds 8 1025 92 0 0.74 357 02:28 12.02.2020
2736 Clouds 7 1025 91 0 0.99 356 01:42 12.02.2020
2737 Clouds 8 1022 77 0 56.33 270 00:44 12.02.2020
2738 Clouds 7 1020 88 0 0.89 67 00:25 12.02.2020
2739 Clouds 7 1022 81 0 1.22 351 23:55 11.02.2020
2740 Clouds 7 1022 81 0 1.22 351 23:36 11.02.2020
2741 Clouds 8 1022 47 0 2.35 357 23:18 11.02.2020
2742 Clouds 9 1022 52 0 2.35 357 22:42 11.02.2020
2743 Clouds 9 1023 57 0 2.35 357 22:21 11.02.2020
2744 Clouds 9 1023 58 0 2.35 357 21:57 11.02.2020
2745 Clouds 9 1020 81 0 0.89 67 21:39 11.02.2020
2746 Clouds 9 1025 87 0 2.35 357 21:19 11.02.2020
2747 Clouds 10 1019 79 0 0.89 45 20:59 11.02.2020
2748 Clouds 9 1025 84 0 2.35 357 20:39 11.02.2020
2749 Clouds 9 1022 62 0 2.61 0 20:20 11.02.2020
2750 Clouds 10 1022 60 0 2.61 0 19:58 11.02.2020
2751 Clouds 10 1022 60 0 2.61 0 19:40 11.02.2020
2752 Clouds 10 1021 56 0 2.61 0 19:22 11.02.2020
2753 Clouds 11 1021 82 0 2.24 45 18:46 11.02.2020
2754 Clouds 11 1022 66 0 1.34 247 18:28 11.02.2020
2755 Clouds 11 1018 77 0 2.61 0 17:57 11.02.2020
2756 Clouds 11 1018 77 0 2.61 0 17:39 11.02.2020
2757 Clouds 12 1023 12 0 3.13 31 17:20 11.02.2020
2758 Clouds 12 1019 37 0 0.89 231 16:58 11.02.2020
2759 Clouds 12 1019 37 0 0.89 231 16:58 11.02.2020
2760 Clouds 12 1023 12 0 5.36 333 16:40 11.02.2020
2761 Clouds 12 1023 12 0 3.58 323 16:21 11.02.2020
2762 Clouds 12 1020 52 0 0.45 333 15:58 11.02.2020
2763 Clouds 12 1020 52 0 1.9 332 15:39 11.02.2020
2764 Clouds 12 1023 15 0 1.34 290 15:21 11.02.2020
2765 Clouds 12 1023 20 0 3.58 265 14:42 11.02.2020
2766 Clouds 12 1023 20 0 3.13 266 14:19 11.02.2020
2767 Clouds 12 1024 92 0 1.03 313 13:56 11.02.2020
2768 Clouds 12 1020 50 0 1.03 313 13:38 11.02.2020
2769 Clouds 11 1023 28 0 2.68 262 13:19 11.02.2020
2770 Clouds 11 1022 53 0 0.89 342 12:41 11.02.2020
2771 Clouds 11 1022 51 0 0.89 198 12:22 11.02.2020
2772 Clouds 11 1022 51 0 0.89 198 12:22 11.02.2020
2773 Clouds 11 1022 50 0 1.57 344 11:59 11.02.2020
2774 Clouds 10 1022 50 0 1.57 344 11:40 11.02.2020
2775 Clouds 9 1023 38 0 2.68 291 11:19 11.02.2020
2776 Clouds 9 1023 37 0 3.13 273 11:19 11.02.2020
2777 Clouds 9 1023 38 0 2.68 289 10:54 11.02.2020
2778 Clouds 8 1023 37 0 0.89 227 10:36 11.02.2020
2779 Clouds 8 1018 78 0 0.89 159 10:18 11.02.2020
2780 Clouds 8 1022 59 0 2.97 11 09:42 11.02.2020
2781 Clouds 8 1019 72 0 2.97 11 09:22 11.02.2020
2782 Clouds 7 1018 77 0 2.97 11 08:49 11.02.2020
2783 Clouds 6 1022 65 0 2.97 11 08:25 11.02.2020
2784 Clouds 6 1019 76 0 3.07 13 07:55 11.02.2020
2785 Clouds 6 1019 79 0 0.45 274 07:34 11.02.2020
2786 Clouds 6 1022 77 0 3.07 13 06:58 11.02.2020
2787 Clouds 6 1022 76 0 3.07 13 06:39 11.02.2020
2788 Clouds 6 1019 60 0 1.34 8 06:20 11.02.2020
2789 Clouds 6 1019 59 0 0.89 37 05:44 11.02.2020
2790 Clouds 6 1019 59 0 1.68 1 05:20 11.02.2020
2791 Clouds 6 1019 55 0 1.68 1 04:18 11.02.2020
2792 Clouds 6 1025 74 0 1.68 1 02:38 11.02.2020
2793 Clouds 7 1025 74 0 1.18 340 01:53 11.02.2020
2794 Clouds 7 1021 45 0 1.18 340 01:30 11.02.2020
2795 Clouds 7 1025 72 0 2.1 359 00:26 11.02.2020
2796 Clouds 8 1022 56 0 2.1 359 23:48 10.02.2020
2797 Clouds 8 1026 77 0 2.1 359 23:29 10.02.2020
2798 Clouds 8 1026 73 0 1.49 5 22:57 10.02.2020
2799 Clouds 8 1022 73 0 1.34 190 22:37 10.02.2020
2800 Clouds 8 1022 73 0 2.24 221 22:19 10.02.2020
2801 Clouds 8 1022 70 0 1.49 5 21:40 10.02.2020
2802 Clouds 8 1022 70 0 1.49 5 21:40 10.02.2020
2803 Clouds 9 1022 72 0 1.49 5 21:22 10.02.2020
2804 Clouds 9 1022 68 0 1.49 5 20:56 10.02.2020
2805 Clear 9 1022 66 0 1.36 2 20:38 10.02.2020
2806 Clear 10 1022 53 0 0.83 302 20:19 10.02.2020
2807 Clear 10 1022 56 0 0.76 310 19:57 10.02.2020
2808 Clear 10 1022 56 0 0.76 310 19:57 10.02.2020
2809 Clear 10 1022 55 0 0.76 310 19:37 10.02.2020
2810 Clouds 11 1025 62 10000 4.1 230 19:18 10.02.2020
2811 Clouds 11 1025 62 10000 4.1 230 18:56 10.02.2020
2812 Clouds 11 1025 62 10000 4.1 230 18:38 10.02.2020
2813 Clouds 13 1025 62 10000 4.1 230 18:20 10.02.2020
2814 Clouds 14 1024 58 10000 4.6 240 17:54 10.02.2020
2815 Clouds 15 1024 58 10000 4.6 240 17:36 10.02.2020
2816 Clouds 15 1024 55 10000 4.6 240 17:18 10.02.2020
2817 Clear 16 1024 51 10000 4.1 240 16:41 10.02.2020
2818 Clear 16 1025 51 10000 4.6 230 16:41 10.02.2020
2819 Clear 17 1025 51 10000 4.6 230 16:20 10.02.2020
2820 Clear 17 1025 51 10000 4.6 230 15:59 10.02.2020
2821 Clear 17 1025 51 10000 4.6 230 15:59 10.02.2020
2822 Clear 17 1025 51 10000 4.6 230 15:41 10.02.2020
2823 Clear 17 1025 48 10000 4.1 220 15:22 10.02.2020
2824 Clear 17 1025 51 10000 2.1 210 14:58 10.02.2020
2825 Clear 16 1025 51 10000 2.1 210 14:39 10.02.2020
2826 Clouds 16 1026 50 10000 2.6 220 14:19 10.02.2020
2827 Clouds 15 1027 50 10000 1.5 0 13:44 10.02.2020
2828 Clouds 16 1027 54 10000 1 0 13:26 10.02.2020
2829 Clouds 15 1028 54 10000 1 0 12:57 10.02.2020
2830 Clouds 15 1028 54 10000 1 0 12:39 10.02.2020
2831 Clouds 13 1028 66 10000 1 0 12:20 10.02.2020
2832 Clouds 13 1029 61 10000 1 0 11:45 10.02.2020
2833 Clouds 10 1029 70 10000 1 0 11:21 10.02.2020
2834 Clouds 9 1029 81 10000 1.5 130 10:57 10.02.2020
2835 Clouds 9 1029 86 10000 0.5 0 10:38 10.02.2020
2836 Clouds 9 1029 86 10000 0.5 0 10:20 10.02.2020
2837 Clouds 9 1023 29 0 0.21 69 09:42 10.02.2020
2838 Clouds 8 1022 95 0 0.21 69 09:23 10.02.2020
2839 Clouds 7 1028 86 0 0.21 69 08:40 10.02.2020
2840 Clouds 4 1022 85 0 3.26 21 08:21 10.02.2020
2841 Clouds 4 1027 85 0 3.32 22 07:55 10.02.2020
2842 Clouds 4 1027 85 0 3.32 22 07:55 10.02.2020
2843 Clouds 3 1022 84 0 3.32 22 07:32 10.02.2020
2844 Clouds 5 1022 87 0 0.45 23 06:50 10.02.2020
2845 Clouds 5 1022 90 0 1.79 359 05:35 10.02.2020
2846 Clouds 5 1021 77 0 0.89 55 03:55 10.02.2020
2847 Clouds 5 1021 80 0 2.12 22 03:18 10.02.2020
2848 Clouds 5 1029 86 0 2.12 22 02:40 10.02.2020
2849 Clouds 5 1029 86 0 1.33 351 01:24 10.02.2020
2850 Clouds 5 1022 66 0 1.33 351 00:37 10.02.2020
2851 Clouds 5 1022 74 0 0.45 232 00:19 10.02.2020
2852 Clouds 5 1030 86 0 1.33 351 23:41 09.02.2020
2853 Clouds 5 1022 66 0 0.79 342 23:23 09.02.2020
2854 Clouds 6 1022 62 0 0.79 342 22:44 09.02.2020
2855 Clouds 6 1022 69 0 0.79 342 22:22 09.02.2020
2856 Clouds 6 1021 69 0 0.79 342 21:54 09.02.2020
2857 Clouds 7 1021 71 0 2.68 214 21:36 09.02.2020
2858 Clouds 7 1021 70 0 2.68 172 21:18 09.02.2020
2859 Clouds 8 1023 27 0 0.79 342 20:43 09.02.2020
2860 Clouds 7 1021 70 0 3.58 222 20:21 09.02.2020
2861 Clouds 8 1029 79 0 0.6 281 19:54 09.02.2020
2862 Clouds 9 1024 82 0 0.6 281 19:36 09.02.2020
2863 Clouds 8 1020 72 0 2.24 205 19:18 09.02.2020
2864 Clouds 8 1020 71 0 4.92 235 18:41 09.02.2020
2865 Clouds 9 1026 58 10000 4.6 230 18:23 09.02.2020
2866 Clouds 10 1026 58 10000 4.6 230 17:43 09.02.2020
2867 Clouds 12 1026 58 10000 4.6 230 17:23 09.02.2020
2868 Clouds 13 1026 54 10000 4.6 220 16:57 09.02.2020
2869 Clouds 13 1026 54 10000 4.6 220 16:39 09.02.2020
2870 Clouds 13 1026 54 10000 4.6 220 16:20 09.02.2020
2871 Clouds 13 1026 50 10000 4.1 220 15:57 09.02.2020
2872 Clouds 13 1026 50 10000 4.1 220 15:57 09.02.2020
2873 Clouds 13 1026 50 10000 4.1 220 15:39 09.02.2020
2874 Clouds 13 1026 50 10000 3.6 220 15:20 09.02.2020
2875 Clouds 13 1027 54 10000 3.6 220 14:42 09.02.2020
2876 Clouds 12 1028 53 10000 1 0 14:23 09.02.2020
2877 Clouds 12 1028 53 10000 1.5 180 13:55 09.02.2020
2878 Clouds 11 1029 61 10000 1 0 13:36 09.02.2020
2879 Clouds 11 1029 61 10000 1 0 13:18 09.02.2020
2880 Clouds 11 1029 61 10000 1 0 12:42 09.02.2020
2881 Clouds 11 1030 61 10000 0.5 0 12:20 09.02.2020
2882 Clouds 8 1030 75 10000 1 0 11:56 09.02.2020
2883 Clouds 8 1030 75 10000 1 0 11:36 09.02.2020
2884 Clouds 6 1030 80 10000 0.5 0 11:18 09.02.2020
2885 Clouds 5 1030 86 10000 1 0 10:42 09.02.2020
2886 Clouds 4 1030 93 10000 1.5 60 10:22 09.02.2020
2887 Clouds 2 1030 100 10000 1 80 09:48 09.02.2020
2888 Clouds 2 1030 86 10000 1 290 09:28 09.02.2020
2889 Clouds 2 1030 86 10000 1 290 09:28 09.02.2020
2890 Clouds 1 1029 88 0 0.95 220 08:55 09.02.2020
2891 Clouds 0 1019 82 0 2.24 212 08:37 09.02.2020
2892 Clear 0 1019 82 0 2.24 221 08:19 09.02.2020
2893 Clear 0 1019 82 0 2.24 222 07:49 09.02.2020
2894 Clear 2 1027 87 0 0.17 107 06:54 09.02.2020
2895 Clear 1 1018 80 0 0.89 188 06:36 09.02.2020
2896 Clear 1 1027 88 0 0.17 107 05:45 09.02.2020
2897 Clear 1 1018 82 0 0.45 205 05:20 09.02.2020
2898 Clear 1 1018 82 0 1.79 210 03:53 09.02.2020
2899 Clear 2 1017 82 0 1.34 188 02:47 09.02.2020
2900 Clear 2 1018 84 0 1.34 146 02:26 09.02.2020
2901 Clouds 2 1017 82 0 0.89 270 01:35 09.02.2020
2902 Clouds 2 1018 82 0 1 79 00:48 09.02.2020
2903 Clouds 3 1018 85 0 1 79 00:27 09.02.2020
2904 Clouds 3 1019 84 0 1 79 23:44 08.02.2020
2905 Clouds 3 1019 84 0 1.97 24 23:22 08.02.2020
2906 Clouds 3 1027 76 0 1.97 24 22:55 08.02.2020
2907 Clouds 4 1019 86 0 1.97 24 22:36 08.02.2020
2908 Clouds 4 1019 87 0 0.89 32 22:18 08.02.2020
2909 Clouds 4 1019 79 0 1.97 24 21:41 08.02.2020
2910 Clouds 4 1018 81 0 1.97 24 21:23 08.02.2020
2911 Clouds 5 1018 81 0 1.97 24 20:57 08.02.2020
2912 Clouds 5 1018 81 0 1.97 24 20:38 08.02.2020
2913 Clouds 6 1018 79 0 2.54 29 20:19 08.02.2020
2914 Clouds 6 1018 80 0 2.54 29 19:55 08.02.2020
2915 Clouds 7 1023 12 0 2.54 29 19:37 08.02.2020
2916 Clouds 7 1024 62 0 2.54 29 19:19 08.02.2020
2917 Clouds 5 1017 72 0 2.54 29 18:43 08.02.2020
2918 Clouds 5 1017 72 0 2.54 29 18:43 08.02.2020
2919 Clouds 6 1022 61 10000 4.6 230 18:24 08.02.2020
2920 Clouds 7 1022 61 10000 4.6 230 17:44 08.02.2020
2921 Clouds 10 1022 61 10000 4.6 230 17:22 08.02.2020
2922 Clouds 10 1022 57 10000 4.6 230 16:59 08.02.2020
2923 Clouds 11 1021 53 10000 4.6 230 16:39 08.02.2020
2924 Clouds 11 1021 53 10000 4.6 230 16:21 08.02.2020
2925 Clouds 11 1021 53 10000 4.6 230 16:21 08.02.2020
2926 Clouds 11 1021 53 10000 4.6 230 16:21 08.02.2020
2927 Clouds 11 1021 53 10000 4.6 230 15:43 08.02.2020
2928 Clouds 11 1022 53 10000 4.1 220 15:19 08.02.2020
2929 Clouds 11 1022 57 10000 2.6 210 14:59 08.02.2020
2930 Clouds 11 1022 57 10000 2.6 210 14:59 08.02.2020
2931 Clouds 10 1022 57 10000 2.6 210 14:39 08.02.2020
2932 Clear 10 1023 61 10000 2.1 190 14:19 08.02.2020
2933 Clear 9 1023 53 10000 2.1 210 13:43 08.02.2020
2934 Clear 9 1024 50 10000 2.1 210 13:23 08.02.2020
2935 Clear 9 1024 50 10000 2.1 210 13:23 08.02.2020
2936 Clear 9 1024 60 10000 2.1 0 12:55 08.02.2020
2937 Clear 9 1024 60 10000 2.1 0 12:36 08.02.2020
2938 Clear 9 1024 60 10000 1 0 12:18 08.02.2020
2939 Clear 7 1025 64 10000 1 0 11:41 08.02.2020
2940 Clear 5 1025 74 10000 0.5 0 11:21 08.02.2020
2941 Clear 4 1025 74 10000 0.5 0 10:43 08.02.2020
2942 Clear 3 1025 48 10000 1.5 70 10:25 08.02.2020
2943 Clear 2 1025 92 10000 0.5 0 09:55 08.02.2020
2944 Clear 1 1025 92 10000 0.32 193 09:30 08.02.2020
2945 Clear 1 1015 72 0 0.32 193 08:59 08.02.2020
2946 Clear 1 1015 72 0 0.32 193 08:59 08.02.2020
2947 Clear 0 1015 68 0 0.32 193 08:39 08.02.2020
2948 Clear -1 1015 65 0 0.45 204 08:21 08.02.2020
2949 Clear -1 1014 78 0 0.7 93 07:50 08.02.2020
2950 Clear -1 1014 67 0 0.7 93 07:31 08.02.2020
2951 Clear 0 1014 67 0 0.89 215 06:33 08.02.2020
2952 Clear 0 1014 67 0 0.89 215 06:33 08.02.2020
2953 Clear 0 1014 52 0 0.7 93 05:50 08.02.2020
2954 Clear 0 1015 77 0 0.7 93 05:30 08.02.2020
2955 Clouds 0 1015 74 0 1.04 29 04:51 08.02.2020
2956 Clouds 0 1015 80 0 1.04 29 03:55 08.02.2020
2957 Clouds 0 1015 79 0 1.04 29 02:57 08.02.2020
2958 Clouds 1 1015 74 0 0.43 5 02:20 08.02.2020
2959 Clouds 1 1023 57 0 0.85 38 01:26 08.02.2020
2960 Clouds 1 1016 77 0 0.85 38 00:45 08.02.2020
2961 Clouds 1 1016 63 0 0.85 38 00:22 08.02.2020
2962 Clouds 2 1016 59 0 0.85 38 23:55 07.02.2020
2963 Clouds 2 1016 61 0 0.85 38 23:37 07.02.2020
2964 Clouds 2 1016 69 0 0.54 55 23:18 07.02.2020
2965 Clouds 2 1024 56 0 0.54 55 22:40 07.02.2020
2966 Clouds 2 1015 67 0 0.54 55 22:19 07.02.2020
2967 Clouds 3 1015 58 0 0.54 55 21:43 07.02.2020
2968 Clouds 3 1023 54 0 0.54 55 21:22 07.02.2020
2969 Clouds 4 1016 70 0 0.54 55 20:57 07.02.2020
2970 Clouds 4 1016 60 0 0.54 55 20:38 07.02.2020
2971 Clouds 5 1016 74 0 0.97 19 20:18 07.02.2020
2972 Clouds 6 1016 74 0 1.19 29 19:40 07.02.2020
2973 Clouds 6 1016 69 0 1.19 29 19:21 07.02.2020
2974 Clouds 6 1016 72 0 1.19 29 18:56 07.02.2020
2975 Clouds 6 1016 69 0 1.19 29 18:38 07.02.2020
2976 Clouds 7 1022 42 10000 1 0 18:19 07.02.2020
2977 Clouds 8 1022 42 10000 1 0 17:43 07.02.2020
2978 Clouds 9 1022 42 10000 1 0 17:22 07.02.2020
2979 Clouds 10 1022 37 10000 2.1 210 16:55 07.02.2020
2980 Clouds 10 1022 37 10000 2.1 210 16:37 07.02.2020
2981 Clouds 10 1022 37 10000 1 0 16:19 07.02.2020
2982 Clouds 10 1022 36 10000 1 0 15:44 07.02.2020
2983 Clouds 10 1022 36 10000 1 0 15:21 07.02.2020
2984 Clouds 10 1022 36 10000 0.5 0 14:43 07.02.2020
2985 Clouds 10 1023 36 10000 1 0 14:24 07.02.2020
2986 Clouds 9 1024 45 10000 1 0 13:58 07.02.2020
2987 Clouds 9 1024 45 10000 1 0 13:39 07.02.2020
2988 Clouds 9 1024 45 10000 1 0 13:39 07.02.2020
2989 Clouds 9 1024 41 10000 1.5 70 13:20 07.02.2020
2990 Clouds 9 1025 44 10000 1 0 12:45 07.02.2020
2991 Clouds 8 1025 60 10000 0.5 0 12:26 07.02.2020
2992 Clouds 7 1025 59 10000 1.62 225 11:59 07.02.2020
2993 Clouds 6 1025 59 10000 1.62 225 11:40 07.02.2020
2994 Clouds 5 1025 59 10000 0.5 0 11:19 07.02.2020
2995 Clouds 4 1025 64 10000 1 0 10:41 07.02.2020
2996 Clouds 2 1025 80 10000 0.12 253 10:21 07.02.2020
2997 Clouds 2 1025 80 10000 0.12 253 09:47 07.02.2020
2998 Clouds 2 1025 74 10000 1 20 09:27 07.02.2020
2999 Clouds 1 1016 36 0 0.12 253 08:58 07.02.2020
3000 Clouds 1 1016 36 0 0.22 233 08:37 07.02.2020
3001 Clouds 0 1016 36 0 0.38 50 08:19 07.02.2020
3002 Clouds 1 1024 52 0 0.38 50 07:40 07.02.2020
3003 Clouds 1 1015 33 0 0.38 50 07:40 07.02.2020
3004 Clouds 2 1015 34 0 0.38 50 07:22 07.02.2020
3005 Clouds 1 1015 53 0 0.45 245 06:43 07.02.2020
3006 Clouds 2 1024 55 0 0.38 50 06:23 07.02.2020
3007 Clouds 1 1024 55 0 0.38 50 05:43 07.02.2020
3008 Clouds 0 1016 36 0 0.68 28 03:58 07.02.2020
3009 Clouds 1 1016 39 0 0.68 28 02:30 07.02.2020
3010 Clear 0 1025 55 0 0.47 23 01:25 07.02.2020
3011 Clear 0 1017 68 0 0.45 28 00:37 07.02.2020
3012 Clear 1 1017 53 0 0.45 28 23:40 06.02.2020
3013 Clear 2 1017 39 0 0.35 67 23:21 06.02.2020
3014 Clear 2 1017 52 0 0.35 67 22:58 06.02.2020
3015 Clear 2 1017 73 0 0.35 67 22:40 06.02.2020
3016 Clear 2 1017 73 0 0.35 67 22:40 06.02.2020
3017 Clear 2 1017 71 0 0.35 67 22:22 06.02.2020
3018 Clear 2 1017 74 0 0.35 67 21:37 06.02.2020
3019 Clear 2 1017 58 0 0.35 67 21:19 06.02.2020
3020 Clear 3 1017 70 0 0.35 67 20:56 06.02.2020
3021 Clear 3 1017 63 0 0.35 67 20:37 06.02.2020
3022 Clear 4 1017 70 0 0.42 140 20:18 06.02.2020
3023 Clear 4 1024 45 0 0.4 120 19:57 06.02.2020
3024 Clear 4 1017 69 0 0.4 120 19:39 06.02.2020
3025 Clear 5 1023 34 10000 4.6 240 19:20 06.02.2020
3026 Clear 6 1023 34 10000 4.6 240 18:57 06.02.2020
3027 Clear 7 1023 34 10000 4.6 240 18:38 06.02.2020
3028 Clear 8 1023 34 10000 4.6 240 18:19 06.02.2020
3029 Clear 7 1023 32 10000 4.1 240 17:42 06.02.2020
3030 Clear 11 1023 28 10000 4.1 240 17:20 06.02.2020
3031 Clear 13 1023 22 10000 3.1 220 16:45 06.02.2020
3032 Clear 12 1023 24 10000 3.1 220 16:27 06.02.2020
3033 Clear 12 1023 26 10000 2.1 0 15:58 06.02.2020
3034 Clear 13 1023 26 10000 2.1 0 15:40 06.02.2020
3035 Clear 13 1024 24 10000 1 0 15:20 06.02.2020
3036 Clear 13 1024 23 10000 1 0 14:46 06.02.2020
3037 Clear 12 1025 25 10000 1.5 0 14:25 06.02.2020
3038 Clouds 11 1026 26 10000 1.5 130 13:46 06.02.2020
3039 Clouds 11 1026 33 10000 1 0 13:27 06.02.2020
3040 Clear 10 1027 33 10000 0.5 0 12:56 06.02.2020
3041 Clear 9 1027 38 10000 1.5 200 12:37 06.02.2020
3042 Clear 8 1027 38 10000 1.5 200 12:18 06.02.2020
3043 Clear 6 1028 44 10000 1 0 11:41 06.02.2020
3044 Clear 6 1027 47 0 3.14 213 11:23 06.02.2020
3045 Clear 5 1018 60 0 2.24 204 10:59 06.02.2020
3046 Clear 3 1028 32 10000 1.5 70 10:41 06.02.2020
3047 Clear 2 1028 32 10000 1 0 10:21 06.02.2020
3048 Clear 2 1018 63 0 3.58 208 09:59 06.02.2020
3049 Clear 3 1027 37 0 1.46 213 09:40 06.02.2020
3050 Clear 1 1018 64 0 3.58 197 09:20 06.02.2020
3051 Clear 1 1018 48 0 2.68 211 08:43 06.02.2020
3052 Clear -1 1027 38 0 1.46 213 08:23 06.02.2020
3053 Clear -1 1018 28 0 1.79 231 07:54 06.02.2020
3054 Clear -1 1026 31 0 0.51 197 07:29 06.02.2020
3055 Clear -1 1018 52 0 3.13 200 06:47 06.02.2020
3056 Clear 0 1018 27 0 1.34 250 06:19 06.02.2020
3057 Clear 0 1018 35 0 2.68 201 05:24 06.02.2020
3058 Clouds 0 1019 63 0 1.79 238 03:47 06.02.2020
3059 Clouds 0 1019 64 0 2.68 218 02:58 06.02.2020
3060 Clouds 1 1028 28 0 0.32 94 01:45 06.02.2020
3061 Clouds 1 1020 69 0 0.4 126 00:59 06.02.2020
3062 Clouds 1 1020 61 0 1.34 242 00:28 06.02.2020
3063 Clouds 2 1020 66 0 0.89 203 23:55 05.02.2020
3064 Clouds 2 1020 66 0 0.89 203 23:55 05.02.2020
3065 Clouds 2 1020 53 0 1.34 232 23:36 05.02.2020
3066 Clouds 2 1020 39 0 1.79 218 23:18 05.02.2020
3067 Clouds 2 1028 28 0 0.3 23 22:40 05.02.2020
3068 Clouds 2 1020 31 0 0.3 23 22:22 05.02.2020
3069 Clouds 2 1021 68 0 0.3 23 21:57 05.02.2020
3070 Clouds 2 1021 47 0 0.3 23 21:39 05.02.2020
3071 Clouds 2 1021 74 0 0.3 23 21:19 05.02.2020
3072 Clouds 2 1021 72 0 0.3 23 20:39 05.02.2020
3073 Clear 3 1021 73 0 2.5 33 20:20 05.02.2020
3074 Clear 3 1021 73 0 2.69 35 19:58 05.02.2020
3075 Clear 4 1021 65 0 2.69 35 19:40 05.02.2020
3076 Clear 4 1021 75 0 2.69 35 19:19 05.02.2020
3077 Clear 4 1027 21 0 2.69 35 18:56 05.02.2020
3078 Clear 4 1021 77 0 2.69 35 18:38 05.02.2020
3079 Clear 5 1021 44 0 2.69 35 18:18 05.02.2020
3080 Clear 2 1021 72 0 2.69 35 17:38 05.02.2020
3081 Clear 2 1021 72 0 2.69 35 17:38 05.02.2020
3082 Clear 10 1027 13 0 1.34 158 17:20 05.02.2020
3083 Clear 10 1027 11 0 0.89 201 16:57 05.02.2020
3084 Clear 11 1023 21 0 1.34 286 16:38 05.02.2020
3085 Clear 11 1023 11 0 2.24 282 16:19 05.02.2020
3086 Clear 11 1023 10 0 2.68 312 15:45 05.02.2020
3087 Clear 11 1024 50 0 0.89 113 15:20 05.02.2020
3088 Clear 11 1025 50 0 0.89 203 14:57 05.02.2020
3089 Clear 11 1027 39 0 1.34 150 14:38 05.02.2020
3090 Clear 11 1031 60 0 2.24 17 14:20 05.02.2020
3091 Clear 11 1026 62 0 0.89 225 13:43 05.02.2020
3092 Clear 11 1028 56 0 1.34 337 13:22 05.02.2020
3093 Clear 10 1023 11 0 2.68 296 12:55 05.02.2020
3094 Clear 10 1029 17 0 2.92 23 12:36 05.02.2020
3095 Clear 9 1029 18 0 2.92 23 12:18 05.02.2020
3096 Clear 8 1023 11 0 2.68 308 11:41 05.02.2020
3097 Clear 7 1027 75 0 0.89 180 11:22 05.02.2020
3098 Clear 6 1029 27 0 4.15 22 10:44 05.02.2020
3099 Clear 5 1029 30 0 4.15 22 10:26 05.02.2020
3100 Clear 3 1029 31 0 4.15 22 09:59 05.02.2020
3101 Clear 4 1023 49 0 4.15 22 09:38 05.02.2020
3102 Clear 2 1022 43 0 4.15 22 09:20 05.02.2020
3103 Clear 2 1023 49 0 4.15 22 08:46 05.02.2020
3104 Clear 1 1029 44 0 4.13 23 08:24 05.02.2020
3105 Clear 0 1029 50 0 4.3 21 07:55 05.02.2020
3106 Clear 0 1021 43 0 1.79 359 07:36 05.02.2020
3107 Clear 0 1021 45 0 2.24 349 06:54 05.02.2020
3108 Clear 0 1021 44 0 1.79 359 06:36 05.02.2020
3109 Clear 0 1021 56 0 0.89 3 06:18 05.02.2020
3110 Clouds 0 1021 87 0 0.45 21 05:19 05.02.2020
3111 Clouds 1 1029 55 0 4.6 21 04:53 05.02.2020
3112 Clouds 2 1023 30 0 4.6 21 03:56 05.02.2020
3113 Clouds 1 1028 65 0 0.45 147 02:28 05.02.2020
3114 Clouds 4 1028 67 0 4.2 15 01:53 05.02.2020
3115 Clouds 5 1023 18 0 2.68 11 00:43 05.02.2020
3116 Clouds 4 1027 57 0 0.45 146 23:57 04.02.2020
3117 Clouds 5 1027 56 0 4.28 17 23:38 04.02.2020
3118 Clouds 5 1026 57 0 0.45 262 23:18 04.02.2020
3119 Clouds 5 1023 18 0 3.13 299 22:54 04.02.2020
3120 Clouds 5 1026 56 0 0.45 304 22:36 04.02.2020
3121 Clouds 5 1026 53 0 4.31 8 22:18 04.02.2020
3122 Clouds 5 1023 17 0 3.58 328 21:41 04.02.2020
3123 Clouds 5 1026 48 0 4.31 8 21:41 04.02.2020
3124 Clouds 5 1023 17 0 3.58 328 21:41 04.02.2020
3125 Clouds 6 1025 43 0 1.34 304 21:19 04.02.2020
3126 Clouds 6 1025 41 0 1.79 167 20:59 04.02.2020
3127 Clouds 7 1023 14 0 3.58 334 20:39 04.02.2020
3128 Clouds 8 1024 38 0 1.34 257 20:20 04.02.2020
3129 Clouds 8 1024 38 0 1.34 257 20:20 04.02.2020
3130 Clouds 8 1024 40 0 1.79 60 19:57 04.02.2020
3131 Clouds 8 1023 14 0 4.47 304 19:39 04.02.2020
3132 Clouds 7 1024 46 0 0.89 264 19:21 04.02.2020
3133 Clouds 7 1026 91 0 5.28 1 18:55 04.02.2020
3134 Clouds 7 1023 14 0 4.47 353 18:36 04.02.2020
3135 Clouds 8 1022 39 0 0.89 276 18:18 04.02.2020
3136 Clouds 8 1022 35 0 0.89 328 17:42 04.02.2020
3137 Clouds 12 1022 29 0 0.89 267 17:20 04.02.2020
3138 Clouds 11 1023 11 0 8.05 28 16:54 04.02.2020
3139 Clouds 10 1021 22 0 1.79 297 16:36 04.02.2020
3140 Clouds 10 1022 21 0 1.79 152 16:18 04.02.2020
3141 Clouds 9 1017 66 0 4.47 326 15:55 04.02.2020
3142 Clouds 9 1017 68 0 4.92 278 15:37 04.02.2020
3143 Clouds 8 1016 74 0 3.58 359 15:18 04.02.2020
3144 Clouds 9 1017 76 0 3.58 14 14:41 04.02.2020
3145 Clouds 12 1023 15 0 3.58 13 14:20 04.02.2020
3146 Clouds 11 1021 44 0 0.45 63 13:55 04.02.2020
3147 Clouds 11 1023 21 0 3.13 339 13:36 04.02.2020
3148 Clouds 11 1023 26 0 4.47 296 13:18 04.02.2020
3149 Clouds 11 1022 51 0 0.89 337 12:42 04.02.2020
3150 Clouds 11 1023 29 0 5.81 339 12:24 04.02.2020
3151 Clouds 11 1021 56 0 0.89 47 11:57 04.02.2020
3152 Clouds 11 1023 26 0 6.71 5 11:38 04.02.2020
3153 Clouds 10 1021 58 0 3.86 352 11:19 04.02.2020
3154 Clouds 9 1021 59 0 3.86 352 10:46 04.02.2020
3155 Clouds 9 1023 36 0 3.13 337 10:26 04.02.2020
3156 Clouds 8 1019 89 0 3.13 359 09:57 04.02.2020
3157 Clouds 7 1019 88 0 3.13 323 09:39 04.02.2020
3158 Clouds 8 1019 85 0 4.47 359 09:20 04.02.2020
3159 Clouds 6 1022 56 0 3.86 352 08:46 04.02.2020
3160 Clouds 6 1020 85 0 4.02 48 08:27 04.02.2020
3161 Clouds 7 1021 76 0 5.81 55 07:52 04.02.2020
3162 Clouds 7 1020 78 0 2.68 10 07:24 04.02.2020
3163 Clouds 6 1020 72 0 1.79 24 06:53 04.02.2020
3164 Clouds 7 1020 75 0 3.13 28 06:34 04.02.2020
3165 Clouds 7 1022 74 0 3.58 359 05:33 04.02.2020
3166 Clouds 6 1021 80 0 0.89 259 04:27 04.02.2020
3167 Clouds 6 1021 78 0 3.13 333 03:43 04.02.2020
3168 Clouds 7 1021 74 0 0.45 52 03:25 04.02.2020
3169 Clouds 7 1023 69 0 4.78 11 02:37 04.02.2020
3170 Clouds 6 1022 58 0 1.34 37 01:57 04.02.2020
3171 Clouds 6 1022 55 0 0.45 250 01:36 04.02.2020
3172 Clouds 7 1023 56 0 1.34 359 00:52 04.02.2020
3173 Clouds 7 1023 54 0 3.26 8 00:22 04.02.2020
3174 Clouds 7 1023 59 0 0.45 359 23:42 03.02.2020
3175 Clouds 7 1023 54 0 0.45 356 23:42 03.02.2020
3176 Clouds 7 1023 51 0 1.34 4 23:23 03.02.2020
3177 Clouds 7 1023 54 0 1.16 9 22:40 03.02.2020
3178 Clouds 7 1023 54 0 1.16 9 22:40 03.02.2020
3179 Clouds 8 1023 74 0 1.16 9 22:21 03.02.2020
3180 Clouds 7 1024 69 0 1.16 9 21:59 03.02.2020
3181 Clouds 8 1024 75 0 1.16 9 21:39 03.02.2020
3182 Clouds 8 1024 53 0 1.16 9 21:19 03.02.2020
3183 Clouds 9 1024 79 0 1.16 9 20:42 03.02.2020
3184 Clouds 10 1024 78 0 3.13 201 20:20 03.02.2020
3185 Clear 11 1025 58 0 0.43 20 19:58 03.02.2020
3186 Clear 11 1025 58 0 0.43 20 19:58 03.02.2020
3187 Clear 12 1023 13 0 0.43 20 19:40 03.02.2020
3188 Clear 13 1027 48 10000 1.5 300 19:20 03.02.2020
3189 Clear 11 1027 48 10000 1.5 300 18:56 03.02.2020
3190 Clear 11 1027 48 10000 1.5 300 18:36 03.02.2020
3191 Clear 11 1027 48 10000 1.5 300 18:36 03.02.2020
3192 Clear 15 1027 48 10000 1.5 300 18:18 03.02.2020
3193 Clear 13 1027 45 10000 1 0 17:40 03.02.2020
3194 Clear 18 1027 42 10000 0.5 0 17:20 03.02.2020
3195 Clear 19 1027 42 10000 1 0 16:59 03.02.2020
3196 Clear 20 1027 42 10000 1.5 230 16:39 03.02.2020
3197 Clear 20 1027 42 10000 1.5 230 16:20 03.02.2020
3198 Clear 20 1027 45 10000 1 0 15:54 03.02.2020
3199 Clear 20 1028 45 10000 0.5 0 15:36 03.02.2020
3200 Clear 20 1028 45 10000 0.5 0 15:18 03.02.2020
3201 Clear 20 1028 42 10000 1 0 14:41 03.02.2020
3202 -273 0 0 0 0 0 14:22 03.02.2020
3203 Clouds 18 1030 51 10000 1 0 13:55 03.02.2020
3204 Clouds 18 1030 54 10000 1 0 13:37 03.02.2020
3205 Clouds 18 1030 54 10000 1 0 13:18 03.02.2020
3206 Clouds 17 1031 58 10000 1 0 12:41 03.02.2020
3207 Clouds 17 1031 66 10000 1 0 12:22 03.02.2020
3208 Clouds 16 1032 81 10000 1 0 11:58 03.02.2020
3209 Clouds 13 1032 75 10000 1 0 11:38 03.02.2020
3210 Clouds 11 1032 75 10000 1 0 11:18 03.02.2020
3211 Clouds 10 1032 87 10000 1 0 10:43 03.02.2020
3212 Clouds 9 1032 87 10000 0.5 0 10:25 03.02.2020
3213 Clouds 8 1030 49 0 3.1 22 09:49 03.02.2020
3214 Clouds 7 1028 54 0 3.1 22 09:28 03.02.2020
3215 Clouds 7 1028 54 0 3.1 22 09:28 03.02.2020
3216 Clouds 7 1030 50 0 3.1 22 08:59 03.02.2020
3217 Clouds 6 1028 54 0 3.1 22 08:40 03.02.2020
3218 Clouds 5 1028 56 0 0.45 28 08:22 03.02.2020
3219 Clouds 6 1027 57 0 0.89 300 07:42 03.02.2020
3220 Clouds 6 1027 55 0 0.89 359 07:22 03.02.2020
3221 Clouds 6 1027 55 0 0.89 359 07:22 03.02.2020
3222 Clouds 6 1027 56 0 0.45 0 06:55 03.02.2020
3223 Clouds 6 1027 53 0 1.79 27 06:30 03.02.2020
3224 Clouds 6 1027 62 0 4.04 19 05:48 03.02.2020
3225 Clouds 6 1027 51 0 1.34 307 05:30 03.02.2020
3226 Clouds 7 1026 62 0 0.89 263 04:30 03.02.2020
3227 Clouds 7 1027 55 0 1.79 23 02:37 03.02.2020
3228 Clouds 7 1027 56 0 3.28 24 02:18 03.02.2020
3229 Clouds 7 1027 80 0 2.99 24 00:48 03.02.2020
3230 Clouds 7 1027 76 0 2.99 24 00:25 03.02.2020
3231 Clouds 8 1030 79 0 2.99 24 23:39 02.02.2020
3232 Clouds 8 1026 78 0 0.59 54 23:21 02.02.2020
3233 Clouds 8 1029 78 0 0.59 54 22:58 02.02.2020
3234 Clouds 8 1026 79 0 0.59 54 22:38 02.02.2020
3235 Clouds 8 1026 82 0 0.59 54 22:20 02.02.2020
3236 Clouds 9 1026 84 0 1.34 217 21:56 02.02.2020
3237 Clouds 9 1026 85 0 2.24 219 21:38 02.02.2020
3238 Clouds 9 1026 85 0 1.79 246 21:20 02.02.2020
3239 Clouds 9 1026 85 0 2.24 215 20:56 02.02.2020
3240 Clouds 9 1026 84 0 1.79 191 20:37 02.02.2020
3241 Clouds 10 1026 84 0 2.24 225 20:19 02.02.2020
3242 Clouds 11 1029 70 0 1.03 61 19:55 02.02.2020
3243 Clouds 11 1023 35 0 1.03 61 19:37 02.02.2020
3244 Clouds 12 1023 33 0 1.03 61 19:18 02.02.2020
3245 Clouds 12 1027 51 10000 2.1 220 18:39 02.02.2020
3246 Clouds 12 1027 51 10000 2.1 220 18:21 02.02.2020
3247 Clouds 12 1027 51 10000 2.1 220 17:58 02.02.2020
3248 Clouds 12 1027 48 10000 3.1 220 17:38 02.02.2020
3249 Clouds 16 1027 48 10000 3.1 220 17:19 02.02.2020
3250 Clouds 17 1027 42 10000 2.6 220 16:58 02.02.2020
3251 Clouds 18 1027 42 10000 2.6 220 16:39 02.02.2020
3252 Clouds 18 1027 41 10000 2.1 230 16:19 02.02.2020
3253 Clouds 18 1027 41 10000 1.5 200 15:57 02.02.2020
3254 Clouds 18 1027 39 10000 0.5 0 15:39 02.02.2020
3255 Clouds 18 1027 39 10000 0.5 0 15:20 02.02.2020
3256 Clouds 18 1027 39 10000 0.5 0 15:20 02.02.2020
3257 Clouds 17 1027 41 10000 1.5 200 14:54 02.02.2020
3258 Clouds 17 1027 41 10000 1.5 200 14:36 02.02.2020
3259 Clouds 17 1027 47 10000 1.5 180 14:18 02.02.2020
3260 Clouds 16 1028 50 10000 1 0 13:54 02.02.2020
3261 Clouds 16 1028 50 10000 1 0 13:36 02.02.2020
3262 Clouds 15 1028 54 10000 0.5 0 13:36 02.02.2020
3263 Clouds 15 1028 54 10000 0.5 0 13:18 02.02.2020
3264 Clouds 13 1029 57 10000 1 0 12:40 02.02.2020
3265 Clouds 12 1029 61 10000 1 0 12:22 02.02.2020
3266 Clouds 10 1029 70 10000 1.5 50 11:55 02.02.2020
3267 Clouds 10 1029 75 10000 1 0 11:36 02.02.2020
3268 Clouds 9 1029 75 10000 1 0 11:18 02.02.2020
3269 Clouds 8 1029 75 10000 1 0 10:54 02.02.2020
3270 Clouds 7 1029 75 10000 1 0 10:36 02.02.2020
3271 Clouds 7 1029 75 10000 1 0 10:36 02.02.2020
3272 Clouds 7 1029 86 10000 2.1 80 10:18 02.02.2020
3273 Clouds 5 1029 93 10000 1.5 10 09:40 02.02.2020
3274 Clouds 4 1029 100 10000 1.5 40 09:21 02.02.2020
3275 Clouds 4 1027 72 0 3.24 22 08:56 02.02.2020
3276 Clouds 4 1022 62 0 3.24 22 08:37 02.02.2020
3277 Clouds 4 1022 62 0 3.24 22 08:37 02.02.2020
3278 Clouds 4 1022 79 0 2.74 26 08:18 02.02.2020
3279 Clouds 4 1027 74 0 2.74 26 07:42 02.02.2020
3280 Clouds 4 1027 74 0 2.74 26 07:42 02.02.2020
3281 Clouds 4 1022 71 0 2.74 26 07:24 02.02.2020
3282 Clouds 4 1021 64 0 2.74 26 06:38 02.02.2020
3283 Clouds 4 1021 66 0 2.74 26 06:18 02.02.2020
3284 Clouds 4 1021 85 0 0.89 259 05:20 02.02.2020
3285 Clouds 4 1020 86 0 1.79 226 04:30 02.02.2020
3286 Clouds 4 1021 85 0 1.79 197 03:24 02.02.2020
3287 Clouds 5 1021 84 0 0.45 219 02:22 02.02.2020
3288 Clouds 5 1021 87 0 2.04 26 01:50 02.02.2020
3289 Clear 5 1021 86 0 2.54 27 00:51 02.02.2020
3290 Clear 5 1022 79 0 2.54 27 00:29 02.02.2020
3291 Clear 6 1021 73 0 0.45 304 23:58 01.02.2020
3292 Clear 7 1021 77 0 2.54 27 23:39 01.02.2020
3293 Clear 6 1021 77 0 0.45 52 23:21 01.02.2020
3294 Clear 6 1021 81 0 2.93 23 22:43 01.02.2020
3295 Clear 7 1021 81 0 2.93 23 22:19 01.02.2020
3296 Clear 7 1021 82 0 2.93 23 21:42 01.02.2020
3297 Clear 8 1021 79 0 2.93 23 21:19 01.02.2020
3298 Clear 8 1021 81 0 0.89 6 20:55 01.02.2020
3299 Clear 7 1021 82 0 0.45 4 20:37 01.02.2020
3300 Clouds 9 1020 85 0 2.84 22 20:18 01.02.2020
3301 Clouds 9 1020 76 0 0.45 14 19:55 01.02.2020
3302 Clouds 9 1020 76 0 2.84 22 19:36 01.02.2020
3303 Clouds 10 1024 60 0 2.84 22 19:18 01.02.2020
3304 Clouds 9 1019 80 0 0.45 354 18:55 01.02.2020
3305 Clouds 8 1019 83 0 0.45 108 18:36 01.02.2020
3306 Clouds 11 1022 31 10000 2.6 300 18:18 01.02.2020
3307 Clouds 11 1022 31 10000 2.6 300 17:45 01.02.2020
3308 Clouds 14 1022 31 10000 2.6 300 17:21 01.02.2020
3309 Clouds 15 1022 34 10000 4.1 350 16:58 01.02.2020
3310 Clouds 15 1022 34 10000 4.1 350 16:38 01.02.2020
3311 Clouds 15 1022 51 10000 2.1 0 16:20 01.02.2020
3312 Clouds 15 1022 51 10000 2.1 0 16:20 01.02.2020
3313 Clouds 15 1021 48 10000 2.1 200 15:43 01.02.2020
3314 Clouds 15 1021 51 10000 1 0 15:25 01.02.2020
3315 Clouds 15 1022 54 10000 1.5 180 14:58 01.02.2020
3316 Clouds 15 1022 54 10000 1.5 180 14:39 01.02.2020
3317 Clouds 14 1022 58 10000 1 0 14:20 01.02.2020
3318 Clouds 13 1023 62 10000 1 0 13:43 01.02.2020
3319 Clouds 13 1023 62 10000 1 0 13:20 01.02.2020
3320 Clouds 12 1022 66 10000 0.5 0 12:44 01.02.2020
3321 Clouds 11 1022 70 10000 0.5 0 12:25 01.02.2020
3322 Clouds 10 1022 81 10000 0.5 0 11:56 01.02.2020
3323 Clouds 10 1022 81 10000 0.5 0 11:37 01.02.2020
3324 Clouds 9 1022 100 10000 0.5 0 11:18 01.02.2020
3325 Fog 7 1022 100 10000 0.5 0 10:54 01.02.2020
3326 Fog 6 1022 100 10000 0.5 0 10:36 01.02.2020
3327 Fog 6 1022 100 10000 3.49 29 10:18 01.02.2020
3328 Fog 6 1022 100 10000 3.49 29 10:18 01.02.2020
3329 Fog 5 1022 100 10000 1 0 09:41 01.02.2020
3330 Fog 4 1021 100 10000 1 0 09:22 01.02.2020
3331 Rain 4 1020 90 0 3.49 29 08:58 01.02.2020
3332 Clouds 4 1014 62 0 0.89 357 08:22 01.02.2020
3333 Clouds 3 1020 91 0 2.03 358 07:43 01.02.2020
3334 Clouds 3 1014 57 0 0.45 150 07:24 01.02.2020
3335 Clouds 3 1013 73 0 2.03 358 06:44 01.02.2020
3336 Clouds 3 1013 82 0 1.79 215 05:54 01.02.2020
3337 Clear 3 1019 90 0 0.45 125 04:32 01.02.2020
3338 Clear 4 1020 88 0 0.11 210 03:26 01.02.2020
3339 Clear 4 1014 81 0 2.24 215 02:58 01.02.2020
3340 Clear 4 1020 89 0 0.11 210 02:39 01.02.2020
3341 Clear 4 1014 85 0 2.24 222 02:19 01.02.2020
3342 Clear 4 1021 91 0 0.79 1 01:40 01.02.2020
3343 Clear 5 1015 84 0 0.69 342 01:19 01.02.2020
3344 Clear 5 1021 90 0 0.69 342 00:23 01.02.2020
3345 Clear 6 1021 90 0 0.69 342 23:41 31.01.2020
3346 Clear 5 1015 87 0 0.79 53 23:19 31.01.2020
3347 Clear 5 1021 89 0 0.79 53 23:19 31.01.2020
3348 Clear 5 1015 88 0 0.79 53 22:56 31.01.2020
3349 Clear 6 1021 88 0 0.79 53 22:38 31.01.2020
3350 Clear 6 1015 88 0 0.79 53 22:20 31.01.2020
3351 Clear 7 1017 85 0 0.89 45 21:40 31.01.2020
3352 Clear 8 1020 92 0 0.79 53 21:21 31.01.2020
3353 Clear 7 1015 86 0 0.79 53 20:58 31.01.2020
3354 Clear 7 1015 88 0 1.79 198 20:39 31.01.2020
3355 Clouds 9 1021 86 0 0.47 97 20:21 31.01.2020
3356 Clouds 8 1015 88 0 1.79 193 19:57 31.01.2020
3357 Clouds 9 1015 87 0 1.79 219 19:38 31.01.2020
3358 Clouds 9 1015 87 0 1.79 181 19:20 31.01.2020
3359 Clouds 9 1021 82 0 0.47 97 18:56 31.01.2020
3360 Clouds 6 1015 87 0 1.79 217 18:36 31.01.2020
3361 Clouds 10 1020 54 10000 3.6 230 18:18 31.01.2020
3362 Clouds 9 1020 54 10000 3.6 230 18:18 31.01.2020
3363 Clouds 10 1020 54 10000 3.6 230 17:40 31.01.2020
3364 Clouds 10 1020 54 10000 3.6 230 17:40 31.01.2020
3365 Clouds 14 1020 54 10000 3.6 230 17:21 31.01.2020
3366 Clouds 14 1020 54 10000 3.1 230 16:56 31.01.2020
3367 Clouds 14 1020 54 10000 3.1 230 16:56 31.01.2020
3368 Clouds 14 1020 54 10000 3.1 230 16:38 31.01.2020
3369 Clouds 15 1020 58 10000 3.1 220 16:19 31.01.2020
3370 Clouds 15 1020 58 10000 2.6 230 15:56 31.01.2020
3371 Clouds 15 1020 58 10000 2.6 230 15:56 31.01.2020
3372 Clouds 15 1020 54 10000 2.1 210 15:37 31.01.2020
3373 Clouds 14 1020 54 10000 2.1 210 15:19 31.01.2020
3374 Clouds 14 1021 54 10000 0.5 0 14:42 31.01.2020
3375 Clouds 14 1021 62 10000 0.5 0 14:20 31.01.2020
3376 Clouds 13 1022 62 10000 1 0 13:50 31.01.2020
3377 Clouds 13 1022 66 10000 1 0 13:32 31.01.2020
3378 Clouds 13 1023 71 10000 0.5 0 12:56 31.01.2020
3379 Clouds 13 1023 71 10000 0.5 0 12:56 31.01.2020
3380 Clouds 12 1023 71 10000 0.5 0 12:38 31.01.2020
3381 Clouds 12 1023 71 10000 0.5 0 12:38 31.01.2020
3382 Clouds 11 1023 76 10000 1.07 254 12:20 31.01.2020
3383 Clouds 11 1024 76 10000 0.5 0 11:41 31.01.2020
3384 Clouds 9 1024 81 10000 1 0 11:23 31.01.2020
3385 Clouds 8 1023 93 10000 1 0 10:58 31.01.2020
3386 Clouds 7 1023 93 10000 1 0 10:38 31.01.2020
3387 Clouds 6 1024 93 10000 0.5 0 10:20 31.01.2020
3388 Clouds 5 1023 100 10000 0.5 0 09:43 31.01.2020
3389 Clouds 5 1023 100 10000 1 0 09:22 31.01.2020
3390 Clouds 5 1016 89 0 1.55 17 08:59 31.01.2020
3391 Clouds 5 1022 88 0 1.55 17 08:41 31.01.2020
3392 Clouds 5 1022 88 0 1.55 17 08:41 31.01.2020
3393 Clouds 5 1016 89 0 1.92 27 08:22 31.01.2020
3394 Clouds 4 1015 91 0 1.92 27 07:51 31.01.2020
3395 Clouds 5 1015 92 0 1.92 27 07:19 31.01.2020
3396 Clouds 5 1015 95 0 1.92 27 06:38 31.01.2020
3397 Clouds 5 1015 95 0 0.45 4 05:56 31.01.2020
3398 Clouds 5 1021 85 0 1.92 27 05:30 31.01.2020
3399 Clouds 5 1015 90 0 2.32 23 04:36 31.01.2020
3400 Clouds 5 1015 87 0 2.32 23 02:50 31.01.2020
3401 Clouds 5 1015 86 0 2.32 26 01:31 31.01.2020
3402 Clouds 6 1015 86 0 2.57 22 00:40 31.01.2020
3403 Clouds 6 1015 86 0 2.57 22 00:22 31.01.2020
3404 Clouds 6 1021 89 0 2.57 22 23:42 30.01.2020
3405 Rain 6 1015 89 0 2.48 23 23:21 30.01.2020
3406 Rain 7 1021 88 0 2.48 23 22:39 30.01.2020
3407 Rain 7 1021 88 0 2.48 23 22:21 30.01.2020
3408 Rain 6 1015 88 0 2.48 23 21:58 30.01.2020
3409 Rain 6 1021 89 0 2.48 23 21:40 30.01.2020
3410 Rain 7 1015 90 0 0.45 10 21:18 30.01.2020
3411 Rain 7 1021 88 0 2.48 23 20:56 30.01.2020
3412 Rain 8 1021 88 0 2.48 23 20:38 30.01.2020
3413 Clouds 8 1015 92 0 1.67 20 20:19 30.01.2020
3414 Clouds 9 1015 94 0 1.67 20 19:44 30.01.2020
3415 Clouds 9 1014 88 0 1.67 20 19:19 30.01.2020
3416 Clouds 9 1020 85 0 1.67 20 18:58 30.01.2020
3417 Clouds 9 1020 85 0 1.67 20 18:58 30.01.2020
3418 Clouds 10 1020 85 0 1.67 20 18:58 30.01.2020
3419 Clouds 10 1014 81 0 1.67 20 18:36 30.01.2020
3420 Clouds 9 1019 57 10000 1.5 210 18:18 30.01.2020
3421 Clouds 10 1019 57 10000 1.5 210 17:41 30.01.2020
3422 Clouds 11 1019 57 10000 1.5 210 17:19 30.01.2020
3423 Clouds 11 1019 53 10000 0.5 0 16:58 30.01.2020
3424 Clouds 12 1019 53 10000 0.5 0 16:39 30.01.2020
3425 Clouds 12 1019 53 10000 1 0 16:21 30.01.2020
3426 Clouds 12 1019 57 10000 1 0 15:44 30.01.2020
3427 Clouds 12 1020 57 10000 1 0 15:21 30.01.2020
3428 Clouds 12 1020 50 10000 1 0 14:57 30.01.2020
3429 Clouds 11 1020 57 10000 2.1 80 14:37 30.01.2020
3430 Clouds 11 1020 57 10000 2.1 80 14:19 30.01.2020
3431 Clouds 11 1021 65 10000 1 0 13:41 30.01.2020
3432 Clouds 10 1022 70 10000 1.5 20 13:23 30.01.2020
3433 Clouds 10 1021 71 0 1.71 226 12:55 30.01.2020
3434 Clouds 10 1022 74 0 1.71 226 12:37 30.01.2020
3435 Clouds 10 1021 72 0 1.71 226 12:18 30.01.2020
3436 Clouds 8 1022 75 10000 1 0 11:40 30.01.2020
3437 Clouds 7 1022 93 10000 2.1 80 11:22 30.01.2020
3438 Clouds 6 1023 80 10000 0.5 0 10:58 30.01.2020
3439 Clouds 6 1023 93 10000 1 0 10:38 30.01.2020
3440 Clouds 5 1023 93 10000 1 0 10:19 30.01.2020
3441 Clouds 5 1022 93 10000 1.5 30 09:44 30.01.2020
3442 Clouds 4 1022 93 10000 1 0 09:24 30.01.2020
3443 Clouds 4 1022 84 0 0.47 113 08:42 30.01.2020
3444 Clouds 4 1015 84 0 1.83 15 08:22 30.01.2020
3445 Clouds 4 1014 84 0 1.83 15 07:55 30.01.2020
3446 Clouds 4 1014 89 0 1.83 15 07:37 30.01.2020
3447 Clouds 4 1014 89 0 1.83 15 06:56 30.01.2020
3448 Clouds 3 1014 89 0 1.83 15 06:33 30.01.2020
3449 Clouds 3 1014 88 0 1.34 39 05:53 30.01.2020
3450 Clouds 3 1021 83 0 1.83 15 05:28 30.01.2020
3451 Clouds 3 1021 82 0 1.4 9 04:40 30.01.2020
3452 Clouds 3 1014 81 0 1.4 9 03:47 30.01.2020
3453 Clouds 3 1022 80 0 1.4 9 02:54 30.01.2020
3454 Clouds 3 1014 75 0 1.32 11 00:56 30.01.2020
3455 Clouds 3 1023 77 0 1.32 11 00:26 30.01.2020
3456 Clouds 3 1023 77 0 1.32 11 23:51 29.01.2020
3457 Clouds 3 1015 74 0 2.24 207 23:23 29.01.2020
3458 Clouds 3 1023 73 0 0.27 74 22:59 29.01.2020
3459 Clouds 4 1023 72 0 0.27 74 22:40 29.01.2020
3460 Clouds 4 1014 74 0 3.13 222 22:20 29.01.2020
3461 Clouds 4 1015 73 0 1.34 150 21:59 29.01.2020
3462 Clouds 4 1015 73 0 3.13 204 21:40 29.01.2020
3463 Clouds 4 1014 73 0 2.68 245 21:20 29.01.2020
3464 Clouds 5 1015 72 0 0.45 229 20:59 29.01.2020
3465 Clouds 5 1015 70 0 0.45 210 20:39 29.01.2020
3466 Clouds 5 1015 72 0 1.34 200 20:21 29.01.2020
3467 Clouds 5 1022 67 0 1.02 31 19:57 29.01.2020
3468 Clouds 5 1022 66 0 1.02 31 19:37 29.01.2020
3469 Clouds 5 1014 64 0 1.02 31 19:19 29.01.2020
3470 Clouds 7 1022 61 0 1.02 31 18:54 29.01.2020
3471 Clouds 1 1014 56 0 1.02 31 18:36 29.01.2020
3472 Clouds 4 1014 63 0 1.02 31 18:18 29.01.2020
3473 Clouds 1 1014 65 0 1.02 31 17:39 29.01.2020
3474 Clouds 1 1014 65 0 1.02 31 17:39 29.01.2020
3475 Clouds 11 1021 54 0 0.83 281 17:21 29.01.2020
3476 Clouds 11 1021 45 0 0.83 281 16:41 29.01.2020
3477 Clouds 11 1021 46 0 0.83 281 16:23 29.01.2020
3478 Clouds 11 1021 46 0 0.45 225 15:56 29.01.2020
3479 Clouds 12 1021 47 0 0.83 281 15:37 29.01.2020
3480 Clouds 12 1021 47 0 0.83 281 15:19 29.01.2020
3481 Clouds 12 1021 49 0 0.83 281 14:43 29.01.2020
3482 Clouds 11 1021 52 0 1.04 262 14:20 29.01.2020
3483 Clouds 11 1021 51 0 1.04 262 13:54 29.01.2020
3484 Clouds 10 1022 53 0 1.04 262 13:36 29.01.2020
3485 Clouds 10 1022 53 0 1.04 262 13:36 29.01.2020
3486 Clouds 9 1022 50 0 0.87 284 13:18 29.01.2020
3487 Clouds 9 1022 51 0 0.87 284 12:55 29.01.2020
3488 Clouds 9 1022 53 0 0.87 284 12:36 29.01.2020
3489 Clouds 8 1022 78 0 0.87 284 12:18 29.01.2020
3490 Clouds 7 1023 57 0 0.87 284 11:42 29.01.2020
3491 Clouds 4 1014 38 0 2.1 21 11:20 29.01.2020
3492 Clouds 4 1014 43 0 2.1 21 11:20 29.01.2020
3493 Clouds 3 1014 40 0 2.1 21 10:46 29.01.2020
3494 Clouds 2 1014 46 0 2.1 21 10:23 29.01.2020
3495 Clouds 2 1022 61 0 2.1 21 09:58 29.01.2020
3496 Clouds 2 1022 61 0 2.1 21 09:39 29.01.2020
3497 Clouds 1 1013 42 0 2.1 21 09:18 29.01.2020
3498 Clouds 1 1013 39 0 0.45 83 08:44 29.01.2020
3499 Clouds 1 1012 43 0 2.26 22 08:24 29.01.2020
3500 Clouds 1 1021 72 0 2.98 22 07:45 29.01.2020
3501 Clouds 0 1021 72 0 2.98 22 07:26 29.01.2020
3502 Clouds 1 1020 72 0 2.98 22 06:56 29.01.2020
3503 Clouds 1 1011 40 0 2.98 22 06:37 29.01.2020
3504 Clouds 1 1011 36 0 1.79 31 06:19 29.01.2020
3505 Clouds 1 1011 48 0 2.98 22 05:49 29.01.2020
3506 Clouds 1 1011 62 0 2.98 22 05:30 29.01.2020
3507 Clouds 2 1011 47 0 0.45 350 04:38 29.01.2020
3508 Clouds 2 1011 50 0 2.51 16 03:58 29.01.2020
3509 Clouds 2 1011 69 0 2.51 16 02:33 29.01.2020
3510 Clear 3 1011 47 0 1.47 8 00:57 29.01.2020
3511 Clear 3 1011 45 0 0.45 11 00:36 29.01.2020
3512 Clear 3 1011 45 0 0.89 21 00:18 29.01.2020
3513 Clear 4 1011 68 0 0.45 236 23:38 28.01.2020
3514 Clouds 4 1011 62 0 1.67 18 23:19 28.01.2020
3515 Clouds 4 1011 54 0 1.67 18 22:44 28.01.2020
3516 Clouds 4 1020 85 0 1.67 18 22:26 28.01.2020
3517 Clouds 2 1011 49 0 1.67 18 21:54 28.01.2020
3518 Clouds 3 1011 44 0 0.89 349 21:36 28.01.2020
3519 Clouds 3 1011 67 0 0.45 34 21:18 28.01.2020
3520 Clouds 3 1011 67 0 0.45 34 21:18 28.01.2020
3521 Clouds 4 1011 62 0 0.45 232 20:45 28.01.2020
3522 Clouds 5 1011 61 0 1.67 18 20:25 28.01.2020
3523 Clouds 5 1011 57 0 2.14 4 19:55 28.01.2020
3524 Clouds 5 1011 52 0 2.14 4 19:36 28.01.2020
3525 Clouds 5 1011 74 0 2.14 4 19:18 28.01.2020
3526 Clouds 4 1010 78 0 2.14 4 18:41 28.01.2020
3527 Clouds 5 1010 75 0 2.14 4 18:22 28.01.2020
3528 Clouds 5 1010 61 0 2.14 4 17:59 28.01.2020
3529 Clouds 7 1010 61 0 2.14 4 17:38 28.01.2020
3530 Clouds 9 1018 77 0 1.64 268 17:19 28.01.2020
3531 Clouds 10 1018 74 0 1.64 268 16:55 28.01.2020
3532 Clouds 10 1018 73 0 1.64 268 16:37 28.01.2020
3533 Clouds 11 1018 71 0 1.64 268 16:19 28.01.2020
3534 Clouds 11 1018 66 0 1.64 268 15:44 28.01.2020
3535 Clouds 11 1018 64 0 1.64 268 15:19 28.01.2020
3536 Clouds 11 1018 67 0 1.64 268 14:55 28.01.2020
3537 Clouds 11 1018 68 0 1.64 268 14:36 28.01.2020
3538 Clouds 11 1018 69 0 1.55 280 14:18 28.01.2020
3539 Clouds 10 1019 70 0 1.55 280 13:39 28.01.2020
3540 Clouds 9 1019 71 0 1.44 256 13:21 28.01.2020
3541 Clouds 9 1019 75 0 1.44 256 12:42 28.01.2020
3542 Clouds 8 1020 76 0 1.44 256 12:23 28.01.2020
3543 Clouds 8 1020 76 0 1.44 256 12:23 28.01.2020
3544 Clouds 8 1020 78 0 1.44 256 11:48 28.01.2020
3545 Clouds 7 1018 72 0 1.44 256 11:23 28.01.2020
3546 Clouds 5 1010 79 0 0.45 232 10:59 28.01.2020
3547 Clouds 5 1019 84 0 1.23 25 10:40 28.01.2020
3548 Clouds 4 1010 83 0 1.23 25 10:20 28.01.2020
3549 Clouds 4 1009 86 0 1.34 0 09:43 28.01.2020
3550 Clouds 3 1009 87 0 1.79 30 09:21 28.01.2020
3551 Clouds 3 1009 84 0 1.23 25 08:58 28.01.2020
3552 Clouds 3 1009 85 0 1.23 25 08:39 28.01.2020
3553 Clouds 2 1008 89 0 0.45 66 08:19 28.01.2020
3554 Clouds 2 1008 88 0 1.84 349 07:37 28.01.2020
3555 Clouds 2 1007 77 0 0.45 200 06:50 28.01.2020
3556 Clouds 2 1007 79 0 3.13 225 06:26 28.01.2020
3557 Clouds 1 1007 80 0 1.79 212 05:54 28.01.2020
3558 Clouds 2 1007 78 0 2.68 215 05:26 28.01.2020
3559 Clouds 2 1007 71 0 0.85 256 03:59 28.01.2020
3560 Clouds 2 1012 92 0 0.45 225 02:58 28.01.2020
3561 Clouds 2 1008 72 0 1.79 132 02:25 28.01.2020
3562 Clouds 2 1008 69 0 2.68 205 01:57 28.01.2020
3563 Clouds 2 1008 67 0 0.67 286 01:23 28.01.2020
3564 Clouds 2 1009 75 0 1.79 205 00:45 28.01.2020
3565 Clouds 2 1008 76 0 2.68 252 00:24 28.01.2020
3566 Clouds 2 1008 81 0 1.34 212 23:48 27.01.2020
3567 Clouds 2 1008 83 0 0.95 291 23:29 27.01.2020
3568 Clouds 2 1009 82 0 0.95 291 22:54 27.01.2020
3569 Clouds 2 1008 81 0 0.95 291 22:36 27.01.2020
3570 Clouds 3 1008 81 0 0.95 291 22:18 27.01.2020
3571 Clouds 3 1008 82 0 0.89 255 21:40 27.01.2020
3572 Clouds 3 1008 81 0 2.24 215 21:19 27.01.2020
3573 Clouds 3 1019 89 0 0.95 291 20:59 27.01.2020
3574 Clouds 3 1008 81 0 2.24 191 20:40 27.01.2020
3575 Clouds 3 1007 81 0 2.68 204 20:21 27.01.2020
3576 Clouds 4 1018 89 0 1.43 185 19:58 27.01.2020
3577 Clouds 4 1008 80 0 1.79 221 19:40 27.01.2020
3578 Clouds 4 1008 81 0 2.24 236 19:21 27.01.2020
3579 Clouds 4 1008 79 0 2.68 214 18:54 27.01.2020
3580 Clouds 5 1008 79 0 1.79 200 18:36 27.01.2020
3581 Clouds 6 1017 70 10000 1 190 18:18 27.01.2020
3582 Clouds 8 1017 70 10000 1 190 17:39 27.01.2020
3583 Clouds 8 1017 70 10000 1 190 17:39 27.01.2020
3584 Clouds 8 1017 70 10000 1 190 17:39 27.01.2020
3585 Clouds 7 1017 70 10000 1 0 17:19 27.01.2020
3586 Clouds 7 1017 70 10000 1 0 16:56 27.01.2020
3587 Clouds 7 1017 70 10000 1 0 16:37 27.01.2020
3588 Clouds 6 1017 70 10000 1 0 16:19 27.01.2020
3589 Clouds 7 1018 70 10000 0.5 0 15:41 27.01.2020
3590 Clouds 6 1018 70 10000 1.96 225 15:20 27.01.2020
3591 Clouds 6 1019 75 10000 1 0 14:57 27.01.2020
3592 Clouds 6 1019 75 10000 1 0 14:39 27.01.2020
3593 Clouds 6 1019 75 10000 1 0 14:20 27.01.2020
3594 Clouds 6 1020 70 10000 0.5 0 13:42 27.01.2020
3595 Clouds 6 1020 75 10000 1.78 225 13:23 27.01.2020
3596 Clouds 5 1021 75 10000 1 0 12:58 27.01.2020
3597 Clouds 4 1021 75 10000 1 0 12:39 27.01.2020
3598 Clouds 4 1021 75 10000 0.5 0 12:21 27.01.2020
3599 Clouds 3 1021 86 10000 1.5 70 11:43 27.01.2020
3600 Clouds 3 1021 86 10000 0.5 0 11:22 27.01.2020
3601 Clouds 3 1021 93 10000 0.5 0 10:56 27.01.2020
3602 Clouds 2 1021 93 10000 1 0 10:37 27.01.2020
3603 Clouds 1 1021 93 10000 1 0 10:18 27.01.2020
3604 Clouds 2 1021 93 10000 1 0 09:39 27.01.2020
3605 Clouds 1 1021 93 10000 1.5 360 09:19 27.01.2020
3606 Clouds 0 1011 51 0 2.24 207 08:48 27.01.2020
3607 Clouds 0 1011 55 0 1.34 195 08:23 27.01.2020
3608 Clouds -1 1021 95 0 0.54 67 07:55 27.01.2020
3609 Clouds -1 1011 55 0 0.54 67 07:36 27.01.2020
3610 Clouds 0 1011 56 0 0.54 67 07:18 27.01.2020
3611 Clouds 1 1011 51 0 0.54 67 06:33 27.01.2020
3612 Clouds 1 1011 49 0 0.45 235 05:37 27.01.2020
3613 Clouds 1 1012 47 0 0.19 334 04:20 27.01.2020
3614 Clouds 1 1012 54 0 1.34 205 03:27 27.01.2020
3615 Clouds 2 1012 73 0 2.68 246 01:32 27.01.2020
3616 Clouds 2 1012 82 0 4.47 193 00:59 27.01.2020
3617 Clouds 2 1012 78 0 3.58 219 00:38 27.01.2020
3618 Clouds 2 1012 82 0 3.58 228 00:19 27.01.2020
3619 Clouds 3 1022 92 0 0.25 113 23:42 26.01.2020
3620 Clouds 4 1022 92 0 0.68 62 23:20 26.01.2020
3621 Clouds 4 1022 92 0 0.68 62 22:57 26.01.2020
3622 Clouds 4 1022 92 0 0.68 62 22:37 26.01.2020
3623 Clouds 4 1022 91 0 0.68 62 22:18 26.01.2020
3624 Clouds 2 1012 88 0 3.58 179 21:56 26.01.2020
3625 Clouds 2 1013 89 0 2.68 212 21:38 26.01.2020
3626 Clouds 3 1012 84 0 0.89 219 21:19 26.01.2020
3627 Clouds 4 1019 90 0 0.68 62 20:55 26.01.2020
3628 Clouds 3 1012 83 0 1.34 239 20:36 26.01.2020
3629 Snow 5 1021 90 0 0.95 352 20:18 26.01.2020
3630 Snow 6 1018 71 0 56.33 45 19:56 26.01.2020
3631 Snow 6 1019 89 0 0.45 180 19:37 26.01.2020
3632 Snow 6 1021 88 0 0.52 29 19:18 26.01.2020
3633 Snow 4 1012 93 0 0.52 29 18:41 26.01.2020
3634 Clouds 8 1019 76 10000 3.1 240 18:22 26.01.2020
3635 Clouds 5 1019 76 10000 3.1 240 17:58 26.01.2020
3636 Clouds 5 1019 76 10000 3.1 240 17:39 26.01.2020
3637 Clouds 7 1019 76 10000 3.1 240 17:19 26.01.2020
3638 Clouds 8 1019 71 10000 3.1 230 16:58 26.01.2020
3639 Clouds 9 1019 71 10000 3.1 230 16:39 26.01.2020
3640 Clouds 9 1019 71 10000 3.1 230 16:39 26.01.2020
3641 Clouds 8 1019 71 10000 2.6 230 16:20 26.01.2020
3642 Rain 9 1019 76 10000 3.1 230 15:55 26.01.2020
3643 Rain 9 1019 76 10000 3.1 230 15:37 26.01.2020
3644 Snow 9 1020 77 0 0.69 283 15:18 26.01.2020
3645 Snow 8 1019 80 0 0.69 283 14:40 26.01.2020
3646 Snow 9 1017 66 0 0.45 303 14:19 26.01.2020
3647 Snow 8 1017 78 0 0.45 180 13:43 26.01.2020
3648 Snow 7 1020 85 0 0.48 195 13:20 26.01.2020
3649 Snow 8 1020 87 0 0.48 195 12:58 26.01.2020
3650 Snow 8 1020 87 0 0.48 195 12:39 26.01.2020
3651 Snow 7 1021 90 0 0.48 195 12:21 26.01.2020
3652 Snow 7 1021 92 0 0.48 195 11:57 26.01.2020
3653 Snow 7 1021 92 0 0.48 195 11:57 26.01.2020
3654 Snow 6 1018 80 0 0.89 158 11:38 26.01.2020
3655 Fog 5 1020 100 10000 1 0 11:18 26.01.2020
3656 Fog 4 1020 100 10000 1 0 10:58 26.01.2020
3657 Fog 4 1020 100 10000 1 0 10:38 26.01.2020
3658 Fog 4 1020 100 10000 1 0 10:38 26.01.2020
3659 Fog 4 1020 100 10000 1 0 10:38 26.01.2020
3660 Fog 3 1020 100 10000 1 0 10:20 26.01.2020
3661 Fog 2 1020 100 10000 1.5 60 09:56 26.01.2020
3662 Fog 2 1020 100 10000 1.5 60 09:38 26.01.2020
3663 Fog 2 1019 100 10000 1.5 10 09:19 26.01.2020
3664 Clouds 1 1019 94 0 1.76 37 08:42 26.01.2020
3665 Clouds 1 1009 89 0 0.89 190 08:22 26.01.2020
3666 Clouds 1 1009 84 0 1.08 27 07:50 26.01.2020
3667 Clouds 1 1009 85 0 1.08 27 07:27 26.01.2020
3668 Clouds 2 1018 94 0 1.08 27 06:55 26.01.2020
3669 Clouds 2 1009 83 0 0.45 194 06:25 26.01.2020
3670 Clouds 1 1009 83 0 1.08 27 05:29 26.01.2020
3671 Clouds 2 1009 80 0 0.18 158 03:57 26.01.2020
3672 Clouds 2 1009 87 0 1.79 205 02:38 26.01.2020
3673 Clouds 2 1009 88 0 1.34 229 01:45 26.01.2020
3674 Snow 2 1009 84 0 1.79 233 01:22 26.01.2020
3675 Snow 2 1019 88 0 1.55 186 00:42 26.01.2020
3676 Snow 2 1009 85 0 1.34 256 00:23 26.01.2020
3677 Snow 3 1019 87 0 1.55 186 23:39 25.01.2020
3678 Snow 3 1019 86 0 1.25 190 23:20 25.01.2020
3679 Snow 3 1010 84 0 3.13 197 22:45 25.01.2020
3680 Snow 4 1020 86 0 1.25 190 22:22 25.01.2020
3681 Snow 4 1020 87 0 1.25 190 21:59 25.01.2020
3682 Snow 4 1020 87 0 1.25 190 21:41 25.01.2020
3683 Snow 4 1020 86 0 1.25 190 21:22 25.01.2020
3684 Snow 5 1020 86 0 1.25 190 20:55 25.01.2020
3685 Snow 4 1017 83 0 1.34 45 20:36 25.01.2020
3686 Snow -1 1018 99 0 1.61 162 20:18 25.01.2020
3687 Snow 5 1020 86 0 1.61 162 19:42 25.01.2020
3688 Snow 4 1009 83 0 2.24 210 19:20 25.01.2020
3689 Snow 6 1019 85 0 1.33 153 18:57 25.01.2020
3690 Snow 6 1019 85 0 1.33 153 18:57 25.01.2020
3691 Snow 3 1009 89 0 3.13 226 18:38 25.01.2020
3692 Snow 4 1009 87 0 4.02 198 18:20 25.01.2020
3693 Snow 4 1019 83 0 1.61 162 17:40 25.01.2020
3694 Snow 6 1009 89 0 2.68 210 17:19 25.01.2020
3695 Snow 6 1019 80 0 2.05 190 16:57 25.01.2020
3696 Snow 6 1009 81 0 2.24 228 16:38 25.01.2020
3697 Snow 6 1009 85 0 2.24 215 16:19 25.01.2020
3698 Snow 8 1019 74 0 1.87 191 15:46 25.01.2020
3699 Snow 7 1009 82 0 3.13 229 15:25 25.01.2020
3700 Snow 7 1020 74 0 1.87 191 14:57 25.01.2020
3701 Snow 8 1020 72 0 1.87 191 14:39 25.01.2020
3702 Snow 8 1016 66 0 2.28 190 14:18 25.01.2020
3703 Snow 6 1020 75 0 2.28 190 13:41 25.01.2020
3704 Snow 6 1010 82 0 4.02 194 13:22 25.01.2020
3705 Snow 6 1010 82 0 4.02 194 13:22 25.01.2020
3706 Clouds 6 1022 93 10000 1 0 12:43 25.01.2020
3707 Clouds 5 1022 93 10000 1 0 12:23 25.01.2020
3708 Clouds 5 1022 93 10000 1 0 11:45 25.01.2020
3709 Fog 4 1022 100 10000 1 0 11:22 25.01.2020
3710 Fog 3 1021 100 10000 1 0 10:58 25.01.2020
3711 Fog 3 1021 100 10000 1 0 10:40 25.01.2020
3712 Fog 3 1021 100 10000 0.5 0 10:20 25.01.2020
3713 Fog 2 1021 100 10000 1.59 184 09:41 25.01.2020
3714 Fog 1 1021 100 9000 1 0 09:22 25.01.2020
3715 Snow 2 1011 88 0 1.34 217 08:44 25.01.2020
3716 Clouds 0 1011 87 0 0.45 262 08:22 25.01.2020
3717 Clouds 0 1011 81 0 1.79 226 07:43 25.01.2020
3718 Clouds 0 1021 89 0 0.94 168 06:51 25.01.2020
3719 Clouds 0 1021 89 0 0.94 168 06:27 25.01.2020
3720 Clouds 0 1021 90 0 0.94 168 05:45 25.01.2020
3721 Clouds 0 1011 83 0 4.02 200 04:43 25.01.2020
3722 Clouds 0 1011 79 0 1.79 188 03:51 25.01.2020
3723 Clouds 1 1022 90 0 0.74 163 02:54 25.01.2020
3724 Clouds 1 1012 80 0 2.68 224 01:59 25.01.2020
3725 Clouds 1 1012 80 0 2.68 224 01:59 25.01.2020
3726 Clouds 1 1012 80 0 3.13 195 01:37 25.01.2020
3727 Clouds 1 1012 80 0 3.13 195 01:37 25.01.2020
3728 Clouds 1 1012 77 0 3.13 235 00:42 25.01.2020
3729 Clouds 0 1012 75 0 2.68 200 00:23 25.01.2020
3730 Clouds 1 1012 75 0 3.13 211 23:57 24.01.2020
3731 Clouds 1 1012 74 0 3.58 188 23:38 24.01.2020
3732 Clouds 1 1012 74 0 3.58 188 23:38 24.01.2020
3733 Clouds 1 1012 74 0 3.58 188 23:38 24.01.2020
3734 Clouds 1 1013 76 0 2.24 214 23:19 24.01.2020
3735 Clouds 1 1023 87 0 0.68 81 22:42 24.01.2020
3736 Clouds 2 1013 72 0 1.79 187 22:23 24.01.2020
3737 Clouds 2 1023 86 0 0.68 81 21:41 24.01.2020
3738 Clouds 2 1012 72 0 2.68 203 21:20 24.01.2020
3739 Clouds 2 1012 70 0 3.58 226 21:20 24.01.2020
3740 Clouds 3 1023 85 0 0.68 81 20:55 24.01.2020
3741 Clouds 3 1022 85 0 0.68 81 20:37 24.01.2020
3742 Clouds 4 1022 85 0 0.94 65 20:18 24.01.2020
3743 Clouds 4 1022 85 0 0.94 65 19:55 24.01.2020
3744 Clouds 5 1022 83 0 0.94 65 19:37 24.01.2020
3745 Clouds 5 1022 83 0 0.94 65 19:19 24.01.2020
3746 Clouds 5 1022 83 0 0.94 65 19:19 24.01.2020
3747 Clouds 4 1020 90 0 0.94 65 18:42 24.01.2020
3748 Clouds 5 1021 100 10000 1.5 80 18:21 24.01.2020
3749 Clouds 4 1021 100 10000 1.5 80 17:44 24.01.2020
3750 Clouds 7 1021 100 10000 1.5 80 17:22 24.01.2020
3751 Clouds 8 1021 100 10000 1 0 16:57 24.01.2020
3752 Clouds 8 1021 100 10000 1 0 16:57 24.01.2020
3753 Clouds 9 1021 100 10000 1 0 16:38 24.01.2020
3754 Clouds 8 1021 93 10000 1.5 80 16:18 24.01.2020
3755 Clouds 7 1021 93 10000 1.5 0 15:41 24.01.2020
3756 Clouds 9 1021 93 10000 1.5 0 15:21 24.01.2020
3757 Clouds 9 1022 93 10000 1 0 14:42 24.01.2020
3758 Clouds 9 1022 100 10000 1 0 14:24 24.01.2020
3759 Clouds 8 1022 100 10000 2.1 110 13:58 24.01.2020
3760 Clouds 6 1022 100 10000 2.1 110 13:40 24.01.2020
3761 Clouds 7 1023 100 10000 1.5 0 13:21 24.01.2020
3762 Clouds 6 1023 93 10000 1 0 12:42 24.01.2020
3763 Clouds 5 1024 93 10000 1 0 12:19 24.01.2020
3764 Clouds 5 1024 93 10000 1 0 11:44 24.01.2020
3765 Clouds 4 1024 93 10000 1.5 10 11:19 24.01.2020
3766 Clouds 3 1023 93 10000 1.5 30 10:43 24.01.2020
3767 Clouds 1 1023 100 10000 1.5 40 10:23 24.01.2020
3768 Clouds 1 1023 100 10000 2.1 40 09:57 24.01.2020
3769 Clouds 1 1023 100 10000 2.1 40 09:57 24.01.2020
3770 Clouds 1 1023 100 10000 2.1 40 09:57 24.01.2020
3771 Clouds 1 1023 100 10000 2.1 40 09:39 24.01.2020
3772 Clouds 1 1023 93 10000 1.5 10 09:21 24.01.2020
3773 Clear 1 1023 90 0 0.38 181 08:41 24.01.2020
3774 Clouds 0 1012 74 0 3.13 238 08:20 24.01.2020
3775 Clouds 0 1012 73 0 3.13 193 07:51 24.01.2020
3776 Clouds 0 1012 74 0 3.13 214 07:32 24.01.2020
3777 Clouds 1 1012 81 0 4.02 210 06:48 24.01.2020
3778 Clouds 1 1023 89 0 0.76 58 06:29 24.01.2020
3779 Clouds 1 1012 81 0 3.58 184 05:58 24.01.2020
3780 Clouds 2 1023 91 0 0.4 182 04:54 24.01.2020
3781 Clouds 2 1012 88 0 6.26 146 02:53 24.01.2020
3782 Clouds 2 1023 90 0 0.45 93 02:24 24.01.2020
3783 Clouds 2 1023 90 0 0.45 93 01:42 24.01.2020
3784 Clouds 3 1024 90 0 0.46 91 01:24 24.01.2020
3785 Clouds 3 1024 91 0 0.46 91 00:20 24.01.2020
3786 Clouds 3 1024 91 0 0.46 91 23:48 23.01.2020
3787 Clouds 3 1024 91 0 0.46 91 23:30 23.01.2020
3788 Clouds 3 1019 88 0 1.34 45 22:59 23.01.2020
3789 Clouds 3 1024 89 0 1.1 93 22:37 23.01.2020
3790 Clouds 3 1024 89 0 1.1 93 22:37 23.01.2020
3791 Clouds 3 1024 91 0 1.1 93 22:19 23.01.2020
3792 Clouds 3 1024 91 0 1.1 93 22:19 23.01.2020
3793 Clouds 2 1014 86 0 1.1 93 21:56 23.01.2020
3794 Clouds 3 1023 86 0 1.1 93 21:38 23.01.2020
3795 Clouds 4 1023 86 0 1.1 93 21:19 23.01.2020
3796 Clouds 4 1023 93 0 1.1 93 20:57 23.01.2020
3797 Clouds 4 1013 86 0 1.1 93 20:38 23.01.2020
3798 Clouds 5 1017 74 0 57.22 270 20:19 23.01.2020
3799 Clouds 5 1022 98 0 1.63 157 19:44 23.01.2020
3800 Clouds 5 1022 98 0 1.63 157 19:24 23.01.2020
3801 Clouds 6 1021 98 0 1.63 157 18:59 23.01.2020
3802 Clouds 6 1017 89 0 0.89 67 18:39 23.01.2020
3803 Clouds 4 1021 100 10000 2.1 350 18:20 23.01.2020
3804 Clouds 5 1021 100 10000 2.1 350 17:56 23.01.2020
3805 Clouds 5 1021 100 10000 2.1 350 17:37 23.01.2020
3806 Clouds 8 1021 100 10000 2.1 350 17:18 23.01.2020
3807 Clouds 9 1021 100 10000 1.5 80 16:39 23.01.2020
3808 Fog 7 1021 100 10000 1.5 70 16:20 23.01.2020
3809 Mist 7 1021 100 2300 2.6 20 15:58 23.01.2020
3810 Mist 7 1021 100 2300 2.6 20 15:39 23.01.2020
3811 Fog 7 1021 100 10000 1.5 80 15:19 23.01.2020
3812 Rain 6 1021 100 450 2.1 60 14:58 23.01.2020
3813 Rain 6 1021 100 450 2.1 60 14:40 23.01.2020
3814 Rain 6 1020 100 200 2.1 0 14:22 23.01.2020
3815 Rain 7 1021 100 10000 1.5 230 13:55 23.01.2020
3816 Rain 6 1021 100 900 1.5 220 13:37 23.01.2020
3817 Rain 6 1021 100 900 1.5 220 13:18 23.01.2020
3818 Rain 7 1021 100 7000 0.5 0 12:42 23.01.2020
3819 Rain 6 1021 100 7000 1 270 12:24 23.01.2020
3820 Rain 5 1021 100 1000 1.5 200 11:56 23.01.2020
3821 Rain 5 1021 100 6000 2.1 290 11:37 23.01.2020
3822 Rain 5 1021 100 6000 2.1 290 11:18 23.01.2020
3823 Clouds 6 1021 100 10000 2.1 260 10:41 23.01.2020
3824 Snow 5 1021 100 10000 3.1 330 10:19 23.01.2020
3825 Snow 5 1021 100 10000 5.7 320 09:42 23.01.2020
3826 Fog 5 1021 100 250 1 0 09:23 23.01.2020
3827 Snow 6 1020 97 0 2.81 128 08:57 23.01.2020
3828 Snow 6 1019 94 0 0.45 337 08:38 23.01.2020
3829 Snow 5 1010 96 0 2.35 84 08:19 23.01.2020
3830 Snow 6 1017 90 0 1.34 45 07:42 23.01.2020
3831 Snow 7 1017 89 0 3.13 248 07:21 23.01.2020
3832 Snow 7 1015 79 0 58.56 337 07:21 23.01.2020
3833 Snow 5 1011 96 0 2.35 84 06:44 23.01.2020
3834 Snow 6 1010 96 0 2.35 84 06:19 23.01.2020
3835 Snow 5 1011 96 0 2.16 78 04:44 23.01.2020
3836 Snow 5 1011 96 0 2.16 78 03:48 23.01.2020
3837 Snow 6 1012 96 0 1.48 117 01:56 23.01.2020
3838 Snow 5 1013 96 0 1.78 127 00:46 23.01.2020
3839 Snow 5 1013 95 0 1.78 127 00:24 23.01.2020
3840 Snow 6 1013 96 0 1.78 127 23:46 22.01.2020
3841 Snow 7 1017 88 0 0.89 206 23:28 22.01.2020
3842 Snow 7 1020 94 0 2.49 146 22:55 22.01.2020
3843 Snow 7 1020 94 0 2.49 146 22:55 22.01.2020
3844 Snow 6 1013 96 0 2.49 146 22:37 22.01.2020
3845 Snow 7 1017 90 0 1.79 45 22:19 22.01.2020
3846 Snow 5 1012 96 0 2.49 146 21:38 22.01.2020
3847 Snow 6 1012 96 0 2.49 146 21:20 22.01.2020
3848 Snow 6 1013 95 0 2.49 146 20:55 22.01.2020
3849 Snow 6 1012 95 0 2.49 146 20:36 22.01.2020
3850 Snow 6 1012 96 0 2.36 123 20:18 22.01.2020
3851 Snow 6 1012 96 0 2.36 123 19:42 22.01.2020
3852 Snow 6 1012 96 0 2.36 123 19:21 22.01.2020
3853 Snow 6 1012 96 0 2.36 123 19:21 22.01.2020
3854 Snow 5 1012 96 0 2.36 123 18:59 22.01.2020
3855 Snow 5 1012 96 0 2.36 123 18:40 22.01.2020
3856 Snow 5 1011 96 0 2.36 123 18:21 22.01.2020
3857 Snow 5 1012 96 0 2.36 123 17:59 22.01.2020
3858 Snow 5 1012 96 0 2.36 123 17:39 22.01.2020
3859 Snow 5 1012 95 0 1.73 110 17:20 22.01.2020
3860 Snow 5 1011 95 0 1.73 110 17:20 22.01.2020
3861 Snow 5 1011 95 0 1.73 110 16:55 22.01.2020
3862 Snow 5 1011 95 0 1.73 110 16:55 22.01.2020
3863 Snow 5 1011 95 0 1.73 110 16:55 22.01.2020
3864 Snow 5 1011 95 0 1.73 110 16:37 22.01.2020
3865 Snow 5 1012 95 0 1.73 110 16:18 22.01.2020
3866 Snow 5 1012 95 0 1.73 110 15:42 22.01.2020
3867 Snow 4 1012 95 0 1.73 110 15:23 22.01.2020
3868 Snow 4 1012 95 0 1.73 110 14:59 22.01.2020
3869 Snow 4 1012 95 0 1.73 110 14:38 22.01.2020
3870 Snow 4 1012 95 0 0.67 91 14:20 22.01.2020
3871 Snow 4 1013 95 0 0.45 204 13:56 22.01.2020
3872 Snow 4 1013 95 0 0.45 204 13:56 22.01.2020
3873 Snow 4 1013 95 0 0.45 204 13:56 22.01.2020
3874 Snow 5 1013 95 0 0.67 91 13:37 22.01.2020
3875 Snow 4 1014 96 0 0.84 104 13:19 22.01.2020
3876 Snow 4 1014 95 0 0.89 232 12:56 22.01.2020
3877 Snow 4 1014 95 0 0.84 104 12:38 22.01.2020
3878 Snow 5 1014 95 0 3.13 174 12:18 22.01.2020
3879 Snow 5 1015 95 0 0.84 104 11:56 22.01.2020
3880 Snow 5 1015 95 0 0.89 215 11:38 22.01.2020
3881 Snow 4 1015 95 0 0.89 238 11:18 22.01.2020
3882 Snow 4 1015 95 0 1.79 212 10:44 22.01.2020
3883 Snow 4 1015 95 0 4.02 232 10:21 22.01.2020
3884 Snow 4 1015 95 0 4.02 232 10:21 22.01.2020
3885 Snow 4 1015 94 0 3.58 214 09:44 22.01.2020
3886 Snow 4 1014 94 0 3.58 212 09:25 22.01.2020
3887 Snow 3 1014 92 0 1.34 229 08:58 22.01.2020
3888 Snow 4 1014 91 0 0.45 221 08:40 22.01.2020
3889 Snow 3 1014 91 0 1.49 341 08:21 22.01.2020
3890 Snow 3 1014 93 0 1.49 341 07:54 22.01.2020
3891 Snow 3 1014 92 0 1.49 341 07:36 22.01.2020
3892 Snow 3 1014 94 0 1.49 341 07:18 22.01.2020
3893 Snow 2 1024 94 0 1.49 341 06:30 22.01.2020
3894 Snow 2 1024 94 0 1.49 341 05:41 22.01.2020
3895 Snow 2 1024 94 0 1.49 341 05:41 22.01.2020
3896 Snow 2 1024 93 0 1.57 171 04:18 22.01.2020
3897 Snow 3 1015 93 0 1.57 171 03:22 22.01.2020
3898 Snow 3 1024 91 0 1.57 171 02:27 22.01.2020
3899 Snow 5 1024 72 0 3.43 55 00:45 22.01.2020
3900 Snow 6 1023 72 0 3.43 55 00:26 22.01.2020
3901 Snow 6 1023 74 0 3.43 55 23:39 21.01.2020
3902 Snow 6 1023 73 0 3.78 67 23:21 21.01.2020
3903 Snow 6 1023 74 0 3.78 67 22:59 21.01.2020
3904 Snow 7 1024 73 0 3.78 67 22:39 21.01.2020
3905 Snow 7 1024 73 0 3.78 67 22:20 21.01.2020
3906 Snow 5 1024 74 0 3.78 67 21:56 21.01.2020
3907 Snow 6 1024 73 0 3.78 67 21:37 21.01.2020
3908 Snow 5 1016 88 0 0.45 155 21:19 21.01.2020
3909 Snow 6 1023 73 0 3.78 67 20:55 21.01.2020
3910 Snow 5 1016 86 0 3.78 67 20:37 21.01.2020
3911 Snow 5 1016 89 0 2.47 74 20:18 21.01.2020
3912 Snow 5 1016 89 0 2.47 74 20:18 21.01.2020
3913 Snow 5 1024 70 0 3.04 64 19:55 21.01.2020
3914 Snow 5 1016 86 0 3.04 64 19:36 21.01.2020
3915 Snow 5 1016 83 0 3.04 64 19:18 21.01.2020
3916 Snow 5 1024 72 0 3.04 64 18:54 21.01.2020
3917 Snow 5 1024 71 0 3.04 64 18:36 21.01.2020
3918 Snow 6 1024 73 0 3.04 64 18:18 21.01.2020
3919 Snow 5 1024 74 0 3.04 64 17:42 21.01.2020
3920 Snow 7 1024 72 0 2.46 77 17:19 21.01.2020
3921 Snow 7 1024 72 0 2.46 77 17:19 21.01.2020
3922 Snow 6 1024 72 0 0.45 135 16:55 21.01.2020
3923 Snow 6 1024 72 0 2.46 77 16:36 21.01.2020
3924 Snow 6 1024 72 0 0.45 224 16:18 21.01.2020
3925 Snow 7 1024 73 0 2.46 77 15:39 21.01.2020
3926 Snow 6 1024 72 0 0.45 287 15:20 21.01.2020
3927 Snow 6 1025 76 0 0.45 222 14:40 21.01.2020
3928 Snow 6 1025 76 0 0.45 93 14:22 21.01.2020
3929 Snow 6 1025 74 0 3.4 93 13:58 21.01.2020
3930 Snow 6 1026 68 0 1.34 165 13:38 21.01.2020
3931 Snow 6 1026 63 0 4.04 94 13:18 21.01.2020
3932 Snow 6 1026 61 0 0.89 12 12:42 21.01.2020
3933 Snow 5 1026 59 0 4.04 94 12:24 21.01.2020
3934 Snow 5 1018 84 0 0.45 215 11:56 21.01.2020
3935 Snow 5 1027 63 0 4.04 94 11:38 21.01.2020
3936 Snow 2 1017 84 0 0.45 239 11:19 21.01.2020
3937 Snow 4 1027 64 0 3.7 78 10:43 21.01.2020
3938 Snow 4 1017 88 0 3.7 78 10:23 21.01.2020
3939 Snow 4 1027 66 0 3.7 78 09:56 21.01.2020
3940 Snow 4 1018 85 0 0.45 30 09:38 21.01.2020
3941 Snow 3 1018 84 0 3.7 78 09:19 21.01.2020
3942 Snow 3 1027 67 0 3.7 78 08:41 21.01.2020
3943 Snow 1 1018 84 0 3.46 51 08:22 21.01.2020
3944 Snow 2 1027 67 0 3.46 51 07:43 21.01.2020
3945 Snow 2 1027 67 0 3.46 51 07:24 21.01.2020
3946 Snow 2 1028 66 0 3.46 51 06:57 21.01.2020
3947 Snow 2 1028 66 0 3.46 51 06:38 21.01.2020
3948 Snow 1 1018 84 0 3.46 51 05:53 21.01.2020
3949 Clouds 1 1018 85 0 4.28 42 04:41 21.01.2020
3950 Clouds 1 1018 85 0 4.28 42 04:19 21.01.2020
3951 Clouds 0 1029 66 0 4.28 42 02:26 21.01.2020
3952 Clouds 1 1019 85 0 3.82 49 01:31 21.01.2020
3953 Clouds 2 1019 87 0 3.96 44 00:41 21.01.2020
3954 Clouds 2 1020 87 0 3.96 44 00:21 21.01.2020
3955 Clouds 2 1030 67 0 3.96 44 23:41 20.01.2020
3956 Clouds 1 1020 85 0 3.95 49 23:19 20.01.2020
3957 Clouds 1 1020 85 0 3.95 49 22:59 20.01.2020
3958 Clouds 2 1020 83 0 3.95 49 22:39 20.01.2020
3959 Clouds 1 1020 83 0 1.79 8 22:21 20.01.2020
3960 Clouds 1 1020 87 0 3.95 49 21:58 20.01.2020
3961 Clouds 2 1020 86 0 3.95 49 21:38 20.01.2020
3962 Clouds 3 1030 64 0 3.95 49 21:19 20.01.2020
3963 Clouds 1 1030 66 0 3.95 49 20:57 20.01.2020
3964 Clouds 2 1019 85 0 1.34 255 20:38 20.01.2020
3965 Clouds 3 1030 62 0 4.38 38 20:19 20.01.2020
3966 Clouds 3 1030 62 0 4.38 38 20:19 20.01.2020
3967 Clouds 2 1031 63 0 4.38 38 19:56 20.01.2020
3968 Clouds 1 1031 63 0 4.38 38 19:38 20.01.2020
3969 Clouds 1 1020 88 0 4.38 38 19:18 20.01.2020
3970 Clouds 1 1020 88 0 4.38 38 18:44 20.01.2020
3971 Clouds 4 1027 48 10000 7.2 40 18:23 20.01.2020
3972 Clouds 4 1027 48 10000 7.2 40 17:58 20.01.2020
3973 Clouds 4 1027 48 10000 7.2 40 17:36 20.01.2020
3974 Clouds 4 1027 48 10000 7.2 40 17:36 20.01.2020
3975 Clouds 5 1027 48 10000 7.2 40 17:18 20.01.2020
3976 Clouds 5 1027 48 10000 8.2 50 16:43 20.01.2020
3977 Clouds 5 1026 48 10000 7.7 50 16:25 20.01.2020
3978 Clouds 5 1026 48 10000 8.2 40 15:58 20.01.2020
3979 Clouds 5 1026 48 10000 8.2 40 15:39 20.01.2020
3980 Clouds 5 1026 48 10000 8.2 40 15:21 20.01.2020
3981 Clouds 5 1026 45 10000 8.2 40 14:42 20.01.2020
3982 Clouds 5 1027 48 10000 7.7 40 14:24 20.01.2020
3983 Clouds 6 1027 48 10000 7.2 40 13:59 20.01.2020
3984 Clouds 6 1027 48 10000 7.2 40 13:40 20.01.2020
3985 Clouds 5 1027 48 10000 7.7 50 13:22 20.01.2020
3986 Clouds 6 1027 44 10000 8.2 40 12:47 20.01.2020
3987 Clouds 5 1028 48 10000 8.7 50 12:28 20.01.2020
3988 Clouds 5 1028 48 10000 8.7 50 12:28 20.01.2020
3989 Clouds 5 1028 44 10000 8.2 50 11:59 20.01.2020
3990 Clouds 5 1028 44 10000 8.2 50 11:39 20.01.2020
3991 Clouds 1 1028 44 10000 8.2 40 11:21 20.01.2020
3992 Clouds 1 1027 47 10000 6.7 40 10:48 20.01.2020
3993 Clouds 1 1027 47 10000 6.7 40 10:48 20.01.2020
3994 Clouds 0 1027 47 10000 6.2 40 10:22 20.01.2020
3995 Clouds -1 1027 44 10000 8.2 40 09:57 20.01.2020
3996 Clouds 2 1027 44 10000 8.2 40 09:39 20.01.2020
3997 Clouds 1 1027 40 10000 7.2 40 09:20 20.01.2020
3998 Clouds 1 1029 57 0 4.88 38 08:44 20.01.2020
3999 Clouds -2 1017 94 0 4.76 33 08:26 20.01.2020
4000 Clouds -2 1029 57 0 4.76 33 07:45 20.01.2020
4001 Clouds 0 1029 56 0 4.76 33 07:24 20.01.2020
4002 Clouds -1 1016 93 0 4.76 33 06:46 20.01.2020
4003 Clouds 0 1029 50 0 4.76 33 06:26 20.01.2020
4004 Clouds -2 1029 55 0 4.76 33 05:42 20.01.2020
4005 Clouds -2 1016 93 0 0.89 1 05:21 20.01.2020
4006 Clouds -3 1029 55 0 0.45 139 04:41 20.01.2020
4007 Clouds 0 1029 57 0 5.06 24 02:57 20.01.2020
4008 Clouds 0 1029 60 0 5.88 17 01:52 20.01.2020
4009 Clouds -2 1030 60 0 5.96 20 01:26 20.01.2020
4010 Clouds 0 1030 62 0 0.45 308 00:44 20.01.2020
4011 Clouds 0 1030 62 0 0.45 304 00:22 20.01.2020
4012 Clouds -2 1017 92 0 2.24 349 23:39 19.01.2020
4013 Clouds -3 1017 93 0 1.79 300 23:20 19.01.2020
4014 Clouds -3 1017 93 0 1.79 300 23:20 19.01.2020
4015 Clouds -3 1017 93 0 1.79 300 23:20 19.01.2020
4016 Clouds -3 1030 65 0 0.45 291 22:56 19.01.2020
4017 Clouds -3 1017 93 0 1.79 336 22:56 19.01.2020
4018 Clouds 0 1030 68 0 1.34 117 22:38 19.01.2020
4019 Clouds 0 1030 69 0 0.89 305 22:20 19.01.2020
4020 Clouds 0 1030 67 0 0.45 34 21:56 19.01.2020
4021 Clouds 0 1030 66 0 1.34 34 21:38 19.01.2020
4022 Clouds 0 1029 64 0 0.89 25 21:20 19.01.2020
4023 Clouds 0 1029 64 0 2.24 232 20:57 19.01.2020
4024 Clouds 0 1029 62 0 1.34 299 20:38 19.01.2020
4025 Clouds 1 1029 63 0 1.79 257 20:20 19.01.2020
4026 Clouds 1 1029 63 0 0.45 301 19:56 19.01.2020
4027 Clouds -1 1016 94 0 3.13 3 19:38 19.01.2020
4028 Clouds 0 1016 94 0 3.58 3 19:19 19.01.2020
4029 Clouds -3 1016 93 0 3.13 10 18:55 19.01.2020
4030 Clouds -2 1016 91 0 3.58 17 18:37 19.01.2020
4031 Clouds -1 1023 26 10000 11.3 360 18:19 19.01.2020
4032 Clouds -1 1023 26 10000 11.3 360 17:58 19.01.2020
4033 Clouds 0 1023 26 10000 11.3 360 17:39 19.01.2020
4034 Clouds 5 1023 26 10000 11.3 360 17:20 19.01.2020
4035 Clouds 5 1022 28 10000 12.3 360 16:57 19.01.2020
4036 Clouds 5 1022 28 10000 12.3 360 16:38 19.01.2020
4037 Clouds 7 1022 28 10000 10.8 360 16:19 19.01.2020
4038 Clouds 7 1021 26 10000 9.3 10 15:57 19.01.2020
4039 Clouds 7 1021 26 10000 9.8 10 15:37 19.01.2020
4040 Clouds 7 1021 26 10000 9.8 10 15:19 19.01.2020
4041 Clouds 7 1021 26 10000 10.3 30 14:57 19.01.2020
4042 Clouds 6 1021 26 10000 10.3 30 14:37 19.01.2020
4043 Clouds 6 1021 22 10000 10.3 30 14:18 19.01.2020
4044 Clouds 6 1021 26 10000 9.3 20 13:54 19.01.2020
4045 Clouds 6 1021 26 10000 9.3 20 13:36 19.01.2020
4046 Clouds 6 1021 28 10000 7.2 10 13:18 19.01.2020
4047 Clouds 7 1022 28 10000 8.7 30 12:42 19.01.2020
4048 Clouds 7 1022 36 10000 7.2 40 12:23 19.01.2020
4049 Clouds 7 1022 36 10000 7.2 50 11:57 19.01.2020
4050 Clouds 7 1022 36 10000 7.2 50 11:39 19.01.2020
4051 Clouds 2 1022 38 10000 8.2 40 11:19 19.01.2020
4052 Clouds 4 1021 45 10000 8.7 50 10:54 19.01.2020
4053 Clouds 4 1021 45 10000 8.7 50 10:36 19.01.2020
4054 Clouds 3 1021 52 10000 6.7 50 10:18 19.01.2020
4055 Clouds 3 1020 52 10000 6.2 40 09:41 19.01.2020
4056 Clouds 4 1020 56 10000 4.6 30 09:23 19.01.2020
4057 Clouds 3 1021 59 0 0.45 218 08:56 19.01.2020
4058 Clouds 3 1021 65 0 0.45 146 08:38 19.01.2020
4059 Snow 2 1021 68 0 0.45 167 08:19 19.01.2020
4060 Snow 2 1021 69 0 4.69 18 07:30 19.01.2020
4061 Snow 3 1025 58 0 4.69 18 06:56 19.01.2020
4062 Snow 2 1025 54 0 4.69 18 06:25 19.01.2020
4063 Snow 3 1019 65 0 3.13 20 04:39 19.01.2020
4064 Snow 2 1010 72 0 0.89 44 02:36 19.01.2020
4065 Snow 2 1020 64 0 0.89 77 01:58 19.01.2020
4066 Snow 2 1010 73 0 0.89 77 01:22 19.01.2020
4067 Snow 1 1010 74 0 0.74 94 00:45 19.01.2020
4068 Snow 1 1010 74 0 0.74 94 00:45 19.01.2020
4069 Snow 1 1010 73 0 0.74 94 00:26 19.01.2020
4070 Snow 2 1020 61 0 0.74 94 23:55 18.01.2020
4071 Snow 2 1010 74 0 0.45 207 23:36 18.01.2020
4072 Clouds 2 1010 73 0 1.43 94 23:18 18.01.2020
4073 Clouds 2 1021 61 0 1.43 94 22:43 18.01.2020
4074 Clouds 2 1010 70 0 2.24 232 22:24 18.01.2020
4075 Clouds 2 1011 71 0 1.43 94 21:58 18.01.2020
4076 Clouds 2 1021 60 0 1.43 94 21:39 18.01.2020
4077 Clouds 2 1011 69 0 1.34 215 21:20 18.01.2020
4078 Clouds 2 1021 59 0 1.43 94 20:57 18.01.2020
4079 Clouds 2 1022 59 0 1.43 94 20:39 18.01.2020
4080 Clouds 2 1011 68 0 2.68 188 20:19 18.01.2020
4081 Clouds 3 1011 67 0 2.24 218 19:43 18.01.2020
4082 Clouds 3 1011 66 0 2.68 228 19:24 18.01.2020
4083 Clouds 4 1012 65 0 3.13 190 18:43 18.01.2020
4084 Clouds 5 1022 45 10000 2.6 220 18:25 18.01.2020
4085 Clouds 5 1022 45 10000 2.6 220 18:25 18.01.2020
4086 Clouds 5 1022 45 10000 2.6 220 17:59 18.01.2020
4087 Clouds 6 1022 45 10000 2.6 220 17:40 18.01.2020
4088 Clouds 7 1022 45 10000 2.6 220 17:20 18.01.2020
4089 Clouds 8 1022 39 10000 2.6 200 16:57 18.01.2020
4090 Clouds 8 1022 39 10000 2.6 200 16:38 18.01.2020
4091 Clouds 9 1022 36 10000 2.1 220 16:19 18.01.2020
4092 Clouds 9 1023 31 10000 1.5 210 15:44 18.01.2020
4093 Clouds 9 1024 33 10000 1.5 0 15:25 18.01.2020
4094 Clouds 9 1024 36 10000 2.1 230 14:59 18.01.2020
4095 Clouds 9 1024 36 10000 2.1 230 14:40 18.01.2020
4096 Clouds 8 1025 48 10000 2.1 220 14:19 18.01.2020
4097 Clouds 8 1026 48 10000 1.5 220 13:55 18.01.2020
4098 Clouds 7 1026 48 10000 1.5 220 13:36 18.01.2020
4099 Clouds 7 1027 44 10000 1 0 13:18 18.01.2020
4100 Clouds 7 1027 44 10000 1 0 13:18 18.01.2020
4101 Clouds 6 1028 48 10000 1.5 190 12:40 18.01.2020
4102 Clouds 5 1029 55 10000 0.5 0 12:21 18.01.2020
4103 Clouds 4 1029 64 10000 1 0 11:44 18.01.2020
4104 Clouds 3 1029 64 10000 2.2 212 11:24 18.01.2020
4105 Clouds 2 1029 44 10000 0.5 0 10:57 18.01.2020
4106 Clouds 1 1029 44 10000 0.5 0 10:38 18.01.2020
4107 Clouds 1 1029 74 10000 1.5 210 10:20 18.01.2020
4108 Clouds 0 1029 80 10000 2.1 40 09:48 18.01.2020
4109 Clouds 0 1030 74 10000 1 0 09:30 18.01.2020
4110 Clouds 0 1030 57 0 0.78 179 08:56 18.01.2020
4111 Clouds 0 1019 58 0 0.78 179 08:38 18.01.2020
4112 Clouds -1 1019 39 0 1.79 221 08:19 18.01.2020
4113 Clouds -1 1019 57 0 0.76 15 07:47 18.01.2020
4114 Clouds -1 1029 57 0 0.76 15 07:29 18.01.2020
4115 Clouds -1 1029 54 0 0.76 15 06:47 18.01.2020
4116 Clouds -1 1019 78 0 0.76 15 05:59 18.01.2020
4117 Clouds -1 1019 75 0 2.3 21 05:21 18.01.2020
4118 Clouds 0 1029 55 0 2.3 21 02:55 18.01.2020
4119 Clouds 0 1020 70 0 0.45 34 01:52 18.01.2020
4120 Clouds 1 1029 57 0 3.48 16 01:30 18.01.2020
4121 Clouds 1 1029 63 0 3.58 15 00:36 18.01.2020
4122 Clouds 2 1028 69 0 0.45 292 00:18 18.01.2020
4123 Clouds 2 1031 94 0 3.58 15 23:41 17.01.2020
4124 Clouds 3 1025 58 0 2.24 68 23:19 17.01.2020
4125 Clouds 2 1029 52 0 0.89 96 22:44 17.01.2020
4126 Clouds 3 1029 53 0 3.7 18 22:21 17.01.2020
4127 Clouds 3 1029 59 0 3.7 18 21:58 17.01.2020
4128 Clouds 4 1027 80 0 0.45 134 21:40 17.01.2020
4129 Clouds 3 1025 37 0 3.7 18 21:22 17.01.2020
4130 Clouds 4 1033 71 0 3.7 18 20:57 17.01.2020
4131 Clouds 4 1030 94 0 3.7 18 20:38 17.01.2020
4132 Snow 4 1028 75 0 2.68 225 20:20 17.01.2020
4133 Snow 5 1033 67 0 3.52 15 19:55 17.01.2020
4134 Snow 5 1033 67 0 3.52 15 19:37 17.01.2020
4135 Snow 5 1027 72 0 58.12 225 19:18 17.01.2020
4136 Snow 5 1027 70 0 8.05 225 18:45 17.01.2020
4137 Rain 5 1025 39 10000 6.7 300 18:27 17.01.2020
4138 Rain 6 1025 39 10000 6.7 300 17:56 17.01.2020
4139 Rain 6 1025 39 10000 6.7 300 17:38 17.01.2020
4140 Rain 7 1025 39 10000 6.7 300 17:20 17.01.2020
4141 Rain 7 1025 39 10000 6.7 300 17:20 17.01.2020
4142 Clouds 7 1024 39 10000 3.6 290 16:42 17.01.2020
4143 Rain 7 1024 46 10000 6.2 280 16:20 17.01.2020
4144 Rain 8 1023 53 10000 4.6 240 15:48 17.01.2020
4145 Rain 7 1023 53 10000 6.7 220 15:27 17.01.2020
4146 Rain 8 1022 40 10000 7.2 250 14:56 17.01.2020
4147 Rain 8 1022 40 10000 7.2 250 14:38 17.01.2020
4148 Clouds 9 1023 43 10000 6.2 220 14:20 17.01.2020
4149 Clouds 9 1024 53 10000 1.5 0 13:39 17.01.2020
4150 Clouds 9 1024 61 10000 1 0 13:21 17.01.2020
4151 Clouds 9 1024 61 10000 1 0 13:21 17.01.2020
4152 Clouds 9 1025 65 10000 1 0 12:45 17.01.2020
4153 Clouds 8 1025 70 10000 1 0 12:22 17.01.2020
4154 Clouds 7 1026 75 10000 1 0 11:41 17.01.2020
4155 Clouds 6 1026 76 10000 1 0 11:19 17.01.2020
4156 Clouds 5 1026 76 10000 1 0 10:45 17.01.2020
4157 Clouds 3 1025 76 10000 0.5 0 10:24 17.01.2020
4158 Clouds 3 1025 76 10000 0.5 0 09:59 17.01.2020
4159 Clouds 2 1025 76 10000 0.5 0 09:41 17.01.2020
4160 Clouds 2 1025 76 10000 1.5 10 09:20 17.01.2020
4161 Clouds 2 1016 76 0 1.01 328 08:46 17.01.2020
4162 Clouds 2 1024 82 0 1.01 328 08:26 17.01.2020
4163 Clouds 3 1016 75 0 0.89 218 07:56 17.01.2020
4164 Clouds 3 1016 75 0 1.34 197 07:36 17.01.2020
4165 Clouds 3 1016 74 0 0.89 124 07:18 17.01.2020
4166 Clouds 3 1024 77 0 0.76 42 06:43 17.01.2020
4167 Clouds 3 1016 74 0 3.13 224 05:59 17.01.2020
4168 Clouds 2 1017 71 0 4.02 200 03:44 17.01.2020
4169 Clouds 2 1017 71 0 2.24 200 02:55 17.01.2020
4170 Clouds 3 1017 75 0 4.92 231 01:48 17.01.2020
4171 Clouds 2 1017 74 0 6.26 232 01:29 17.01.2020
4172 Clouds 3 1017 72 0 6.26 211 00:51 17.01.2020
4173 Clouds 3 1018 73 0 4.02 181 00:28 17.01.2020
4174 Clouds 3 1017 71 0 3.13 124 23:46 16.01.2020
4175 Clouds 3 1017 71 0 3.13 124 23:46 16.01.2020
4176 Clouds 3 1026 76 0 0.45 149 23:26 16.01.2020
4177 Clouds 3 1026 75 0 1.98 208 22:58 16.01.2020
4178 Clouds 3 1017 65 0 4.02 218 22:40 16.01.2020
4179 Clouds 3 1017 64 0 3.13 197 22:20 16.01.2020
4180 Clouds 3 1017 64 0 4.02 252 21:55 16.01.2020
4181 Clouds 4 1017 63 0 3.58 218 21:37 16.01.2020
4182 Clouds 4 1017 62 0 4.92 197 21:18 16.01.2020
4183 Clouds 4 1017 61 0 3.13 198 20:41 16.01.2020
4184 Clouds 4 1018 61 0 2.24 214 20:41 16.01.2020
4185 Clear 5 1017 61 0 3.13 226 20:22 16.01.2020
4186 Clear 5 1017 60 0 2.24 201 19:59 16.01.2020
4187 Clear 5 1018 58 0 2.68 184 19:41 16.01.2020
4188 Clear 5 1018 59 0 3.58 207 19:22 16.01.2020
4189 Clear 6 1018 57 0 3.13 212 18:57 16.01.2020
4190 Clear 5 1018 57 0 3.58 197 18:39 16.01.2020
4191 Clear 6 1025 43 10000 1.5 210 18:20 16.01.2020
4192 Clear 7 1025 43 10000 1.5 210 17:59 16.01.2020
4193 Clear 7 1025 43 10000 1.5 210 17:59 16.01.2020
4194 Clear 8 1025 43 10000 1.5 210 17:40 16.01.2020
4195 Clear 8 1025 43 10000 1.5 210 17:20 16.01.2020
4196 Clear 10 1025 40 10000 1.5 210 16:42 16.01.2020
4197 Clear 11 1025 40 10000 1 0 16:24 16.01.2020
4198 Clear 11 1025 37 10000 1 0 15:58 16.01.2020
4199 Clear 12 1025 37 10000 1 0 15:39 16.01.2020
4200 Clear 12 1025 37 10000 1 0 15:39 16.01.2020
4201 Clear 11 1025 39 10000 1 0 15:20 16.01.2020
4202 Clear 11 1026 39 10000 0.5 0 14:44 16.01.2020
4203 Clear 11 1026 45 10000 2.1 200 14:24 16.01.2020
4204 Clear 10 1027 48 10000 1 0 13:55 16.01.2020
4205 Clear 10 1027 52 10000 0.5 0 13:37 16.01.2020
4206 Clear 9 1027 52 10000 0.5 0 13:19 16.01.2020
4207 Clear 9 1028 52 10000 2.42 214 12:41 16.01.2020
4208 Clear 8 1028 60 10000 0.5 0 12:21 16.01.2020
4209 Clear 7 1029 59 10000 1.5 60 11:43 16.01.2020
4210 Clear 4 1029 66 10000 1.5 60 11:24 16.01.2020
4211 Clear 3 1029 66 10000 1 0 10:57 16.01.2020
4212 Clear 2 1029 66 10000 1 0 10:37 16.01.2020
4213 Clear 1 1029 80 10000 1 0 10:19 16.01.2020
4214 Clear 1 1029 80 10000 0.13 189 09:44 16.01.2020
4215 Clear 0 1029 92 10000 0.5 70 09:24 16.01.2020
4216 Clear 0 1019 44 0 2.24 232 08:59 16.01.2020
4217 Clear 0 1019 35 0 3.13 222 08:41 16.01.2020
4218 Clear 0 1019 45 0 2.24 191 08:20 16.01.2020
4219 Clear -1 1029 69 0 0.4 109 07:43 16.01.2020
4220 Clear -1 1029 69 0 0.4 109 07:24 16.01.2020
4221 Clear 0 1029 68 0 0.4 109 06:55 16.01.2020
4222 Clear 0 1018 55 0 3.58 252 06:35 16.01.2020
4223 Clear 0 1019 55 0 1.79 177 05:51 16.01.2020
4224 Clouds 0 1019 59 0 2.24 207 04:51 16.01.2020
4225 Clouds 0 1028 38 0 0.71 100 04:21 16.01.2020
4226 Clouds 0 1028 62 0 0.71 100 03:27 16.01.2020
4227 Clouds 1 1019 63 0 1.34 201 02:21 16.01.2020
4228 Clouds 1 1019 59 0 1.34 207 00:43 16.01.2020
4229 Clouds 1 1019 56 0 2.68 276 00:23 16.01.2020
4230 Clouds 1 1028 59 0 0.85 77 23:45 15.01.2020
4231 Clouds 1 1019 59 0 1.34 58 23:22 15.01.2020
4232 Clouds 2 1019 59 0 0.94 92 22:56 15.01.2020
4233 Clouds 1 1027 57 0 0.94 92 22:38 15.01.2020
4234 Clouds 2 1019 60 0 0.94 92 22:18 15.01.2020
4235 Clouds 2 1027 56 0 0.94 92 21:56 15.01.2020
4236 Clouds 2 1019 59 0 0.94 92 21:37 15.01.2020
4237 Clouds 2 1019 58 0 0.94 92 21:18 15.01.2020
4238 Clouds 2 1018 58 0 0.94 92 20:55 15.01.2020
4239 Clouds 2 1018 56 0 0.94 92 20:37 15.01.2020
4240 Clouds 3 1019 57 0 2.5 32 20:18 15.01.2020
4241 Clouds 3 1018 53 0 2.5 32 19:54 15.01.2020
4242 Clouds 4 1018 54 0 2.5 32 19:36 15.01.2020
4243 Clouds 4 1018 54 0 2.5 32 19:36 15.01.2020
4244 Clouds 4 1018 53 0 2.5 32 19:18 15.01.2020
4245 Clouds 5 1018 51 0 2.5 32 18:55 15.01.2020
4246 Clouds 5 1017 53 0 2.5 32 18:37 15.01.2020
4247 Clouds 5 1017 48 0 2.5 32 18:18 15.01.2020
4248 Clouds 6 1017 42 0 2.5 32 17:40 15.01.2020
4249 Clouds 7 1016 52 0 0.52 313 17:22 15.01.2020
4250 Clouds 7 1017 53 0 0.52 313 17:22 15.01.2020
4251 Clouds 8 1016 51 0 0.52 313 16:57 15.01.2020
4252 Clouds 9 1023 34 0 0.52 313 16:38 15.01.2020
4253 Clouds 9 1023 34 0 0.52 313 16:20 15.01.2020
4254 Clouds 9 1023 34 0 0.52 313 16:20 15.01.2020
4255 Clouds 9 1023 34 0 0.52 313 16:20 15.01.2020
4256 Clouds 10 1023 35 0 0.52 313 15:43 15.01.2020
4257 Clouds 10 1023 37 0 0.52 313 15:21 15.01.2020
4258 Clouds 9 1015 37 0 0.52 313 14:56 15.01.2020
4259 Clouds 8 1015 36 0 0.52 313 14:37 15.01.2020
4260 Clouds 9 1015 35 0 1.34 249 14:18 15.01.2020
4261 Clouds 9 1023 41 0 1.63 226 13:44 15.01.2020
4262 Clouds 7 1015 38 0 0.89 233 13:23 15.01.2020
4263 Clouds 6 1023 42 0 1.78 228 12:55 15.01.2020
4264 Clouds 8 1023 43 0 1.78 228 12:37 15.01.2020
4265 Clouds 8 1023 43 0 1.78 228 12:37 15.01.2020
4266 Clouds 8 1024 45 0 1.78 228 12:18 15.01.2020
4267 Clouds 8 1024 45 0 1.78 228 12:18 15.01.2020
4268 Clouds 5 1024 53 0 1.78 228 11:39 15.01.2020
4269 Clouds 2 1015 42 0 2.24 134 11:20 15.01.2020
4270 Clouds 1 1024 55 0 1.07 210 10:58 15.01.2020
4271 Clouds 1 1023 56 0 1.07 210 10:40 15.01.2020
4272 Clouds 1 1023 54 0 1.07 210 10:21 15.01.2020
4273 Clouds 0 1023 57 0 1.07 210 09:41 15.01.2020
4274 Clouds 0 1013 43 0 4.92 200 09:21 15.01.2020
4275 Clouds -1 1022 55 0 1.07 210 08:45 15.01.2020
4276 Clouds -1 1012 43 0 4.02 228 08:26 15.01.2020
4277 Clouds 0 1022 54 0 0.78 213 07:56 15.01.2020
4278 Clouds -1 1012 44 0 3.13 200 07:33 15.01.2020
4279 Clouds 0 1012 42 0 3.58 257 06:54 15.01.2020
4280 Clouds 0 1012 40 0 4.47 208 06:32 15.01.2020
4281 Clouds 0 1012 41 0 2.68 215 05:32 15.01.2020
4282 Clouds 0 1012 43 0 4.02 225 03:35 15.01.2020
4283 Clear 1 1013 38 0 1.79 219 01:49 15.01.2020
4284 Clear 1 1012 39 0 4.47 200 01:22 15.01.2020
4285 Clear 0 1022 48 0 0.69 196 00:37 15.01.2020
4286 Clear 0 1013 38 0 3.58 225 00:19 15.01.2020
4287 Clear 1 1013 41 0 4.02 195 23:47 14.01.2020
4288 Clear 1 1013 40 0 5.81 231 23:28 14.01.2020
4289 Clear 1 1022 45 0 0.51 187 22:57 14.01.2020
4290 Clear 2 1022 44 0 0.51 187 22:39 14.01.2020
4291 Clear 1 1013 42 0 5.36 204 22:18 14.01.2020
4292 Clear 2 1013 43 0 4.92 183 21:57 14.01.2020
4293 Clear 2 1013 41 0 4.47 179 21:38 14.01.2020
4294 Clear 2 1013 41 0 2.24 203 21:19 14.01.2020
4295 Clear 2 1013 44 0 4.02 243 20:43 14.01.2020
4296 Clear 3 1013 43 0 3.58 215 20:23 14.01.2020
4297 Clear 3 1022 41 0 0.35 184 19:57 14.01.2020
4298 Clear 3 1013 45 0 4.92 210 19:39 14.01.2020
4299 Clear 4 1013 43 0 3.58 218 19:20 14.01.2020
4300 Clear 4 1013 44 0 1.34 218 18:59 14.01.2020
4301 Clear 4 1013 40 0 2.24 172 18:40 14.01.2020
4302 Clear 5 1013 48 0 2.68 201 18:19 14.01.2020
4303 Clear 6 1013 45 0 3.13 232 17:39 14.01.2020
4304 Clear 7 1013 45 0 2.24 219 17:20 14.01.2020
4305 Clear 7 1020 30 0 2.11 210 16:59 14.01.2020
4306 Clear 8 1020 28 0 2.11 210 16:41 14.01.2020
4307 Clear 9 1018 10 0 1.34 337 16:21 14.01.2020
4308 Clear 10 1018 9 0 2.68 288 15:55 14.01.2020
4309 Clear 10 1013 36 0 1.34 315 15:37 14.01.2020
4310 Clear 10 1018 53 0 0.89 158 15:18 14.01.2020
4311 Clear 9 1020 25 0 0.45 204 14:43 14.01.2020
4312 Clouds 9 1020 26 0 2.71 210 14:20 14.01.2020
4313 Clouds 8 1020 26 0 2.71 210 13:43 14.01.2020
4314 Clouds 8 1021 27 0 2.71 210 13:20 14.01.2020
4315 Clouds 8 1021 29 0 2.88 211 12:59 14.01.2020
4316 Clouds 10 1021 27 0 2.88 211 12:40 14.01.2020
4317 Clouds 9 1021 28 0 2.88 211 12:20 14.01.2020
4318 Clouds 9 1021 28 0 2.88 211 12:20 14.01.2020
4319 Clouds 9 1021 29 0 2.88 211 11:42 14.01.2020
4320 Clouds 3 1013 44 0 3.13 226 11:23 14.01.2020
4321 Clouds 3 1013 44 0 3.13 226 11:23 14.01.2020
4322 Clouds 3 1022 34 0 0.75 168 10:58 14.01.2020
4323 Clouds 3 1022 35 0 0.75 168 10:39 14.01.2020
4324 Clouds 2 1013 47 0 3.58 231 10:19 14.01.2020
4325 Clouds 3 1022 39 0 0.75 168 10:19 14.01.2020
4326 Clouds 2 1022 39 0 0.75 168 09:56 14.01.2020
4327 Clouds 1 1012 33 0 2.24 205 09:38 14.01.2020
4328 Clouds 1 1012 26 0 0.89 211 09:20 14.01.2020
4329 Clouds 0 1021 37 0 0.75 168 08:42 14.01.2020
4330 Clouds 0 1021 39 0 0.86 183 08:23 14.01.2020
4331 Clouds -1 1012 38 0 2.24 207 07:53 14.01.2020
4332 Clouds 0 1012 25 0 1.79 222 07:31 14.01.2020
4333 Clouds -1 1011 38 0 3.13 217 06:50 14.01.2020
4334 Clouds 0 1011 27 0 2.24 221 06:23 14.01.2020
4335 Clouds -1 1020 42 0 0.6 17 04:58 14.01.2020
4336 Clouds 0 1011 28 0 0.89 205 03:48 14.01.2020
4337 Clouds -1 1012 46 0 0.89 204 02:41 14.01.2020
4338 Clear -1 1012 37 0 1.79 224 01:34 14.01.2020
4339 Clear -1 1013 25 0 1.79 236 00:49 14.01.2020
4340 Clear -1 1022 40 0 0.57 96 00:26 14.01.2020
4341 Clear 0 1013 43 0 3.13 198 23:47 13.01.2020
4342 Clear 0 1012 45 0 4.02 203 23:19 13.01.2020
4343 Clear 0 1012 43 0 3.13 222 22:58 13.01.2020
4344 Clear 0 1012 44 0 3.58 215 22:39 13.01.2020
4345 Clear 0 1012 43 0 3.58 194 22:20 13.01.2020
4346 Clear 0 1021 37 0 0.53 40 21:56 13.01.2020
4347 Clear 1 1012 44 0 3.13 215 21:37 13.01.2020
4348 Clear 0 1013 42 0 2.68 218 21:18 13.01.2020
4349 Clear 1 1013 46 0 4.02 208 20:56 13.01.2020
4350 Clear 1 1013 42 0 3.13 219 20:38 13.01.2020
4351 Clouds 1 1013 44 0 3.58 210 20:19 13.01.2020
4352 Clouds 2 1013 45 0 2.68 215 19:41 13.01.2020
4353 Clouds 3 1013 50 0 3.13 204 19:21 13.01.2020
4354 Clouds 3 1014 47 0 1.79 198 18:59 13.01.2020
4355 Clouds 3 1014 53 0 1.79 228 18:40 13.01.2020
4356 Clouds 4 1020 35 10000 0.5 0 18:20 13.01.2020
4357 Clouds 4 1020 35 10000 0.5 0 18:20 13.01.2020
4358 Clouds 4 1020 35 10000 0.5 0 18:20 13.01.2020
4359 Clouds 4 1020 35 10000 0.5 0 18:20 13.01.2020
4360 Clouds 5 1020 35 10000 0.5 0 17:58 13.01.2020
4361 Clouds 5 1020 35 10000 0.5 0 17:39 13.01.2020
4362 Clouds 6 1020 35 10000 0.5 0 17:20 13.01.2020
4363 Clouds 6 1021 35 10000 1.5 220 16:43 13.01.2020
4364 Clouds 7 1021 27 0 0.95 234 16:24 13.01.2020
4365 Clouds 8 1021 25 0 0.95 234 15:59 13.01.2020
4366 Clouds 8 1021 25 0 0.95 234 15:41 13.01.2020
4367 Clouds 8 1021 26 0 0.95 234 15:21 13.01.2020
4368 Clouds 9 1021 26 0 0.95 234 14:43 13.01.2020
4369 Clouds 9 1021 10 0 0.95 234 14:24 13.01.2020
4370 Clouds 8 1022 27 0 1.9 205 13:59 13.01.2020
4371 Clouds 8 1022 28 0 1.9 205 13:40 13.01.2020
4372 Clouds 7 1022 11 0 1.7 209 13:22 13.01.2020
4373 Clouds 7 1023 27 0 1.7 209 12:57 13.01.2020
4374 Clouds 6 1025 55 10000 0.5 0 12:39 13.01.2020
4375 Clouds 6 1025 55 10000 0.5 0 12:21 13.01.2020
4376 Clouds 4 1025 55 10000 0.5 0 11:39 13.01.2020
4377 Clouds 2 1025 63 10000 1 0 11:20 13.01.2020
4378 Clouds 1 1026 63 10000 1.5 70 10:57 13.01.2020
4379 Clouds 1 1026 68 10000 0.5 0 10:39 13.01.2020
4380 Clouds 0 1026 68 10000 0.5 0 10:20 13.01.2020
4381 Clouds 1 1026 68 10000 0.5 0 09:56 13.01.2020
4382 Clouds 0 1026 68 10000 0.5 0 09:38 13.01.2020
4383 Clouds -1 1026 79 10000 1.5 360 09:19 13.01.2020
4384 Clouds -1 1025 32 0 0.55 85 08:39 13.01.2020
4385 Clouds -2 1017 25 0 0.45 222 08:20 13.01.2020
4386 Clouds -2 1025 32 0 1.04 57 07:46 13.01.2020
4387 Clouds -2 1025 32 0 1.04 57 07:27 13.01.2020
4388 Clouds -2 1025 32 0 1.04 57 06:42 13.01.2020
4389 Clouds -2 1025 33 0 1.04 57 06:19 13.01.2020
4390 Clouds -2 1017 21 0 0.99 22 05:22 13.01.2020
4391 Clouds -1 1018 37 0 2.24 210 03:52 13.01.2020
4392 Clouds -1 1019 24 0 1.34 212 03:22 13.01.2020
4393 Clouds -1 1027 36 0 0.99 22 02:38 13.01.2020
4394 Clouds 0 1019 16 0 0.39 23 02:18 13.01.2020
4395 Clouds -1 1019 28 0 0.34 41 00:59 13.01.2020
4396 Clouds -1 1028 38 0 0.34 41 00:39 13.01.2020
4397 Clouds -1 1020 16 0 0.34 41 00:19 13.01.2020
4398 Clouds 0 1028 34 0 0.34 41 23:41 12.01.2020
4399 Clouds 0 1020 18 0 0.34 41 23:22 12.01.2020
4400 Clouds 0 1021 20 0 1.35 32 22:57 12.01.2020
4401 Clouds 0 1028 33 0 1.35 32 22:39 12.01.2020
4402 Clouds 0 1021 27 0 1.35 32 22:20 12.01.2020
4403 Clouds 0 1029 35 0 1.35 32 21:54 12.01.2020
4404 Clouds 0 1029 35 0 1.35 32 21:54 12.01.2020
4405 Clouds 0 1029 35 0 1.35 32 21:54 12.01.2020
4406 Clouds 0 1021 61 0 1.35 32 21:36 12.01.2020
4407 Clouds 0 1021 61 0 1.35 32 21:36 12.01.2020
4408 Clouds 0 1021 50 0 1.35 32 21:18 12.01.2020
4409 Clouds 1 1021 58 0 1.35 32 20:54 12.01.2020
4410 Clouds 1 1021 33 0 1.35 32 20:36 12.01.2020
4411 Clouds 1 1021 38 0 1.99 17 20:18 12.01.2020
4412 Clouds 1 1022 44 0 1.99 17 19:54 12.01.2020
4413 Clouds 1 1022 44 0 1.99 17 19:54 12.01.2020
4414 Clouds 1 1022 58 0 1.99 17 19:36 12.01.2020
4415 Clouds 2 1022 59 0 1.99 17 19:18 12.01.2020
4416 Clouds 2 1022 59 0 1.99 17 19:18 12.01.2020
4417 Clouds 2 1022 48 0 1.99 17 18:54 12.01.2020
4418 Clouds 2 1021 51 0 1.99 17 18:36 12.01.2020
4419 Clouds 3 1022 31 0 1.99 17 18:18 12.01.2020
4420 Clouds 4 1027 39 10000 2.6 230 17:42 12.01.2020
4421 Clear 6 1027 39 10000 2.6 230 17:20 12.01.2020
4422 Clear 7 1027 36 10000 2.6 220 16:57 12.01.2020
4423 Clear 8 1027 36 10000 2.6 220 16:37 12.01.2020
4424 Clear 8 1027 31 10000 2.1 200 16:19 12.01.2020
4425 Clear 9 1027 31 10000 2.1 210 15:43 12.01.2020
4426 Clear 9 1027 28 10000 2.1 190 15:25 12.01.2020
4427 Clear 9 1027 26 10000 1.5 240 14:57 12.01.2020
4428 Clear 9 1027 26 10000 1.5 240 14:38 12.01.2020
4429 Clear 9 1028 28 10000 1.5 180 14:20 12.01.2020
4430 Clear 8 1028 28 10000 1.5 180 13:54 12.01.2020
4431 Clear 8 1029 25 10000 1.5 110 13:36 12.01.2020
4432 Clear 8 1029 25 10000 1.5 110 13:18 12.01.2020
4433 Clear 8 1029 25 10000 1.5 110 13:18 12.01.2020
4434 Clear 8 1029 30 10000 1.16 5 12:43 12.01.2020
4435 Clear 7 1030 40 10000 0.5 0 12:20 12.01.2020
4436 Clear 7 1030 50 10000 1 0 11:59 12.01.2020
4437 Clear 7 1030 50 10000 1 0 11:59 12.01.2020
4438 Clear 6 1031 25 10000 0.5 0 11:39 12.01.2020
4439 Clear 3 1031 25 10000 0.5 0 11:20 12.01.2020
4440 Clear 2 1031 63 10000 1 0 10:42 12.01.2020
4441 Clear 0 1031 68 10000 1 0 10:22 12.01.2020
4442 Clear 0 1030 68 10000 0.5 0 09:57 12.01.2020
4443 Clear 0 1030 68 10000 0.5 0 09:39 12.01.2020
4444 Clear -1 1030 73 10000 3.22 25 09:20 12.01.2020
4445 Clear -1 1023 28 0 3.22 25 08:45 12.01.2020
4446 Clear -2 1022 27 0 3.9 26 08:21 12.01.2020
4447 Clear -2 1022 17 0 3.9 26 07:42 12.01.2020
4448 Clear -2 1029 21 0 3.9 26 07:24 12.01.2020
4449 Clear -2 1029 23 0 3.9 26 06:48 12.01.2020
4450 Clear -2 1022 17 0 0.45 333 06:30 12.01.2020
4451 Clear -2 1028 22 0 3.9 26 05:32 12.01.2020
4452 Clear -2 1028 23 0 3.11 27 04:30 12.01.2020
4453 Clear -2 1021 49 0 3.11 27 03:25 12.01.2020
4454 Clear -2 1022 51 0 3.11 27 02:34 12.01.2020
4455 Clear -2 1021 61 0 2.94 25 01:51 12.01.2020
4456 Clear -1 1029 23 0 2.92 27 01:29 12.01.2020
4457 Clear -1 1029 23 0 2.92 27 00:41 12.01.2020
4458 Clear -1 1022 62 0 0.45 246 00:20 12.01.2020
4459 Clear -1 1022 63 0 2.92 27 23:42 11.01.2020
4460 Clear -1 1022 63 0 2.92 27 23:42 11.01.2020
4461 Clear -1 1022 57 0 3 26 23:19 11.01.2020
4462 Clear -1 1022 25 0 3 26 22:58 11.01.2020
4463 Clear -1 1022 31 0 3 26 22:39 11.01.2020
4464 Clear 0 1022 26 0 0.45 38 22:20 11.01.2020
4465 Clear 0 1022 19 0 3 26 21:58 11.01.2020
4466 Clear 0 1022 21 0 3 26 21:39 11.01.2020
4467 Clear 0 1022 23 0 3 26 21:18 11.01.2020
4468 Clear 0 1022 23 0 3 26 21:18 11.01.2020
4469 Clear 1 1022 25 0 0.45 3 20:40 11.01.2020
4470 Clear 1 1022 26 0 0.45 15 20:40 11.01.2020
4471 Clear 1 1022 33 0 3.35 27 20:22 11.01.2020
4472 Clear 1 1022 35 0 3.35 27 19:58 11.01.2020
4473 Clear 2 1022 32 0 0.45 311 19:39 11.01.2020
4474 Clear 1 1022 30 0 0.89 359 19:21 11.01.2020
4475 Clear 2 1022 31 0 0.89 58 18:58 11.01.2020
4476 Clear 2 1022 32 0 1.34 39 18:38 11.01.2020
4477 Clear 3 1027 48 10000 3.6 230 18:19 11.01.2020
4478 Clear 2 1027 48 10000 3.6 230 17:57 11.01.2020
4479 Clear 3 1027 48 10000 3.6 230 17:39 11.01.2020
4480 Clear 5 1027 48 10000 3.6 230 17:19 11.01.2020
4481 Clear 7 1027 39 10000 3.1 230 16:44 11.01.2020
4482 Clear 7 1027 36 10000 2.6 220 16:26 11.01.2020
4483 Clear 7 1027 31 10000 2.1 220 15:58 11.01.2020
4484 Clear 8 1027 31 10000 2.1 220 15:40 11.01.2020
4485 Clear 9 1027 27 10000 1.5 200 15:20 11.01.2020
4486 Clear 9 1027 23 10000 1 0 14:56 11.01.2020
4487 Clear 8 1028 26 10000 1 0 14:37 11.01.2020
4488 Clear 8 1028 26 10000 1 0 14:19 11.01.2020
4489 Clear 8 1028 31 10000 1 0 13:39 11.01.2020
4490 Clear 8 1029 38 10000 1 0 13:20 11.01.2020
4491 Clear 7 1030 35 10000 0.5 0 12:56 11.01.2020
4492 Clear 7 1030 35 10000 0.5 0 12:38 11.01.2020
4493 Clear 7 1030 41 10000 0.5 0 12:20 11.01.2020
4494 Clear 5 1030 55 10000 1 0 11:45 11.01.2020
4495 Clear 2 1030 51 10000 0.5 0 11:24 11.01.2020
4496 Clear 1 1030 64 10000 3.24 22 10:50 11.01.2020
4497 Clear 0 1030 68 10000 0.5 0 10:30 11.01.2020
4498 Clear 0 1030 68 10000 0.5 0 09:55 11.01.2020
4499 Clear 0 1030 73 10000 1 0 09:37 11.01.2020
4500 Clear -1 1030 73 10000 1 0 09:18 11.01.2020
4501 Clear 0 1030 29 0 3.24 22 08:41 11.01.2020
4502 Clear -1 1022 53 0 4 22 08:20 11.01.2020
4503 Clear -2 1021 45 0 4 22 07:43 11.01.2020
4504 Clear -1 1021 42 0 0.45 345 07:24 11.01.2020
4505 Clear -1 1021 48 0 4 22 06:45 11.01.2020
4506 Clear 0 1021 41 0 1.79 21 05:31 11.01.2020
4507 Clear 0 1029 31 0 4.04 23 04:43 11.01.2020
4508 Clear 0 1021 39 0 1.79 359 04:25 11.01.2020
4509 Clear 1 1021 58 0 0.45 342 02:48 11.01.2020
4510 Clouds 2 1028 30 0 4.48 21 01:48 11.01.2020
4511 Clouds 2 1028 29 0 1.34 160 01:29 11.01.2020
4512 Clouds 2 1033 62 0 4.56 16 00:54 11.01.2020
4513 Clouds 2 1034 60 0 4.56 16 00:29 11.01.2020
4514 Clouds 3 1034 59 0 4.56 16 23:59 10.01.2020
4515 Clouds 3 1031 92 0 4.56 16 23:39 10.01.2020
4516 Clouds 3 1029 43 0 0.45 120 23:20 10.01.2020
4517 Clouds 3 1029 50 0 4.06 10 22:41 10.01.2020
4518 Clouds 3 1033 50 0 4.06 10 22:22 10.01.2020
4519 Clouds 3 1029 51 0 4.06 10 21:59 10.01.2020
4520 Clouds 3 1029 57 0 4.06 10 21:41 10.01.2020
4521 Clouds 4 1033 48 0 4.06 10 21:20 10.01.2020
4522 Clouds 4 1028 62 0 0.89 292 20:58 10.01.2020
4523 Clouds 4 1028 62 0 4.06 10 20:40 10.01.2020
4524 Clouds 4 1028 62 0 4.06 10 20:40 10.01.2020
4525 Clouds 4 1032 42 0 4.03 9 20:22 10.01.2020
4526 Clouds 5 1032 38 0 3.61 8 19:41 10.01.2020
4527 Clouds 5 1032 33 0 0.89 2 19:21 10.01.2020
4528 Clouds 5 1032 32 0 4.47 279 18:57 10.01.2020
4529 Clouds 5 1032 32 0 4.47 279 18:39 10.01.2020
4530 Clouds 6 1025 34 10000 2.6 360 18:18 10.01.2020
4531 Clouds 6 1031 30 0 4.47 341 17:56 10.01.2020
4532 Clouds 7 1025 34 10000 2.6 360 17:38 10.01.2020
4533 Clouds 7 1025 34 10000 2.6 360 17:38 10.01.2020
4534 Clouds 7 1025 34 10000 2.6 360 17:19 10.01.2020
4535 Clouds 7 1025 34 10000 2.6 360 17:19 10.01.2020
4536 Clouds 8 1025 37 10000 1.5 10 16:43 10.01.2020
4537 Clouds 8 1025 43 10000 1 0 16:21 10.01.2020
4538 Clouds 8 1024 57 10000 2.6 220 15:58 10.01.2020
4539 Clouds 9 1024 57 10000 2.6 220 15:38 10.01.2020
4540 Clouds 9 1024 57 10000 3.1 220 15:20 10.01.2020
4541 Clouds 9 1024 66 10000 2.6 210 14:58 10.01.2020
4542 Clouds 9 1024 66 10000 2.6 210 14:58 10.01.2020
4543 Clouds 9 1024 70 10000 2.6 210 14:40 10.01.2020
4544 Clouds 9 1024 70 10000 2.6 210 14:19 10.01.2020
4545 Clouds 8 1024 70 10000 2.1 200 13:56 10.01.2020
4546 Clouds 8 1025 81 10000 2.1 210 13:37 10.01.2020
4547 Clouds 8 1025 81 10000 2.1 210 13:18 10.01.2020
4548 Clouds 7 1025 87 10000 1 0 12:56 10.01.2020
4549 Clouds 7 1025 87 10000 1 0 12:38 10.01.2020
4550 Clouds 7 1026 93 10000 0.5 0 12:18 10.01.2020
4551 Clouds 6 1026 93 10000 0.5 0 11:42 10.01.2020
4552 Fog 6 1026 100 10000 1.5 10 11:22 10.01.2020
4553 Fog 5 1025 100 10000 0.5 0 10:59 10.01.2020
4554 Fog 5 1025 100 10000 0.5 0 10:38 10.01.2020
4555 Fog 5 1025 100 10000 1 0 10:19 10.01.2020
4556 Clouds 4 1024 100 10000 3.47 6 09:46 10.01.2020
4557 Fog 4 1024 100 10000 2.1 20 09:26 10.01.2020
4558 Snow 4 1024 63 0 3.47 6 08:58 10.01.2020
4559 Snow 4 1024 65 0 3.47 6 08:38 10.01.2020
4560 Snow 4 1023 66 0 0.45 287 08:20 10.01.2020
4561 Snow 4 1023 70 0 3.12 18 07:41 10.01.2020
4562 Snow 4 1028 66 0 3.12 18 07:41 10.01.2020
4563 Snow 5 1028 66 0 3.12 18 07:22 10.01.2020
4564 Snow 5 1022 71 0 3.12 18 06:42 10.01.2020
4565 Snow 5 1027 63 0 3.12 18 06:24 10.01.2020
4566 Snow 5 1027 60 0 3.12 18 05:25 10.01.2020
4567 Snow 5 1027 56 0 3.55 3 03:32 10.01.2020
4568 Snow 5 1027 50 0 3.55 3 02:53 10.01.2020
4569 Snow 5 1027 47 0 3.55 3 02:33 10.01.2020
4570 Clouds 5 1022 74 0 1.72 24 01:33 10.01.2020
4571 Clouds 4 1015 96 0 0.89 52 00:53 10.01.2020
4572 Clouds 4 1015 95 0 0.89 41 00:35 10.01.2020
4573 Clouds 5 1023 65 0 1.72 24 23:57 09.01.2020
4574 Clouds 5 1016 96 0 0.45 11 23:37 09.01.2020
4575 Clouds 5 1016 96 0 0.45 27 23:19 09.01.2020
4576 Clouds 5 1023 62 0 1.45 360 22:56 09.01.2020
4577 Clouds 5 1016 92 0 0.45 20 22:37 09.01.2020
4578 Clouds 5 1016 87 0 1.34 359 22:18 09.01.2020
4579 Clouds 5 1016 77 0 0.89 30 21:55 09.01.2020
4580 Clouds 5 1016 69 0 0.89 243 21:37 09.01.2020
4581 Clouds 5 1016 61 0 1.45 360 21:18 09.01.2020
4582 Clouds 5 1016 67 0 1.79 205 20:55 09.01.2020
4583 Clouds 5 1016 76 0 2.68 239 20:36 09.01.2020
4584 Clouds 5 1016 74 0 3.13 203 20:18 09.01.2020
4585 Clouds 5 1016 75 0 3.13 218 19:39 09.01.2020
4586 Clouds 6 1016 75 0 4.92 219 19:20 09.01.2020
4587 Clouds 6 1016 77 0 4.02 225 18:57 09.01.2020
4588 Clouds 6 1016 77 0 4.02 208 18:39 09.01.2020
4589 Clouds 8 1023 50 10000 2.1 230 18:20 09.01.2020
4590 Clouds 9 1023 50 10000 2.1 230 17:41 09.01.2020
4591 Clouds 9 1023 50 10000 2.1 230 17:19 09.01.2020
4592 Clouds 10 1023 50 10000 1.5 220 16:58 09.01.2020
4593 Clouds 10 1024 46 10000 1 0 16:39 09.01.2020
4594 Clouds 11 1024 46 10000 1 0 16:20 09.01.2020
4595 Clouds 12 1024 50 10000 1.5 0 15:43 09.01.2020
4596 Clouds 12 1024 50 10000 1.5 0 15:22 09.01.2020
4597 Clouds 11 1024 53 10000 1 0 14:58 09.01.2020
4598 Clouds 11 1025 53 10000 1 0 14:39 09.01.2020
4599 Clear 11 1025 53 10000 1 0 14:19 09.01.2020
4600 Clear 11 1025 57 10000 1 0 13:55 09.01.2020
4601 Clear 10 1026 65 10000 1.5 180 13:37 09.01.2020
4602 Clear 9 1026 65 10000 1.5 180 13:18 09.01.2020
4603 Clear 9 1027 65 10000 2.51 212 12:43 09.01.2020
4604 Clear 8 1027 65 10000 2.51 212 12:24 09.01.2020
4605 Clear 8 1028 75 10000 2.51 212 11:59 09.01.2020
4606 Clear 8 1028 63 10000 1 0 11:41 09.01.2020
4607 Clear 5 1028 80 10000 1 0 11:23 09.01.2020
4608 Clear 5 1028 80 10000 0.57 202 10:57 09.01.2020
4609 Clear 4 1028 100 10000 1 0 10:39 09.01.2020
4610 Clear 4 1028 100 10000 1 0 10:20 09.01.2020
4611 Clear 2 1028 100 10000 0.57 202 09:41 09.01.2020
4612 Clear 2 1028 100 10000 0.57 202 09:41 09.01.2020
4613 Clear 3 1028 100 10000 0.57 202 09:41 09.01.2020
4614 Clear 2 1028 100 10000 0.57 202 09:23 09.01.2020
4615 Clear 2 1026 83 0 0.57 202 08:56 09.01.2020
4616 Clear 2 1019 84 0 0.57 202 08:38 09.01.2020
4617 Clear 1 1020 82 0 0.26 356 08:19 09.01.2020
4618 Clear 1 1020 77 0 0.2 357 07:44 09.01.2020
4619 Clear 1 1026 81 0 0.2 357 07:25 09.01.2020
4620 Clear 1 1026 81 0 0.2 357 06:39 09.01.2020
4621 Clear 1 1020 75 0 0.2 357 06:21 09.01.2020
4622 Clear 1 1020 78 0 0.89 195 05:50 09.01.2020
4623 Clear 1 1020 81 0 1.79 187 04:45 09.01.2020
4624 Clear 2 1021 83 0 2.68 212 03:54 09.01.2020
4625 Clear 2 1021 82 0 2.24 212 03:26 09.01.2020
4626 Clear 2 1027 76 0 0.32 158 02:30 09.01.2020
4627 Clouds 2 1022 82 0 0.45 222 01:40 09.01.2020
4628 Clear 3 1022 83 0 0.89 186 00:44 09.01.2020
4629 Clear 3 1022 83 0 1.34 207 00:21 09.01.2020
4630 Clear 3 1023 82 0 0.89 193 23:55 08.01.2020
4631 Clear 3 1023 82 0 0.45 208 23:37 08.01.2020
4632 Clear 3 1023 81 0 0.89 228 23:18 08.01.2020
4633 Clear 4 1028 70 0 0.28 231 22:39 08.01.2020
4634 Clear 4 1023 82 0 0.28 231 22:21 08.01.2020
4635 Clear 4 1028 70 0 0.28 231 21:57 08.01.2020
4636 Clear 4 1024 83 0 0.89 217 21:38 08.01.2020
4637 Clear 4 1024 80 0 0.28 231 21:20 08.01.2020
4638 Clear 4 1024 80 0 0.28 231 20:58 08.01.2020
4639 Clear 4 1024 80 0 0.28 231 20:38 08.01.2020
4640 Clouds 5 1024 78 0 0.53 345 20:20 08.01.2020
4641 Clouds 5 1024 80 0 0.53 345 19:56 08.01.2020
4642 Clouds 5 1024 80 0 0.53 345 19:37 08.01.2020
4643 Clouds 6 1024 80 0 0.53 345 19:18 08.01.2020
4644 Clouds 6 1024 80 0 0.53 345 18:55 08.01.2020
4645 Clouds 5 1024 81 0 0.53 345 18:37 08.01.2020
4646 Clouds 7 1024 80 0 0.53 345 18:18 08.01.2020
4647 Clouds 7 1024 78 0 0.53 345 17:47 08.01.2020
4648 Clouds 11 1030 15 0 0.53 345 17:24 08.01.2020
4649 Clear 11 1027 46 0 0.86 226 16:57 08.01.2020
4650 Clear 11 1027 44 0 0.86 226 16:39 08.01.2020
4651 Clear 12 1028 73 0 0.86 226 16:19 08.01.2020
4652 Clear 12 1028 73 0 0.86 226 16:19 08.01.2020
4653 Clear 13 1030 11 0 0.86 226 15:57 08.01.2020
4654 Clear 13 1029 55 0 0.86 226 15:39 08.01.2020
4655 Clear 13 1030 9 0 0.45 320 15:18 08.01.2020
4656 Clear 13 1030 9 0 0.89 290 14:55 08.01.2020
4657 Clear 13 1026 46 0 0.45 245 14:36 08.01.2020
4658 Clouds 13 1026 42 0 0.41 262 14:18 08.01.2020
4659 Clouds 12 1027 45 0 0.41 262 13:38 08.01.2020
4660 Clouds 11 1030 51 0 0.54 222 13:18 08.01.2020
4661 Clouds 11 1032 9 0 0.54 222 12:41 08.01.2020
4662 Clouds 11 1028 45 0 0.54 222 12:18 08.01.2020
4663 Clouds 10 1028 51 0 0.54 222 11:55 08.01.2020
4664 Clouds 9 1028 49 0 0.54 222 11:36 08.01.2020
4665 Clouds 7 1025 71 0 2.17 26 11:18 08.01.2020
4666 Clouds 6 1028 51 0 2.17 26 10:41 08.01.2020
4667 Clouds 5 1025 63 0 0.45 345 10:22 08.01.2020
4668 Clouds 4 1028 53 0 2.17 26 09:58 08.01.2020
4669 Clouds 5 1025 66 0 2.17 26 09:38 08.01.2020
4670 Clouds 4 1025 66 0 0.89 13 09:18 08.01.2020
4671 Clouds 4 1028 46 0 2.17 26 08:42 08.01.2020
4672 Clouds 2 1024 72 0 0.45 1 08:23 08.01.2020
4673 Clouds 2 1024 72 0 3.84 23 07:59 08.01.2020
4674 Clouds 2 1024 64 0 3.84 23 07:41 08.01.2020
4675 Clouds 2 1024 60 0 3.84 23 07:20 08.01.2020
4676 Clouds 2 1024 51 0 3.84 23 06:42 08.01.2020
4677 Clouds 2 1024 51 0 3.84 23 06:42 08.01.2020
4678 Clouds 1 1024 55 0 3.84 23 05:57 08.01.2020
4679 Clouds 2 1024 55 0 3.96 21 05:27 08.01.2020
4680 Clouds 2 1024 59 0 1.34 20 04:37 08.01.2020
4681 Clouds 2 1024 74 0 1.34 24 02:47 08.01.2020
4682 Clouds 2 1025 73 0 1.34 3 02:28 08.01.2020
4683 Clouds 1 1024 74 0 1.34 17 01:57 08.01.2020
4684 Clouds 1 1024 73 0 1.34 284 01:32 08.01.2020
4685 Clouds 1 1024 70 0 0.45 357 00:51 08.01.2020
4686 Clouds 2 1024 70 0 3.77 20 00:22 08.01.2020
4687 Clouds 2 1024 78 0 3.77 20 23:46 07.01.2020
4688 Clouds 3 1025 77 0 3.73 22 23:21 07.01.2020
4689 Clouds 3 1025 77 0 3.73 22 22:43 07.01.2020
4690 Clouds 4 1025 80 0 0.45 342 22:21 07.01.2020
4691 Clouds 4 1025 80 0 3.73 22 21:59 07.01.2020
4692 Clouds 3 1025 80 0 0.89 253 21:41 07.01.2020
4693 Clouds 3 1025 75 0 3.73 22 21:21 07.01.2020
4694 Clouds 3 1025 80 0 0.89 359 20:58 07.01.2020
4695 Clouds 3 1025 72 0 3.73 22 20:39 07.01.2020
4696 Clouds 3 1025 68 0 3.87 18 20:21 07.01.2020
4697 Clouds 3 1025 57 0 3.95 19 19:57 07.01.2020
4698 Clouds 4 1025 54 0 3.95 19 19:37 07.01.2020
4699 Clouds 4 1025 45 0 3.95 19 19:19 07.01.2020
4700 Clouds 4 1025 45 0 3.95 19 19:19 07.01.2020
4701 Clouds 4 1025 45 0 3.95 19 19:19 07.01.2020
4702 Clouds 4 1025 43 0 3.95 19 18:55 07.01.2020
4703 Clouds 5 1025 41 0 3.95 19 18:37 07.01.2020
4704 Clouds 5 1025 40 0 3.95 19 18:18 07.01.2020
4705 Clouds 6 1024 33 0 0.45 51 17:41 07.01.2020
4706 Clouds 7 1024 36 0 3.95 19 17:23 07.01.2020
4707 Clouds 9 1032 12 0 2.84 18 16:58 07.01.2020
4708 Clouds 9 1032 11 0 2.84 18 16:38 07.01.2020
4709 Clouds 10 1028 55 0 2.84 18 16:19 07.01.2020
4710 Clouds 11 1032 11 0 2.84 18 15:59 07.01.2020
4711 Clouds 11 1032 11 0 0.89 261 15:41 07.01.2020
4712 Clouds 10 1031 11 0 2.84 18 15:23 07.01.2020
4713 Clouds 11 1031 10 0 2.84 18 14:56 07.01.2020
4714 Clouds 11 1032 10 0 1.34 236 14:37 07.01.2020
4715 Clouds 11 1032 11 0 0.89 229 14:19 07.01.2020
4716 Clouds 10 1033 11 0 0.45 239 13:40 07.01.2020
4717 Clouds 9 1033 11 0 1.34 9 13:19 07.01.2020
4718 Clouds 10 1028 24 0 2.89 15 12:42 07.01.2020
4719 Clouds 9 1033 11 0 1.34 247 12:21 07.01.2020
4720 Clouds 8 1033 12 0 0.89 223 11:59 07.01.2020
4721 Clouds 7 1034 14 0 2.89 15 11:40 07.01.2020
4722 Clouds 5 1025 40 0 2.8 22 11:21 07.01.2020
4723 Clouds 4 1025 35 0 0.45 359 10:42 07.01.2020
4724 Clouds 4 1025 36 0 0.45 17 10:42 07.01.2020
4725 Clouds 3 1025 38 0 2.8 22 10:24 07.01.2020
4726 Clouds 3 1030 30 0 2.8 22 09:59 07.01.2020
4727 Clouds 6 1025 29 0 2.8 22 09:38 07.01.2020
4728 Clouds 5 1025 29 0 0.45 8 09:20 07.01.2020
4729 Clouds 5 1025 30 0 2.8 22 08:46 07.01.2020
4730 Clouds 3 1030 29 0 2.8 22 08:26 07.01.2020
4731 Clouds 3 1030 29 0 2.8 22 08:26 07.01.2020
4732 Clouds 1 1024 33 0 3.12 23 07:54 07.01.2020
4733 Clouds 1 1029 32 0 3.12 23 07:29 07.01.2020
4734 Clouds 1 1029 35 0 3.12 23 06:54 07.01.2020
4735 Clouds 1 1024 29 0 0.89 330 06:34 07.01.2020
4736 Clouds 1 1024 30 0 0.45 21 05:55 07.01.2020
4737 Clouds 0 1024 36 0 0.89 23 04:41 07.01.2020
4738 Clouds 1 1024 33 0 0.45 352 04:41 07.01.2020
4739 Clouds 2 1024 26 0 3.14 22 03:29 07.01.2020
4740 Clouds 1 1024 43 0 3.14 22 02:22 07.01.2020
4741 Clouds 1 1024 57 0 3.4 25 01:54 07.01.2020
4742 Clouds 1 1024 38 0 3.4 25 01:30 07.01.2020
4743 Clouds 1 1024 40 0 3.33 22 00:37 07.01.2020
4744 Clouds 2 1024 54 0 3.33 22 00:18 07.01.2020
4745 Clouds 1 1024 57 0 3.33 22 23:40 06.01.2020
4746 Clear 2 1024 55 0 3.67 23 23:21 06.01.2020
4747 Clear 2 1024 39 0 3.67 23 22:58 06.01.2020
4748 Clear 2 1024 49 0 0.45 1 22:39 06.01.2020
4749 Clear 2 1024 58 0 3.67 23 22:21 06.01.2020
4750 Clear 2 1024 64 0 3.67 23 21:56 06.01.2020
4751 Clear 2 1024 61 0 3.67 23 21:38 06.01.2020
4752 Clear 2 1024 59 0 3.67 23 21:19 06.01.2020
4753 Clear 2 1023 49 0 3.67 23 20:56 06.01.2020
4754 Clear 2 1023 44 0 3.67 23 20:37 06.01.2020
4755 Clear 3 1023 47 0 2.51 26 20:19 06.01.2020
4756 Clear 4 1028 50 0 2.81 26 19:55 06.01.2020
4757 Clear 3 1028 51 0 2.81 26 19:37 06.01.2020
4758 Clear 4 1023 51 0 2.81 26 19:18 06.01.2020
4759 Clear 4 1022 65 0 2.81 26 18:44 06.01.2020
4760 Clear 5 1027 42 10000 2.1 230 18:21 06.01.2020
4761 Clear 6 1027 42 10000 2.1 230 17:40 06.01.2020
4762 Clear 6 1027 42 10000 2.1 230 17:40 06.01.2020
4763 Clear 8 1027 42 10000 2.1 230 17:20 06.01.2020
4764 Clear 9 1027 39 10000 2.1 230 16:58 06.01.2020
4765 Clear 10 1027 39 10000 2.1 220 16:40 06.01.2020
4766 Clear 10 1027 39 10000 2.1 220 16:22 06.01.2020
4767 Clear 11 1026 34 10000 1 0 15:59 06.01.2020
4768 Clear 11 1027 34 10000 1 0 15:36 06.01.2020
4769 Clear 11 1027 34 10000 1 0 15:18 06.01.2020
4770 Clear 11 1027 36 10000 1 0 14:41 06.01.2020
4771 Clear 11 1027 36 10000 1 0 14:41 06.01.2020
4772 Clear 11 1027 36 10000 1 0 14:22 06.01.2020
4773 Clear 10 1028 42 10000 0.5 0 13:59 06.01.2020
4774 Clear 9 1028 48 10000 1 0 13:39 06.01.2020
4775 Clear 9 1028 48 10000 1 0 13:20 06.01.2020
4776 Clear 11 1029 52 10000 0.5 0 12:55 06.01.2020
4777 Clear 10 1029 51 10000 1.07 273 12:37 06.01.2020
4778 Clear 10 1029 51 10000 1.07 273 12:37 06.01.2020
4779 Clear 10 1029 51 10000 1.07 273 12:18 06.01.2020
4780 Clear 7 1030 69 10000 1.5 50 11:41 06.01.2020
4781 Clear 5 1030 69 10000 1.5 50 11:23 06.01.2020
4782 Clear 4 1030 69 10000 0.26 320 10:59 06.01.2020
4783 Clear 3 1030 86 10000 0.5 50 10:40 06.01.2020
4784 Clear 2 1030 86 10000 0.5 50 10:20 06.01.2020
4785 Clear 2 1030 86 10000 0.26 320 09:39 06.01.2020
4786 Clear 1 1030 86 10000 0.26 320 09:20 06.01.2020
4787 Clear 2 1022 54 0 0.26 320 08:51 06.01.2020
4788 Clear 2 1022 52 0 0.26 320 08:33 06.01.2020
4789 Clear 0 1022 51 0 0.95 11 07:56 06.01.2020
4790 Clear 0 1027 45 0 0.95 11 07:33 06.01.2020
4791 Clear 0 1021 50 0 0.45 221 06:46 06.01.2020
4792 Clear 0 1021 49 0 0.95 11 06:23 06.01.2020
4793 Clear 0 1021 50 0 0.95 11 05:45 06.01.2020
4794 Clear 0 1021 50 0 0.46 19 04:38 06.01.2020
4795 Clear 1 1021 52 0 0.46 19 04:19 06.01.2020
4796 Clear 1 1022 54 0 0.46 19 02:46 06.01.2020
4797 Clear 1 1027 37 0 0.46 19 02:24 06.01.2020
4798 Clear 1 1027 35 0 0.84 45 01:44 06.01.2020
4799 Clear 2 1027 34 0 0.88 46 01:26 06.01.2020
4800 Clear 1 1023 51 0 0.88 46 00:42 06.01.2020
4801 Clear 1 1023 62 0 0.88 46 00:23 06.01.2020
4802 Clear 1 1030 18 0 0.88 46 23:42 05.01.2020
4803 Clear 1 1030 18 0 0.88 46 23:42 05.01.2020
4804 Clear 1 1023 69 0 1.21 40 23:22 05.01.2020
4805 Clear 2 1023 54 0 1.21 40 22:56 05.01.2020
4806 Clear 2 1023 45 0 1.21 40 22:38 05.01.2020
4807 Clear 2 1023 46 0 1.21 40 22:19 05.01.2020
4808 Clear 1 1023 48 0 1.21 40 21:54 05.01.2020
4809 Clear 2 1023 48 0 1.21 40 21:36 05.01.2020
4810 Clear 1 1023 48 0 1.21 40 21:18 05.01.2020
4811 Clear 1 1023 48 0 1.21 40 21:18 05.01.2020
4812 Clear 1 1023 62 0 1.21 40 20:54 05.01.2020
4813 Clear 2 1023 64 0 1.21 40 20:36 05.01.2020
4814 Clear 2 1023 64 0 1.21 40 20:36 05.01.2020
4815 Clear 3 1024 68 0 2.36 34 20:18 05.01.2020
4816 Clear 3 1023 64 0 2.36 34 19:41 05.01.2020
4817 Clear 4 1023 63 0 2.36 34 19:21 05.01.2020
4818 Clear 3 1023 46 0 2.36 34 18:56 05.01.2020
4819 Clear 4 1023 65 0 2.36 34 18:38 05.01.2020
4820 Clear 4 1023 67 0 2.36 34 18:20 05.01.2020
4821 Clear 4 1024 61 0 2.36 34 17:59 05.01.2020
4822 Clear 4 1023 65 0 2.36 34 17:59 05.01.2020
4823 Clear 5 1027 34 10000 2.1 250 17:39 05.01.2020
4824 Clear 9 1026 34 10000 2.1 230 17:20 05.01.2020
4825 Clear 9 1026 34 10000 2.1 230 16:57 05.01.2020
4826 Clear 9 1026 37 10000 1.5 230 16:39 05.01.2020
4827 Clear 9 1026 37 10000 1.5 230 16:39 05.01.2020
4828 Clear 11 1026 37 10000 1.5 230 16:20 05.01.2020
4829 Clear 11 1026 27 10000 1 0 15:40 05.01.2020
4830 Clear 11 1026 27 10000 1 0 15:22 05.01.2020
4831 Clear 11 1027 30 10000 1 0 14:57 05.01.2020
4832 Clear 11 1027 30 10000 1 0 14:57 05.01.2020
4833 Clear 9 1027 37 10000 1 0 14:39 05.01.2020
4834 Clear 11 1027 37 10000 1 0 14:20 05.01.2020
4835 Clear 10 1028 39 10000 1 0 13:57 05.01.2020
4836 Clear 10 1028 45 10000 1 0 13:38 05.01.2020
4837 Clear 10 1028 45 10000 1 0 13:20 05.01.2020
4838 Clear 10 1028 45 10000 1 0 13:20 05.01.2020
4839 Clear 10 1029 48 10000 0.5 0 12:56 05.01.2020
4840 Clear 13 1030 52 10000 3.04 22 12:37 05.01.2020
4841 Clear 13 1033 11 0 0.89 225 12:19 05.01.2020
4842 Clear 13 1033 11 0 0.89 225 12:19 05.01.2020
4843 Clear 12 1030 15 0 3.04 22 11:44 05.01.2020
4844 Clear 5 1031 64 10000 1 0 11:20 05.01.2020
4845 Clear 5 1031 69 10000 0.5 0 11:00 05.01.2020
4846 Clear 4 1031 69 10000 0.5 0 10:40 05.01.2020
4847 Clear 4 1031 69 10000 0.5 0 10:20 05.01.2020
4848 Clear 3 1031 80 10000 1 0 09:42 05.01.2020
4849 Clear 2 1031 80 10000 1 0 09:22 05.01.2020
4850 Clear 2 1026 62 0 3.99 21 08:54 05.01.2020
4851 Clear 3 1026 26 0 3.99 21 08:35 05.01.2020
4852 Clouds 1 1025 27 0 4.93 20 07:59 05.01.2020
4853 Clouds 1 1025 27 0 0.45 27 07:39 05.01.2020
4854 Clouds 2 1025 26 0 0.45 38 07:20 05.01.2020
4855 Clouds 1 1025 27 0 0.45 75 06:44 05.01.2020
4856 Clouds 2 1025 24 0 0.89 23 05:38 05.01.2020
4857 Clouds 2 1025 25 0 0.89 13 04:55 05.01.2020
4858 Clouds 2 1025 23 0 1.34 359 04:18 05.01.2020
4859 Clouds 2 1025 23 0 1.34 359 04:18 05.01.2020
4860 Clouds 2 1025 20 0 0.45 14 04:18 05.01.2020
4861 Clouds 1 1025 31 0 4.52 18 03:18 05.01.2020
4862 Clouds 2 1025 34 0 0.45 14 02:32 05.01.2020
4863 Clouds 2 1025 37 0 4.6 20 01:49 05.01.2020
4864 Clear 2 1025 42 0 4.61 20 01:20 05.01.2020
4865 Clear 3 1025 37 0 4.61 20 00:56 05.01.2020
4866 Clear 2 1026 39 0 0.45 30 00:37 05.01.2020
4867 Clear 3 1026 42 0 4.61 20 00:19 05.01.2020
4868 Clear 3 1026 44 0 4.61 20 23:40 04.01.2020
4869 Clear 4 1026 56 0 4.2 18 23:20 04.01.2020
4870 Clear 3 1026 46 0 4.2 18 22:40 04.01.2020
4871 Clear 3 1026 51 0 0.45 336 22:22 04.01.2020
4872 Clear 3 1026 52 0 0.45 357 21:58 04.01.2020
4873 Clear 3 1026 47 0 0.89 18 21:40 04.01.2020
4874 Clear 3 1026 48 0 0.45 284 21:21 04.01.2020
4875 Clear 3 1026 49 0 0.45 11 20:59 04.01.2020
4876 Clear 3 1026 50 0 1.34 1 20:40 04.01.2020
4877 Clouds 4 1026 49 0 1.79 15 20:22 04.01.2020
4878 Clouds 4 1026 50 0 1.34 359 19:57 04.01.2020
4879 Clouds 4 1026 47 0 1.34 8 19:38 04.01.2020
4880 Clouds 4 1026 51 0 1.79 53 19:20 04.01.2020
4881 Clouds 3 1026 53 0 0.89 14 18:56 04.01.2020
4882 Clouds 4 1030 50 10000 1 0 18:37 04.01.2020
4883 Clouds 4 1030 50 10000 1 0 18:19 04.01.2020
4884 Clouds 4 1030 50 10000 1 0 17:41 04.01.2020
4885 Clouds 7 1030 51 10000 1 0 17:23 04.01.2020
4886 Clouds 7 1030 46 10000 1.5 210 16:58 04.01.2020
4887 Clouds 8 1030 46 10000 1 0 16:39 04.01.2020
4888 Clouds 8 1030 46 10000 1 0 16:21 04.01.2020
4889 Clouds 9 1030 43 10000 0.5 0 15:56 04.01.2020
4890 Clouds 9 1030 49 10000 1 0 15:37 04.01.2020
4891 Clouds 9 1030 49 10000 1 0 15:18 04.01.2020
4892 Clouds 9 1030 49 10000 1.5 200 14:42 04.01.2020
4893 Clouds 9 1030 49 10000 1.5 200 14:42 04.01.2020
4894 Clear 9 1030 49 10000 1.5 200 14:20 04.01.2020
4895 Clear 7 1031 56 10000 1 0 13:59 04.01.2020
4896 Clear 7 1031 56 10000 1 0 13:59 04.01.2020
4897 Clear 9 1032 60 10000 1 0 13:38 04.01.2020
4898 Clear 9 1032 60 10000 1 0 13:19 04.01.2020
4899 Clear 10 1032 65 10000 0.5 0 12:57 04.01.2020
4900 Clear 9 1033 69 10000 3.85 13 12:39 04.01.2020
4901 Clear 10 1033 69 10000 3.85 13 12:39 04.01.2020
4902 Clear 9 1033 69 10000 3.85 13 12:18 04.01.2020
4903 Clear 9 1033 69 10000 3.85 13 12:18 04.01.2020
4904 Clear 8 1033 74 10000 0.5 0 11:56 04.01.2020
4905 Clear 7 1034 86 10000 1 0 11:37 04.01.2020
4906 Clear 3 1034 86 10000 1 0 11:18 04.01.2020
4907 Clear 3 1033 100 10000 1 0 10:40 04.01.2020
4908 Clear 2 1033 100 10000 1 0 10:21 04.01.2020
4909 Clear 3 1033 100 10000 0.5 60 09:47 04.01.2020
4910 Clear 2 1033 100 10000 1.5 20 09:26 04.01.2020
4911 Clear 3 1036 48 0 4.02 13 08:49 04.01.2020
4912 Clear 2 1025 84 0 1.34 359 08:29 04.01.2020
4913 Clouds 0 1032 59 0 3.97 19 07:57 04.01.2020
4914 Clouds 0 1025 88 0 3.97 19 07:39 04.01.2020
4915 Clouds 1 1031 63 0 3.97 19 06:44 04.01.2020
4916 Clouds 1 1024 88 0 0.45 336 05:59 04.01.2020
4917 Clouds 2 1024 93 0 0.45 356 04:52 04.01.2020
4918 Clouds 2 1031 70 0 3.3 8 04:31 04.01.2020
4919 Clouds 2 1024 86 0 0.89 354 03:30 04.01.2020
4920 Clouds 2 1031 67 0 3.3 8 02:52 04.01.2020
4921 Clouds 2 1024 88 0 1.34 359 02:18 04.01.2020
4922 Clouds 2 1031 68 0 2.84 9 01:45 04.01.2020
4923 Clouds 2 1025 85 0 2.84 9 01:27 04.01.2020
4924 Clouds 2 1025 86 0 0.45 8 00:29 04.01.2020
4925 Clouds 1 1025 85 0 0.89 37 00:29 04.01.2020
4926 Clouds 2 1025 85 0 0.89 359 23:59 03.01.2020
4927 Clouds 2 1025 85 0 0.89 23 23:59 03.01.2020
4928 Clouds 2 1025 85 0 0.45 8 23:37 03.01.2020
4929 Clouds 2 1025 83 0 0.89 359 23:18 03.01.2020
4930 Clouds 3 1025 79 0 0.89 42 22:40 03.01.2020
4931 Clouds 3 1025 75 0 0.45 10 22:19 03.01.2020
4932 Clouds 2 1025 71 0 0.45 15 21:57 03.01.2020
4933 Clouds 2 1025 69 0 3.04 11 21:38 03.01.2020
4934 Clouds 3 1025 74 0 1.79 18 21:19 03.01.2020
4935 Clouds 3 1024 63 0 0.45 4 20:55 03.01.2020
4936 Clouds 3 1025 63 0 0.45 37 20:37 03.01.2020
4937 Clouds 3 1024 50 0 3.81 13 20:18 03.01.2020
4938 Clouds 3 1025 53 0 3.81 13 19:54 03.01.2020
4939 Clouds 3 1024 64 0 3.81 13 19:36 03.01.2020
4940 Clouds 4 1025 56 0 3.81 13 19:18 03.01.2020
4941 Clouds 4 1024 51 0 0.89 359 18:39 03.01.2020
4942 Clouds 4 1024 51 0 0.89 359 18:39 03.01.2020
4943 Clouds 5 1029 61 10000 2.6 230 18:20 03.01.2020
4944 Clouds 5 1029 61 10000 2.6 230 17:42 03.01.2020
4945 Clouds 6 1029 65 10000 2.6 230 17:22 03.01.2020
4946 Clouds 7 1029 65 10000 2.1 220 16:59 03.01.2020
4947 Clouds 8 1029 65 10000 2.1 230 16:40 03.01.2020
4948 Clouds 7 1029 65 10000 2.1 230 16:21 03.01.2020
4949 Clouds 8 1028 52 10000 1 0 15:42 03.01.2020
4950 Clouds 8 1028 56 10000 1 0 15:19 03.01.2020
4951 Clouds 9 1029 52 10000 1.5 220 14:40 03.01.2020
4952 Clouds 9 1029 52 10000 1.5 220 14:21 03.01.2020
4953 Clouds 9 1029 60 10000 1.5 230 13:59 03.01.2020
4954 Clouds 9 1029 65 10000 1.5 230 13:40 03.01.2020
4955 Clouds 8 1029 65 10000 1.5 230 13:22 03.01.2020
4956 Clouds 8 1030 65 10000 0.52 259 12:41 03.01.2020
4957 Clouds 8 1030 65 10000 0.52 259 12:22 03.01.2020
4958 Clouds 7 1031 69 10000 0.52 259 11:57 03.01.2020
4959 Clouds 7 1031 69 10000 0.52 259 11:57 03.01.2020
4960 Clouds 6 1031 74 10000 1 0 11:39 03.01.2020
4961 Clouds 4 1031 74 10000 0.5 0 10:59 03.01.2020
4962 Clouds 4 1031 74 10000 0.5 0 10:59 03.01.2020
4963 Clouds 3 1031 38 10000 0.99 45 10:40 03.01.2020
4964 Clouds 2 1031 38 10000 0.99 45 10:22 03.01.2020
4965 Clouds 1 1030 38 10000 0.5 0 09:56 03.01.2020
4966 Clouds 2 1030 38 10000 0.5 0 09:38 03.01.2020
4967 Clouds 2 1030 38 10000 0.5 0 09:20 03.01.2020
4968 Clouds 2 1029 46 0 0.99 45 08:45 03.01.2020
4969 Clouds 1 1023 31 0 1.56 43 08:23 03.01.2020
4970 Clouds 1 1023 27 0 1.56 43 07:57 03.01.2020
4971 Clouds 1 1023 31 0 1.56 43 07:38 03.01.2020
4972 Clouds 1 1023 30 0 1.56 43 07:18 03.01.2020
4973 Clouds 1 1028 48 0 1.56 43 06:42 03.01.2020
4974 Clouds 1 1023 54 0 1.56 43 06:22 03.01.2020
4975 Clouds 2 1023 51 0 0.93 42 05:20 03.01.2020
4976 Clouds 2 1029 45 0 0.93 42 03:42 03.01.2020
4977 Clouds 1 1029 48 0 0.93 42 02:53 03.01.2020
4978 Clouds 2 1024 32 0 0.82 71 01:51 03.01.2020
4979 Clouds 2 1030 47 0 0.82 71 01:33 03.01.2020
4980 Clouds 3 1024 52 0 1.79 204 00:43 03.01.2020
4981 Clouds 2 1031 47 0 0.91 64 00:24 03.01.2020
4982 Clouds 3 1025 43 0 1.34 194 23:39 02.01.2020
4983 Clouds 2 1025 49 0 1.34 245 23:20 02.01.2020
4984 Clouds 3 1025 53 0 1.19 69 22:59 02.01.2020
4985 Clouds 2 1025 33 0 1.19 69 22:41 02.01.2020
4986 Clouds 2 1025 34 0 1.19 69 22:20 02.01.2020
4987 Clouds 3 1025 34 0 1.19 69 21:56 02.01.2020
4988 Clouds 2 1030 46 0 1.19 69 21:38 02.01.2020
4989 Clouds 3 1025 34 0 1.19 69 21:19 02.01.2020
4990 Clouds 3 1030 42 0 1.19 69 20:56 02.01.2020
4991 Clouds 3 1025 41 0 1.19 69 20:37 02.01.2020
4992 Clouds 3 1025 45 0 1.14 46 20:18 02.01.2020
4993 Clouds 3 1030 42 0 1.14 46 19:54 02.01.2020
4994 Clouds 3 1025 45 0 1.14 46 19:36 02.01.2020
4995 Clouds 3 1025 46 0 1.14 46 19:18 02.01.2020
4996 Clouds 4 1025 49 0 1.14 46 18:43 02.01.2020
4997 Clouds 5 1029 49 10000 2.1 240 18:24 02.01.2020
4998 Clouds 5 1029 49 10000 2.1 240 17:58 02.01.2020
4999 Clouds 5 1029 49 10000 2.1 240 17:58 02.01.2020
5000 Clouds 6 1029 49 10000 2.1 240 17:39 02.01.2020
5001 Clouds 8 1029 49 10000 2.1 240 17:20 02.01.2020
5002 Clouds 8 1029 49 10000 2.1 230 16:58 02.01.2020
5003 Clouds 9 1029 42 10000 1.5 220 16:40 02.01.2020
5004 Clouds 9 1029 42 10000 1.5 220 16:20 02.01.2020
5005 Clouds 9 1029 46 10000 1.5 210 15:57 02.01.2020
5006 Clouds 10 1029 43 10000 1 0 15:39 02.01.2020
5007 Clouds 10 1029 43 10000 1 0 15:19 02.01.2020
5008 Clouds 10 1029 43 10000 1 0 14:56 02.01.2020
5009 Clouds 10 1029 45 10000 0.5 0 14:36 02.01.2020
5010 Clouds 10 1030 52 10000 0.5 0 14:18 02.01.2020
5011 Clouds 10 1030 52 10000 0.5 0 13:47 02.01.2020
5012 Clouds 10 1030 52 10000 0.5 0 13:29 02.01.2020
5013 Clouds 11 1031 60 10000 1.03 242 12:45 02.01.2020
5014 Clouds 9 1031 60 10000 1.03 242 12:25 02.01.2020
5015 Clouds 9 1031 60 10000 1.03 242 12:25 02.01.2020
5016 Clouds 9 1032 74 10000 0.5 0 11:57 02.01.2020
5017 Clouds 9 1032 74 10000 0.5 0 11:37 02.01.2020
5018 Clouds 3 1032 86 10000 0.5 0 11:19 02.01.2020
5019 Clouds 1 1032 39 10000 1 0 10:39 02.01.2020
5020 Clouds 1 1032 39 10000 1 0 10:19 02.01.2020
5021 Clouds 0 1032 100 10000 1 0 09:42 02.01.2020
5022 Clouds 0 1032 100 10000 1 0 09:24 02.01.2020
5023 Clouds 0 1024 43 0 0.33 24 08:45 02.01.2020
5024 Clouds 1 1030 46 0 0.33 24 08:45 02.01.2020
5025 Clouds 0 1030 46 0 0.33 24 08:27 02.01.2020
5026 Clouds -1 1024 41 0 1.06 48 07:50 02.01.2020
5027 Clouds 0 1023 34 0 1.06 48 07:30 02.01.2020
5028 Clouds 0 1023 36 0 1.06 48 06:45 02.01.2020
5029 Clouds 0 1029 48 0 1.06 48 06:26 02.01.2020
5030 Clouds 0 1029 51 0 1.09 51 04:53 02.01.2020
5031 Clouds 0 1023 30 0 1.09 51 04:30 02.01.2020
5032 Clouds 0 1023 26 0 1.09 51 02:32 02.01.2020
5033 Clouds 0 1023 28 0 0.8 68 01:58 02.01.2020
5034 Clouds 1 1023 27 0 0.8 68 01:33 02.01.2020
5035 Clouds 1 1029 48 0 0.8 73 00:57 02.01.2020
5036 Clouds 1 1024 27 0 0.8 73 00:33 02.01.2020
5037 Clouds 1 1024 26 0 0.8 73 00:33 02.01.2020
5038 Clouds 1 1024 31 0 1.79 186 23:49 01.01.2020
5039 Clouds 1 1030 46 0 0.8 73 23:26 01.01.2020
5040 Clouds 2 1025 31 0 0.45 232 22:55 01.01.2020
5041 Clouds 2 1024 34 0 0.45 229 22:37 01.01.2020
5042 Clouds 2 1025 32 0 0.79 64 22:18 01.01.2020
5043 Clouds 2 1025 32 0 0.79 64 21:42 01.01.2020
5044 Clouds 3 1025 34 0 0.79 64 21:21 01.01.2020
5045 Clouds 3 1025 37 0 0.79 64 20:59 01.01.2020
5046 Clouds 3 1030 44 0 0.79 64 20:39 01.01.2020
5047 Clouds 3 1025 39 0 0.55 32 20:21 01.01.2020
5048 Clouds 3 1025 49 0 0.55 32 19:58 01.01.2020
5049 Clouds 3 1025 65 0 0.55 32 19:58 01.01.2020
5050 Clouds 3 1025 73 0 0.55 32 19:39 01.01.2020
5051 Clouds 3 1025 42 0 0.55 32 19:20 01.01.2020
5052 Clouds 3 1025 40 0 0.55 32 18:57 01.01.2020
5053 Clouds 3 1025 42 0 0.55 32 18:39 01.01.2020
5054 Clouds 4 1025 42 0 0.55 32 18:20 01.01.2020
5055 Clouds 4 1025 52 0 0.55 32 17:59 01.01.2020
5056 Clouds 4 1025 56 0 0.55 32 17:40 01.01.2020
5057 Clouds 4 1025 56 0 0.55 32 17:40 01.01.2020
5058 Clouds 7 1029 44 0 1.05 210 17:20 01.01.2020
5059 Clouds 7 1025 42 0 1.05 210 16:58 01.01.2020
5060 Clouds 8 1025 34 0 1.05 210 16:38 01.01.2020
5061 Clouds 8 1025 34 0 1.05 210 16:38 01.01.2020
5062 Clouds 9 1029 37 0 1.05 210 16:19 01.01.2020
5063 Clouds 8 1024 38 0 1.05 210 15:57 01.01.2020
5064 Clouds 8 1024 38 0 1.05 210 15:57 01.01.2020
5065 Clouds 9 1029 34 0 1.05 210 15:37 01.01.2020
5066 Clouds 9 1024 29 0 1.05 210 15:19 01.01.2020
5067 Clouds 9 1029 34 0 1.05 210 14:55 01.01.2020
5068 Clouds 9 1024 27 0 1.05 210 14:37 01.01.2020
5069 Clouds 9 1024 23 0 1.45 205 14:19 01.01.2020
5070 Clouds 8 1029 27 0 1.45 205 13:55 01.01.2020
5071 Clouds 9 1025 27 0 1.45 205 13:36 01.01.2020
5072 Clouds 9 1029 29 0 1.55 202 13:18 01.01.2020
5073 Clouds 9 1030 31 0 1.55 202 12:40 01.01.2020
5074 Clouds 8 1034 25 0 1.34 278 12:19 01.01.2020
5075 Clouds 8 1031 32 0 1.55 202 12:19 01.01.2020
5076 Clouds 7 1034 31 0 2.68 254 11:56 01.01.2020
5077 Clouds 7 1031 32 0 1.55 202 11:38 01.01.2020
5078 Clear 4 1026 25 0 1.71 45 11:19 01.01.2020
5079 Clear 2 1026 23 0 1.71 45 10:54 01.01.2020
5080 Clear 3 1026 28 0 1.71 45 10:36 01.01.2020
5081 Clear 3 1031 35 0 1.71 45 10:18 01.01.2020
5082 Clear 5 1026 29 0 1.71 45 09:39 01.01.2020
5083 Clear 3 1025 36 0 1.71 45 09:19 01.01.2020
5084 Clear 3 1025 50 0 1.71 45 09:19 01.01.2020
5085 Clear 3 1025 31 0 1.71 45 08:56 01.01.2020
5086 Clear 3 1025 26 0 1.71 45 08:37 01.01.2020
5087 Clear 1 1025 25 0 2.47 32 08:19 01.01.2020
5088 Clear 1 1030 35 0 2.47 32 07:55 01.01.2020
5089 Clear 0 1025 51 0 2.47 32 07:37 01.01.2020
5090 Clear 0 1025 51 0 2.47 32 07:37 01.01.2020
5091 Clear 1 1029 38 0 2.47 32 06:45 01.01.2020
5092 Clear 1 1025 35 0 2.47 32 06:22 01.01.2020
5093 Clear 0 1025 37 0 2.47 32 05:23 01.01.2020
5094 Clear 2 1025 49 0 1.9 33 03:47 01.01.2020
5095 Clear 2 1029 42 0 1.9 33 03:24 01.01.2020
5096 Clear 1 1029 44 0 1.9 33 02:57 01.01.2020
5097 Clear 2 1025 65 0 1.9 33 02:37 01.01.2020
5098 Clear 1 1029 46 0 2.17 34 01:59 01.01.2020
5099 Clear 0 1025 43 0 2.17 34 01:38 01.01.2020
5100 Clear 1 1025 55 0 2 34 01:20 01.01.2020
5101 Clear 0 1025 48 0 2 34 00:44 01.01.2020
5102 Clear 0 1025 48 0 2 34 00:44 01.01.2020
5103 Clear 1 1030 44 0 2 34 00:25 01.01.2020
5104 Clear 0 1026 52 0 2 34 23:41 31.12.2019
5105 Clear 0 1026 65 0 2.4 29 23:21 31.12.2019
5106 Clear 0 1026 55 0 2.4 29 22:57 31.12.2019
5107 Clear 1 1026 55 0 2.4 29 22:39 31.12.2019
5108 Clear 1 1026 55 0 2.4 29 22:39 31.12.2019
5109 Clear 1 1026 48 0 2.4 29 22:20 31.12.2019
5110 Clear 1 1026 49 0 2.4 29 21:57 31.12.2019
5111 Clear 2 1026 53 0 2.4 29 21:39 31.12.2019
5112 Clear 2 1026 48 0 2.4 29 21:20 31.12.2019
5113 Clear 2 1026 45 0 2.4 29 20:55 31.12.2019
5114 Clear 2 1026 50 0 2.4 29 20:37 31.12.2019
5115 Clouds 3 1026 62 0 2.64 27 20:18 31.12.2019
5116 Clouds 3 1029 43 0 2.64 27 19:43 31.12.2019
5117 Clouds 3 1029 44 0 2.64 27 19:24 31.12.2019
5118 Clouds 3 1029 44 0 2.64 27 18:59 31.12.2019
5119 Clouds 3 1026 69 0 2.64 27 18:40 31.12.2019
5120 Clouds 4 1026 65 0 2.64 27 18:21 31.12.2019
5121 Clouds 4 1026 58 0 2.64 27 17:57 31.12.2019
5122 Clouds 4 1026 63 0 2.64 27 17:39 31.12.2019
5123 Clear 6 1007 12 0 1.22 353 17:19 31.12.2019
5124 Clear 6 1007 12 0 1.22 353 17:19 31.12.2019
5125 Clear 7 1025 46 0 1.22 353 16:57 31.12.2019
5126 Clear 7 1025 46 0 1.22 353 16:57 31.12.2019
5127 Clear 8 1025 44 0 1.22 353 16:39 31.12.2019
5128 Clear 8 1025 43 0 1.22 353 16:19 31.12.2019
5129 Clear 9 1025 41 0 1.22 353 15:57 31.12.2019
5130 Clear 9 1025 42 0 1.22 353 15:39 31.12.2019
5131 Clear 9 1025 41 0 1.22 353 15:21 31.12.2019
5132 Clear 9 1028 40 0 1.22 353 14:58 31.12.2019
5133 Clear 9 1025 41 0 1.22 353 14:39 31.12.2019
5134 Clear 9 1029 39 0 0.61 298 14:19 31.12.2019
5135 Clear 9 1029 39 0 0.45 250 13:58 31.12.2019
5136 Clear 9 1029 39 0 0.61 298 13:40 31.12.2019
5137 Clear 9 1029 41 0 0.67 307 13:21 31.12.2019
5138 Clear 9 1029 40 0 0.67 307 12:58 31.12.2019
5139 Clear 10 1037 11 0 2.68 356 12:40 31.12.2019
5140 Clear 11 1030 36 0 0.67 307 12:20 31.12.2019
5141 Clear 11 1030 35 0 0.67 307 11:56 31.12.2019
5142 Clear 11 1038 10 0 0.67 307 11:38 31.12.2019
5143 Clear 4 1027 37 0 2.26 26 11:20 31.12.2019
5144 Clear 2 1027 39 0 2.26 26 10:57 31.12.2019
5145 Clear 2 1027 39 0 2.26 26 10:57 31.12.2019
5146 Clear 2 1027 39 0 2.26 26 10:38 31.12.2019
5147 Clear 2 1027 40 0 2.26 26 10:20 31.12.2019
5148 Clear 2 1026 45 0 2.26 26 09:58 31.12.2019
5149 Clear 4 1030 41 0 2.26 26 09:39 31.12.2019
5150 Clear 2 1026 49 0 2.26 26 09:20 31.12.2019
5151 Clear 2 1030 43 0 2.26 26 08:57 31.12.2019
5152 Clear 4 1026 42 0 2.26 26 08:37 31.12.2019
5153 Clear 0 1026 43 0 2.44 28 08:19 31.12.2019
5154 Clear 0 1025 45 0 2.44 28 07:42 31.12.2019
5155 Clear 0 1025 52 0 2.44 28 07:20 31.12.2019
5156 Clear 0 1025 45 0 2.44 28 06:49 31.12.2019
5157 Clear 0 1025 46 0 2.44 28 05:57 31.12.2019
5158 Clear 1 1026 44 0 2.68 23 04:28 31.12.2019
5159 Clear 1 1026 42 0 2.68 23 03:27 31.12.2019
5160 Clear 1 1026 42 0 2.68 23 02:49 31.12.2019
5161 Clear 1 1026 43 0 2.74 26 01:55 31.12.2019
5162 Clear 1 1026 44 0 2.74 26 01:34 31.12.2019
5163 Clear 1 1026 47 0 2.69 25 00:58 31.12.2019
5164 Clear 1 1026 46 0 2.69 25 00:39 31.12.2019
5165 Clear 1 1026 43 0 2.69 25 00:21 31.12.2019
5166 Clear 1 1026 41 0 2.69 25 23:56 30.12.2019
5167 Clear 2 1027 39 0 2.69 25 23:37 30.12.2019
5168 Clear 1 1027 40 0 2.76 28 23:19 30.12.2019
5169 Clear 2 1027 43 0 2.76 28 22:56 30.12.2019
5170 Clear 2 1027 43 0 2.76 28 22:56 30.12.2019
5171 Clear 2 1027 39 0 2.76 28 22:37 30.12.2019
5172 Clear 2 1026 43 0 2.76 28 22:18 30.12.2019
5173 Clear 2 1026 40 0 2.76 28 21:55 30.12.2019
5174 Clear 2 1026 40 0 2.76 28 21:37 30.12.2019
5175 Clear 2 1026 43 0 2.76 28 21:18 30.12.2019
5176 Clear 2 1026 44 0 2.76 28 20:55 30.12.2019
5177 Clear 2 1026 44 0 2.76 28 20:55 30.12.2019
5178 Clear 3 1026 40 0 2.76 28 20:37 30.12.2019
5179 Clear 3 1026 39 0 3.11 25 20:18 30.12.2019
5180 Clear 3 1026 38 0 3.11 25 19:55 30.12.2019
5181 Clear 3 1026 43 0 3.11 25 19:36 30.12.2019
5182 Clear 3 1026 42 0 3.11 25 19:18 30.12.2019
5183 Clear 4 1026 39 0 3.11 25 18:42 30.12.2019
5184 Clear 4 1031 65 10000 2.6 240 18:21 30.12.2019
5185 Clear 4 1031 65 10000 2.6 240 17:59 30.12.2019
5186 Clear 5 1031 65 10000 2.6 240 17:41 30.12.2019
5187 Clear 7 1031 65 10000 2.6 240 17:20 30.12.2019
5188 Clear 7 1031 60 10000 2.1 230 16:59 30.12.2019
5189 Clear 8 1031 52 10000 2.1 220 16:40 30.12.2019
5190 Clear 9 1031 52 10000 2.1 220 16:20 30.12.2019
5191 Clear 9 1031 52 10000 1.5 0 15:57 30.12.2019
5192 Clear 9 1031 52 10000 2.1 220 15:38 30.12.2019
5193 Clear 10 1031 52 10000 2.1 220 15:19 30.12.2019
5194 Clear 10 1031 52 10000 2.1 220 15:19 30.12.2019
5195 Clear 9 1031 52 10000 1.5 190 14:54 30.12.2019
5196 Clear 9 1031 60 10000 1.5 190 14:36 30.12.2019
5197 Clear 9 1032 60 10000 1 0 14:18 30.12.2019
5198 Clear 9 1032 65 10000 1 0 13:41 30.12.2019
5199 Clear 9 1032 65 10000 1 0 13:23 30.12.2019
5200 Clear 9 1032 65 10000 1 0 13:23 30.12.2019
5201 Clear 9 1033 64 10000 0.5 0 12:58 30.12.2019
5202 Clear 10 1033 74 10000 0.5 0 12:39 30.12.2019
5203 Clear 9 1033 74 10000 0.5 0 12:19 30.12.2019
5204 Clear 8 1034 80 10000 0.5 0 11:56 30.12.2019
5205 Clear 8 1034 80 10000 0.5 0 11:37 30.12.2019
5206 Clear 3 1034 46 10000 1.93 25 11:18 30.12.2019
5207 Fog 2 1034 92 10000 1 90 10:40 30.12.2019
5208 Fog 2 1034 92 10000 1 90 10:20 30.12.2019
5209 Fog 2 1033 100 10000 0.5 320 09:43 30.12.2019
5210 Fog 1 1033 100 10000 0.5 320 09:21 30.12.2019
5211 Clear 2 1026 62 0 1.93 25 08:57 30.12.2019
5212 Clear 2 1026 36 0 1.93 25 08:38 30.12.2019
5213 Clouds 0 1026 37 0 2.47 26 08:19 30.12.2019
5214 Clouds 0 1026 49 0 2.47 26 07:46 30.12.2019
5215 Clouds 0 1026 63 0 2.47 26 07:23 30.12.2019
5216 Clouds 1 1026 34 0 2.47 26 06:30 30.12.2019
5217 Clouds 0 1026 69 0 3.4 24 04:31 30.12.2019
5218 Clouds 1 1026 62 0 3.4 24 03:47 30.12.2019
5219 Clouds 1 1026 21 0 3.4 24 02:45 30.12.2019
5220 Clouds 1 1026 12 0 3.4 24 02:25 30.12.2019
5221 Clouds 1 1026 15 0 3.52 26 01:27 30.12.2019
5222 Clouds 1 1026 11 0 0.45 10 00:51 30.12.2019
5223 Clouds 1 1026 12 0 3.52 26 00:28 30.12.2019
5224 Clouds 1 1026 10 0 3.52 26 23:40 29.12.2019
5225 Clouds 2 1026 11 0 0.45 42 23:22 29.12.2019
5226 Clouds 2 1026 11 0 0.45 354 22:57 29.12.2019
5227 Clouds 2 1026 12 0 3.74 23 22:38 29.12.2019
5228 Clouds 2 1026 12 0 0.45 239 22:20 29.12.2019
5229 Clouds 2 1026 15 0 3.74 23 21:55 29.12.2019
5230 Clouds 2 1026 12 0 1.34 350 21:36 29.12.2019
5231 Clouds 2 1026 13 0 0.45 13 21:18 29.12.2019
5232 Clouds 2 1026 13 0 3.74 23 20:55 29.12.2019
5233 Clouds 2 1026 14 0 3.74 23 20:36 29.12.2019
5234 Clear 2 1026 13 0 3.74 22 20:18 29.12.2019
5235 Clear 3 1026 15 0 3.74 22 19:40 29.12.2019
5236 Clear 3 1026 16 0 3.74 22 19:22 29.12.2019
5237 Clear 3 1026 40 0 3.74 22 18:59 29.12.2019
5238 Clear 4 1026 21 0 3.74 22 18:40 29.12.2019
5239 Clear 4 1026 23 0 3.74 22 18:21 29.12.2019
5240 Clear 5 1029 61 10000 2.6 240 17:58 29.12.2019
5241 Clear 5 1029 61 10000 2.6 240 17:58 29.12.2019
5242 Clear 5 1029 61 10000 2.6 240 17:39 29.12.2019
5243 Clouds 7 1029 61 10000 2.6 240 17:20 29.12.2019
5244 Clouds 8 1029 61 10000 2.1 220 16:57 29.12.2019
5245 Clouds 8 1029 47 10000 2.1 230 16:39 29.12.2019
5246 Clouds 8 1029 47 10000 2.1 230 16:21 29.12.2019
5247 Clouds 8 1029 52 10000 2.1 220 15:59 29.12.2019
5248 Clouds 9 1030 49 10000 2.1 210 15:39 29.12.2019
5249 Clouds 8 1030 49 10000 2.1 210 15:20 29.12.2019
5250 Clouds 8 1030 49 10000 2.1 210 15:20 29.12.2019
5251 Clouds 8 1030 52 10000 1.5 200 14:58 29.12.2019
5252 Clouds 8 1030 52 10000 1 0 14:39 29.12.2019
5253 Clouds 9 1030 52 10000 1 0 14:18 29.12.2019
5254 Clouds 9 1030 52 10000 0.5 0 13:58 29.12.2019
5255 Clouds 9 1031 60 10000 0.5 0 13:39 29.12.2019
5256 Clouds 8 1031 60 10000 0.5 0 13:21 29.12.2019
5257 Clouds 11 1032 65 10000 2 5 12:56 29.12.2019
5258 Clouds 11 1032 64 10000 0.5 0 12:37 29.12.2019
5259 Clouds 10 1032 64 10000 0.5 0 12:19 29.12.2019
5260 Clouds 10 1033 80 10000 2 5 11:40 29.12.2019
5261 Clear 4 1033 80 10000 3.28 23 11:20 29.12.2019
5262 Fog 3 1033 36 10000 1 0 10:55 29.12.2019
5263 Fog 2 1033 100 10000 1 80 10:37 29.12.2019
5264 Fog 2 1033 100 10000 1 80 10:18 29.12.2019
5265 Fog 2 1033 100 10000 3.28 23 09:43 29.12.2019
5266 Fog 1 1033 100 10000 3.28 23 09:25 29.12.2019
5267 Clear 2 1026 13 0 0.45 4 08:50 29.12.2019
5268 Clear 2 1026 17 0 3.28 23 08:29 29.12.2019
5269 Clouds 0 1029 22 0 2.67 22 07:59 29.12.2019
5270 Clouds 0 1026 21 0 2.67 22 07:32 29.12.2019
5271 Clouds 0 1026 14 0 2.67 22 06:57 29.12.2019
5272 Clouds 1 1029 21 0 2.67 22 06:27 29.12.2019
5273 Clouds 1 1029 22 0 2.67 22 05:54 29.12.2019
5274 Clear 1 1026 16 0 2.9 26 04:42 29.12.2019
5275 Clear 1 1026 12 0 2.9 26 04:21 29.12.2019
5276 Clear 1 1026 12 0 2.9 26 03:21 29.12.2019
5277 Clouds 1 1026 13 0 2.62 27 02:22 29.12.2019
5278 Clouds 2 1026 12 0 2.62 27 01:42 29.12.2019
5279 Clouds 2 1026 17 0 2.97 29 01:22 29.12.2019
5280 Clouds 2 1026 14 0 2.97 29 00:42 29.12.2019
5281 Clouds 2 1026 21 0 2.97 29 00:24 29.12.2019
5282 Clouds 2 1027 27 0 2.97 29 23:45 28.12.2019
5283 Clouds 2 1027 62 0 2.94 25 23:18 28.12.2019
5284 Clouds 3 1026 18 0 2.94 25 22:40 28.12.2019
5285 Clouds 2 1028 49 0 2.94 25 22:21 28.12.2019
5286 Clouds 3 1026 30 0 2.94 25 21:59 28.12.2019
5287 Clouds 3 1026 16 0 2.94 25 21:40 28.12.2019
5288 Clouds 3 1026 16 0 2.94 25 21:40 28.12.2019
5289 Clouds 3 1026 27 0 2.94 25 21:22 28.12.2019
5290 Clouds 3 1026 38 0 2.94 25 20:59 28.12.2019
5291 Clouds 3 1026 40 0 2.94 25 20:38 28.12.2019
5292 Clear 4 1026 35 0 3.32 22 20:20 28.12.2019
5293 Clear 4 1026 32 0 3.32 22 19:58 28.12.2019
5294 Clear 4 1026 32 0 3.32 22 19:58 28.12.2019
5295 Clear 4 1026 31 0 3.32 22 19:39 28.12.2019
5296 Clear 4 1026 62 0 3.32 22 19:21 28.12.2019
5297 Clear 4 1026 50 0 3.32 22 18:58 28.12.2019
5298 Clear 4 1026 58 0 3.32 22 18:40 28.12.2019
5299 Clear 5 1026 59 0 3.32 22 18:19 28.12.2019
5300 Clear 5 1026 37 0 3.32 22 17:55 28.12.2019
5301 Clear 7 1029 50 10000 2.6 230 17:36 28.12.2019
5302 Clear 8 1029 53 10000 3.1 220 17:18 28.12.2019
5303 Clear 10 1028 46 10000 2.6 220 16:46 28.12.2019
5304 Clear 10 1028 46 10000 2.6 220 16:26 28.12.2019
5305 Clear 11 1028 55 10000 2.1 230 15:46 28.12.2019
5306 Clear 11 1028 55 10000 1.5 230 15:24 28.12.2019
5307 Clear 11 1028 43 10000 1.5 200 14:59 28.12.2019
5308 Clear 12 1028 55 10000 1 0 14:39 28.12.2019
5309 Clouds 12 1028 45 10000 1 0 14:20 28.12.2019
5310 Clouds 11 1029 53 10000 2.25 12 13:43 28.12.2019
5311 Clouds 10 1029 53 10000 2.25 12 13:24 28.12.2019
5312 Clouds 10 1030 57 10000 0.5 0 12:59 28.12.2019
5313 Clouds 12 1031 70 10000 1 0 12:41 28.12.2019
5314 Clouds 11 1031 70 10000 1 0 12:23 28.12.2019
5315 Clouds 11 1031 46 10000 0.5 0 11:55 28.12.2019
5316 Clouds 8 1031 75 10000 2.39 14 11:37 28.12.2019
5317 Clouds 5 1031 75 10000 3.39 23 11:18 28.12.2019
5318 Clouds 5 1031 75 10000 3.39 23 11:18 28.12.2019
5319 Clouds 5 1031 44 10000 1 40 10:43 28.12.2019
5320 Clouds 4 1031 44 10000 1 40 10:20 28.12.2019
5321 Clouds 3 1031 86 10000 1 90 09:56 28.12.2019
5322 Clouds 4 1031 44 10000 0.5 10 09:38 28.12.2019
5323 Clouds 3 1031 44 10000 0.5 10 09:18 28.12.2019
5324 Clouds 3 1031 44 10000 0.5 10 09:18 28.12.2019
5325 Clouds 3 1028 42 0 3.39 23 08:43 28.12.2019
5326 Clear 3 1028 40 0 3.33 23 08:25 28.12.2019
5327 Clouds 2 1025 69 0 4.43 20 07:49 28.12.2019
5328 Clouds 2 1024 69 0 4.43 20 07:25 28.12.2019
5329 Clouds 2 1024 61 0 4.43 20 05:52 28.12.2019
5330 Clouds 3 1025 66 0 4.22 20 03:49 28.12.2019
5331 Clouds 2 1024 62 0 1.34 18 02:52 28.12.2019
5332 Clouds 3 1024 65 0 1.79 25 02:31 28.12.2019
5333 Clouds 2 1024 68 0 2.24 13 01:56 28.12.2019
5334 Clouds 2 1024 68 0 2.24 6 01:56 28.12.2019
5335 Clouds 2 1025 71 0 1.79 42 01:24 28.12.2019
5336 Clouds 2 1025 74 0 2.68 32 00:51 28.12.2019
5337 Clouds 3 1025 73 0 2.24 52 00:32 28.12.2019
5338 Clouds 3 1025 77 0 1.79 356 23:59 27.12.2019
5339 Clouds 3 1025 78 0 1.79 10 23:39 27.12.2019
5340 Clear 3 1025 78 0 1.34 34 23:19 27.12.2019
5341 Clear 4 1025 78 0 1.79 27 22:57 27.12.2019
5342 Clear 4 1029 59 0 4.26 16 22:38 27.12.2019
5343 Clear 4 1029 59 0 4.26 16 22:38 27.12.2019
5344 Clear 4 1029 60 0 4.26 16 22:19 27.12.2019
5345 Clear 4 1025 71 0 2.68 357 21:43 27.12.2019
5346 Clear 4 1025 75 0 1.79 305 21:43 27.12.2019
5347 Clear 4 1024 74 0 2.24 53 21:25 27.12.2019
5348 Clear 4 1024 79 0 2.68 20 20:58 27.12.2019
5349 Clear 4 1024 78 0 1.34 343 20:40 27.12.2019
5350 Clear 5 1024 81 0 1.34 318 20:21 27.12.2019
5351 Clear 5 1024 82 0 2.24 65 19:41 27.12.2019
5352 Clear 5 1024 81 0 3.13 21 19:20 27.12.2019
5353 Clear 4 1024 82 0 2.68 49 18:57 27.12.2019
5354 Clear 4 1024 83 0 2.68 42 18:37 27.12.2019
5355 Clear 5 1028 64 10000 0.5 0 18:19 27.12.2019
5356 Clear 5 1028 64 10000 0.5 0 17:55 27.12.2019
5357 Clear 5 1028 64 10000 0.5 0 17:37 27.12.2019
5358 Clear 8 1028 53 10000 1 0 17:18 27.12.2019
5359 Clear 8 1027 53 10000 1 0 16:43 27.12.2019
5360 Clear 9 1027 53 10000 1 0 16:23 27.12.2019
5361 Clear 10 1027 46 10000 0.5 0 15:58 27.12.2019
5362 Clear 9 1027 54 10000 0.5 0 15:37 27.12.2019
5363 Clear 9 1027 54 10000 0.5 0 15:37 27.12.2019
5364 Clear 9 1027 54 10000 0.5 0 15:19 27.12.2019
5365 Clear 9 1028 54 10000 0.5 0 14:56 27.12.2019
5366 Clear 9 1028 54 10000 1 0 14:38 27.12.2019
5367 Clouds 9 1028 44 10000 1 0 14:19 27.12.2019
5368 Clouds 8 1029 44 10000 0.5 0 14:19 27.12.2019
5369 Clouds 8 1029 44 10000 0.5 0 13:46 27.12.2019
5370 Clouds 8 1030 42 10000 2.97 4 13:23 27.12.2019
5371 Clouds 10 1030 74 10000 1.5 10 12:49 27.12.2019
5372 Clouds 10 1031 69 10000 1 0 12:29 27.12.2019
5373 Clouds 8 1031 69 10000 1.5 0 11:59 27.12.2019
5374 Clouds 8 1031 74 10000 2.97 4 11:41 27.12.2019
5375 Clouds 3 1031 74 10000 3.66 17 11:20 27.12.2019
5376 Clouds 3 1031 40 10000 1.5 50 10:47 27.12.2019
5377 Clouds 2 1031 40 10000 1.5 50 10:24 27.12.2019
5378 Clouds 3 1031 40 10000 0.5 0 09:57 27.12.2019
5379 Clouds 3 1030 40 10000 1.5 80 09:38 27.12.2019
5380 Clouds 2 1030 40 10000 1.5 80 09:20 27.12.2019
5381 Clouds 2 1023 25 0 0.89 56 08:46 27.12.2019
5382 Clouds 2 1029 28 0 3.61 16 08:27 27.12.2019
5383 Clear 1 1023 30 0 0.45 156 07:41 27.12.2019
5384 Clear 2 1023 24 0 0.45 11 07:22 27.12.2019
5385 Clear 1 1029 32 0 3.46 23 06:27 27.12.2019
5386 Clear 2 1029 35 0 2.71 16 04:40 27.12.2019
5387 Clear 3 1029 38 0 2.71 16 02:29 27.12.2019
5388 Clear 4 1029 40 0 1.24 22 01:45 27.12.2019
5389 Clear 4 1024 34 0 1.37 18 01:23 27.12.2019
5390 Clear 4 1029 37 0 1.37 18 00:47 27.12.2019
5391 Clear 5 1024 43 0 1.37 18 00:27 27.12.2019
5392 Clear 4 1024 38 0 1.37 18 23:56 26.12.2019
5393 Clear 4 1024 44 0 1.37 18 23:38 26.12.2019
5394 Clear 5 1024 85 0 2.78 29 23:19 26.12.2019
5395 Clear 5 1024 39 0 2.78 29 22:40 26.12.2019
5396 Clear 5 1024 61 0 2.78 29 22:18 26.12.2019
5397 Clear 6 1024 22 0 0.45 4 21:40 26.12.2019
5398 Clear 6 1023 19 0 1.79 17 21:21 26.12.2019
5399 Clear 6 1023 19 0 1.79 28 20:58 26.12.2019
5400 Clear 7 1023 16 0 1.34 48 20:38 26.12.2019
5401 Clear 7 1023 18 0 0.45 23 20:38 26.12.2019
5402 Clouds 7 1023 18 0 1.79 20 20:20 26.12.2019
5403 Clouds 7 1023 19 0 3.51 18 19:55 26.12.2019
5404 Clouds 7 1023 17 0 1.34 339 19:37 26.12.2019
5405 Clouds 7 1023 21 0 1.34 6 19:19 26.12.2019
5406 Clouds 7 1023 18 0 1.34 18 19:19 26.12.2019
5407 Clouds 7 1027 69 0 3.51 18 18:55 26.12.2019
5408 Clouds 8 1023 24 0 3.51 18 18:36 26.12.2019
5409 Clouds 9 1026 66 10000 0.5 0 18:18 26.12.2019
5410 Clouds 10 1026 66 10000 0.5 0 17:41 26.12.2019
5411 Clouds 10 1026 66 10000 0.5 0 17:21 26.12.2019
5412 Clouds 10 1026 66 10000 0.5 0 17:21 26.12.2019
5413 Clouds 11 1026 58 10000 0.5 0 16:49 26.12.2019
5414 Clouds 11 1026 58 10000 0.5 0 16:26 26.12.2019
5415 Clouds 11 1026 54 10000 1.5 60 15:57 26.12.2019
5416 Clouds 12 1025 58 10000 1.5 340 15:38 26.12.2019
5417 Clouds 12 1025 58 10000 1.5 340 15:19 26.12.2019
5418 Clouds 12 1026 62 10000 0.5 0 14:41 26.12.2019
5419 Clouds 12 1026 62 10000 0.5 0 14:23 26.12.2019
5420 Clouds 12 1026 62 10000 0.5 0 14:23 26.12.2019
5421 Clouds 12 1026 66 10000 1 0 13:46 26.12.2019
5422 Clouds 11 1026 70 10000 1 0 13:26 26.12.2019
5423 Clouds 11 1027 76 10000 0.5 0 12:59 26.12.2019
5424 Clouds 11 1027 76 10000 0.5 0 12:59 26.12.2019
5425 Clouds 11 1027 70 10000 1 0 12:41 26.12.2019
5426 Clouds 10 1027 86 10000 1.5 20 12:23 26.12.2019
5427 Clouds 10 1027 86 10000 1.5 20 11:58 26.12.2019
5428 Clouds 9 1027 93 10000 1 0 11:40 26.12.2019
5429 Clouds 8 1027 93 10000 1 0 11:21 26.12.2019
5430 Clouds 7 1026 93 10000 4.67 13 10:49 26.12.2019
5431 Clouds 7 1026 100 10000 1.5 20 10:24 26.12.2019
5432 -273 0 0 0 0 0 09:54 26.12.2019
5433 Fog 6 1025 100 10000 1 0 09:33 26.12.2019
5434 Clouds 6 1024 53 0 1.34 204 08:58 26.12.2019
5435 Clouds 7 1023 52 0 0.45 149 08:38 26.12.2019
5436 Clouds 4 1020 65 0 0.89 6 08:20 26.12.2019
5437 Clouds 4 1020 59 0 0.89 49 07:31 26.12.2019
5438 Clouds 5 1019 58 0 0.89 132 06:57 26.12.2019
5439 Clouds 5 1023 52 0 4.76 21 06:34 26.12.2019
5440 Clouds 4 1019 53 0 2.24 356 05:57 26.12.2019
5441 Clouds 4 1019 50 0 1.79 39 05:38 26.12.2019
5442 Clouds 5 1022 56 0 2.67 21 04:32 26.12.2019
5443 Clouds 5 1019 42 0 0.45 359 03:20 26.12.2019
5444 Clouds 4 1023 55 0 2.67 21 02:40 26.12.2019
5445 Clouds 4 1019 75 0 1.82 19 02:20 26.12.2019
5446 Clouds 4 1019 75 0 1.82 19 01:42 26.12.2019
5447 Clouds 4 1019 60 0 1.99 23 01:24 26.12.2019
5448 Clouds 5 1023 53 0 1.99 23 00:42 26.12.2019
5449 Clouds 5 1019 53 0 1.79 210 00:22 26.12.2019
5450 Clouds 5 1019 48 0 1.34 217 23:56 25.12.2019
5451 Clouds 5 1019 60 0 1.79 211 23:36 25.12.2019
5452 Clouds 5 1020 56 0 0.89 238 23:18 25.12.2019
5453 Clouds 5 1020 58 0 2.24 20 22:55 25.12.2019
5454 Clouds 5 1020 58 0 2.24 20 22:55 25.12.2019
5455 Clouds 5 1020 87 0 2.24 20 22:36 25.12.2019
5456 Clouds 4 1024 92 0 2.24 20 22:18 25.12.2019
5457 Clouds 5 1020 76 0 2.24 20 21:40 25.12.2019
5458 Clouds 6 1020 59 0 2.24 20 21:22 25.12.2019
5459 Clouds 6 1020 64 0 2.24 20 20:58 25.12.2019
5460 Clouds 6 1020 65 0 2.24 20 20:40 25.12.2019
5461 Clouds 6 1020 53 0 2.86 24 20:18 25.12.2019
5462 Clouds 7 1020 50 0 0.45 343 19:44 25.12.2019
5463 Clouds 7 1020 47 0 1.34 3 19:25 25.12.2019
5464 Clouds 7 1020 46 0 2.86 24 18:59 25.12.2019
5465 Clouds 8 1020 45 0 0.89 315 18:38 25.12.2019
5466 Clouds 7 1020 45 0 0.89 24 18:38 25.12.2019
5467 Clouds 8 1020 44 0 0.89 342 18:19 25.12.2019
5468 Clouds 8 1020 41 0 0.45 6 17:43 25.12.2019
5469 Clouds 10 1020 41 0 2.09 12 17:20 25.12.2019
5470 Clouds 11 1023 40 0 2.09 12 16:59 25.12.2019
5471 Clouds 11 1023 43 0 2.09 12 16:39 25.12.2019
5472 Clouds 12 1023 40 0 2.09 12 16:19 25.12.2019
5473 Clouds 13 1023 38 0 2.09 12 15:57 25.12.2019
5474 Clouds 14 1023 40 0 2.09 12 15:39 25.12.2019
5475 Clouds 14 1023 41 0 2.09 12 15:20 25.12.2019
5476 Clouds 14 1023 46 0 2.09 12 14:58 25.12.2019
5477 Clouds 14 1023 41 0 2.09 12 14:39 25.12.2019
5478 Clouds 14 1023 41 0 2.09 12 14:39 25.12.2019
5479 Clouds 14 1023 41 0 2.09 12 14:39 25.12.2019
5480 Clouds 13 1023 45 0 0.91 338 14:20 25.12.2019
5481 Clouds 14 1023 41 0 0.91 338 13:45 25.12.2019
5482 Clouds 13 1024 45 0 0.81 333 13:22 25.12.2019
5483 Clouds 13 1024 47 0 0.81 333 12:58 25.12.2019
5484 Clouds 13 1025 54 0 0.81 333 12:38 25.12.2019
5485 Clouds 13 1025 55 0 0.81 333 12:20 25.12.2019
5486 Clouds 12 1025 53 0 0.81 333 11:43 25.12.2019
5487 Clouds 7 1022 84 0 0.81 333 11:22 25.12.2019
5488 Clouds 7 1026 59 0 2.27 25 10:59 25.12.2019
5489 Clouds 6 1022 49 0 2.27 25 10:37 25.12.2019
5490 Clouds 6 1025 73 0 2.27 25 10:19 25.12.2019
5491 Clouds 5 1022 51 0 2.27 25 09:44 25.12.2019
5492 Clouds 5 1025 74 0 2.27 25 09:26 25.12.2019
5493 Clouds 4 1025 77 0 2.27 25 08:46 25.12.2019
5494 Clouds 4 1021 89 0 0.45 321 08:26 25.12.2019
5495 Clear 4 1024 80 0 3.47 25 07:45 25.12.2019
5496 Clear 4 1024 80 0 3.47 25 07:23 25.12.2019
5497 Clear 4 1024 81 0 3.47 25 06:47 25.12.2019
5498 Clear 4 1021 79 0 3.47 25 06:22 25.12.2019
5499 Clouds 4 1021 88 0 0.89 8 04:49 25.12.2019
5500 Clouds 4 1025 83 0 3.26 20 04:25 25.12.2019
5501 Clouds 4 1021 89 0 0.89 60 03:58 25.12.2019
5502 Clouds 4 1021 84 0 0.45 288 03:39 25.12.2019
5503 Clouds 5 1021 89 0 2.24 195 02:32 25.12.2019
5504 Clouds 4 1022 92 0 2.27 25 01:55 25.12.2019
5505 Clouds 5 1026 80 0 2.27 25 01:24 25.12.2019
5506 Clouds 4 1026 79 0 2.26 27 00:46 25.12.2019
5507 Clouds 4 1026 80 0 2.26 27 00:27 25.12.2019
5508 Clouds 4 1022 93 0 2.26 27 23:55 24.12.2019
5509 Clouds 4 1022 91 0 2.26 27 23:36 24.12.2019
5510 Clouds 5 1022 90 0 2.72 23 23:18 24.12.2019
5511 Clouds 4 1022 92 0 2.72 23 22:38 24.12.2019
5512 Clouds 4 1022 92 0 2.72 23 22:20 24.12.2019
5513 Clouds 6 1022 92 0 2.72 23 22:20 24.12.2019
5514 Clouds 5 1022 93 0 2.72 23 21:42 24.12.2019
5515 Clouds 5 1022 92 0 2.72 23 21:22 24.12.2019
5516 Clouds 5 1023 91 0 2.72 23 20:45 24.12.2019
5517 Clouds 6 1023 88 0 0.45 39 20:24 24.12.2019
5518 Clouds 7 1026 72 0 3.32 24 19:57 24.12.2019
5519 Clouds 7 1022 87 0 3.32 24 19:38 24.12.2019
5520 Clouds 7 1022 89 0 3.32 24 19:18 24.12.2019
5521 Clouds 6 1022 87 0 0.45 13 18:42 24.12.2019
5522 Clouds 7 1022 88 0 3.32 24 18:19 24.12.2019
5523 Clouds 7 1022 87 0 1.34 34 17:45 24.12.2019
5524 Clouds 10 1022 86 0 0.45 359 17:23 24.12.2019
5525 Clouds 11 1025 62 0 2.74 15 16:59 24.12.2019
5526 Clouds 11 1025 62 0 2.74 15 16:59 24.12.2019
5527 Clouds 12 1022 84 0 0.89 18 16:40 24.12.2019
5528 Clouds 13 1025 53 0 2.74 15 16:22 24.12.2019
5529 Clouds 13 1025 52 0 2.74 15 15:58 24.12.2019
5530 Clouds 13 1025 52 0 2.74 15 15:38 24.12.2019
5531 Clouds 13 1025 54 0 2.74 15 15:20 24.12.2019
5532 Clouds 13 1025 51 0 2.74 15 14:58 24.12.2019
5533 Clouds 12 1025 52 0 2.74 15 14:40 24.12.2019
5534 Clouds 13 1025 55 0 1.74 9 14:22 24.12.2019
5535 Clouds 12 1025 53 0 1.74 9 13:56 24.12.2019
5536 Clouds 12 1025 53 0 1.74 9 13:38 24.12.2019
5537 Clouds 13 1025 53 0 1.42 10 13:20 24.12.2019
5538 Clouds 12 1026 52 0 1.42 10 12:57 24.12.2019
5539 Clouds 13 1026 54 0 1.42 10 12:38 24.12.2019
5540 Clouds 12 1026 53 0 1.42 10 12:19 24.12.2019
5541 Clouds 12 1026 57 0 1.42 10 11:57 24.12.2019
5542 Clouds 12 1024 52 0 0.45 337 11:37 24.12.2019
5543 Clouds 6 1022 83 0 0.45 20 11:19 24.12.2019
5544 Clouds 5 1022 80 0 1.34 45 10:56 24.12.2019
5545 Clouds 5 1022 84 0 0.45 55 10:38 24.12.2019
5546 Clouds 4 1022 87 0 3.03 20 10:19 24.12.2019
5547 Clouds 4 1027 69 0 0.45 156 10:19 24.12.2019
5548 Clouds 4 1027 69 0 0.89 131 09:55 24.12.2019
5549 Clouds 6 1022 89 0 0.89 44 09:37 24.12.2019
5550 Clouds 4 1022 90 0 1.34 59 09:19 24.12.2019
5551 Clouds 6 1026 70 0 3.03 20 08:46 24.12.2019
5552 Clouds 3 1020 94 0 1.34 6 08:24 24.12.2019
5553 Clouds 4 1020 83 0 1.34 24 07:46 24.12.2019
5554 Clouds 4 1026 73 0 3.23 23 07:27 24.12.2019
5555 Clouds 3 1019 87 0 0.45 330 06:59 24.12.2019
5556 Clouds 3 1020 88 0 3.23 23 06:39 24.12.2019
5557 Clouds 3 1020 89 0 0.45 359 06:19 24.12.2019
5558 Clouds 3 1020 88 0 3.23 23 05:46 24.12.2019
5559 Clouds 2 1020 89 0 0.45 20 05:18 24.12.2019
5560 Clouds 3 1019 91 0 0.89 23 03:55 24.12.2019
5561 Clouds 3 1020 93 0 0.45 186 03:25 24.12.2019
5562 Clouds 4 1019 96 0 0.89 7 02:25 24.12.2019
5563 Clouds 4 1019 96 0 0.89 7 02:25 24.12.2019
5564 Clouds 4 1019 89 0 0.45 359 01:51 24.12.2019
5565 Clouds 4 1019 85 0 2.24 39 01:23 24.12.2019
5566 Clouds 4 1020 85 0 4.92 4 00:46 24.12.2019
5567 Clouds 4 1020 86 0 4.02 90 00:26 24.12.2019
5568 Clouds 4 1020 86 0 3.13 48 23:59 23.12.2019
5569 Clouds 4 1020 86 0 3.13 48 23:59 23.12.2019
5570 Clouds 4 1019 85 0 2.68 18 23:41 23.12.2019
5571 Clouds 4 1019 87 0 2.68 21 23:23 23.12.2019
5572 Clouds 4 1026 76 0 3.09 5 22:56 23.12.2019
5573 Clouds 4 1019 89 0 3.58 14 22:37 23.12.2019
5574 Clouds 4 1019 92 0 4.02 300 22:19 23.12.2019
5575 Clouds 4 1019 92 0 1.34 339 21:55 23.12.2019
5576 Clouds 4 1019 94 0 0.89 0 21:36 23.12.2019
5577 Clouds 5 1018 93 0 1.79 359 21:18 23.12.2019
5578 Clouds 5 1018 95 0 1.79 359 20:57 23.12.2019
5579 Clouds 5 1019 94 0 2.24 37 20:39 23.12.2019
5580 Clouds 5 1018 93 0 2.68 0 20:18 23.12.2019
5581 Clouds 5 1017 91 0 3.13 359 19:55 23.12.2019
5582 Clouds 5 1017 91 0 4.02 8 19:37 23.12.2019
5583 Clouds 5 1017 89 0 2.24 329 19:19 23.12.2019
5584 Clouds 6 1017 86 0 1.79 60 18:55 23.12.2019
5585 Clouds 5 1017 84 0 2.68 38 18:37 23.12.2019
5586 Clouds 6 1022 50 10000 4.6 220 18:19 23.12.2019
5587 Clouds 6 1024 67 0 2.86 1 17:55 23.12.2019
5588 Clouds 6 1024 67 0 2.86 1 17:55 23.12.2019
5589 Clouds 6 1022 50 10000 4.6 220 17:37 23.12.2019
5590 Clouds 8 1021 77 10000 4.6 220 17:18 23.12.2019
5591 Clouds 9 1021 35 10000 5.1 230 16:42 23.12.2019
5592 Clouds 9 1021 35 10000 5.1 230 16:19 23.12.2019
5593 Clouds 10 1021 28 10000 4.6 230 15:59 23.12.2019
5594 Clouds 10 1021 26 10000 2.6 0 15:38 23.12.2019
5595 Clouds 11 1021 26 10000 2.6 0 15:20 23.12.2019
5596 Clouds 10 1021 46 10000 2.6 210 14:58 23.12.2019
5597 Clouds 10 1021 77 10000 1 0 14:39 23.12.2019
5598 Clouds 10 1021 72 10000 1 0 14:21 23.12.2019
5599 Clouds 10 1021 72 10000 1 0 13:58 23.12.2019
5600 Clouds 10 1022 49 10000 1.5 0 13:40 23.12.2019
5601 Clouds 10 1022 49 10000 1.5 0 13:22 23.12.2019
5602 Clouds 9 1023 52 10000 1 0 12:56 23.12.2019
5603 Clouds 8 1023 72 10000 1 0 12:37 23.12.2019
5604 Clouds 8 1023 72 10000 1 0 12:19 23.12.2019
5605 Clouds 7 1023 72 10000 3.34 357 11:44 23.12.2019
5606 Clouds 7 1023 72 10000 3.34 357 11:25 23.12.2019
5607 Clouds 6 1022 85 10000 1 0 10:57 23.12.2019
5608 Clouds 5 1022 85 10000 1.5 50 10:39 23.12.2019
5609 Clouds 5 1022 85 10000 1.5 50 10:20 23.12.2019
5610 Clouds 4 1022 74 10000 0.5 0 09:59 23.12.2019
5611 Clouds 4 1022 86 10000 1 0 09:39 23.12.2019
5612 Clouds 2 1022 86 10000 1 0 09:20 23.12.2019
5613 Clouds 3 1013 88 0 3.13 359 08:55 23.12.2019
5614 Clouds 3 1013 88 0 2.24 18 08:37 23.12.2019
5615 Clouds 3 1013 88 0 2.68 17 08:18 23.12.2019
5616 Clouds 3 1022 74 0 4.31 8 07:43 23.12.2019
5617 Clouds 3 1012 92 0 2.68 14 07:20 23.12.2019
5618 Clouds 4 1021 71 0 4.31 8 06:50 23.12.2019
5619 Clouds 3 1021 72 0 4.31 8 06:23 23.12.2019
5620 Clouds 4 1020 72 0 4.31 8 05:49 23.12.2019
5621 Snow 4 1020 69 0 3.46 359 05:19 23.12.2019
5622 Snow 4 1019 75 0 3.46 359 04:19 23.12.2019
5623 Snow 4 1017 72 0 3.46 359 02:49 23.12.2019
5624 Snow 4 1017 73 0 3.46 359 02:25 23.12.2019
5625 Snow 4 1017 91 0 2.75 342 01:53 23.12.2019
5626 Snow 4 1017 92 0 2.75 342 01:32 23.12.2019
5627 Snow 5 1016 91 0 2.93 347 00:55 23.12.2019
5628 Snow 5 1016 90 0 2.93 347 00:35 23.12.2019
5629 Snow 5 1015 91 0 0.89 218 23:57 22.12.2019
5630 Snow 5 1015 92 0 2.93 347 23:39 22.12.2019
5631 Snow 5 1014 92 0 2.43 338 23:20 22.12.2019
5632 Snow 5 1014 91 0 2.43 338 22:57 22.12.2019
5633 Snow 5 1014 91 0 2.43 338 22:38 22.12.2019
5634 Snow 5 1014 91 0 2.43 338 22:38 22.12.2019
5635 Snow 5 1013 90 0 2.43 338 22:19 22.12.2019
5636 Snow 5 1013 89 0 2.43 338 21:56 22.12.2019
5637 Snow 6 1012 87 0 2.43 338 21:38 22.12.2019
5638 Snow 6 1012 87 0 2.43 338 21:38 22.12.2019
5639 Snow 7 1012 86 0 2.43 338 21:20 22.12.2019
5640 Snow 6 1011 84 0 2.43 338 20:43 22.12.2019
5641 Snow 6 1011 85 0 1.65 312 20:19 22.12.2019
5642 Snow 6 1011 85 0 0.45 270 19:58 22.12.2019
5643 Snow 6 1011 93 0 1.65 312 19:39 22.12.2019
5644 Snow 6 1010 93 0 1.65 312 19:20 22.12.2019
5645 Snow 7 1009 92 0 1.65 312 18:55 22.12.2019
5646 Snow 7 1009 91 0 1.65 312 18:37 22.12.2019
5647 Clouds 7 1008 87 10000 3.6 230 18:18 22.12.2019
5648 Clouds 7 1008 87 10000 3.6 230 17:54 22.12.2019
5649 Clouds 8 1008 87 10000 3.6 230 17:36 22.12.2019
5650 Rain 8 1008 81 10000 4.6 230 17:18 22.12.2019
5651 Rain 9 1007 75 10000 4.1 230 16:42 22.12.2019
5652 Rain 9 1007 75 10000 4.1 230 16:42 22.12.2019
5653 Rain 9 1007 75 10000 4.1 230 16:23 22.12.2019
5654 Rain 10 1007 57 10000 6.2 220 15:57 22.12.2019
5655 Clouds 9 1007 50 10000 5.1 220 15:39 22.12.2019
5656 Clouds 11 1007 50 10000 5.1 220 15:21 22.12.2019
5657 Clouds 11 1007 50 10000 5.1 230 14:56 22.12.2019
5658 Clouds 11 1008 46 10000 5.7 220 14:38 22.12.2019
5659 Clouds 11 1007 46 10000 5.1 210 14:19 22.12.2019
5660 Clouds 11 1007 46 10000 5.1 210 14:19 22.12.2019
5661 Clouds 11 1007 46 10000 5.1 210 13:56 22.12.2019
5662 Clouds 11 1007 53 10000 5.1 200 13:38 22.12.2019
5663 Clouds 11 1008 84 10000 5.1 230 13:19 22.12.2019
5664 Clouds 11 1008 84 10000 5.1 230 13:19 22.12.2019
5665 Clouds 10 1008 84 10000 5.1 230 12:56 22.12.2019
5666 Clouds 10 1009 61 10000 5.1 200 12:38 22.12.2019
5667 Clouds 10 1009 61 10000 5.1 200 12:19 22.12.2019
5668 Clouds 9 1008 66 10000 3.6 210 11:56 22.12.2019
5669 Clouds 9 1008 66 10000 3.6 210 11:56 22.12.2019
5670 Clouds 9 1008 61 10000 4.1 230 11:38 22.12.2019
5671 Clouds 9 1008 61 10000 4.1 230 11:19 22.12.2019
5672 Clouds 7 1008 75 10000 3.6 220 10:55 22.12.2019
5673 Clouds 7 1007 81 10000 3.6 220 10:37 22.12.2019
5674 Clouds 6 1007 81 10000 3.6 220 10:18 22.12.2019
5675 Clouds 6 1006 81 10000 2.6 220 09:57 22.12.2019
5676 Clouds 6 1006 65 10000 2.6 260 09:38 22.12.2019
5677 Clouds 6 1006 65 10000 2.6 260 09:20 22.12.2019
5678 Snow 5 1006 88 0 2.89 290 08:42 22.12.2019
5679 Snow 6 1005 89 0 1.99 321 08:21 22.12.2019
5680 Snow 6 1004 87 0 1.99 321 07:40 22.12.2019
5681 Snow 6 1004 82 0 0.45 308 07:21 22.12.2019
5682 Snow 7 1003 86 0 1.99 321 06:42 22.12.2019
5683 Snow 7 1002 91 0 1.99 321 06:21 22.12.2019
5684 Snow 7 1001 94 0 1.99 321 05:29 22.12.2019
5685 Snow 7 1000 94 0 2.25 287 04:45 22.12.2019
5686 Snow 7 999 93 0 2.25 287 04:22 22.12.2019
5687 Snow 7 1000 94 0 2.25 287 02:43 22.12.2019
5688 Snow 7 1000 94 0 2.25 287 02:43 22.12.2019
5689 Snow 7 997 90 0 2.31 255 01:57 22.12.2019
5690 Snow 7 997 89 0 2.31 255 01:31 22.12.2019
5691 Snow 6 989 95 0 1.79 195 00:48 22.12.2019
5692 Snow 7 996 72 0 5.81 225 00:26 22.12.2019
5693 Snow 7 997 94 0 3.34 239 23:57 21.12.2019
5694 Snow 7 993 75 0 55.88 0 23:38 21.12.2019
5695 Snow 8 996 76 0 1.34 192 23:19 21.12.2019
5696 Snow 9 996 76 0 0.45 155 22:45 21.12.2019
5697 Snow 9 995 88 0 4.37 248 22:20 21.12.2019
5698 Snow 8 995 91 0 4.37 248 21:57 21.12.2019
5699 Snow 7 988 96 0 3.13 353 21:38 21.12.2019
5700 Snow 7 987 96 0 2.68 3 21:20 21.12.2019
5701 Snow 7 987 95 0 3.13 211 20:59 21.12.2019
5702 Snow 9 997 92 0 4.37 248 20:39 21.12.2019
5703 Rain 9 994 91 0 0.89 334 20:21 21.12.2019
5704 Rain 8 993 90 0 0.45 95 19:58 21.12.2019
5705 Rain 9 994 86 0 0.45 74 19:40 21.12.2019
5706 Rain 9 994 86 0 0.45 74 19:40 21.12.2019
5707 Rain 9 995 84 0 6.8 234 19:19 21.12.2019
5708 Rain 9 995 73 0 1.34 291 18:45 21.12.2019
5709 Rain 8 999 100 550 1.5 200 18:24 21.12.2019
5710 Rain 9 999 100 550 1.5 200 17:58 21.12.2019
5711 Rain 9 999 100 550 1.5 200 17:39 21.12.2019
5712 Rain 10 999 100 550 1.5 200 17:21 21.12.2019
5713 Rain 10 999 100 700 1.5 0 16:59 21.12.2019
5714 Rain 9 999 100 10000 1 0 16:41 21.12.2019
5715 Rain 9 999 100 10000 1 0 16:19 21.12.2019
5716 Clouds 10 1000 100 10000 1 0 15:57 21.12.2019
5717 Rain 9 1001 100 8000 2.6 210 15:38 21.12.2019
5718 Rain 9 1001 100 8000 2.6 210 15:19 21.12.2019
5719 Rain 9 1001 100 1800 1.5 190 14:55 21.12.2019
5720 Rain 9 1001 100 10000 1 0 14:37 21.12.2019
5721 Rain 9 1001 100 10000 3.62 209 14:18 21.12.2019
5722 Rain 9 1001 100 10000 3.62 209 13:54 21.12.2019
5723 Clouds 11 1002 100 10000 0.5 0 13:36 21.12.2019
5724 Fog 11 1002 100 10000 1 0 13:18 21.12.2019
5725 Fog 11 1002 100 10000 1 0 12:54 21.12.2019
5726 Fog 11 1002 100 10000 0.5 0 12:36 21.12.2019
5727 Fog 11 1002 100 10000 0.5 0 12:36 21.12.2019
5728 Fog 10 1002 100 10000 0.5 0 12:18 21.12.2019
5729 Fog 10 1003 100 200 0.5 0 11:41 21.12.2019
5730 Fog 10 1003 100 200 0.5 0 11:41 21.12.2019
5731 Fog 8 1003 100 200 0.5 0 11:23 21.12.2019
5732 Fog 6 1003 100 10000 1.5 350 10:42 21.12.2019
5733 Fog 5 1003 100 10000 1.5 350 10:23 21.12.2019
5734 Fog 5 1003 100 10000 1.5 350 10:23 21.12.2019
5735 Fog 6 1003 100 10000 1.5 20 09:59 21.12.2019
5736 Fog 5 1003 100 10000 2.6 30 09:41 21.12.2019
5737 Fog 5 1003 100 10000 2.6 30 09:20 21.12.2019
5738 Clouds 5 994 95 0 2.68 205 08:55 21.12.2019
5739 Clouds 4 994 95 0 2.13 215 08:36 21.12.2019
5740 Snow 5 1001 95 0 2.32 213 08:18 21.12.2019
5741 Snow 5 1001 94 0 2.32 213 07:41 21.12.2019
5742 Snow 5 993 95 0 1.79 212 07:21 21.12.2019
5743 Snow 5 1000 95 0 2.32 213 06:42 21.12.2019
5744 Snow 6 992 96 0 2.32 213 06:24 21.12.2019
5745 Snow 6 999 96 0 2.32 213 05:45 21.12.2019
5746 Snow 6 999 96 0 1.51 283 04:56 21.12.2019
5747 Snow 6 998 96 0 1.51 283 03:56 21.12.2019
5748 Snow 6 990 95 0 0.45 225 02:39 21.12.2019
5749 Rain 7 996 95 0 0.45 156 01:53 21.12.2019
5750 Rain 7 996 95 0 1.72 211 01:26 21.12.2019
5751 Rain 7 996 95 0 1.72 211 00:49 21.12.2019
5752 Rain 7 996 95 0 1.72 211 00:28 21.12.2019
5753 Rain 7 995 95 0 1.72 211 23:40 20.12.2019
5754 Rain 7 995 95 0 1.72 211 23:40 20.12.2019
5755 Snow 7 995 95 0 2.78 194 23:21 20.12.2019
5756 Snow 7 994 95 0 2.78 194 22:59 20.12.2019
5757 Snow 7 995 95 0 2.78 194 22:39 20.12.2019
5758 Snow 7 995 94 0 2.78 194 22:19 20.12.2019
5759 Snow 7 995 94 0 0.45 276 21:54 20.12.2019
5760 Snow 7 996 94 0 2.78 194 21:36 20.12.2019
5761 Snow 7 996 94 0 2.78 194 21:18 20.12.2019
5762 Snow 7 996 94 0 2.78 194 21:18 20.12.2019
5763 Snow 7 996 94 0 2.78 194 21:18 20.12.2019
5764 Rain 7 997 92 0 3.4 187 20:38 20.12.2019
5765 Rain 7 997 90 0 3.42 187 20:19 20.12.2019
5766 Rain 7 997 87 0 1.34 144 19:56 20.12.2019
5767 Rain 7 997 86 0 1.34 134 19:38 20.12.2019
5768 Rain 7 997 86 0 1.34 105 19:19 20.12.2019
5769 Rain 8 997 83 0 2.68 111 18:41 20.12.2019
5770 Clouds 8 1000 61 10000 1.5 300 18:23 20.12.2019
5771 Clouds 9 1000 61 10000 1.5 300 17:58 20.12.2019
5772 Clouds 9 1000 61 10000 1.5 300 17:39 20.12.2019
5773 Clouds 9 1000 61 10000 1.5 300 17:20 20.12.2019
5774 Clouds 10 1000 53 10000 2.6 240 16:57 20.12.2019
5775 Clouds 10 1000 53 10000 2.6 240 16:38 20.12.2019
5776 Clouds 10 1000 53 10000 2.6 240 16:38 20.12.2019
5777 Clouds 10 1000 53 10000 2.6 240 16:38 20.12.2019
5778 Clouds 10 1000 50 10000 4.6 200 16:19 20.12.2019
5779 Clouds 11 1000 50 10000 4.1 210 15:54 20.12.2019
5780 Clouds 11 999 54 10000 3.6 230 15:36 20.12.2019
5781 Clouds 11 999 54 10000 3.6 230 15:18 20.12.2019
5782 Clouds 11 999 50 10000 7.2 250 14:42 20.12.2019
5783 Clouds 10 999 58 10000 5.1 240 14:24 20.12.2019
5784 Clouds 10 999 66 10000 2.1 0 13:57 20.12.2019
5785 Clouds 10 999 81 10000 3.6 190 13:37 20.12.2019
5786 Clouds 10 999 81 10000 3.6 190 13:18 20.12.2019
5787 Clouds 10 999 81 10000 3.6 190 13:18 20.12.2019
5788 Rain 11 1000 76 10000 5.7 230 12:55 20.12.2019
5789 Clouds 10 999 87 10000 3.1 180 12:36 20.12.2019
5790 Clouds 10 999 87 10000 3.1 180 12:18 20.12.2019
5791 Rain 10 999 93 10000 2.6 260 11:57 20.12.2019
5792 Fog 10 999 100 10000 2.1 290 11:38 20.12.2019
5793 Fog 10 999 100 10000 2.1 290 11:18 20.12.2019
5794 Rain 10 999 100 10000 1 0 10:55 20.12.2019
5795 Rain 10 999 100 10000 1 0 10:37 20.12.2019
5796 Rain 11 999 100 8000 1 0 10:19 20.12.2019
5797 Rain 10 998 100 10000 2.1 210 09:42 20.12.2019
5798 Rain 10 998 100 10000 2.1 210 09:21 20.12.2019
5799 Rain 10 997 87 0 2.24 203 08:54 20.12.2019
5800 Rain 10 997 86 0 4.02 252 08:36 20.12.2019
5801 Rain 11 996 88 0 0.45 91 08:18 20.12.2019
5802 Rain 11 996 88 0 2.68 67 07:41 20.12.2019
5803 Rain 11 995 91 0 1.79 153 07:22 20.12.2019
5804 Rain 10 996 90 0 0.45 98 06:52 20.12.2019
5805 Rain 9 995 91 0 0.45 89 06:33 20.12.2019
5806 Rain 10 996 90 0 0.89 32 05:56 20.12.2019
5807 Rain 11 996 90 0 1.79 79 05:38 20.12.2019
5808 Rain 10 987 95 0 9.39 187 04:34 20.12.2019
5809 Rain 11 987 95 0 11.18 177 03:31 20.12.2019
5810 Rain 11 990 95 0 9.83 215 02:44 20.12.2019
5811 Rain 9 992 93 0 8.05 191 01:54 20.12.2019
5812 Rain 8 1002 88 0 0.89 117 01:33 20.12.2019
5813 Rain 10 1003 90 0 0.89 70 00:48 20.12.2019
5814 Rain 10 992 92 0 5.81 246 00:29 20.12.2019
5815 Rain 9 994 91 0 8.05 142 23:54 19.12.2019
5816 Rain 9 994 93 0 9.83 204 23:36 19.12.2019
5817 Rain 8 1005 88 0 1.34 325 23:18 19.12.2019
5818 Rain 8 1006 88 0 1.34 76 22:37 19.12.2019
5819 Rain 8 1006 88 0 1.34 115 22:19 19.12.2019
5820 Rain 7 997 90 0 7.15 203 21:55 19.12.2019
5821 Rain 9 998 91 0 6.26 156 21:37 19.12.2019
5822 Rain 9 998 90 0 6.26 193 21:18 19.12.2019
5823 Rain 9 998 90 0 8.49 235 21:18 19.12.2019
5824 Rain 9 999 89 0 7.6 148 20:55 19.12.2019
5825 Rain 7 998 88 0 8.94 187 20:36 19.12.2019
5826 Rain 8 1008 90 0 0.45 273 20:18 19.12.2019
5827 Rain 8 1010 95 0 3.85 191 19:54 19.12.2019
5828 Rain 8 1001 88 0 4.92 188 19:36 19.12.2019
5829 Rain 7 1002 87 0 6.71 210 19:18 19.12.2019
5830 Rain 8 1007 83 0 0.45 247 18:41 19.12.2019
5831 Clouds 8 1013 87 10000 1 0 18:22 19.12.2019
5832 Clouds 9 1013 87 10000 1 0 17:57 19.12.2019
5833 Clouds 9 1013 87 10000 1 0 17:39 19.12.2019
5834 Clouds 10 1013 87 10000 1 0 17:19 19.12.2019
5835 Clouds 10 1012 93 10000 1 0 16:57 19.12.2019
5836 Clouds 10 1012 93 10000 1 0 16:39 19.12.2019
5837 Clouds 10 1012 93 10000 1.5 20 16:20 19.12.2019
5838 Clouds 11 1013 93 10000 1 0 15:58 19.12.2019
5839 Clouds 11 1013 93 10000 1 0 15:39 19.12.2019
5840 Clouds 11 1013 93 10000 1 0 15:19 19.12.2019
5841 Clouds 11 1013 100 10000 1 0 14:57 19.12.2019
5842 Clouds 10 1014 100 10000 1.5 320 14:39 19.12.2019
5843 Clouds 10 1014 100 10000 1.5 320 14:18 19.12.2019
5844 Clouds 9 1015 100 10000 1 0 13:39 19.12.2019
5845 Rain 9 1016 100 10000 1 0 13:20 19.12.2019
5846 Fog 9 1016 100 10000 0.5 0 12:59 19.12.2019
5847 Fog 8 1016 100 10000 0.5 0 12:40 19.12.2019
5848 Fog 7 1016 100 8000 0.5 0 12:19 19.12.2019
5849 Fog 7 1016 100 8000 0.5 0 12:19 19.12.2019
5850 Fog 7 1016 100 8000 0.5 0 12:19 19.12.2019
5851 Fog 7 1016 100 8000 0.5 0 12:19 19.12.2019
5852 Drizzle 7 1017 100 200 1.5 60 11:59 19.12.2019
5853 Drizzle 6 1017 100 200 1.5 60 11:41 19.12.2019
5854 Drizzle 6 1017 100 3000 1.5 20 11:20 19.12.2019
5855 Drizzle 6 1017 100 3000 1.5 20 11:20 19.12.2019
5856 Drizzle 6 1017 100 3000 1.5 20 11:20 19.12.2019
5857 Fog 6 1017 100 400 1 0 10:59 19.12.2019
5858 Fog 5 1017 100 5000 0.5 0 10:38 19.12.2019
5859 Fog 4 1017 100 5000 0.5 0 10:20 19.12.2019
5860 Fog 5 1017 100 200 1.5 70 09:57 19.12.2019
5861 Fog 5 1017 100 200 1.5 70 09:37 19.12.2019
5862 Fog 5 1017 100 600 1.5 40 09:19 19.12.2019
5863 Clouds 5 1012 92 0 0.45 67 08:55 19.12.2019
5864 Clouds 4 1015 97 0 2.3 188 08:37 19.12.2019
5865 Clouds 4 1006 87 0 1.34 256 08:18 19.12.2019
5866 Clouds 4 1007 89 0 2.68 170 07:43 19.12.2019
5867 Clouds 4 1007 89 0 4.02 205 07:24 19.12.2019
5868 Clouds 3 1007 89 0 3.13 224 06:59 19.12.2019
5869 Clouds 3 1007 89 0 2.68 203 06:41 19.12.2019
5870 Clouds 3 1007 89 0 3.13 205 06:21 19.12.2019
5871 Clouds 3 1007 89 0 2.24 195 05:42 19.12.2019
5872 Clouds 3 1007 88 0 2.68 201 05:19 19.12.2019
5873 Clouds 3 1008 87 0 4.02 208 03:51 19.12.2019
5874 Clouds 4 1009 80 0 2.68 194 02:28 19.12.2019
5875 Clouds 4 1009 84 0 4.92 210 01:24 19.12.2019
5876 Clouds 4 1009 85 0 4.02 181 00:57 19.12.2019
5877 Clouds 4 1010 88 0 3.58 218 00:38 19.12.2019
5878 Clouds 4 1010 88 0 2.68 200 00:19 19.12.2019
5879 Clouds 4 1010 88 0 2.68 200 00:19 19.12.2019
5880 Clouds 4 1010 90 0 5.36 210 23:43 18.12.2019
5881 Clouds 4 1010 90 0 5.36 210 23:43 18.12.2019
5882 Clouds 4 1010 90 0 0.89 207 23:19 18.12.2019
5883 Clouds 5 1010 89 0 4.02 217 22:56 18.12.2019
5884 Clouds 5 1010 90 0 4.47 193 22:38 18.12.2019
5885 Clouds 5 1010 90 0 3.58 191 22:20 18.12.2019
5886 Clouds 6 1010 87 0 2.68 201 21:58 18.12.2019
5887 Clouds 6 1010 88 0 3.58 222 21:39 18.12.2019
5888 Clouds 6 1010 86 0 3.13 218 21:39 18.12.2019
5889 Clouds 6 1010 87 0 1.79 198 21:20 18.12.2019
5890 Clouds 6 1010 87 0 3.58 153 20:55 18.12.2019
5891 Clouds 6 1010 89 0 4.02 195 20:37 18.12.2019
5892 Clouds 6 1010 89 0 4.02 195 20:37 18.12.2019
5893 Clear 7 1010 88 0 3.58 181 20:19 18.12.2019
5894 Clear 7 1010 87 0 4.47 210 19:55 18.12.2019
5895 Clear 7 1010 89 0 1.79 174 19:37 18.12.2019
5896 Clear 8 1010 89 0 4.02 239 19:18 18.12.2019
5897 Clear 8 1010 89 0 2.24 132 18:45 18.12.2019
5898 Clear 7 1010 89 0 4.47 188 18:25 18.12.2019
5899 Clear 8 1010 88 0 4.47 240 17:57 18.12.2019
5900 Clear 6 1010 88 0 4.47 200 17:39 18.12.2019
5901 Clear 11 1015 79 0 3.1 202 17:20 18.12.2019
5902 Clear 12 1012 83 0 3.1 202 16:57 18.12.2019
5903 Clear 10 1010 88 0 4.92 204 16:57 18.12.2019
5904 Clear 12 1012 71 0 0.45 67 16:38 18.12.2019
5905 Clear 12 1013 67 0 1.34 61 16:20 18.12.2019
5906 Clear 13 1012 65 0 0.45 157 15:55 18.12.2019
5907 Clear 14 1010 47 0 0.45 315 15:37 18.12.2019
5908 Clear 14 1010 47 0 0.45 315 15:37 18.12.2019
5909 Clear 14 1013 71 0 1.34 115 15:19 18.12.2019
5910 Clear 14 1015 73 0 3.1 202 14:42 18.12.2019
5911 Fog 13 1017 100 10000 1 0 14:22 18.12.2019
5912 Fog 13 1017 100 10000 1 0 13:57 18.12.2019
5913 Fog 13 1017 100 10000 1 0 13:39 18.12.2019
5914 Fog 12 1017 100 10000 1 0 13:20 18.12.2019
5915 Mist 11 1018 100 1100 0.5 0 12:58 18.12.2019
5916 Fog 11 1018 100 250 2.96 191 12:38 18.12.2019
5917 Fog 11 1018 100 250 2.96 191 12:38 18.12.2019
5918 Fog 11 1018 100 250 2.96 191 12:20 18.12.2019
5919 Fog 10 1018 100 200 0.5 0 11:56 18.12.2019
5920 Fog 9 1018 100 150 2.96 191 11:38 18.12.2019
5921 Fog 9 1018 100 200 1.29 156 11:19 18.12.2019
5922 Fog 9 1018 100 200 1.29 156 11:19 18.12.2019
5923 Fog 9 1018 100 200 1.29 156 10:55 18.12.2019
5924 Fog 7 1018 100 2000 1 40 10:37 18.12.2019
5925 Fog 7 1018 100 2000 1 40 10:37 18.12.2019
5926 Fog 7 1018 100 2000 1 40 10:19 18.12.2019
5927 Fog 6 1017 100 200 1.5 350 09:50 18.12.2019
5928 Fog 5 1017 100 200 1.29 156 09:18 18.12.2019
5929 Fog 6 1016 100 1200 1 10 08:40 18.12.2019
5930 Clouds 6 1008 93 0 4.92 210 08:21 18.12.2019
5931 Clouds 6 1008 94 0 4.47 195 07:43 18.12.2019
5932 Clouds 6 1008 94 0 4.02 198 07:23 18.12.2019
5933 Clouds 6 1008 93 0 4.47 214 06:55 18.12.2019
5934 Clouds 7 1012 72 0 3.13 68 06:27 18.12.2019
5935 Clouds 7 1014 92 0 0.9 106 05:47 18.12.2019
5936 Snow 7 1014 92 0 2.1 177 04:52 18.12.2019
5937 Snow 8 1013 88 0 0.45 101 02:55 18.12.2019
5938 Snow 8 1012 81 0 2.68 45 02:36 18.12.2019
5939 Snow 7 1007 91 0 4.92 218 02:18 18.12.2019
5940 Snow 7 1006 92 0 4.47 198 01:40 18.12.2019
5941 Snow 7 1006 92 0 4.47 176 01:21 18.12.2019
5942 Snow 7 1006 92 0 4.47 225 00:40 18.12.2019
5943 Snow 7 1006 92 0 3.58 242 00:22 18.12.2019
5944 Snow 7 1006 92 0 4.92 214 23:56 17.12.2019
5945 Snow 7 1006 93 0 4.92 162 23:37 17.12.2019
5946 Clouds 7 1006 92 0 4.47 190 23:18 17.12.2019
5947 Clouds 7 1006 92 0 4.47 190 23:18 17.12.2019
5948 Clouds 8 1012 88 0 0.45 135 22:55 17.12.2019
5949 Clouds 9 1011 79 0 1.79 23 22:37 17.12.2019
5950 Clouds 9 1012 88 0 0.45 135 22:18 17.12.2019
5951 Clouds 7 1006 92 0 5.81 231 21:55 17.12.2019
5952 Clouds 8 1010 92 0 0.45 202 21:55 17.12.2019
5953 Clouds 7 1005 91 0 4.92 200 21:37 17.12.2019
5954 Clouds 8 1012 87 0 1.99 149 21:18 17.12.2019
5955 Clouds 8 1012 87 0 1.99 149 20:55 17.12.2019
5956 Clouds 7 1005 92 0 5.81 210 20:37 17.12.2019
5957 Snow 9 1010 73 0 0.45 121 20:18 17.12.2019
5958 Snow 9 1010 73 0 1.78 185 19:41 17.12.2019
5959 Snow 8 1005 91 0 3.58 201 19:20 17.12.2019
5960 Snow 8 1009 73 0 1.78 185 18:58 17.12.2019
5961 Snow 6 1004 91 0 3.58 221 18:40 17.12.2019
5962 Snow 6 1004 91 0 4.02 235 18:21 17.12.2019
5963 Snow 6 1004 89 0 3.13 238 17:56 17.12.2019
5964 Snow 7 1003 89 0 2.68 256 17:38 17.12.2019
5965 Rain 11 1008 71 0 2.49 169 17:18 17.12.2019
5966 Rain 12 1009 76 0 1.34 323 16:55 17.12.2019
5967 Rain 12 1008 71 0 0.45 110 16:55 17.12.2019
5968 Rain 13 1005 91 0 0.45 135 16:37 17.12.2019
5969 Rain 12 1008 77 0 1.34 68 16:18 17.12.2019
5970 Rain 13 1004 46 0 1.79 326 15:38 17.12.2019
5971 Rain 13 1007 74 0 1.34 90 15:20 17.12.2019
5972 Rain 13 1004 92 0 0.45 67 14:57 17.12.2019
5973 Rain 13 1004 92 0 0.45 90 14:39 17.12.2019
5974 Clouds 13 1006 68 0 0.89 146 14:19 17.12.2019
5975 Clouds 13 1006 68 0 0.89 146 14:19 17.12.2019
5976 Clouds 13 1006 68 0 0.45 163 13:59 17.12.2019
5977 Clouds 13 1005 66 0 1.34 131 13:41 17.12.2019
5978 Clouds 13 1005 65 0 0.89 142 13:19 17.12.2019
5979 Clouds 13 1005 63 0 0.45 125 12:59 17.12.2019
5980 Clouds 13 1006 9 0 2.24 220 12:38 17.12.2019
5981 Clouds 12 1005 65 0 0.89 300 12:18 17.12.2019
5982 Clouds 12 1005 65 0 0.89 300 12:18 17.12.2019
5983 Clouds 12 1005 64 0 0.89 117 11:57 17.12.2019
5984 Clouds 12 1005 69 0 0.45 99 11:37 17.12.2019
5985 Clouds 11 1006 91 0 1.97 138 11:18 17.12.2019
5986 Clouds 9 1005 72 0 1.97 138 10:57 17.12.2019
5987 Clouds 10 1005 73 0 1.97 138 10:38 17.12.2019
5988 Clouds 10 999 92 0 3.58 176 10:19 17.12.2019
5989 Clouds 10 999 92 0 3.58 176 10:19 17.12.2019
5990 Clouds 9 1004 78 0 1.97 138 09:55 17.12.2019
5991 Clouds 9 999 94 0 4.92 180 09:37 17.12.2019
5992 Clouds 9 998 94 0 4.92 181 09:18 17.12.2019
5993 Clouds 9 1004 77 0 1.97 138 08:40 17.12.2019
5994 Rain 8 998 94 0 3.58 160 08:22 17.12.2019
5995 Rain 8 998 94 0 2.24 187 07:59 17.12.2019
5996 Rain 8 998 94 0 2.68 193 07:41 17.12.2019
5997 Rain 8 998 94 0 2.24 205 07:22 17.12.2019
5998 Rain 8 1003 85 0 0.89 139 06:43 17.12.2019
5999 Rain 8 1003 86 0 2.25 138 06:24 17.12.2019
6000 Rain 8 997 95 0 3.58 181 05:41 17.12.2019
6001 Snow 8 998 96 0 4.47 166 04:53 17.12.2019
6002 Snow 8 998 95 0 4.02 187 03:51 17.12.2019
6003 Snow 8 1004 83 0 0.89 127 02:25 17.12.2019
6004 Snow 8 999 91 0 1.79 176 01:21 17.12.2019
6005 Snow 8 999 90 0 3.58 160 00:47 17.12.2019
6006 Snow 8 1000 91 0 3.58 197 00:21 17.12.2019
6007 Snow 8 1000 91 0 3.58 197 00:21 17.12.2019
6008 Snow 8 1000 91 0 3.58 197 00:21 17.12.2019
6009 Snow 8 1000 87 0 4.02 243 23:44 16.12.2019
6010 Clouds 8 999 87 0 4.92 225 23:20 16.12.2019
6011 Clouds 8 999 86 0 4.47 217 22:59 16.12.2019
6012 Clouds 8 999 85 0 2.68 198 22:39 16.12.2019
6013 Clouds 7 999 85 0 4.02 186 22:21 16.12.2019
6014 Clouds 7 999 84 0 3.58 226 21:57 16.12.2019
6015 Clouds 7 999 84 0 3.58 226 21:57 16.12.2019
6016 Clouds 8 999 83 0 5.81 198 21:39 16.12.2019
6017 Clouds 7 998 84 0 5.81 166 21:20 16.12.2019
6018 Clouds 7 998 83 0 5.36 188 20:58 16.12.2019
6019 Clouds 7 997 83 0 6.26 177 20:39 16.12.2019
6020 Clouds 7 997 83 0 7.15 169 20:20 16.12.2019
6021 Clouds 7 997 84 0 6.71 176 19:57 16.12.2019
6022 Clouds 7 997 83 0 6.26 180 19:37 16.12.2019
6023 Clouds 7 998 83 0 7.6 212 19:19 16.12.2019
6024 Clouds 7 998 83 0 7.6 212 19:19 16.12.2019
6025 Clouds 8 998 83 0 6.71 204 18:59 16.12.2019
6026 Clouds 8 997 82 0 7.15 210 18:41 16.12.2019
6027 Fog 7 1008 100 10000 1 0 18:20 16.12.2019
6028 Fog 8 1008 100 10000 1 0 17:59 16.12.2019
6029 Fog 8 1008 100 10000 1 0 17:40 16.12.2019
6030 Fog 8 1008 100 10000 1 0 17:40 16.12.2019
6031 Fog 8 1008 100 10000 1 0 17:21 16.12.2019
6032 Fog 8 1008 100 10000 1 0 16:57 16.12.2019
6033 Fog 8 1008 100 10000 1 0 16:39 16.12.2019
6034 Fog 9 1008 100 10000 1 0 16:20 16.12.2019
6035 Fog 9 1008 100 10000 3.78 178 15:59 16.12.2019
6036 Fog 9 1008 100 10000 3.78 178 15:59 16.12.2019
6037 Fog 9 1008 100 10000 0.5 0 15:39 16.12.2019
6038 Mist 9 1009 100 4000 0.5 0 15:20 16.12.2019
6039 Mist 9 1009 100 4000 0.5 0 14:57 16.12.2019
6040 Fog 8 1010 100 10000 0.5 0 14:37 16.12.2019
6041 Fog 9 1010 100 10000 0.5 0 14:19 16.12.2019
6042 Fog 9 1010 100 6000 1 0 14:19 16.12.2019
6043 Fog 9 1010 100 6000 1 0 14:19 16.12.2019
6044 Fog 9 1010 100 6000 1 0 13:56 16.12.2019
6045 Fog 9 1011 100 250 1.5 220 13:37 16.12.2019
6046 Fog 9 1011 100 250 1.5 220 13:37 16.12.2019
6047 Fog 10 1011 100 250 1.5 220 13:19 16.12.2019
6048 Fog 11 1011 100 400 1.5 350 12:57 16.12.2019
6049 Fog 9 1012 100 100 1 0 12:39 16.12.2019
6050 Fog 10 1012 63 50 5.03 186 12:18 16.12.2019
6051 Fog 11 1012 64 50 5.17 187 11:58 16.12.2019
6052 Fog 10 1012 64 50 1 0 11:40 16.12.2019
6053 Fog 5 1012 72 150 0.5 0 11:19 16.12.2019
6054 Fog 5 1012 72 50 1 0 11:19 16.12.2019
6055 Fog 5 1012 72 150 0.5 0 10:56 16.12.2019
6056 Fog 4 1013 74 100 1 0 10:36 16.12.2019
6057 Fog 3 1013 100 50 1 0 10:18 16.12.2019
6058 Fog 5 1012 100 100 1.5 30 09:44 16.12.2019
6059 Fog 5 1012 100 100 1.5 30 09:44 16.12.2019
6060 Fog 4 1012 100 100 1.5 30 09:26 16.12.2019
6061 Clear 4 1010 57 0 0.45 118 08:41 16.12.2019
6062 Clear 3 1002 75 0 5.36 224 08:20 16.12.2019
6063 Clear 3 1001 76 0 6.71 193 07:53 16.12.2019
6064 Clear 3 1001 75 0 6.26 203 07:33 16.12.2019
6065 Clear 3 1002 81 0 4.47 14 06:59 16.12.2019
6066 Clear 3 1001 80 0 5.36 208 06:40 16.12.2019
6067 Clear 3 1001 81 0 5.81 222 06:21 16.12.2019
6068 Clear 3 1002 80 0 5.81 198 05:41 16.12.2019
6069 Clear 3 1001 79 0 6.26 166 05:23 16.12.2019
6070 Clear 3 1001 78 0 6.71 221 03:29 16.12.2019
6071 Clouds 4 1003 84 0 4.02 210 01:51 16.12.2019
6072 Clouds 4 1003 84 0 4.02 79 01:33 16.12.2019
6073 Clouds 4 1004 81 0 4.02 200 00:39 16.12.2019
6074 Clouds 4 1004 82 0 4.02 211 00:20 16.12.2019
6075 Clouds 4 1012 81 0 1.82 191 23:44 15.12.2019
6076 Clouds 4 1012 82 0 1.82 191 23:25 15.12.2019
6077 Clouds 5 1012 81 0 1.33 196 22:57 15.12.2019
6078 Clouds 5 1005 80 0 4.02 146 22:39 15.12.2019
6079 Clouds 5 1005 78 0 4.02 207 22:20 15.12.2019
6080 Clouds 5 1005 80 0 2.68 231 21:59 15.12.2019
6081 Clouds 4 1005 78 0 4.02 233 21:39 15.12.2019
6082 Clouds 4 1005 78 0 4.02 233 21:39 15.12.2019
6083 Clouds 4 1005 80 0 4.47 184 21:20 15.12.2019
6084 Clouds 5 1005 79 0 2.68 198 20:58 15.12.2019
6085 Clouds 5 1005 78 0 4.47 212 20:40 15.12.2019
6086 Clouds 5 1005 76 0 4.02 210 20:22 15.12.2019
6087 Clouds 5 1005 78 0 4.47 195 19:58 15.12.2019
6088 Clouds 6 1006 79 0 2.68 229 19:40 15.12.2019
6089 Clouds 6 1006 80 0 1.34 183 19:20 15.12.2019
6090 Clouds 6 1013 80 0 0.81 194 18:58 15.12.2019
6091 Clouds 6 1005 79 0 2.68 210 18:39 15.12.2019
6092 Clouds 7 1012 87 10000 1.5 220 18:19 15.12.2019
6093 Clouds 6 1012 87 10000 1.5 220 17:57 15.12.2019
6094 Clouds 7 1012 87 10000 1.5 220 17:38 15.12.2019
6095 Clear 8 1013 81 10000 1.5 200 17:19 15.12.2019
6096 Clear 9 1013 81 10000 1.5 200 16:58 15.12.2019
6097 Clear 9 1013 81 10000 1 0 16:39 15.12.2019
6098 Clear 10 1013 81 10000 1 0 16:21 15.12.2019
6099 Clouds 11 1013 81 10000 1.5 170 15:56 15.12.2019
6100 Clouds 12 1013 87 10000 1 0 15:38 15.12.2019
6101 Clouds 12 1013 87 10000 1 0 15:19 15.12.2019
6102 Clouds 11 1013 87 10000 1.5 140 14:56 15.12.2019
6103 Clouds 10 1013 87 0 1.5 140 14:37 15.12.2019
6104 Clouds 11 1013 87 0 1.5 140 14:18 15.12.2019
6105 Clouds 11 1014 87 10000 1.5 170 13:58 15.12.2019
6106 Clouds 11 1014 93 10000 1 0 13:37 15.12.2019
6107 Clouds 11 1014 93 10000 1 0 13:37 15.12.2019
6108 Clouds 10 1015 87 10000 1 0 13:19 15.12.2019
6109 Clouds 10 1015 87 10000 1 0 13:19 15.12.2019
6110 Clouds 10 1015 87 10000 1 0 12:56 15.12.2019
6111 Clouds 11 1015 93 10000 0.5 0 12:38 15.12.2019
6112 Clouds 11 1015 93 10000 0.5 0 12:20 15.12.2019
6113 Clouds 9 1015 100 10000 0.5 0 11:39 15.12.2019
6114 Clouds 6 1015 100 10000 0.5 0 11:20 15.12.2019
6115 Clouds 6 1015 100 10000 0.5 0 10:59 15.12.2019
6116 Clouds 6 1015 100 10000 0.5 0 10:41 15.12.2019
6117 Clouds 5 1015 100 10000 0.5 0 10:20 15.12.2019
6118 Clouds 5 1015 100 10000 0.77 150 09:59 15.12.2019
6119 Clouds 5 1015 100 10000 1 0 09:39 15.12.2019
6120 Clear 3 1013 92 0 0.77 150 09:20 15.12.2019
6121 Clear 3 1007 46 0 0.77 150 08:56 15.12.2019
6122 Clear 3 1007 51 0 0.77 150 08:38 15.12.2019
6123 Clear 3 1007 63 0 0.44 76 08:20 15.12.2019
6124 Clear 3 1007 71 0 1.34 214 07:55 15.12.2019
6125 Clear 3 1007 76 0 2.24 207 07:33 15.12.2019
6126 Clear 3 1012 91 0 0.44 76 06:31 15.12.2019
6127 Clear 3 1006 87 0 2.68 205 05:51 15.12.2019
6128 Clear 4 1006 86 0 3.13 229 05:25 15.12.2019
6129 Clouds 4 1006 83 0 1.79 210 04:24 15.12.2019
6130 Clouds 4 1007 83 0 2.68 193 03:22 15.12.2019
6131 Clouds 5 1007 79 0 3.58 218 02:32 15.12.2019
6132 Clouds 5 1012 88 0 0.61 226 01:43 15.12.2019
6133 Clouds 5 1006 84 0 3.58 210 01:20 15.12.2019
6134 Clouds 5 1007 85 0 4.02 172 00:53 15.12.2019
6135 Clouds 5 1007 85 0 4.47 225 00:34 15.12.2019
6136 Clouds 5 1013 90 0 0.48 253 23:56 14.12.2019
6137 Clouds 5 1007 83 0 4.47 148 23:38 14.12.2019
6138 Clouds 5 1007 85 0 4.47 250 23:18 14.12.2019
6139 Clouds 5 1007 86 0 4.02 211 22:56 14.12.2019
6140 Clouds 5 1007 86 0 3.58 228 22:37 14.12.2019
6141 Clouds 6 1013 91 0 0.98 219 22:18 14.12.2019
6142 Clouds 6 1007 89 0 4.47 211 21:55 14.12.2019
6143 Clouds 6 1007 88 0 4.47 166 21:37 14.12.2019
6144 Clouds 6 1007 89 0 4.47 179 21:18 14.12.2019
6145 Clouds 6 1013 92 0 0.98 219 20:42 14.12.2019
6146 Clouds 6 1007 90 0 2.68 38 20:20 14.12.2019
6147 Clouds 6 1013 89 0 0.9 149 19:59 14.12.2019
6148 Clouds 7 1013 91 0 0.9 149 19:39 14.12.2019
6149 Clouds 6 1007 92 0 4.47 211 19:21 14.12.2019
6150 Clouds 6 1008 91 0 3.13 201 18:57 14.12.2019
6151 Clouds 7 1008 87 0 2.24 194 18:38 14.12.2019
6152 Clouds 7 1014 87 10000 2.1 200 18:20 14.12.2019
6153 Clouds 7 1014 87 10000 2.1 200 17:54 14.12.2019
6154 Clouds 8 1014 87 10000 2.1 200 17:36 14.12.2019
6155 Clouds 10 1014 81 10000 2.1 200 17:18 14.12.2019
6156 Clouds 11 1014 87 10000 1.5 200 16:40 14.12.2019
6157 Clouds 11 1014 87 10000 1.5 200 16:19 14.12.2019
6158 Clouds 11 1014 87 10000 2.1 220 15:54 14.12.2019
6159 Clouds 11 1014 93 10000 2.1 230 15:36 14.12.2019
6160 Clouds 11 1014 93 10000 2.1 230 15:36 14.12.2019
6161 Clouds 11 1014 93 10000 2.1 230 15:36 14.12.2019
6162 Clouds 11 1014 93 10000 2.1 230 15:18 14.12.2019
6163 Clouds 11 1014 100 10000 1.5 220 14:40 14.12.2019
6164 Mist 11 1014 100 10000 1.67 32 14:21 14.12.2019
6165 Mist 11 1014 100 10000 1.67 32 13:59 14.12.2019
6166 Fog 11 1014 100 10000 0.5 0 13:41 14.12.2019
6167 Fog 10 1014 100 400 0.5 0 13:19 14.12.2019
6168 Fog 10 1014 100 400 0.5 0 13:19 14.12.2019
6169 Fog 11 1014 100 400 0.5 0 12:56 14.12.2019
6170 Fog 11 1014 100 100 1 0 12:37 14.12.2019
6171 Fog 11 1014 100 100 1 0 12:19 14.12.2019
6172 Fog 10 1014 100 50 0.5 0 11:56 14.12.2019
6173 Fog 10 1014 100 50 0.5 0 11:37 14.12.2019
6174 Fog 8 1014 100 100 1 0 11:18 14.12.2019
6175 Fog 8 1014 100 100 1.5 10 10:55 14.12.2019
6176 Fog 8 1014 100 100 1.5 10 10:37 14.12.2019
6177 Fog 8 1014 100 100 1.5 10 10:18 14.12.2019
6178 Fog 7 1012 100 100 1.5 250 09:41 14.12.2019
6179 Fog 6 1012 100 100 1.5 250 09:21 14.12.2019
6180 Clouds 6 1013 65 0 3.58 19 08:45 14.12.2019
6181 Clouds 7 1007 84 0 3.13 49 08:21 14.12.2019
6182 Clouds 6 1012 65 0 3.93 17 07:58 14.12.2019
6183 Clouds 7 1006 84 0 3.58 38 07:38 14.12.2019
6184 Clouds 7 1006 82 0 4.02 13 07:19 14.12.2019
6185 Clouds 7 1005 85 0 2.68 10 06:41 14.12.2019
6186 Clouds 7 1005 85 0 0.89 25 06:22 14.12.2019
6187 Clouds 7 1005 92 0 2.24 8 05:22 14.12.2019
6188 Clouds 6 1003 89 0 3.13 35 02:49 14.12.2019
6189 Rain 7 1003 87 0 0.89 17 02:22 14.12.2019
6190 Rain 7 1003 87 0 1.34 11 01:43 14.12.2019
6191 Rain 7 1010 70 0 3.27 357 00:54 14.12.2019
6192 Rain 7 1002 83 0 2.68 8 00:54 14.12.2019
6193 Rain 7 1002 86 0 2.68 28 00:36 14.12.2019
6194 Rain 7 1001 83 0 2.68 15 00:18 14.12.2019
6195 Rain 7 1009 77 0 3.27 357 23:39 13.12.2019
6196 Rain 7 1001 92 0 1.34 30 23:19 13.12.2019
6197 Rain 7 1001 95 0 2.68 24 22:55 13.12.2019
6198 Rain 8 1001 97 0 2.68 45 22:36 13.12.2019
6199 Rain 8 1001 97 0 1.79 340 22:36 13.12.2019
6200 Rain 8 1001 98 0 3.13 359 22:18 13.12.2019
6201 Rain 8 1000 98 0 2.24 345 21:39 13.12.2019
6202 Rain 8 1000 98 0 1.34 31 21:21 13.12.2019
6203 Rain 9 1008 93 0 2.57 343 20:55 13.12.2019
6204 Rain 9 1008 92 0 2.57 343 20:37 13.12.2019
6205 Rain 10 1008 93 0 2.33 331 20:19 13.12.2019
6206 Rain 10 1007 93 0 2.5 343 19:56 13.12.2019
6207 Rain 10 1007 93 0 2.5 343 19:36 13.12.2019
6208 Rain 10 1008 92 0 2.5 343 19:18 13.12.2019
6209 Rain 9 1008 46 0 2.5 343 18:41 13.12.2019
6210 Clouds 9 1003 93 10000 2.1 160 18:19 13.12.2019
6211 Clouds 9 1003 93 10000 2.1 160 17:57 13.12.2019
6212 Clouds 9 1003 93 10000 2.1 160 17:39 13.12.2019
6213 Clouds 11 1003 93 10000 2.1 160 17:18 13.12.2019
6214 Clouds 11 1003 87 10000 2.1 0 16:54 13.12.2019
6215 Clouds 11 1002 87 10000 1.5 210 16:36 13.12.2019
6216 Clouds 11 1002 87 10000 1.5 210 16:18 13.12.2019
6217 Rain 11 1003 76 9000 1.5 0 15:38 13.12.2019
6218 Rain 11 1002 100 8000 1.5 70 15:20 13.12.2019
6219 Rain 11 1001 100 6000 2.6 60 14:42 13.12.2019
6220 Clouds 10 1001 87 10000 1 0 14:22 13.12.2019
6221 Clouds 10 1001 87 10000 1 0 13:58 13.12.2019
6222 Clouds 10 1001 87 10000 1 0 13:40 13.12.2019
6223 Clouds 10 1001 87 9000 1.5 80 13:21 13.12.2019
6224 Clouds 10 1001 87 9000 1.5 80 13:21 13.12.2019
6225 Mist 10 1002 100 4400 1.5 40 12:43 13.12.2019
6226 Mist 9 1002 100 4400 1.5 40 12:20 13.12.2019
6227 Mist 9 1002 100 10000 0.5 0 11:57 13.12.2019
6228 Mist 9 1002 100 10000 0.5 0 11:57 13.12.2019
6229 Mist 9 1002 100 2000 1 0 11:39 13.12.2019
6230 Mist 8 1002 100 2000 1 0 11:21 13.12.2019
6231 Rain 7 1002 100 10000 1.5 90 10:43 13.12.2019
6232 Rain 6 1001 100 9000 1 0 10:23 13.12.2019
6233 Rain 6 1001 100 100 1 0 09:59 13.12.2019
6234 Rain 6 1001 100 100 1 0 09:39 13.12.2019
6235 Rain 5 1001 100 10000 0.5 0 09:18 13.12.2019
6236 Rain 6 1003 96 0 2.75 281 08:41 13.12.2019
6237 Snow 6 990 96 0 2.68 6 08:23 13.12.2019
6238 Snow 6 991 96 0 2.24 24 07:46 13.12.2019
6239 Snow 6 990 95 0 4.02 267 07:21 13.12.2019
6240 Snow 5 993 93 0 5.81 18 06:54 13.12.2019
6241 Snow 5 1002 95 0 1.84 266 06:28 13.12.2019
6242 Snow 5 991 95 0 1.84 266 05:46 13.12.2019
6243 Snow 5 991 95 0 0.41 263 05:26 13.12.2019
6244 Snow 5 992 95 0 0.41 263 04:35 13.12.2019
6245 Snow 5 1003 95 0 0.41 263 03:39 13.12.2019
6246 Snow 4 993 96 0 0.41 263 02:33 13.12.2019
6247 Snow 4 1003 95 0 1.28 321 01:43 13.12.2019
6248 Snow 4 993 96 0 1.51 323 00:55 13.12.2019
6249 Snow 4 1004 95 0 1.51 323 00:36 13.12.2019
6250 Snow 4 993 95 0 1.51 323 23:57 12.12.2019
6251 Snow 4 993 95 0 1.51 323 23:37 12.12.2019
6252 Snow 4 993 96 0 0.63 303 23:19 12.12.2019
6253 Snow 5 1004 94 0 0.63 303 22:54 12.12.2019
6254 Snow 5 993 95 0 0.63 303 22:36 12.12.2019
6255 Snow 4 993 95 0 0.63 303 22:18 12.12.2019
6256 Snow 4 993 95 0 0.63 303 22:18 12.12.2019
6257 Snow 4 993 95 0 0.63 303 21:54 12.12.2019
6258 Snow 4 994 95 0 0.63 303 21:36 12.12.2019
6259 Snow 4 1005 94 0 0.63 303 21:18 12.12.2019
6260 Snow 3 1005 94 0 0.63 303 20:55 12.12.2019
6261 Snow 3 994 94 0 0.95 287 20:37 12.12.2019
6262 Snow 3 994 94 0 2.68 206 20:19 12.12.2019
6263 Snow 4 994 92 0 2.71 214 19:42 12.12.2019
6264 Snow 4 994 91 0 2.71 214 19:22 12.12.2019
6265 Snow 4 994 91 0 2.71 214 18:58 12.12.2019
6266 Snow 4 994 91 0 2.71 214 18:39 12.12.2019
6267 Clouds 5 1007 70 10000 3.1 210 18:20 12.12.2019
6268 Clouds 5 1007 70 10000 3.1 210 17:57 12.12.2019
6269 Clouds 4 1007 70 10000 3.1 210 17:39 12.12.2019
6270 Clouds 5 1007 70 10000 3.1 210 17:20 12.12.2019
6271 Clouds 5 1007 70 10000 3.1 210 17:20 12.12.2019
6272 Clouds 5 1007 65 10000 2.6 220 16:57 12.12.2019
6273 Clouds 6 1008 65 10000 2.6 210 16:38 12.12.2019
6274 Clouds 6 1008 65 10000 2.6 210 16:20 12.12.2019
6275 Clouds 6 1008 65 10000 2.6 200 15:54 12.12.2019
6276 Clouds 6 1009 91 10000 5.1 200 15:36 12.12.2019
6277 Clouds 6 1009 91 10000 5.1 200 15:18 12.12.2019
6278 Clouds 6 1010 91 10000 4.6 200 14:38 12.12.2019
6279 Clouds 6 1010 91 10000 4.6 200 14:38 12.12.2019
6280 Clouds 6 1010 74 10000 4.6 200 14:20 12.12.2019
6281 Clouds 6 1010 74 10000 3.6 210 13:57 12.12.2019
6282 Clouds 6 1011 65 10000 3.1 220 13:39 12.12.2019
6283 Clouds 6 1011 65 10000 3.1 220 13:21 12.12.2019
6284 Clouds 5 1011 73 10000 2.6 220 12:57 12.12.2019
6285 Clouds 6 1011 73 10000 2.6 220 12:39 12.12.2019
6286 Clouds 5 1012 73 10000 2.1 190 12:20 12.12.2019
6287 Clouds 4 1013 73 10000 2.1 220 11:56 12.12.2019
6288 Clouds 4 1013 69 10000 1.5 0 11:37 12.12.2019
6289 Clouds 4 1013 69 10000 1.5 0 11:19 12.12.2019
6290 Clouds 4 1013 69 10000 1 0 10:55 12.12.2019
6291 Clouds 3 1013 69 10000 0.53 283 10:37 12.12.2019
6292 Clouds 3 1013 69 10000 0.53 283 10:18 12.12.2019
6293 Clouds 3 1013 69 10000 0.53 283 10:18 12.12.2019
6294 Clouds 2 1013 80 10000 0.53 283 09:41 12.12.2019
6295 Clouds 2 1013 80 10000 0.53 283 09:23 12.12.2019
6296 Clouds 1 1013 90 0 0.53 283 08:56 12.12.2019
6297 Clouds 1 1003 90 0 0.53 283 08:38 12.12.2019
6298 Clouds 1 1003 90 0 0.53 283 08:38 12.12.2019
6299 Snow 2 1003 89 0 1.68 338 08:19 12.12.2019
6300 Snow 1 1014 89 0 1.75 350 07:42 12.12.2019
6301 Snow 1 1003 90 0 1.75 350 07:24 12.12.2019
6302 Snow 1 1013 87 0 1.75 350 06:48 12.12.2019
6303 Snow 1 1013 87 0 1.75 350 06:48 12.12.2019
6304 Snow 2 1013 87 0 1.75 350 06:30 12.12.2019
6305 Snow 2 1017 49 0 1.75 350 05:36 12.12.2019
6306 Snow 2 1017 39 0 0.89 250 04:51 12.12.2019
6307 Snow 2 1017 39 0 0.89 250 04:51 12.12.2019
6308 Snow 2 1017 39 0 0.89 250 04:51 12.12.2019
6309 Snow 2 1014 85 0 1.83 326 03:20 12.12.2019
6310 Snow 3 1014 82 0 1.83 326 02:37 12.12.2019
6311 Snow 3 1014 81 0 2.2 342 02:19 12.12.2019
6312 Snow 2 1014 78 0 2.2 342 01:37 12.12.2019
6313 Snow 2 1014 78 0 1.93 340 01:18 12.12.2019
6314 Snow 3 1015 78 0 0.45 138 00:40 12.12.2019
6315 Snow 2 1015 80 0 1.93 340 00:18 12.12.2019
6316 Snow 2 1015 81 0 1.93 340 23:42 11.12.2019
6317 Clouds 2 1015 81 0 0.45 39 23:20 11.12.2019
6318 Clouds 2 1020 55 0 1.34 159 22:57 11.12.2019
6319 Clouds 2 1016 72 0 2.07 348 22:38 11.12.2019
6320 Clouds 2 1016 62 0 2.07 348 22:19 11.12.2019
6321 Clouds 2 1016 62 0 0.45 294 21:57 11.12.2019
6322 Clouds 2 1020 65 0 1.34 221 21:37 11.12.2019
6323 Clouds 2 1006 79 0 2.07 348 21:37 11.12.2019
6324 Clouds 2 1006 71 0 2.07 348 21:19 11.12.2019
6325 Clouds 2 1006 71 0 2.07 348 21:19 11.12.2019
6326 Clouds 3 1020 59 0 2.07 348 20:55 11.12.2019
6327 Clouds 3 1020 58 0 2.07 348 20:37 11.12.2019
6328 Snow 3 1016 57 0 3.78 5 20:18 11.12.2019
6329 Snow 3 1016 57 0 3.78 5 19:55 11.12.2019
6330 Snow 4 1016 58 0 3.78 5 19:36 11.12.2019
6331 Snow 4 1017 59 0 3.78 5 19:18 11.12.2019
6332 Snow 5 1020 50 0 3.78 5 18:40 11.12.2019
6333 Snow 5 1021 47 0 3.78 5 18:21 11.12.2019
6334 Snow 5 1021 47 0 3.78 5 18:21 11.12.2019
6335 Snow 5 1021 43 0 3.78 5 17:57 11.12.2019
6336 Snow 5 1021 40 0 2.24 331 17:38 11.12.2019
6337 Snow 6 1021 40 0 3.42 360 17:18 11.12.2019
6338 Snow 6 1015 73 0 3.42 360 16:56 11.12.2019
6339 Snow 6 1015 73 0 3.42 360 16:56 11.12.2019
6340 Snow 6 1015 71 0 3.42 360 16:37 11.12.2019
6341 Snow 6 1014 76 0 0.45 139 16:19 11.12.2019
6342 Snow 6 1020 30 0 4.02 262 15:57 11.12.2019
6343 Snow 6 1018 89 0 3.42 360 15:37 11.12.2019
6344 Snow 6 1014 79 0 3.42 360 15:19 11.12.2019
6345 Snow 7 1019 40 0 2.68 231 14:55 11.12.2019
6346 Snow 7 1019 40 0 2.68 231 14:55 11.12.2019
6347 Snow 7 1019 35 0 1.34 213 14:37 11.12.2019
6348 Clouds 7 1015 54 0 0.81 322 14:18 11.12.2019
6349 Clouds 8 1014 46 0 0.81 322 13:43 11.12.2019
6350 Clouds 8 1019 16 0 2.24 291 13:23 11.12.2019
6351 Clouds 8 1014 44 0 0.89 322 12:58 11.12.2019
6352 Clouds 8 1014 47 0 0.89 322 12:39 11.12.2019
6353 Clouds 7 1019 17 0 0.89 237 12:21 11.12.2019
6354 Clouds 7 1009 57 0 0.45 236 11:58 11.12.2019
6355 Clouds 6 1016 42 0 0.89 322 11:39 11.12.2019
6356 Clouds 5 1010 54 0 0.89 340 11:19 11.12.2019
6357 Clouds 5 1010 54 0 0.89 340 11:19 11.12.2019
6358 Clouds 5 1016 41 0 0.43 127 10:59 11.12.2019
6359 Clouds 5 1016 40 0 0.43 127 10:39 11.12.2019
6360 Clouds 4 1017 43 0 0.43 127 10:21 11.12.2019
6361 Clouds 2 1017 42 0 0.43 127 09:55 11.12.2019
6362 Clouds 2 1010 80 0 1.79 198 09:37 11.12.2019
6363 Clouds 2 1017 36 0 0.43 127 09:19 11.12.2019
6364 Clouds 2 1011 81 0 1.79 204 08:55 11.12.2019
6365 Clouds 2 1011 77 0 0.43 127 08:36 11.12.2019
6366 Clouds 2 1011 84 0 0.89 201 08:18 11.12.2019
6367 Clouds 2 1011 69 0 0.89 228 07:42 11.12.2019
6368 Clouds 2 1011 69 0 0.89 228 07:42 11.12.2019
6369 Clouds 2 1011 53 0 2.52 32 07:22 11.12.2019
6370 Clouds 2 1012 54 0 2.52 32 06:45 11.12.2019
6371 Clouds 2 1011 51 0 2.52 32 06:24 11.12.2019
6372 Clouds 1 1012 45 0 2.52 32 05:52 11.12.2019
6373 Clouds 1 1012 52 0 2.52 32 05:27 11.12.2019
6374 Clouds 2 1019 38 0 2.03 35 04:47 11.12.2019
6375 Clouds 1 1014 66 0 2.03 35 02:50 11.12.2019
6376 Clouds 1 1015 39 0 2.24 32 01:30 11.12.2019
6377 Clouds 2 1016 70 0 2.24 32 00:56 11.12.2019
6378 Clouds 2 1016 43 0 2.24 32 00:36 11.12.2019
6379 Clouds 2 1016 68 0 2.24 32 00:18 11.12.2019
6380 Clouds 2 1016 38 0 2.24 32 23:41 10.12.2019
6381 Clouds 2 1016 40 0 2.6 27 23:21 10.12.2019
6382 Clouds 2 1023 38 0 2.6 27 22:41 10.12.2019
6383 Clouds 3 1016 40 0 2.6 27 22:22 10.12.2019
6384 Clouds 3 1023 34 0 2.6 27 21:57 10.12.2019
6385 Clouds 3 1017 38 0 2.6 27 21:39 10.12.2019
6386 Clouds 3 1017 34 0 2.6 27 21:39 10.12.2019
6387 Clouds 3 1017 27 0 2.6 27 21:21 10.12.2019
6388 Clouds 3 1023 35 0 2.6 27 20:57 10.12.2019
6389 Clouds 3 1017 49 0 2.6 27 20:38 10.12.2019
6390 Clouds 3 1017 80 0 3.4 29 20:19 10.12.2019
6391 Clouds 3 1024 33 0 3.4 29 20:19 10.12.2019
6392 Clouds 3 1017 55 0 3.4 29 20:19 10.12.2019
6393 Clouds 3 1017 35 0 3.4 29 19:55 10.12.2019
6394 Clouds 3 1017 43 0 3.4 29 19:37 10.12.2019
6395 Clouds 4 1017 31 0 3.4 29 19:19 10.12.2019
6396 Clouds 4 1017 26 0 0.89 13 18:41 10.12.2019
6397 Clouds 4 1017 23 0 0.45 346 18:21 10.12.2019
6398 Clouds 4 1017 29 0 1.34 339 17:58 10.12.2019
6399 Clouds 4 1017 29 0 1.34 339 17:58 10.12.2019
6400 Clouds 3 1017 37 0 3.4 29 17:40 10.12.2019
6401 Clouds 3 1017 37 0 3.4 29 17:40 10.12.2019
6402 Clouds 7 1026 39 0 2.82 19 17:20 10.12.2019
6403 Clouds 8 1017 38 0 2.82 19 16:54 10.12.2019
6404 Clouds 8 1026 31 0 2.82 19 16:36 10.12.2019
6405 Clouds 9 1024 29 0 2.82 19 16:18 10.12.2019
6406 Clouds 10 1024 27 0 2.82 19 15:38 10.12.2019
6407 Clouds 10 1024 26 0 2.82 19 15:18 10.12.2019
6408 Clouds 10 1017 39 0 1.34 247 14:56 10.12.2019
6409 Clouds 10 1021 65 0 0.89 158 14:37 10.12.2019
6410 Clouds 10 1025 28 0 0.45 256 14:19 10.12.2019
6411 Clouds 10 1025 31 0 0.45 169 13:57 10.12.2019
6412 Clouds 10 1025 31 0 0.45 169 13:57 10.12.2019
6413 Clear 10 1026 83 0 4.25 12 13:38 10.12.2019
6414 Clouds 11 1026 33 0 4.37 13 13:19 10.12.2019
6415 Clear 12 1027 33 0 0.89 114 12:47 10.12.2019
6416 Clear 12 1027 33 0 0.45 169 12:27 10.12.2019
6417 Clear 10 1028 28 0 0.89 225 11:55 10.12.2019
6418 Clear 10 1028 24 0 0.45 194 11:36 10.12.2019
6419 Clear 7 1028 25 0 0.89 245 11:18 10.12.2019
6420 Clear 6 1020 30 0 0.89 359 10:42 10.12.2019
6421 Clear 6 1020 33 0 4.94 9 10:23 10.12.2019
6422 Clear 6 1029 35 0 4.94 9 09:57 10.12.2019
6423 Clear 7 1029 33 0 4.94 9 09:38 10.12.2019
6424 Clear 7 1029 33 0 4.94 9 09:38 10.12.2019
6425 Clear 6 1031 66 0 4.94 9 09:20 10.12.2019
6426 Clear 6 1028 34 0 4.94 9 08:57 10.12.2019
6427 Clear 6 1031 59 0 4.94 9 08:38 10.12.2019
6428 Clouds 4 1031 57 0 5.35 8 08:19 10.12.2019
6429 Clouds 4 1031 57 0 5.89 5 08:19 10.12.2019
6430 Clouds 5 1028 58 0 5.89 5 07:44 10.12.2019
6431 Clouds 5 1028 58 0 5.89 5 07:26 10.12.2019
6432 Clouds 5 1028 58 0 5.89 5 07:26 10.12.2019
6433 Clouds 5 1028 68 0 5.89 5 06:49 10.12.2019
6434 Clouds 5 1030 51 0 5.89 5 06:24 10.12.2019
6435 Clouds 7 1030 50 0 5.89 5 05:55 10.12.2019
6436 Clouds 6 1027 73 0 4.7 346 05:19 10.12.2019
6437 Clouds 6 1027 74 0 4.7 346 03:47 10.12.2019
6438 Clouds 5 1030 46 0 3.13 259 02:48 10.12.2019
6439 Clouds 5 1030 46 0 3.13 259 02:48 10.12.2019
6440 Snow 5 1030 45 0 3.13 259 01:51 10.12.2019
6441 Clouds 6 1026 78 0 0.45 295 01:26 10.12.2019
6442 Clouds 4 1025 81 0 4.45 348 00:49 10.12.2019
6443 Clouds 5 1026 79 0 4.45 348 00:24 10.12.2019
6444 Clouds 5 1026 78 0 0.45 333 23:43 09.12.2019
6445 Clouds 6 1029 50 0 3.58 239 23:24 09.12.2019
6446 Snow 6 1029 57 0 3.58 221 22:58 09.12.2019
6447 Snow 6 1028 54 0 3.58 283 22:40 09.12.2019
6448 Snow 6 1028 45 0 4.47 271 22:21 09.12.2019
6449 Snow 6 1028 43 0 5.81 255 21:57 09.12.2019
6450 Snow 6 1028 43 0 9.83 243 21:39 09.12.2019
6451 Snow 6 1028 39 0 6.71 283 21:19 09.12.2019
6452 Snow 6 1026 89 0 3.17 335 20:57 09.12.2019
6453 Snow 6 1026 89 0 3.17 335 20:57 09.12.2019
6454 Snow 6 1027 38 0 3.58 293 20:39 09.12.2019
6455 Snow 6 1027 33 0 3.13 277 20:20 09.12.2019
6456 Snow 6 1027 33 0 3.13 277 20:20 09.12.2019
6457 Snow 6 1027 38 0 3.13 260 19:56 09.12.2019
6458 Snow 6 1027 43 0 4.02 264 19:38 09.12.2019
6459 Snow 6 1027 40 0 4.47 221 19:19 09.12.2019
6460 Snow 6 1026 39 0 4.47 259 18:58 09.12.2019
6461 Snow 6 1025 39 0 4.02 247 18:39 09.12.2019
6462 Rain 6 1022 49 10000 6.2 280 18:20 09.12.2019
6463 Rain 6 1022 49 10000 6.2 280 17:58 09.12.2019
6464 Rain 6 1022 49 10000 6.2 280 17:39 09.12.2019
6465 Rain 8 1022 49 10000 6.2 280 17:20 09.12.2019
6466 Rain 8 1021 45 10000 3.1 280 16:56 09.12.2019
6467 Rain 9 1021 45 10000 3.1 280 16:37 09.12.2019
6468 Rain 8 1021 49 10000 5.7 290 16:19 09.12.2019
6469 Rain 9 1021 52 10000 7.7 310 15:55 09.12.2019
6470 Rain 9 1021 52 10000 7.7 310 15:37 09.12.2019
6471 Rain 10 1021 45 10000 7.2 310 15:19 09.12.2019
6472 Clouds 9 1020 32 10000 8.7 310 14:55 09.12.2019
6473 Clouds 9 1019 32 10000 9.3 310 14:37 09.12.2019
6474 -273 0 0 0 0 0 14:18 09.12.2019
6475 Clouds 9 1020 86 10000 5.1 310 13:40 09.12.2019
6476 Clouds 9 1020 40 10000 5.7 300 13:40 09.12.2019
6477 Clouds 9 1020 82 10000 5.1 310 13:20 09.12.2019
6478 Clouds 9 1020 43 10000 7.2 300 12:58 09.12.2019
6479 Clouds 8 1020 43 10000 7.2 300 12:39 09.12.2019
6480 Clouds 7 1020 46 10000 5.7 320 12:21 09.12.2019
6481 Clouds 6 1020 100 10000 2.1 0 11:59 09.12.2019
6482 Clouds 6 1020 100 10000 1.5 0 11:39 09.12.2019
6483 Clouds 6 1020 100 10000 1.5 0 11:39 09.12.2019
6484 Clouds 5 1020 100 10000 1.5 0 11:21 09.12.2019
6485 Fog 4 1020 100 8000 2.6 240 10:56 09.12.2019
6486 Fog 4 1020 100 8000 2.6 240 10:38 09.12.2019
6487 Fog 3 1020 80 100 3.1 210 10:18 09.12.2019
6488 Fog 3 1020 80 150 1 0 09:41 09.12.2019
6489 Fog 3 1020 80 150 1.5 0 09:23 09.12.2019
6490 Clouds 3 1012 76 0 1.79 32 08:55 09.12.2019
6491 Clouds 3 1012 73 0 3.58 217 08:37 09.12.2019
6492 Clear 2 1012 74 0 1.79 37 08:19 09.12.2019
6493 Clear 3 1012 70 0 0.89 359 07:42 09.12.2019
6494 Clear 3 1012 76 0 2.24 3 07:24 09.12.2019
6495 Clear 3 1012 67 0 0.45 10 06:54 09.12.2019
6496 Clear 2 1013 67 0 1.79 65 06:27 09.12.2019
6497 Clear 3 1011 92 0 0.89 198 05:29 09.12.2019
6498 Clear 3 1012 63 0 1.15 334 04:51 09.12.2019
6499 Clear 3 1013 22 0 1.79 273 04:20 09.12.2019
6500 Clear 4 1014 60 0 1.15 334 02:27 09.12.2019
6501 Clouds 4 1014 20 0 2.24 77 01:44 09.12.2019
6502 Clouds 5 1014 29 0 2.98 8 00:53 09.12.2019
6503 Clouds 5 1014 28 0 1.79 52 00:32 09.12.2019
6504 Clouds 5 1014 49 0 1.79 8 23:44 08.12.2019
6505 Rain 5 1014 55 0 1.34 7 23:24 08.12.2019
6506 Rain 6 1014 76 0 0.89 150 22:58 08.12.2019
6507 Rain 6 1015 83 0 2.24 276 22:39 08.12.2019
6508 Rain 6 1015 92 0 1.34 17 22:20 08.12.2019
6509 Rain 6 1015 88 0 2.24 4 21:59 08.12.2019
6510 Rain 6 1015 91 0 1.34 41 21:40 08.12.2019
6511 Rain 6 1015 89 0 2.24 359 21:22 08.12.2019
6512 Rain 6 1014 92 0 0.89 21 20:57 08.12.2019
6513 Rain 6 1015 89 0 0.89 24 20:39 08.12.2019
6514 Rain 6 1015 91 0 1.79 17 20:21 08.12.2019
6515 Clouds 6 1015 92 0 1.34 343 19:59 08.12.2019
6516 Clouds 6 1015 89 0 2.89 7 19:41 08.12.2019
6517 Clouds 7 1015 87 0 2.89 7 19:23 08.12.2019
6518 Clouds 6 1015 79 0 1.79 359 18:55 08.12.2019
6519 Clouds 5 1014 78 0 1.34 14 18:55 08.12.2019
6520 Clouds 5 1014 74 0 0.45 1 18:37 08.12.2019
6521 Clouds 6 1019 75 10000 2.1 240 18:19 08.12.2019
6522 Clouds 5 1019 75 10000 2.1 240 17:57 08.12.2019
6523 Clouds 6 1019 75 10000 2.1 240 17:38 08.12.2019
6524 Clouds 7 1019 75 10000 2.1 240 17:20 08.12.2019
6525 Clouds 7 1019 75 10000 2.1 240 17:20 08.12.2019
6526 Clouds 7 1019 75 10000 2.1 240 17:20 08.12.2019
6527 Clouds 7 1019 75 10000 2.1 240 17:20 08.12.2019
6528 Clouds 8 1019 65 10000 2.6 240 16:57 08.12.2019
6529 Clouds 9 1019 66 10000 2.1 220 16:39 08.12.2019
6530 Clouds 9 1019 66 10000 2.1 220 16:20 08.12.2019
6531 Clouds 9 1019 57 10000 2.6 220 15:56 08.12.2019
6532 Clouds 10 1019 57 10000 2.6 220 15:36 08.12.2019
6533 Clouds 10 1019 57 10000 2.1 210 15:18 08.12.2019
6534 Clouds 10 1019 53 10000 1.5 200 14:43 08.12.2019
6535 Clouds 11 1020 57 10000 1 0 14:24 08.12.2019
6536 Clouds 10 1020 57 10000 1 0 14:24 08.12.2019
6537 Clear 11 1020 57 10000 1 0 13:59 08.12.2019
6538 Clear 11 1020 57 10000 1 0 13:40 08.12.2019
6539 Clear 10 1021 61 10000 1 0 13:21 08.12.2019
6540 Clear 10 1022 70 10000 1 0 12:56 08.12.2019
6541 Clear 10 1022 70 10000 1 0 12:38 08.12.2019
6542 Clear 10 1022 70 10000 1 0 12:18 08.12.2019
6543 Clear 11 1023 80 10000 1 0 11:56 08.12.2019
6544 Clear 9 1023 53 10000 1 0 11:37 08.12.2019
6545 Clear 5 1023 55 10000 1 0 11:19 08.12.2019
6546 Clear 5 1023 55 10000 1 0 11:19 08.12.2019
6547 Clear 5 1023 55 10000 1 0 11:19 08.12.2019
6548 Clouds 4 1023 100 10000 0.5 0 10:39 08.12.2019
6549 Clouds 4 1023 100 10000 0.5 0 10:21 08.12.2019
6550 Fog 3 1023 55 10000 1 40 09:58 08.12.2019
6551 Fog 2 1024 100 10000 1 350 09:39 08.12.2019
6552 Fog 2 1024 100 10000 1 350 09:20 08.12.2019
6553 Clear 2 1016 46 0 0.35 65 08:59 08.12.2019
6554 Clear 2 1016 48 0 0.35 65 08:39 08.12.2019
6555 Clear 0 1016 43 0 1.33 14 08:21 08.12.2019
6556 Clear 1 1016 53 0 1.33 18 07:44 08.12.2019
6557 Clear 1 1016 65 0 1.33 18 07:20 08.12.2019
6558 Clear 1 1015 38 0 1.33 18 06:51 08.12.2019
6559 Clear 1 1015 35 0 1.33 18 06:23 08.12.2019
6560 Clear 1 1015 38 0 1.33 18 05:51 08.12.2019
6561 Clear 1 1015 47 0 1.28 16 05:18 08.12.2019
6562 Clear 2 1016 50 0 1.28 16 03:51 08.12.2019
6563 Clear 2 1016 51 0 1.28 16 03:26 08.12.2019
6564 Clear 2 1016 61 0 1.28 16 02:40 08.12.2019
6565 Clear 3 1017 88 0 0.93 36 01:56 08.12.2019
6566 Clouds 3 1017 89 0 1.2 39 01:27 08.12.2019
6567 Clear 3 1017 89 0 0.93 36 01:27 08.12.2019
6568 Clouds 3 1024 75 0 1.2 39 00:40 08.12.2019
6569 Clouds 3 1017 55 0 0.45 198 00:21 08.12.2019
6570 Clouds 3 1017 74 0 1.79 173 23:42 07.12.2019
6571 Clouds 3 1017 55 0 2.24 203 23:21 07.12.2019
6572 Clouds 3 1017 60 0 2.16 26 22:58 07.12.2019
6573 Clouds 4 1017 59 0 2.16 26 22:40 07.12.2019
6574 Clouds 3 1024 72 0 2.16 26 22:40 07.12.2019
6575 Clouds 3 1024 72 0 2.16 26 22:40 07.12.2019
6576 Clouds 4 1017 59 0 2.16 26 22:40 07.12.2019
6577 Clouds 4 1017 70 0 2.16 26 22:40 07.12.2019
6578 Clouds 4 1017 75 0 2.16 26 22:22 07.12.2019
6579 Clouds 4 1024 70 0 2.16 26 21:56 07.12.2019
6580 Clouds 4 1024 69 0 2.16 26 21:38 07.12.2019
6581 Clouds 4 1017 76 0 2.16 26 21:19 07.12.2019
6582 Clouds 4 1024 69 0 2.16 26 20:59 07.12.2019
6583 Clouds 4 1017 82 0 2.16 26 20:36 07.12.2019
6584 Clouds 4 1017 83 0 1.72 22 20:18 07.12.2019
6585 Clouds 4 1023 68 0 1.72 22 19:56 07.12.2019
6586 Clouds 4 1017 80 0 1.72 22 19:38 07.12.2019
6587 Clouds 4 1023 67 0 1.72 22 19:20 07.12.2019
6588 Clouds 5 1025 40 0 1.72 22 18:44 07.12.2019
6589 Clouds 6 1022 61 10000 1.5 300 18:20 07.12.2019
6590 Clouds 6 1022 61 10000 1.5 300 17:58 07.12.2019
6591 Clouds 6 1022 61 10000 1.5 300 17:40 07.12.2019
6592 Clear 8 1022 61 10000 1.5 300 17:21 07.12.2019
6593 Clear 9 1022 50 10000 1 0 16:56 07.12.2019
6594 Clear 9 1022 50 10000 1 0 16:38 07.12.2019
6595 Clear 10 1021 53 10000 1 0 16:19 07.12.2019
6596 Clear 11 1021 53 10000 1 0 15:56 07.12.2019
6597 Clear 12 1022 57 10000 1 0 15:38 07.12.2019
6598 Clear 12 1022 57 10000 1 0 15:18 07.12.2019
6599 Clear 12 1022 57 10000 1 0 15:18 07.12.2019
6600 Clear 12 1022 57 10000 0.5 0 14:42 07.12.2019
6601 Clear 11 1023 57 10000 1.5 110 14:19 07.12.2019
6602 Clear 11 1023 61 10000 1 0 13:41 07.12.2019
6603 Clear 10 1023 70 10000 1 0 13:21 07.12.2019
6604 Clear 10 1023 72 0 1.02 221 12:59 07.12.2019
6605 Clear 10 1024 75 10000 1 0 12:40 07.12.2019
6606 Clear 9 1024 75 10000 1 0 12:22 07.12.2019
6607 Fog 8 1025 86 10000 0.5 0 11:58 07.12.2019
6608 Fog 8 1025 86 10000 1.5 70 11:40 07.12.2019
6609 Fog 6 1025 86 10000 1.5 70 11:21 07.12.2019
6610 Fog 4 1025 93 10000 1 0 10:38 07.12.2019
6611 Fog 3 1025 100 10000 1 350 10:19 07.12.2019
6612 Fog 3 1025 63 10000 1 350 09:56 07.12.2019
6613 Fog 2 1025 100 10000 1.5 20 09:36 07.12.2019
6614 Fog 1 1025 100 10000 1.5 20 09:18 07.12.2019
6615 Clear 1 1024 77 0 1.41 29 08:40 07.12.2019
6616 Clear 0 1024 80 0 2.46 29 08:21 07.12.2019
6617 Clear 1 1016 84 0 2.46 29 07:45 07.12.2019
6618 Clear 1 1024 82 0 2.46 29 07:26 07.12.2019
6619 Clear 1 1016 79 0 2.46 29 06:50 07.12.2019
6620 Clear 1 1015 70 0 2.46 29 06:25 07.12.2019
6621 Clear 1 1015 70 0 2.46 29 06:25 07.12.2019
6622 Clear 1 1015 70 0 2.46 29 05:34 07.12.2019
6623 Clear 1 1024 87 0 2.1 36 03:59 07.12.2019
6624 Clear 2 1016 89 0 2.1 36 03:40 07.12.2019
6625 Clouds 2 1016 92 0 2.17 24 02:21 07.12.2019
6626 Clouds 2 1016 91 0 2.17 24 01:34 07.12.2019
6627 Clouds 2 1016 91 0 2.17 24 01:34 07.12.2019
6628 Clouds 2 1016 82 0 1.98 22 00:53 07.12.2019
6629 Clouds 2 1017 76 0 1.98 22 00:20 07.12.2019
6630 Clouds 3 1016 77 0 1.98 22 23:56 06.12.2019
6631 Clouds 2 1016 80 0 1.98 22 23:36 06.12.2019
6632 Clouds 2 1016 83 0 1.19 24 23:18 06.12.2019
6633 Clouds 2 1016 88 0 1.19 24 22:38 06.12.2019
6634 Clouds 3 1016 85 0 1.19 24 22:19 06.12.2019
6635 Clouds 3 1023 86 0 1.19 24 21:57 06.12.2019
6636 Clouds 3 1015 80 0 1.19 24 21:38 06.12.2019
6637 Clouds 3 1016 93 0 1.19 24 21:19 06.12.2019
6638 Clouds 4 1023 84 0 1.19 24 20:42 06.12.2019
6639 Clouds 4 1023 84 0 1.19 24 20:42 06.12.2019
6640 Clouds 5 1022 76 0 1.07 7 20:23 06.12.2019
6641 Clouds 5 1024 46 0 1.07 7 19:59 06.12.2019
6642 Clouds 5 1022 94 0 1.07 7 19:40 06.12.2019
6643 Clouds 6 1023 82 0 1.07 7 19:21 06.12.2019
6644 Clouds 6 1023 82 0 1.07 7 19:21 06.12.2019
6645 Clouds 6 1024 40 0 1.07 7 18:55 06.12.2019
6646 Clouds 7 1020 88 0 1.07 7 18:37 06.12.2019
6647 Clouds 7 1021 61 10000 2.1 290 18:19 06.12.2019
6648 Clouds 9 1021 61 10000 2.1 290 17:55 06.12.2019
6649 Clouds 9 1021 61 10000 2.1 290 17:55 06.12.2019
6650 Clouds 8 1021 61 10000 2.1 290 17:37 06.12.2019
6651 Clouds 8 1021 61 10000 2.1 290 17:19 06.12.2019
6652 Clouds 9 1021 62 10000 2.1 220 16:42 06.12.2019
6653 Clouds 10 1021 57 10000 1.5 190 16:24 06.12.2019
6654 Clouds 10 1021 57 10000 1.5 180 15:57 06.12.2019
6655 Clouds 11 1021 57 10000 1.5 180 15:39 06.12.2019
6656 Clouds 11 1021 53 10000 1 0 15:18 06.12.2019
6657 Clouds 11 1022 57 10000 1.5 130 14:55 06.12.2019
6658 Clouds 9 1022 57 10000 1.5 130 14:37 06.12.2019
6659 Clear 11 1022 57 10000 1.5 180 14:18 06.12.2019
6660 Clear 11 1023 61 10000 1 0 13:42 06.12.2019
6661 Clouds 10 1023 66 10000 0.5 0 13:23 06.12.2019
6662 Clouds 10 1024 70 10000 0.5 0 12:41 06.12.2019
6663 Clouds 10 1025 70 10000 1 0 12:22 06.12.2019
6664 Clouds 7 1025 75 10000 1.59 224 11:55 06.12.2019
6665 Clouds 7 1025 75 10000 1.59 224 11:37 06.12.2019
6666 Clouds 6 1025 80 10000 0.5 0 11:19 06.12.2019
6667 Clouds 5 1025 86 10000 2.1 70 10:42 06.12.2019
6668 Clear 4 1025 100 10000 1.5 50 10:21 06.12.2019
6669 Clear 4 1025 93 10000 1.5 50 09:57 06.12.2019
6670 Clear 3 1025 100 10000 1 20 09:37 06.12.2019
6671 Clear 2 1025 100 10000 1 20 09:19 06.12.2019
6672 Clear 3 1026 79 0 0.34 304 08:44 06.12.2019
6673 Clear 3 1026 79 0 0.34 304 08:44 06.12.2019
6674 Clear 3 1026 79 0 0.34 304 08:44 06.12.2019
6675 Clear 2 1016 94 0 1.05 27 08:25 06.12.2019
6676 Clear 2 1015 90 0 1.05 27 07:44 06.12.2019
6677 Clear 2 1015 92 0 1.05 27 07:23 06.12.2019
6678 Clear 2 1023 86 0 1.05 27 06:55 06.12.2019
6679 Clear 2 1015 90 0 1.05 27 06:26 06.12.2019
6680 Clear 2 1015 91 0 1.05 27 05:52 06.12.2019
6681 Clear 3 1015 93 0 0.72 43 04:34 06.12.2019
6682 Clouds 3 1015 94 0 1.61 47 01:48 06.12.2019
6683 Clouds 3 1015 94 0 1.61 47 01:48 06.12.2019
6684 Clouds 3 1022 82 0 1.06 69 00:57 06.12.2019
6685 Clouds 4 1016 95 0 1.06 69 00:37 06.12.2019
6686 Clouds 4 1016 95 0 1.06 69 00:19 06.12.2019
6687 Clouds 4 1022 81 0 2.54 35 23:21 05.12.2019
6688 Clouds 4 1016 95 0 2.54 35 22:59 05.12.2019
6689 Clouds 5 1026 54 0 2.54 35 22:39 05.12.2019
6690 Clouds 5 1016 94 0 2.54 35 22:20 05.12.2019
6691 Clouds 5 1016 94 0 2.54 35 22:20 05.12.2019
6692 Clouds 5 1021 80 0 2.54 35 21:58 05.12.2019
6693 Clouds 6 1026 50 0 2.54 35 21:40 05.12.2019
6694 Clouds 6 1026 50 0 2.54 35 21:22 05.12.2019
6695 Clouds 6 1026 51 0 2.54 35 20:58 05.12.2019
6696 Clouds 6 1026 50 0 2.54 35 20:39 05.12.2019
6697 Clouds 6 1026 49 0 2.13 42 20:19 05.12.2019
6698 Clouds 7 1025 48 0 2.13 42 19:43 05.12.2019
6699 Clouds 7 1025 48 0 2.13 42 19:25 05.12.2019
6700 Clouds 5 1015 93 0 2.13 42 18:59 05.12.2019
6701 Clouds 4 1015 92 0 2.13 42 18:39 05.12.2019
6702 Clouds 7 1020 57 10000 2.1 30 18:20 05.12.2019
6703 Clouds 6 1020 57 10000 2.1 30 17:56 05.12.2019
6704 Clouds 6 1020 57 10000 2.1 30 17:37 05.12.2019
6705 Clouds 9 1020 53 10000 3.1 360 17:18 05.12.2019
6706 Clouds 9 1020 53 10000 3.6 60 16:40 05.12.2019
6707 Clouds 9 1020 53 10000 3.6 60 16:40 05.12.2019
6708 Clouds 9 1020 53 10000 3.6 60 16:22 05.12.2019
6709 Clouds 10 1020 53 10000 4.1 40 15:58 05.12.2019
6710 Clouds 9 1020 88 10000 5.1 30 15:40 05.12.2019
6711 Clouds 9 1020 88 10000 5.1 30 15:20 05.12.2019
6712 Clouds 9 1019 53 10000 7.2 40 14:56 05.12.2019
6713 Clouds 10 1019 53 10000 7.7 40 14:38 05.12.2019
6714 Clouds 10 1019 53 10000 7.7 40 14:20 05.12.2019
6715 Clouds 10 1019 53 10000 8.7 50 13:58 05.12.2019
6716 Clouds 9 1019 57 10000 8.2 50 13:39 05.12.2019
6717 Clouds 9 1019 57 10000 8.2 50 13:21 05.12.2019
6718 Clouds 9 1019 57 10000 6.7 50 12:58 05.12.2019
6719 Clouds 9 1019 57 10000 7.2 50 12:39 05.12.2019
6720 Clouds 9 1019 57 10000 7.2 50 12:21 05.12.2019
6721 Clouds 7 1019 66 10000 6.2 50 11:40 05.12.2019
6722 Clouds 8 1019 66 10000 6.2 50 11:22 05.12.2019
6723 Clouds 7 1019 70 10000 4.1 40 10:58 05.12.2019
6724 Rain 7 1018 75 10000 2.1 30 10:40 05.12.2019
6725 Rain 7 1018 75 10000 2.1 30 10:19 05.12.2019
6726 Rain 7 1018 81 10000 1.5 350 09:56 05.12.2019
6727 Rain 7 1018 75 10000 1.5 340 09:38 05.12.2019
6728 Rain 6 1018 75 10000 1.5 340 09:19 05.12.2019
6729 Rain 6 1023 83 0 2.73 28 08:54 05.12.2019
6730 Rain 6 1017 73 0 0.45 129 08:36 05.12.2019
6731 Clouds 6 1014 77 0 4.02 68 08:18 05.12.2019
6732 Clouds 6 1022 82 0 2.8 44 07:40 05.12.2019
6733 Clouds 6 1022 82 0 2.8 44 07:21 05.12.2019
6734 Clouds 5 1010 95 0 2.8 44 06:47 05.12.2019
6735 Clouds 5 1009 95 0 2.8 44 06:23 05.12.2019
6736 Clouds 5 1009 95 0 2.8 44 05:53 05.12.2019
6737 Clouds 6 1009 95 0 2.8 44 05:24 05.12.2019
6738 Clouds 6 1009 95 0 3.62 34 04:33 05.12.2019
6739 Clouds 5 1008 95 0 3.62 34 03:33 05.12.2019
6740 Clouds 5 1008 95 0 3.62 34 02:41 05.12.2019
6741 Rain 6 1018 78 0 2.99 36 02:21 05.12.2019
6742 Rain 6 1018 78 0 2.99 36 01:49 05.12.2019
6743 Snow 6 1018 78 0 2.97 38 01:22 05.12.2019
6744 Snow 6 1018 76 0 2.97 38 00:38 05.12.2019
6745 Snow 6 1018 75 0 2.97 38 00:20 05.12.2019
6746 Snow 6 1018 75 0 2.97 38 00:20 05.12.2019
6747 Snow 6 1016 94 0 2.97 38 23:45 04.12.2019
6748 Snow 6 1018 73 0 2.39 47 23:22 04.12.2019
6749 Snow 6 1018 73 0 2.39 47 22:57 04.12.2019
6750 Snow 6 1018 72 0 2.39 47 22:37 04.12.2019
6751 Snow 6 1018 72 0 2.39 47 22:19 04.12.2019
6752 Snow 6 1018 72 0 2.39 47 21:56 04.12.2019
6753 Snow 6 1018 70 0 2.39 47 21:37 04.12.2019
6754 Snow 6 1018 70 0 2.39 47 21:18 04.12.2019
6755 Snow 6 1018 69 0 2.39 47 20:56 04.12.2019
6756 Snow 6 1018 64 0 2.39 47 20:38 04.12.2019
6757 Clouds 5 1006 94 0 3.73 32 20:19 04.12.2019
6758 Clouds 6 1005 95 0 3.73 32 19:40 04.12.2019
6759 Clouds 6 1005 95 0 3.73 32 19:22 04.12.2019
6760 Clouds 7 1017 55 0 3.73 32 18:59 04.12.2019
6761 Clouds 6 1005 95 0 3.73 32 18:40 04.12.2019
6762 Clouds 5 1005 95 0 3.73 32 18:22 04.12.2019
6763 Clouds 6 1005 94 0 3.73 32 17:57 04.12.2019
6764 Clouds 5 1004 93 0 3.73 32 17:38 04.12.2019
6765 Clouds 7 1011 64 0 2.97 47 17:18 04.12.2019
6766 Clouds 7 1016 38 0 2.97 47 16:40 04.12.2019
6767 Clouds 7 1016 38 0 2.97 47 16:40 04.12.2019
6768 Clouds 7 1011 62 0 2.97 47 16:20 04.12.2019
6769 Clouds 6 1004 92 0 2.97 47 15:57 04.12.2019
6770 Clouds 7 1010 61 0 2.97 47 15:39 04.12.2019
6771 Clouds 8 1010 63 0 2.97 47 15:20 04.12.2019
6772 Clouds 6 1004 94 0 2.97 47 14:57 04.12.2019
6773 Clouds 6 1004 94 0 2.97 47 14:57 04.12.2019
6774 Clouds 6 1004 95 0 2.97 47 14:39 04.12.2019
6775 Clouds 8 1010 64 0 1.75 81 14:20 04.12.2019
6776 Clouds 8 1016 40 0 1.75 81 13:39 04.12.2019
6777 Clouds 8 1016 42 0 1.75 81 13:21 04.12.2019
6778 Clouds 8 1011 70 0 2.2 60 12:59 04.12.2019
6779 Clouds 8 1011 72 0 2.2 60 12:41 04.12.2019
6780 Clouds 8 1012 71 0 2.2 60 12:23 04.12.2019
6781 Clouds 8 1012 71 0 2.2 60 11:43 04.12.2019
6782 Clouds 6 1005 81 0 2.2 60 11:24 04.12.2019
6783 Clouds 6 1005 81 0 2.2 60 11:24 04.12.2019
6784 Clouds 4 1005 80 0 2.23 82 10:57 04.12.2019
6785 Clouds 3 1005 80 0 2.23 82 10:39 04.12.2019
6786 Clouds 3 1005 80 0 2.23 82 10:21 04.12.2019
6787 Clouds 7 1013 75 0 2.23 82 09:42 04.12.2019
6788 Clouds 7 1013 74 0 2.23 82 09:23 04.12.2019
6789 Clouds 7 1013 70 0 2.23 82 08:43 04.12.2019
6790 Clouds 1 1005 88 0 0.45 186 08:25 04.12.2019
6791 Clouds 1 1005 85 0 3.08 55 07:51 04.12.2019
6792 Clouds 1 1005 85 0 0.89 222 07:31 04.12.2019
6793 Clouds 1 1005 83 0 3.08 55 06:57 04.12.2019
6794 Clouds 1 1005 86 0 0.89 150 06:31 04.12.2019
6795 Clouds 1 1005 83 0 0.89 198 05:46 04.12.2019
6796 Clouds 1 1006 70 0 2.08 54 04:34 04.12.2019
6797 Clouds 1 1007 70 0 2.08 54 03:47 04.12.2019
6798 Clouds 1 1008 71 0 1.71 76 01:34 04.12.2019
6799 Clouds 2 1009 73 0 1.71 76 00:47 04.12.2019
6800 Clouds 1 1009 75 0 1.71 76 00:20 04.12.2019
6801 Clouds 1 1009 86 0 1.71 76 23:41 03.12.2019
6802 Clouds 1 1009 86 0 1.52 85 23:20 03.12.2019
6803 Clouds 1 1009 89 0 1.52 85 22:57 03.12.2019
6804 Clouds 2 1009 90 0 1.52 85 22:38 03.12.2019
6805 Clouds 1 1009 91 0 1.52 85 22:18 03.12.2019
6806 Clouds 1 1009 89 0 1.52 85 21:55 03.12.2019
6807 Clouds 1 1009 86 0 1.52 85 21:36 03.12.2019
6808 Clouds 2 1009 89 0 1.79 205 21:18 03.12.2019
6809 Clouds 2 1009 84 0 0.45 186 20:41 03.12.2019
6810 Clouds 2 1009 77 0 1.49 94 20:19 03.12.2019
6811 Clouds 2 1009 87 0 1.49 94 19:56 03.12.2019
6812 Clouds 3 1009 73 0 1.49 94 19:38 03.12.2019
6813 Clouds 3 1009 83 0 1.49 94 19:20 03.12.2019
6814 Clouds 3 1020 42 0 1.49 94 18:57 03.12.2019
6815 Clouds -1 1009 87 0 1.49 94 18:39 03.12.2019
6816 Clouds -1 1009 69 0 1.49 94 18:21 03.12.2019
6817 Clouds -1 1009 76 0 0.45 191 17:57 03.12.2019